﻿<?xml version="1.0" encoding="utf-8"?><gpx creator="Garmin Desktop App" version="1.1" xsi:schemaLocation="http://www.topografix.com/GPX/1/1 http://www.topografix.com/GPX/1/1/gpx.xsd http://www.garmin.com/xmlschemas/WaypointExtension/v1 http://www8.garmin.com/xmlschemas/WaypointExtensionv1.xsd http://www.garmin.com/xmlschemas/TrackPointExtension/v1 http://www.garmin.com/xmlschemas/TrackPointExtensionv1.xsd http://www.garmin.com/xmlschemas/GpxExtensions/v3 http://www8.garmin.com/xmlschemas/GpxExtensionsv3.xsd http://www.garmin.com/xmlschemas/ActivityExtension/v1 http://www8.garmin.com/xmlschemas/ActivityExtensionv1.xsd http://www.garmin.com/xmlschemas/AdventuresExtensions/v1 http://www8.garmin.com/xmlschemas/AdventuresExtensionv1.xsd http://www.garmin.com/xmlschemas/PressureExtension/v1 http://www.garmin.com/xmlschemas/PressureExtensionv1.xsd http://www.garmin.com/xmlschemas/TripExtensions/v1 http://www.garmin.com/xmlschemas/TripExtensionsv1.xsd http://www.garmin.com/xmlschemas/TripMetaDataExtensions/v1 http://www.garmin.com/xmlschemas/TripMetaDataExtensionsv1.xsd http://www.garmin.com/xmlschemas/ViaPointTransportationModeExtensions/v1 http://www.garmin.com/xmlschemas/ViaPointTransportationModeExtensionsv1.xsd http://www.garmin.com/xmlschemas/CreationTimeExtension/v1 http://www.garmin.com/xmlschemas/CreationTimeExtensionsv1.xsd http://www.garmin.com/xmlschemas/AccelerationExtension/v1 http://www.garmin.com/xmlschemas/AccelerationExtensionv1.xsd http://www.garmin.com/xmlschemas/PowerExtension/v1 http://www.garmin.com/xmlschemas/PowerExtensionv1.xsd http://www.garmin.com/xmlschemas/VideoExtension/v1 http://www.garmin.com/xmlschemas/VideoExtensionv1.xsd" xmlns="http://www.topografix.com/GPX/1/1" xmlns:xsi="http://www.w3.org/2001/XMLSchema-instance" xmlns:wptx1="http://www.garmin.com/xmlschemas/WaypointExtension/v1" xmlns:gpxtrx="http://www.garmin.com/xmlschemas/GpxExtensions/v3" xmlns:gpxtpx="http://www.garmin.com/xmlschemas/TrackPointExtension/v1" xmlns:gpxx="http://www.garmin.com/xmlschemas/GpxExtensions/v3" xmlns:trp="http://www.garmin.com/xmlschemas/TripExtensions/v1" xmlns:adv="http://www.garmin.com/xmlschemas/AdventuresExtensions/v1" xmlns:prs="http://www.garmin.com/xmlschemas/PressureExtension/v1" xmlns:tmd="http://www.garmin.com/xmlschemas/TripMetaDataExtensions/v1" xmlns:vptm="http://www.garmin.com/xmlschemas/ViaPointTransportationModeExtensions/v1" xmlns:ctx="http://www.garmin.com/xmlschemas/CreationTimeExtension/v1" xmlns:gpxacc="http://www.garmin.com/xmlschemas/AccelerationExtension/v1" xmlns:gpxpx="http://www.garmin.com/xmlschemas/PowerExtension/v1" xmlns:vidx1="http://www.garmin.com/xmlschemas/VideoExtension/v1">

  <metadata>
    <link href="http://www.garmin.com">
      <text>Garmin International</text>
    </link>
    <time>2019-09-07T16:27:06Z</time>
    <bounds maxlat="56.133396998047829" maxlon="-1.449604975059629" minlat="54.991226987913251" minlon="-4.452999969944358" />
  </metadata>

  <trk>
    <name>Track vom: 2019-09-07 09:19</name>
    <extensions>
      <gpxx:TrackExtension>
        <gpxx:DisplayColor>DarkGray</gpxx:DisplayColor>
      </gpxx:TrackExtension>
    </extensions>
    <trkseg>
      <trkpt lat="56.063261004164815" lon="-4.452094975858927">
        <ele>46.280000000000001</ele>
        <time>2019-09-07T08:19:36Z</time>
      </trkpt>
      <trkpt lat="56.063248012214899" lon="-4.452088018879294">
        <ele>46.280000000000001</ele>
        <time>2019-09-07T08:20:15Z</time>
      </trkpt>
      <trkpt lat="56.063253963366151" lon="-4.452068991959095">
        <ele>45.799999999999997</ele>
        <time>2019-09-07T08:20:42Z</time>
      </trkpt>
      <trkpt lat="56.063199983909726" lon="-4.452105034142733">
        <ele>45.32</ele>
        <time>2019-09-07T08:21:00Z</time>
      </trkpt>
      <trkpt lat="56.063199983909726" lon="-4.452087013050914">
        <ele>45.799999999999997</ele>
        <time>2019-09-07T08:21:14Z</time>
      </trkpt>
      <trkpt lat="56.063151033595204" lon="-4.452265966683626">
        <ele>44.359999999999999</ele>
        <time>2019-09-07T08:21:27Z</time>
      </trkpt>
      <trkpt lat="56.063151033595204" lon="-4.452265966683626">
        <ele>43.880000000000003</ele>
        <time>2019-09-07T08:22:10Z</time>
      </trkpt>
      <trkpt lat="56.063151033595204" lon="-4.452265966683626">
        <ele>43.880000000000003</ele>
        <time>2019-09-07T08:22:58Z</time>
      </trkpt>
      <trkpt lat="56.063151033595204" lon="-4.452265966683626">
        <ele>43.880000000000003</ele>
        <time>2019-09-07T08:23:45Z</time>
      </trkpt>
      <trkpt lat="56.063151033595204" lon="-4.452265966683626">
        <ele>43.880000000000003</ele>
        <time>2019-09-07T08:24:27Z</time>
      </trkpt>
      <trkpt lat="56.063151033595204" lon="-4.452265966683626">
        <ele>43.880000000000003</ele>
        <time>2019-09-07T08:25:16Z</time>
      </trkpt>
      <trkpt lat="56.063151033595204" lon="-4.452265966683626">
        <ele>44.359999999999999</ele>
        <time>2019-09-07T08:25:42Z</time>
      </trkpt>
      <trkpt lat="56.063045002520084" lon="-4.452306032180786">
        <ele>44.359999999999999</ele>
        <time>2019-09-07T08:25:43Z</time>
      </trkpt>
      <trkpt lat="56.063028993085027" lon="-4.452311983332038">
        <ele>44.840000000000003</ele>
        <time>2019-09-07T08:25:44Z</time>
      </trkpt>
      <trkpt lat="56.063028993085027" lon="-4.452311983332038">
        <ele>44.840000000000003</ele>
        <time>2019-09-07T08:25:57Z</time>
      </trkpt>
      <trkpt lat="56.062976019456983" lon="-4.452332016080618">
        <ele>44.840000000000003</ele>
        <time>2019-09-07T08:25:59Z</time>
      </trkpt>
      <trkpt lat="56.06295196339488" lon="-4.452340984717012">
        <ele>44.359999999999999</ele>
        <time>2019-09-07T08:26:00Z</time>
      </trkpt>
      <trkpt lat="56.062903013080359" lon="-4.452360011637211">
        <ele>44.359999999999999</ele>
        <time>2019-09-07T08:26:01Z</time>
      </trkpt>
      <trkpt lat="56.06273696757853" lon="-4.45242203772068">
        <ele>42.920000000000002</ele>
        <time>2019-09-07T08:26:03Z</time>
      </trkpt>
      <trkpt lat="56.06170498766005" lon="-4.452961999922991">
        <ele>34.740000000000002</ele>
        <time>2019-09-07T08:26:12Z</time>
      </trkpt>
      <trkpt lat="56.061576995998621" lon="-4.452968034893274">
        <ele>33.780000000000001</ele>
        <time>2019-09-07T08:26:13Z</time>
      </trkpt>
      <trkpt lat="56.06095002964139" lon="-4.452999969944358">
        <ele>28.02</ele>
        <time>2019-09-07T08:26:18Z</time>
      </trkpt>
      <trkpt lat="56.060308981686831" lon="-4.452719008550048">
        <ele>20.809999999999999</ele>
        <time>2019-09-07T08:26:25Z</time>
      </trkpt>
      <trkpt lat="56.060188030824065" lon="-4.45259696803987">
        <ele>18.879999999999999</ele>
        <time>2019-09-07T08:26:27Z</time>
      </trkpt>
      <trkpt lat="56.060121981427073" lon="-4.45253100246191">
        <ele>17.920000000000002</ele>
        <time>2019-09-07T08:26:28Z</time>
      </trkpt>
      <trkpt lat="56.060111001133919" lon="-4.452504012733698">
        <ele>16.960000000000001</ele>
        <time>2019-09-07T08:26:29Z</time>
      </trkpt>
      <trkpt lat="56.060080993920565" lon="-4.452431006357074">
        <ele>15.52</ele>
        <time>2019-09-07T08:26:31Z</time>
      </trkpt>
      <trkpt lat="56.060066996142268" lon="-4.452396975830197">
        <ele>14.56</ele>
        <time>2019-09-07T08:26:32Z</time>
      </trkpt>
      <trkpt lat="56.060004970058799" lon="-4.452245011925697">
        <ele>9.75</ele>
        <time>2019-09-07T08:26:42Z</time>
      </trkpt>
      <trkpt lat="56.060004970058799" lon="-4.452245011925697">
        <ele>9.75</ele>
        <time>2019-09-07T08:26:48Z</time>
      </trkpt>
      <trkpt lat="56.060040006414056" lon="-4.451858019456267">
        <ele>9.27</ele>
        <time>2019-09-07T08:26:49Z</time>
      </trkpt>
      <trkpt lat="56.060117958113551" lon="-4.451809991151094">
        <ele>7.83</ele>
        <time>2019-09-07T08:26:55Z</time>
      </trkpt>
      <trkpt lat="56.060184007510543" lon="-4.451770009472966">
        <ele>7.83</ele>
        <time>2019-09-07T08:26:56Z</time>
      </trkpt>
      <trkpt lat="56.060923961922526" lon="-4.451317973434925">
        <ele>10.710000000000001</ele>
        <time>2019-09-07T08:27:02Z</time>
      </trkpt>
      <trkpt lat="56.062375036999583" lon="-4.450015006586909">
        <ele>22.73</ele>
        <time>2019-09-07T08:27:11Z</time>
      </trkpt>
      <trkpt lat="56.063340967521071" lon="-4.448802983388305">
        <ele>34.259999999999998</ele>
        <time>2019-09-07T08:27:19Z</time>
      </trkpt>
      <trkpt lat="56.064403038471937" lon="-4.447056027129293">
        <ele>44.840000000000003</ele>
        <time>2019-09-07T08:27:29Z</time>
      </trkpt>
      <trkpt lat="56.065427977591753" lon="-4.445317033678293">
        <ele>51.57</ele>
        <time>2019-09-07T08:27:40Z</time>
      </trkpt>
      <trkpt lat="56.066432967782021" lon="-4.443612992763519">
        <ele>54.93</ele>
        <time>2019-09-07T08:27:51Z</time>
      </trkpt>
      <trkpt lat="56.067758984863758" lon="-4.441029019653797">
        <ele>63.100000000000001</ele>
        <time>2019-09-07T08:28:06Z</time>
      </trkpt>
      <trkpt lat="56.068500028923154" lon="-4.438569014891982">
        <ele>69.349999999999994</ele>
        <time>2019-09-07T08:28:17Z</time>
      </trkpt>
      <trkpt lat="56.068842010572553" lon="-4.436362981796265">
        <ele>73.200000000000003</ele>
        <time>2019-09-07T08:28:25Z</time>
      </trkpt>
      <trkpt lat="56.069191033020616" lon="-4.433883028104901">
        <ele>80.409999999999997</ele>
        <time>2019-09-07T08:28:35Z</time>
      </trkpt>
      <trkpt lat="56.069596968591213" lon="-4.431071989238262">
        <ele>83.769999999999996</ele>
        <time>2019-09-07T08:28:46Z</time>
      </trkpt>
      <trkpt lat="56.070064008235931" lon="-4.428018964827061">
        <ele>86.180000000000007</ele>
        <time>2019-09-07T08:28:58Z</time>
      </trkpt>
      <trkpt lat="56.070474972948432" lon="-4.425601959228516">
        <ele>83.769999999999996</ele>
        <time>2019-09-07T08:29:06Z</time>
      </trkpt>
      <trkpt lat="56.070974031463265" lon="-4.42266502417624">
        <ele>83.290000000000006</ele>
        <time>2019-09-07T08:29:15Z</time>
      </trkpt>
      <trkpt lat="56.071187015622854" lon="-4.421411007642746">
        <ele>83.290000000000006</ele>
        <time>2019-09-07T08:29:20Z</time>
      </trkpt>
      <trkpt lat="56.071725971996784" lon="-4.418396037071943">
        <ele>83.290000000000006</ele>
        <time>2019-09-07T08:29:31Z</time>
      </trkpt>
      <trkpt lat="56.072120005264878" lon="-4.416008032858372">
        <ele>83.290000000000006</ele>
        <time>2019-09-07T08:29:39Z</time>
      </trkpt>
      <trkpt lat="56.072373976930976" lon="-4.414445981383324">
        <ele>87.620000000000005</ele>
        <time>2019-09-07T08:29:45Z</time>
      </trkpt>
      <trkpt lat="56.072452012449503" lon="-4.414211036637425">
        <ele>88.579999999999998</ele>
        <time>2019-09-07T08:29:46Z</time>
      </trkpt>
      <trkpt lat="56.073145028203726" lon="-4.411868965253234">
        <ele>91.459999999999994</ele>
        <time>2019-09-07T08:29:55Z</time>
      </trkpt>
      <trkpt lat="56.073350971564651" lon="-4.409953029826284">
        <ele>89.540000000000006</ele>
        <time>2019-09-07T08:30:02Z</time>
      </trkpt>
      <trkpt lat="56.073465971276164" lon="-4.408000968396664">
        <ele>90.019999999999996</ele>
        <time>2019-09-07T08:30:10Z</time>
      </trkpt>
      <trkpt lat="56.073740981519222" lon="-4.405658980831504">
        <ele>92.420000000000002</ele>
        <time>2019-09-07T08:30:19Z</time>
      </trkpt>
      <trkpt lat="56.074222018942237" lon="-4.403420006856322">
        <ele>94.829999999999998</ele>
        <time>2019-09-07T08:30:26Z</time>
      </trkpt>
      <trkpt lat="56.074475990608335" lon="-4.402078986167908">
        <ele>95.310000000000002</ele>
        <time>2019-09-07T08:30:31Z</time>
      </trkpt>
      <trkpt lat="56.074729040265083" lon="-4.400586001574993">
        <ele>96.75</ele>
        <time>2019-09-07T08:30:37Z</time>
      </trkpt>
      <trkpt lat="56.075267996639013" lon="-4.398018959909678">
        <ele>99.629999999999995</ele>
        <time>2019-09-07T08:30:46Z</time>
      </trkpt>
      <trkpt lat="56.075825979933143" lon="-4.395628022029996">
        <ele>100.11</ele>
        <time>2019-09-07T08:30:54Z</time>
      </trkpt>
      <trkpt lat="56.075869984924793" lon="-4.394636023789644">
        <ele>100.59999999999999</ele>
        <time>2019-09-07T08:30:57Z</time>
      </trkpt>
      <trkpt lat="56.075806031003594" lon="-4.3936160299927">
        <ele>101.08</ele>
        <time>2019-09-07T08:31:00Z</time>
      </trkpt>
      <trkpt lat="56.075784992426634" lon="-4.393288968130946">
        <ele>101.56</ele>
        <time>2019-09-07T08:31:01Z</time>
      </trkpt>
      <trkpt lat="56.075764959678054" lon="-4.392977999523282">
        <ele>101.56</ele>
        <time>2019-09-07T08:31:02Z</time>
      </trkpt>
      <trkpt lat="56.075747022405267" lon="-4.392678011208773">
        <ele>101.56</ele>
        <time>2019-09-07T08:31:03Z</time>
      </trkpt>
      <trkpt lat="56.075742999091744" lon="-4.392383974045515">
        <ele>102.04000000000001</ele>
        <time>2019-09-07T08:31:04Z</time>
      </trkpt>
      <trkpt lat="56.075833020731807" lon="-4.390145000070334">
        <ele>102.04000000000001</ele>
        <time>2019-09-07T08:31:11Z</time>
      </trkpt>
      <trkpt lat="56.07616301625967" lon="-4.387721959501505">
        <ele>102.04000000000001</ele>
        <time>2019-09-07T08:31:19Z</time>
      </trkpt>
      <trkpt lat="56.076920991763473" lon="-4.385007983073592">
        <ele>100.59999999999999</ele>
        <time>2019-09-07T08:31:28Z</time>
      </trkpt>
      <trkpt lat="56.077875019982457" lon="-4.381773993372917">
        <ele>99.150000000000006</ele>
        <time>2019-09-07T08:31:38Z</time>
      </trkpt>
      <trkpt lat="56.078839022666216" lon="-4.378694985061884">
        <ele>97.230000000000004</ele>
        <time>2019-09-07T08:31:48Z</time>
      </trkpt>
      <trkpt lat="56.079645026475191" lon="-4.376280996948481">
        <ele>93.870000000000005</ele>
        <time>2019-09-07T08:31:54Z</time>
      </trkpt>
      <trkpt lat="56.08056896366179" lon="-4.37346400693059">
        <ele>89.540000000000006</ele>
        <time>2019-09-07T08:32:02Z</time>
      </trkpt>
      <trkpt lat="56.081628017127514" lon="-4.370858995243907">
        <ele>84.25</ele>
        <time>2019-09-07T08:32:11Z</time>
      </trkpt>
      <trkpt lat="56.08243603259325" lon="-4.369423007592559">
        <ele>79.450000000000003</ele>
        <time>2019-09-07T08:32:18Z</time>
      </trkpt>
      <trkpt lat="56.082512978464365" lon="-4.369304990395904">
        <ele>78.969999999999999</ele>
        <time>2019-09-07T08:32:19Z</time>
      </trkpt>
      <trkpt lat="56.082618003711104" lon="-4.369183033704758">
        <ele>78.969999999999999</ele>
        <time>2019-09-07T08:32:20Z</time>
      </trkpt>
      <trkpt lat="56.08271598815918" lon="-4.369158977642655">
        <ele>78.480000000000004</ele>
        <time>2019-09-07T08:32:21Z</time>
      </trkpt>
      <trkpt lat="56.0828220192343" lon="-4.369132993742824">
        <ele>78</ele>
        <time>2019-09-07T08:32:22Z</time>
      </trkpt>
      <trkpt lat="56.08359701000154" lon="-4.368956973776221">
        <ele>75.120000000000005</ele>
        <time>2019-09-07T08:32:30Z</time>
      </trkpt>
      <trkpt lat="56.083755008876324" lon="-4.368923027068377">
        <ele>74.640000000000001</ele>
        <time>2019-09-07T08:32:33Z</time>
      </trkpt>
      <trkpt lat="56.083794990554452" lon="-4.368913974612951">
        <ele>74.640000000000001</ele>
        <time>2019-09-07T08:32:34Z</time>
      </trkpt>
      <trkpt lat="56.083813011646271" lon="-4.36880199238658">
        <ele>74.640000000000001</ele>
        <time>2019-09-07T08:32:35Z</time>
      </trkpt>
      <trkpt lat="56.083815023303032" lon="-4.368721023201942">
        <ele>74.640000000000001</ele>
        <time>2019-09-07T08:32:36Z</time>
      </trkpt>
      <trkpt lat="56.083817034959793" lon="-4.368628989905119">
        <ele>74.640000000000001</ele>
        <time>2019-09-07T08:32:37Z</time>
      </trkpt>
      <trkpt lat="56.083818962797523" lon="-4.368517007678747">
        <ele>74.159999999999997</ele>
        <time>2019-09-07T08:32:38Z</time>
      </trkpt>
      <trkpt lat="56.083821980282664" lon="-4.368378035724163">
        <ele>74.159999999999997</ele>
        <time>2019-09-07T08:32:39Z</time>
      </trkpt>
      <trkpt lat="56.083829021081328" lon="-4.368037981912494">
        <ele>74.159999999999997</ele>
        <time>2019-09-07T08:32:41Z</time>
      </trkpt>
      <trkpt lat="56.083840001374483" lon="-4.367847964167595">
        <ele>74.159999999999997</ele>
        <time>2019-09-07T08:32:42Z</time>
      </trkpt>
      <trkpt lat="56.083879983052611" lon="-4.367669010534883">
        <ele>74.159999999999997</ele>
        <time>2019-09-07T08:32:43Z</time>
      </trkpt>
      <trkpt lat="56.0839600302279" lon="-4.367308001965284">
        <ele>74.640000000000001</ele>
        <time>2019-09-07T08:32:45Z</time>
      </trkpt>
      <trkpt lat="56.084033036604524" lon="-4.367164000868797">
        <ele>74.640000000000001</ele>
        <time>2019-09-07T08:32:46Z</time>
      </trkpt>
      <trkpt lat="56.084104031324387" lon="-4.367029974237084">
        <ele>74.640000000000001</ele>
        <time>2019-09-07T08:32:47Z</time>
      </trkpt>
      <trkpt lat="56.08417603187263" lon="-4.366894019767642">
        <ele>74.640000000000001</ele>
        <time>2019-09-07T08:32:48Z</time>
      </trkpt>
      <trkpt lat="56.084255995228887" lon="-4.366802992299199">
        <ele>74.159999999999997</ele>
        <time>2019-09-07T08:32:49Z</time>
      </trkpt>
      <trkpt lat="56.084345011040568" lon="-4.366707019507885">
        <ele>74.159999999999997</ele>
        <time>2019-09-07T08:32:50Z</time>
      </trkpt>
      <trkpt lat="56.084447018802166" lon="-4.366626972332597">
        <ele>74.159999999999997</ele>
        <time>2019-09-07T08:32:51Z</time>
      </trkpt>
      <trkpt lat="56.085041966289282" lon="-4.366154987365007">
        <ele>74.640000000000001</ele>
        <time>2019-09-07T08:32:56Z</time>
      </trkpt>
      <trkpt lat="56.085158977657557" lon="-4.366004029288888">
        <ele>75.120000000000005</ele>
        <time>2019-09-07T08:32:57Z</time>
      </trkpt>
      <trkpt lat="56.08527397736907" lon="-4.365857010707259">
        <ele>75.599999999999994</ele>
        <time>2019-09-07T08:32:58Z</time>
      </trkpt>
      <trkpt lat="56.085385959595442" lon="-4.365714015439153">
        <ele>76.079999999999998</ele>
        <time>2019-09-07T08:32:59Z</time>
      </trkpt>
      <trkpt lat="56.085470030084252" lon="-4.365533972159028">
        <ele>76.560000000000002</ele>
        <time>2019-09-07T08:33:00Z</time>
      </trkpt>
      <trkpt lat="56.085543036460876" lon="-4.365330962464213">
        <ele>77.040000000000006</ele>
        <time>2019-09-07T08:33:01Z</time>
      </trkpt>
      <trkpt lat="56.08561503700912" lon="-4.36513097025454">
        <ele>77.519999999999996</ele>
        <time>2019-09-07T08:33:02Z</time>
      </trkpt>
      <trkpt lat="56.085686031728983" lon="-4.36493600718677">
        <ele>78</ele>
        <time>2019-09-07T08:33:03Z</time>
      </trkpt>
      <trkpt lat="56.085741017013788" lon="-4.364729980006814">
        <ele>78.480000000000004</ele>
        <time>2019-09-07T08:33:04Z</time>
      </trkpt>
      <trkpt lat="56.085796002298594" lon="-4.364512972533703">
        <ele>78.480000000000004</ele>
        <time>2019-09-07T08:33:05Z</time>
      </trkpt>
      <trkpt lat="56.086345016956329" lon="-4.362552026286721">
        <ele>80.409999999999997</ele>
        <time>2019-09-07T08:33:13Z</time>
      </trkpt>
      <trkpt lat="56.087313964962959" lon="-4.360333001241088">
        <ele>78.969999999999999</ele>
        <time>2019-09-07T08:33:23Z</time>
      </trkpt>
      <trkpt lat="56.088295988738537" lon="-4.358083968982101">
        <ele>81.849999999999994</ele>
        <time>2019-09-07T08:33:33Z</time>
      </trkpt>
      <trkpt lat="56.089379014447331" lon="-4.355882965028286">
        <ele>84.25</ele>
        <time>2019-09-07T08:33:44Z</time>
      </trkpt>
      <trkpt lat="56.090648034587502" lon="-4.354379000142217">
        <ele>86.659999999999997</ele>
        <time>2019-09-07T08:33:53Z</time>
      </trkpt>
      <trkpt lat="56.091866008937359" lon="-4.353382978588343">
        <ele>91.459999999999994</ele>
        <time>2019-09-07T08:34:02Z</time>
      </trkpt>
      <trkpt lat="56.093298979103565" lon="-4.352489970624447">
        <ele>95.790000000000006</ele>
        <time>2019-09-07T08:34:13Z</time>
      </trkpt>
      <trkpt lat="56.09435903839767" lon="-4.351641973480582">
        <ele>97.230000000000004</ele>
        <time>2019-09-07T08:34:21Z</time>
      </trkpt>
      <trkpt lat="56.095401998609304" lon="-4.350413018837571">
        <ele>97.230000000000004</ele>
        <time>2019-09-07T08:34:31Z</time>
      </trkpt>
      <trkpt lat="56.096382010728121" lon="-4.34894903562963">
        <ele>96.75</ele>
        <time>2019-09-07T08:34:42Z</time>
      </trkpt>
      <trkpt lat="56.097225984558463" lon="-4.347379021346569">
        <ele>95.310000000000002</ele>
        <time>2019-09-07T08:34:51Z</time>
      </trkpt>
      <trkpt lat="56.09816400334239" lon="-4.344994034618139">
        <ele>94.829999999999998</ele>
        <time>2019-09-07T08:35:05Z</time>
      </trkpt>
      <trkpt lat="56.098990961909294" lon="-4.342578034847975">
        <ele>92.900000000000006</ele>
        <time>2019-09-07T08:35:17Z</time>
      </trkpt>
      <trkpt lat="56.099835019558668" lon="-4.339761966839433">
        <ele>90.980000000000004</ele>
        <time>2019-09-07T08:35:31Z</time>
      </trkpt>
      <trkpt lat="56.100866999477148" lon="-4.337487034499645">
        <ele>90.5</ele>
        <time>2019-09-07T08:35:43Z</time>
      </trkpt>
      <trkpt lat="56.102086985483766" lon="-4.334410037845373">
        <ele>88.099999999999994</ele>
        <time>2019-09-07T08:35:58Z</time>
      </trkpt>
      <trkpt lat="56.103103961795568" lon="-4.332595020532608">
        <ele>86.180000000000007</ele>
        <time>2019-09-07T08:36:09Z</time>
      </trkpt>
      <trkpt lat="56.104027982801199" lon="-4.330352023243904">
        <ele>80.890000000000001</ele>
        <time>2019-09-07T08:36:20Z</time>
      </trkpt>
      <trkpt lat="56.104619996622205" lon="-4.327780958265066">
        <ele>74.640000000000001</ele>
        <time>2019-09-07T08:36:31Z</time>
      </trkpt>
      <trkpt lat="56.104998020455241" lon="-4.325705012306571">
        <ele>67.909999999999997</ele>
        <time>2019-09-07T08:36:42Z</time>
      </trkpt>
      <trkpt lat="56.105453995987773" lon="-4.323193961754441">
        <ele>62.140000000000001</ele>
        <time>2019-09-07T08:36:55Z</time>
      </trkpt>
      <trkpt lat="56.106040980666876" lon="-4.320948030799627">
        <ele>64.549999999999997</ele>
        <time>2019-09-07T08:37:05Z</time>
      </trkpt>
      <trkpt lat="56.106793005019426" lon="-4.319385979324579">
        <ele>65.989999999999995</ele>
        <time>2019-09-07T08:37:14Z</time>
      </trkpt>
      <trkpt lat="56.107715014368296" lon="-4.31740902364254">
        <ele>68.390000000000001</ele>
        <time>2019-09-07T08:37:27Z</time>
      </trkpt>
      <trkpt lat="56.10858597792685" lon="-4.315541032701731">
        <ele>68.390000000000001</ele>
        <time>2019-09-07T08:37:37Z</time>
      </trkpt>
      <trkpt lat="56.109520979225636" lon="-4.313385961577296">
        <ele>65.989999999999995</ele>
        <time>2019-09-07T08:37:48Z</time>
      </trkpt>
      <trkpt lat="56.110719004645944" lon="-4.310592021793127">
        <ele>62.140000000000001</ele>
        <time>2019-09-07T08:38:02Z</time>
      </trkpt>
      <trkpt lat="56.111483015120029" lon="-4.308812040835619">
        <ele>58.780000000000001</ele>
        <time>2019-09-07T08:38:13Z</time>
      </trkpt>
      <trkpt lat="56.112005962058902" lon="-4.30759297683835">
        <ele>53.490000000000002</ele>
        <time>2019-09-07T08:38:22Z</time>
      </trkpt>
      <trkpt lat="56.112076034769416" lon="-4.307429026812315">
        <ele>53.009999999999998</ele>
        <time>2019-09-07T08:38:23Z</time>
      </trkpt>
      <trkpt lat="56.112144012004137" lon="-4.307271027937532">
        <ele>52.530000000000001</ele>
        <time>2019-09-07T08:38:24Z</time>
      </trkpt>
      <trkpt lat="56.112212995067239" lon="-4.307110011577606">
        <ele>52.530000000000001</ele>
        <time>2019-09-07T08:38:25Z</time>
      </trkpt>
      <trkpt lat="56.112279966473579" lon="-4.306938014924526">
        <ele>52.049999999999997</ele>
        <time>2019-09-07T08:38:26Z</time>
      </trkpt>
      <trkpt lat="56.112468978390098" lon="-4.30640802718699">
        <ele>51.57</ele>
        <time>2019-09-07T08:38:29Z</time>
      </trkpt>
      <trkpt lat="56.112878015264869" lon="-4.304515980184078">
        <ele>53.490000000000002</ele>
        <time>2019-09-07T08:38:39Z</time>
      </trkpt>
      <trkpt lat="56.113253021612763" lon="-4.3022630084306">
        <ele>53.969999999999999</ele>
        <time>2019-09-07T08:38:50Z</time>
      </trkpt>
      <trkpt lat="56.113617969676852" lon="-4.299952033907175">
        <ele>53.490000000000002</ele>
        <time>2019-09-07T08:39:03Z</time>
      </trkpt>
      <trkpt lat="56.114053996279836" lon="-4.297114005312324">
        <ele>49.649999999999999</ele>
        <time>2019-09-07T08:39:18Z</time>
      </trkpt>
      <trkpt lat="56.114239990711212" lon="-4.295884966850281">
        <ele>50.609999999999999</ele>
        <time>2019-09-07T08:39:25Z</time>
      </trkpt>
      <trkpt lat="56.114283995702863" lon="-4.295728979632258">
        <ele>51.090000000000003</ele>
        <time>2019-09-07T08:39:26Z</time>
      </trkpt>
      <trkpt lat="56.114329006522894" lon="-4.295570980757475">
        <ele>51.090000000000003</ele>
        <time>2019-09-07T08:39:27Z</time>
      </trkpt>
      <trkpt lat="56.114764027297497" lon="-4.294499019160867">
        <ele>52.530000000000001</ele>
        <time>2019-09-07T08:39:36Z</time>
      </trkpt>
      <trkpt lat="56.115023028105497" lon="-4.29384196177125">
        <ele>53.009999999999998</ele>
        <time>2019-09-07T08:39:46Z</time>
      </trkpt>
      <trkpt lat="56.115092011168599" lon="-4.293649010360241">
        <ele>53.009999999999998</ele>
        <time>2019-09-07T08:39:49Z</time>
      </trkpt>
      <trkpt lat="56.115426030009985" lon="-4.292622981593013">
        <ele>52.530000000000001</ele>
        <time>2019-09-07T08:39:58Z</time>
      </trkpt>
      <trkpt lat="56.11593397334218" lon="-4.290866972878575">
        <ele>49.159999999999997</ele>
        <time>2019-09-07T08:40:09Z</time>
      </trkpt>
      <trkpt lat="56.116282995790243" lon="-4.28928597830236">
        <ele>46.759999999999998</ele>
        <time>2019-09-07T08:40:17Z</time>
      </trkpt>
      <trkpt lat="56.116779036819935" lon="-4.287044992670417">
        <ele>43.399999999999999</ele>
        <time>2019-09-07T08:40:26Z</time>
      </trkpt>
      <trkpt lat="56.117481021210551" lon="-4.284691018983722">
        <ele>39.549999999999997</ele>
        <time>2019-09-07T08:40:33Z</time>
      </trkpt>
      <trkpt lat="56.118649961426854" lon="-4.281826000660658">
        <ele>37.149999999999999</ele>
        <time>2019-09-07T08:40:42Z</time>
      </trkpt>
      <trkpt lat="56.119347000494599" lon="-4.280032021924853">
        <ele>32.82</ele>
        <time>2019-09-07T08:40:49Z</time>
      </trkpt>
      <trkpt lat="56.119883023202419" lon="-4.27817702293396">
        <ele>32.340000000000003</ele>
        <time>2019-09-07T08:40:57Z</time>
      </trkpt>
      <trkpt lat="56.120359031483531" lon="-4.276261003687978">
        <ele>35.229999999999997</ele>
        <time>2019-09-07T08:41:05Z</time>
      </trkpt>
      <trkpt lat="56.12048702314496" lon="-4.274985026568174">
        <ele>35.710000000000001</ele>
        <time>2019-09-07T08:41:13Z</time>
      </trkpt>
      <trkpt lat="56.120587019249797" lon="-4.272649995982647">
        <ele>34.259999999999998</ele>
        <time>2019-09-07T08:41:24Z</time>
      </trkpt>
      <trkpt lat="56.120718028396368" lon="-4.269985975697637">
        <ele>33.780000000000001</ele>
        <time>2019-09-07T08:41:35Z</time>
      </trkpt>
      <trkpt lat="56.12048702314496" lon="-4.267547009512782">
        <ele>32.340000000000003</ele>
        <time>2019-09-07T08:41:44Z</time>
      </trkpt>
      <trkpt lat="56.120476964861155" lon="-4.267293037846685">
        <ele>31.859999999999999</ele>
        <time>2019-09-07T08:41:45Z</time>
      </trkpt>
      <trkpt lat="56.120500015094876" lon="-4.265346005558968">
        <ele>29.460000000000001</ele>
        <time>2019-09-07T08:41:52Z</time>
      </trkpt>
      <trkpt lat="56.120576960965991" lon="-4.262394988909364">
        <ele>28.02</ele>
        <time>2019-09-07T08:42:01Z</time>
      </trkpt>
      <trkpt lat="56.120648961514235" lon="-4.259698027744889">
        <ele>28.5</ele>
        <time>2019-09-07T08:42:09Z</time>
      </trkpt>
      <trkpt lat="56.120695983991027" lon="-4.25761797465384">
        <ele>28.02</ele>
        <time>2019-09-07T08:42:16Z</time>
      </trkpt>
      <trkpt lat="56.120716016739607" lon="-4.257357968017459">
        <ele>28.02</ele>
        <time>2019-09-07T08:42:17Z</time>
      </trkpt>
      <trkpt lat="56.12076697871089" lon="-4.257130986079574">
        <ele>27.530000000000001</ele>
        <time>2019-09-07T08:42:18Z</time>
      </trkpt>
      <trkpt lat="56.120823975652456" lon="-4.256896963343024">
        <ele>27.050000000000001</ele>
        <time>2019-09-07T08:42:19Z</time>
      </trkpt>
      <trkpt lat="56.120878960937262" lon="-4.2566719930619">
        <ele>26.57</ele>
        <time>2019-09-07T08:42:20Z</time>
      </trkpt>
      <trkpt lat="56.121064033359289" lon="-4.25592097453773">
        <ele>26.57</ele>
        <time>2019-09-07T08:42:23Z</time>
      </trkpt>
      <trkpt lat="56.121128993108869" lon="-4.25565904006362">
        <ele>26.09</ele>
        <time>2019-09-07T08:42:24Z</time>
      </trkpt>
      <trkpt lat="56.121616987511516" lon="-4.253693986684084">
        <ele>22.73</ele>
        <time>2019-09-07T08:42:31Z</time>
      </trkpt>
      <trkpt lat="56.122167007997632" lon="-4.251474961638451">
        <ele>27.530000000000001</ele>
        <time>2019-09-07T08:42:39Z</time>
      </trkpt>
      <trkpt lat="56.122976029291749" lon="-4.248180035501719">
        <ele>29.460000000000001</ele>
        <time>2019-09-07T08:42:50Z</time>
      </trkpt>
      <trkpt lat="56.124050002545118" lon="-4.2437360342592">
        <ele>28.02</ele>
        <time>2019-09-07T08:43:05Z</time>
      </trkpt>
      <trkpt lat="56.124701024964452" lon="-4.241090035066009">
        <ele>31.379999999999999</ele>
        <time>2019-09-07T08:43:15Z</time>
      </trkpt>
      <trkpt lat="56.125174015760422" lon="-4.239149959757924">
        <ele>35.710000000000001</ele>
        <time>2019-09-07T08:43:24Z</time>
      </trkpt>
      <trkpt lat="56.125742979347706" lon="-4.236805038526654">
        <ele>40.030000000000001</ele>
        <time>2019-09-07T08:43:37Z</time>
      </trkpt>
      <trkpt lat="56.126441024243832" lon="-4.234590958803892">
        <ele>38.590000000000003</ele>
        <time>2019-09-07T08:43:49Z</time>
      </trkpt>
      <trkpt lat="56.127030020579696" lon="-4.232394983991981">
        <ele>33.780000000000001</ele>
        <time>2019-09-07T08:43:59Z</time>
      </trkpt>
      <trkpt lat="56.127264965325594" lon="-4.231488984078169">
        <ele>30.420000000000002</ele>
        <time>2019-09-07T08:44:03Z</time>
      </trkpt>
      <trkpt lat="56.128021012991667" lon="-4.228598987683654">
        <ele>27.050000000000001</ele>
        <time>2019-09-07T08:44:16Z</time>
      </trkpt>
      <trkpt lat="56.128698019310832" lon="-4.226064970716834">
        <ele>31.859999999999999</ele>
        <time>2019-09-07T08:44:28Z</time>
      </trkpt>
      <trkpt lat="56.129282992333174" lon="-4.223882993683219">
        <ele>37.630000000000003</ele>
        <time>2019-09-07T08:44:37Z</time>
      </trkpt>
      <trkpt lat="56.129985982552171" lon="-4.221259960904717">
        <ele>41.950000000000003</ele>
        <time>2019-09-07T08:44:45Z</time>
      </trkpt>
      <trkpt lat="56.130819981917739" lon="-4.217866966500878">
        <ele>44.840000000000003</ele>
        <time>2019-09-07T08:44:55Z</time>
      </trkpt>
      <trkpt lat="56.131223989650607" lon="-4.214772032573819">
        <ele>45.799999999999997</ele>
        <time>2019-09-07T08:45:03Z</time>
      </trkpt>
      <trkpt lat="56.131740985438228" lon="-4.210960026830435">
        <ele>40.030000000000001</ele>
        <time>2019-09-07T08:45:13Z</time>
      </trkpt>
      <trkpt lat="56.13279702141881" lon="-4.206189969554544">
        <ele>32.340000000000003</ele>
        <time>2019-09-07T08:45:26Z</time>
      </trkpt>
      <trkpt lat="56.133246961981058" lon="-4.202472008764744">
        <ele>23.210000000000001</ele>
        <time>2019-09-07T08:45:36Z</time>
      </trkpt>
      <trkpt lat="56.133315023034811" lon="-4.198407037183642">
        <ele>20.32</ele>
        <time>2019-09-07T08:45:47Z</time>
      </trkpt>
      <trkpt lat="56.133058033883572" lon="-4.194310968741775">
        <ele>18.399999999999999</ele>
        <time>2019-09-07T08:45:58Z</time>
      </trkpt>
      <trkpt lat="56.132771037518978" lon="-4.189878031611443">
        <ele>16.48</ele>
        <time>2019-09-07T08:46:10Z</time>
      </trkpt>
      <trkpt lat="56.132510025054216" lon="-4.185800990089774">
        <ele>16.960000000000001</ele>
        <time>2019-09-07T08:46:21Z</time>
      </trkpt>
      <trkpt lat="56.132205007597804" lon="-4.181026993319392">
        <ele>17.920000000000002</ele>
        <time>2019-09-07T08:46:34Z</time>
      </trkpt>
      <trkpt lat="56.131984982639551" lon="-4.177146004512906">
        <ele>17.440000000000001</ele>
        <time>2019-09-07T08:46:45Z</time>
      </trkpt>
      <trkpt lat="56.132083972916007" lon="-4.172156006097794">
        <ele>12.630000000000001</ele>
        <time>2019-09-07T08:46:59Z</time>
      </trkpt>
      <trkpt lat="56.132495021447539" lon="-4.165085032582283">
        <ele>15.039999999999999</ele>
        <time>2019-09-07T08:47:19Z</time>
      </trkpt>
      <trkpt lat="56.132843960076571" lon="-4.159061964601278">
        <ele>18.399999999999999</ele>
        <time>2019-09-07T08:47:36Z</time>
      </trkpt>
      <trkpt lat="56.133190970867872" lon="-4.152885004878044">
        <ele>18.879999999999999</ele>
        <time>2019-09-07T08:47:54Z</time>
      </trkpt>
      <trkpt lat="56.133260959759355" lon="-4.151370981708169">
        <ele>18.399999999999999</ele>
        <time>2019-09-07T08:48:01Z</time>
      </trkpt>
      <trkpt lat="56.13327101804316" lon="-4.15115799754858">
        <ele>18.399999999999999</ele>
        <time>2019-09-07T08:48:02Z</time>
      </trkpt>
      <trkpt lat="56.133295996114612" lon="-4.151059007272124">
        <ele>18.879999999999999</ele>
        <time>2019-09-07T08:48:04Z</time>
      </trkpt>
      <trkpt lat="56.133360033854842" lon="-4.150816015899181">
        <ele>19.359999999999999</ele>
        <time>2019-09-07T08:48:06Z</time>
      </trkpt>
      <trkpt lat="56.133396998047829" lon="-4.150545028969646">
        <ele>19.359999999999999</ele>
        <time>2019-09-07T08:48:07Z</time>
      </trkpt>
      <trkpt lat="56.133352993056178" lon="-4.150425000116229">
        <ele>18.879999999999999</ele>
        <time>2019-09-07T08:48:09Z</time>
      </trkpt>
      <trkpt lat="56.133331032469869" lon="-4.150263983756304">
        <ele>18.879999999999999</ele>
        <time>2019-09-07T08:48:10Z</time>
      </trkpt>
      <trkpt lat="56.133279986679554" lon="-4.149893000721932">
        <ele>19.359999999999999</ele>
        <time>2019-09-07T08:48:11Z</time>
      </trkpt>
      <trkpt lat="56.13327101804316" lon="-4.149679010733962">
        <ele>19.359999999999999</ele>
        <time>2019-09-07T08:48:12Z</time>
      </trkpt>
      <trkpt lat="56.133221983909607" lon="-4.147747987881303">
        <ele>18.879999999999999</ele>
        <time>2019-09-07T08:48:19Z</time>
      </trkpt>
      <trkpt lat="56.133088041096926" lon="-4.144602008163929">
        <ele>19.359999999999999</ele>
        <time>2019-09-07T08:48:29Z</time>
      </trkpt>
      <trkpt lat="56.132997013628483" lon="-4.140485990792513">
        <ele>20.809999999999999</ele>
        <time>2019-09-07T08:48:42Z</time>
      </trkpt>
      <trkpt lat="56.132910009473562" lon="-4.136789990589023">
        <ele>19.84</ele>
        <time>2019-09-07T08:48:54Z</time>
      </trkpt>
      <trkpt lat="56.13284002058208" lon="-4.133183006197214">
        <ele>18.879999999999999</ele>
        <time>2019-09-07T08:49:05Z</time>
      </trkpt>
      <trkpt lat="56.132769025862217" lon="-4.129623966291547">
        <ele>19.359999999999999</ele>
        <time>2019-09-07T08:49:15Z</time>
      </trkpt>
      <trkpt lat="56.132667018100619" lon="-4.124530032277107">
        <ele>18.399999999999999</ele>
        <time>2019-09-07T08:49:30Z</time>
      </trkpt>
      <trkpt lat="56.132569033652544" lon="-4.119685962796211">
        <ele>17.920000000000002</ele>
        <time>2019-09-07T08:49:43Z</time>
      </trkpt>
      <trkpt lat="56.132458979263902" lon="-4.114193972200155">
        <ele>16.960000000000001</ele>
        <time>2019-09-07T08:49:58Z</time>
      </trkpt>
      <trkpt lat="56.132354037836194" lon="-4.109006999060512">
        <ele>16.48</ele>
        <time>2019-09-07T08:50:14Z</time>
      </trkpt>
      <trkpt lat="56.132257981225848" lon="-4.104457972571254">
        <ele>16</ele>
        <time>2019-09-07T08:50:28Z</time>
      </trkpt>
      <trkpt lat="56.132162008434534" lon="-4.099880028516054">
        <ele>16.48</ele>
        <time>2019-09-07T08:50:42Z</time>
      </trkpt>
      <trkpt lat="56.132078021764755" lon="-4.095493024215102">
        <ele>16.960000000000001</ele>
        <time>2019-09-07T08:50:55Z</time>
      </trkpt>
      <trkpt lat="56.131928991526365" lon="-4.088387014344335">
        <ele>17.440000000000001</ele>
        <time>2019-09-07T08:51:16Z</time>
      </trkpt>
      <trkpt lat="56.131835030391812" lon="-4.083928009495139">
        <ele>16.960000000000001</ele>
        <time>2019-09-07T08:51:28Z</time>
      </trkpt>
      <trkpt lat="56.131690023466945" lon="-4.076971029862762">
        <ele>16.48</ele>
        <time>2019-09-07T08:51:47Z</time>
      </trkpt>
      <trkpt lat="56.131492964923382" lon="-4.072471037507057">
        <ele>17.440000000000001</ele>
        <time>2019-09-07T08:52:01Z</time>
      </trkpt>
      <trkpt lat="56.130921989679337" lon="-4.068775959312916">
        <ele>17.920000000000002</ele>
        <time>2019-09-07T08:52:13Z</time>
      </trkpt>
      <trkpt lat="56.130300974473357" lon="-4.065729975700378">
        <ele>17.920000000000002</ele>
        <time>2019-09-07T08:52:23Z</time>
      </trkpt>
      <trkpt lat="56.129325991496444" lon="-4.061731975525618">
        <ele>16</ele>
        <time>2019-09-07T08:52:36Z</time>
      </trkpt>
      <trkpt lat="56.127922022715211" lon="-4.05614904128015">
        <ele>15.039999999999999</ele>
        <time>2019-09-07T08:52:54Z</time>
      </trkpt>
      <trkpt lat="56.126745035871863" lon="-4.051480991765857">
        <ele>14.56</ele>
        <time>2019-09-07T08:53:09Z</time>
      </trkpt>
      <trkpt lat="56.125221038237214" lon="-4.045441998168826">
        <ele>15.039999999999999</ele>
        <time>2019-09-07T08:53:27Z</time>
      </trkpt>
      <trkpt lat="56.124199032783508" lon="-4.041060023009777">
        <ele>16.48</ele>
        <time>2019-09-07T08:53:39Z</time>
      </trkpt>
      <trkpt lat="56.123998034745455" lon="-4.038278991356492">
        <ele>16</ele>
        <time>2019-09-07T08:53:46Z</time>
      </trkpt>
      <trkpt lat="56.123697040602565" lon="-4.032063977792859">
        <ele>16</ele>
        <time>2019-09-07T08:54:01Z</time>
      </trkpt>
      <trkpt lat="56.123142996802926" lon="-4.028002023696899">
        <ele>15.039999999999999</ele>
        <time>2019-09-07T08:54:11Z</time>
      </trkpt>
      <trkpt lat="56.122138006612659" lon="-4.021547958254814">
        <ele>14.56</ele>
        <time>2019-09-07T08:54:27Z</time>
      </trkpt>
      <trkpt lat="56.121208034455776" lon="-4.016364002600312">
        <ele>14.56</ele>
        <time>2019-09-07T08:54:40Z</time>
      </trkpt>
      <trkpt lat="56.12027102150023" lon="-4.01208302937448">
        <ele>15.52</ele>
        <time>2019-09-07T08:54:51Z</time>
      </trkpt>
      <trkpt lat="56.118991021066904" lon="-4.00619599968195">
        <ele>14.08</ele>
        <time>2019-09-07T08:55:06Z</time>
      </trkpt>
      <trkpt lat="56.118248971179128" lon="-4.001359976828098">
        <ele>13.119999999999999</ele>
        <time>2019-09-07T08:55:18Z</time>
      </trkpt>
      <trkpt lat="56.11801503226161" lon="-3.996362015604973">
        <ele>11.67</ele>
        <time>2019-09-07T08:55:30Z</time>
      </trkpt>
      <trkpt lat="56.118148975074291" lon="-3.990939008072019">
        <ele>13.119999999999999</ele>
        <time>2019-09-07T08:55:43Z</time>
      </trkpt>
      <trkpt lat="56.118369000032544" lon="-3.983653038740158">
        <ele>16.960000000000001</ele>
        <time>2019-09-07T08:56:00Z</time>
      </trkpt>
      <trkpt lat="56.118679968640208" lon="-3.977091014385223">
        <ele>20.32</ele>
        <time>2019-09-07T08:56:15Z</time>
      </trkpt>
      <trkpt lat="56.118830004706979" lon="-3.971932036802173">
        <ele>21.77</ele>
        <time>2019-09-07T08:56:27Z</time>
      </trkpt>
      <trkpt lat="56.119123036041856" lon="-3.967254012823105">
        <ele>23.690000000000001</ele>
        <time>2019-09-07T08:56:39Z</time>
      </trkpt>
      <trkpt lat="56.119667021557689" lon="-3.962638014927506">
        <ele>17.920000000000002</ele>
        <time>2019-09-07T08:56:51Z</time>
      </trkpt>
      <trkpt lat="56.120328018441796" lon="-3.95540501922369">
        <ele>17.440000000000001</ele>
        <time>2019-09-07T08:57:10Z</time>
      </trkpt>
      <trkpt lat="56.120593976229429" lon="-3.953656973317266">
        <ele>19.359999999999999</ele>
        <time>2019-09-07T08:57:17Z</time>
      </trkpt>
      <trkpt lat="56.120757004246116" lon="-3.95272197201848">
        <ele>25.129999999999999</ele>
        <time>2019-09-07T08:57:24Z</time>
      </trkpt>
      <trkpt lat="56.120841996744275" lon="-3.952464982867241">
        <ele>28.5</ele>
        <time>2019-09-07T08:57:29Z</time>
      </trkpt>
      <trkpt lat="56.120910979807377" lon="-3.952395999804139">
        <ele>29.460000000000001</ele>
        <time>2019-09-07T08:57:31Z</time>
      </trkpt>
      <trkpt lat="56.121030002832413" lon="-3.95224504172802">
        <ele>29.460000000000001</ele>
        <time>2019-09-07T08:57:32Z</time>
      </trkpt>
      <trkpt lat="56.121342983096838" lon="-3.952138004824519">
        <ele>29.460000000000001</ele>
        <time>2019-09-07T08:57:34Z</time>
      </trkpt>
      <trkpt lat="56.121457982808352" lon="-3.952102968469262">
        <ele>29.460000000000001</ele>
        <time>2019-09-07T08:57:35Z</time>
      </trkpt>
      <trkpt lat="56.121578011661768" lon="-3.952067010104656">
        <ele>29.460000000000001</ele>
        <time>2019-09-07T08:57:36Z</time>
      </trkpt>
      <trkpt lat="56.121699968352914" lon="-3.952030967921019">
        <ele>28.98</ele>
        <time>2019-09-07T08:57:37Z</time>
      </trkpt>
      <trkpt lat="56.121831983327866" lon="-3.952016970142722">
        <ele>28.98</ele>
        <time>2019-09-07T08:57:38Z</time>
      </trkpt>
      <trkpt lat="56.123024979606271" lon="-3.952273959293962">
        <ele>24.649999999999999</ele>
        <time>2019-09-07T08:57:46Z</time>
      </trkpt>
      <trkpt lat="56.124183023348451" lon="-3.953070994466543">
        <ele>20.809999999999999</ele>
        <time>2019-09-07T08:57:56Z</time>
      </trkpt>
      <trkpt lat="56.124258041381836" lon="-3.953195968642831">
        <ele>20.809999999999999</ele>
        <time>2019-09-07T08:57:57Z</time>
      </trkpt>
      <trkpt lat="56.124323001131415" lon="-3.953312980011106">
        <ele>20.809999999999999</ele>
        <time>2019-09-07T08:57:58Z</time>
      </trkpt>
      <trkpt lat="56.124383015558124" lon="-3.953419011086226">
        <ele>21.289999999999999</ele>
        <time>2019-09-07T08:57:59Z</time>
      </trkpt>
      <trkpt lat="56.124435989186168" lon="-3.953513978049159">
        <ele>21.289999999999999</ele>
        <time>2019-09-07T08:58:00Z</time>
      </trkpt>
      <trkpt lat="56.124494997784495" lon="-3.953619003295898">
        <ele>21.77</ele>
        <time>2019-09-07T08:58:02Z</time>
      </trkpt>
      <trkpt lat="56.124587031081319" lon="-3.954023011028767">
        <ele>21.77</ele>
        <time>2019-09-07T08:58:05Z</time>
      </trkpt>
      <trkpt lat="56.124626006931067" lon="-3.954194001853466">
        <ele>21.77</ele>
        <time>2019-09-07T08:58:09Z</time>
      </trkpt>
      <trkpt lat="56.124633969739079" lon="-3.954229038208723">
        <ele>21.77</ele>
        <time>2019-09-07T08:58:11Z</time>
      </trkpt>
      <trkpt lat="56.124580996111035" lon="-3.954499019309878">
        <ele>21.77</ele>
        <time>2019-09-07T08:58:12Z</time>
      </trkpt>
      <trkpt lat="56.124595999717712" lon="-3.954548975452781">
        <ele>21.77</ele>
        <time>2019-09-07T08:58:13Z</time>
      </trkpt>
      <trkpt lat="56.124629024416208" lon="-3.954659029841423">
        <ele>21.77</ele>
        <time>2019-09-07T08:58:14Z</time>
      </trkpt>
      <trkpt lat="56.124660959467292" lon="-3.954969998449087">
        <ele>20.809999999999999</ele>
        <time>2019-09-07T08:58:16Z</time>
      </trkpt>
      <trkpt lat="56.124673029407859" lon="-3.955145012587309">
        <ele>20.32</ele>
        <time>2019-09-07T08:58:17Z</time>
      </trkpt>
      <trkpt lat="56.124685015529394" lon="-3.95534198731184">
        <ele>19.84</ele>
        <time>2019-09-07T08:58:18Z</time>
      </trkpt>
      <trkpt lat="56.124713011085987" lon="-3.955548014491797">
        <ele>19.359999999999999</ele>
        <time>2019-09-07T08:58:19Z</time>
      </trkpt>
      <trkpt lat="56.124747963622212" lon="-3.955782037228346">
        <ele>19.359999999999999</ele>
        <time>2019-09-07T08:58:20Z</time>
      </trkpt>
      <trkpt lat="56.124921971932054" lon="-3.956735981628299">
        <ele>17.920000000000002</ele>
        <time>2019-09-07T08:58:23Z</time>
      </trkpt>
      <trkpt lat="56.125016016885638" lon="-3.957033958286047">
        <ele>17.920000000000002</ele>
        <time>2019-09-07T08:58:24Z</time>
      </trkpt>
      <trkpt lat="56.125117018818855" lon="-3.957331012934446">
        <ele>17.920000000000002</ele>
        <time>2019-09-07T08:58:25Z</time>
      </trkpt>
      <trkpt lat="56.125246016308665" lon="-3.957590013742447">
        <ele>17.920000000000002</ele>
        <time>2019-09-07T08:58:26Z</time>
      </trkpt>
      <trkpt lat="56.125382976606488" lon="-3.957863012328744">
        <ele>17.440000000000001</ele>
        <time>2019-09-07T08:58:27Z</time>
      </trkpt>
      <trkpt lat="56.126397019252181" lon="-3.959622960537672">
        <ele>16</ele>
        <time>2019-09-07T08:58:34Z</time>
      </trkpt>
      <trkpt lat="56.127952029928565" lon="-3.962241970002651">
        <ele>11.67</ele>
        <time>2019-09-07T08:58:46Z</time>
      </trkpt>
      <trkpt lat="56.1292539909482" lon="-3.963954979553819">
        <ele>12.15</ele>
        <time>2019-09-07T08:58:55Z</time>
      </trkpt>
      <trkpt lat="56.129462029784918" lon="-3.964140973985195">
        <ele>12.15</ele>
        <time>2019-09-07T08:58:57Z</time>
      </trkpt>
      <trkpt lat="56.129534030333161" lon="-3.964254967868328">
        <ele>12.15</ele>
        <time>2019-09-07T08:58:58Z</time>
      </trkpt>
      <trkpt lat="56.129604019224644" lon="-3.96436502225697">
        <ele>12.15</ele>
        <time>2019-09-07T08:58:59Z</time>
      </trkpt>
      <trkpt lat="56.129687000066042" lon="-3.964497959241271">
        <ele>12.15</ele>
        <time>2019-09-07T08:59:01Z</time>
      </trkpt>
      <trkpt lat="56.129815997555852" lon="-3.964713038876653">
        <ele>12.15</ele>
        <time>2019-09-07T08:59:02Z</time>
      </trkpt>
      <trkpt lat="56.129920016974211" lon="-3.964777998626232">
        <ele>12.15</ele>
        <time>2019-09-07T08:59:03Z</time>
      </trkpt>
      <trkpt lat="56.130052031949162" lon="-3.964862991124392">
        <ele>12.15</ele>
        <time>2019-09-07T08:59:04Z</time>
      </trkpt>
      <trkpt lat="56.130144987255335" lon="-3.965005986392498">
        <ele>12.15</ele>
        <time>2019-09-07T08:59:05Z</time>
      </trkpt>
      <trkpt lat="56.13024196587503" lon="-3.965155016630888">
        <ele>12.15</ele>
        <time>2019-09-07T08:59:06Z</time>
      </trkpt>
      <trkpt lat="56.130341039970517" lon="-3.96526699885726">
        <ele>12.15</ele>
        <time>2019-09-07T08:59:07Z</time>
      </trkpt>
      <trkpt lat="56.13045402802527" lon="-3.965348973870277">
        <ele>12.15</ele>
        <time>2019-09-07T08:59:08Z</time>
      </trkpt>
      <trkpt lat="56.130571039393544" lon="-3.965434972196817">
        <ele>12.15</ele>
        <time>2019-09-07T08:59:09Z</time>
      </trkpt>
      <trkpt lat="56.130699031054974" lon="-3.965463973581791">
        <ele>12.15</ele>
        <time>2019-09-07T08:59:10Z</time>
      </trkpt>
      <trkpt lat="56.130830040201545" lon="-3.965463973581791">
        <ele>11.67</ele>
        <time>2019-09-07T08:59:11Z</time>
      </trkpt>
      <trkpt lat="56.130954008549452" lon="-3.965463973581791">
        <ele>11.67</ele>
        <time>2019-09-07T08:59:12Z</time>
      </trkpt>
      <trkpt lat="56.131532024592161" lon="-3.965377975255251">
        <ele>12.15</ele>
        <time>2019-09-07T08:59:19Z</time>
      </trkpt>
      <trkpt lat="56.131576029583812" lon="-3.965403959155083">
        <ele>12.15</ele>
        <time>2019-09-07T08:59:20Z</time>
      </trkpt>
      <trkpt lat="56.131809968501329" lon="-3.965544020757079">
        <ele>11.67</ele>
        <time>2019-09-07T08:59:28Z</time>
      </trkpt>
      <trkpt lat="56.131855985149741" lon="-3.965574027970433">
        <ele>12.15</ele>
        <time>2019-09-07T08:59:29Z</time>
      </trkpt>
      <trkpt lat="56.131894960999489" lon="-3.965650973841548">
        <ele>12.15</ele>
        <time>2019-09-07T08:59:30Z</time>
      </trkpt>
      <trkpt lat="56.131941983476281" lon="-3.965745018795133">
        <ele>12.15</ele>
        <time>2019-09-07T08:59:31Z</time>
      </trkpt>
      <trkpt lat="56.132005015388131" lon="-3.965870998799801">
        <ele>12.15</ele>
        <time>2019-09-07T08:59:32Z</time>
      </trkpt>
      <trkpt lat="56.132018007338047" lon="-3.966026986017823">
        <ele>12.630000000000001</ele>
        <time>2019-09-07T08:59:33Z</time>
      </trkpt>
      <trkpt lat="56.132022030651569" lon="-3.966226978227496">
        <ele>12.630000000000001</ele>
        <time>2019-09-07T08:59:34Z</time>
      </trkpt>
      <trkpt lat="56.131947012618184" lon="-3.968201000243425">
        <ele>13.6</ele>
        <time>2019-09-07T08:59:42Z</time>
      </trkpt>
      <trkpt lat="56.131914993748069" lon="-3.968470981344581">
        <ele>14.08</ele>
        <time>2019-09-07T08:59:43Z</time>
      </trkpt>
      <trkpt lat="56.131789013743401" lon="-3.968913964927197">
        <ele>14.08</ele>
        <time>2019-09-07T08:59:45Z</time>
      </trkpt>
      <trkpt lat="56.131725981831551" lon="-3.969132984057069">
        <ele>14.08</ele>
        <time>2019-09-07T08:59:46Z</time>
      </trkpt>
      <trkpt lat="56.131639983505011" lon="-3.969324007630348">
        <ele>14.08</ele>
        <time>2019-09-07T08:59:47Z</time>
      </trkpt>
      <trkpt lat="56.131553985178471" lon="-3.969515031203628">
        <ele>14.08</ele>
        <time>2019-09-07T08:59:48Z</time>
      </trkpt>
      <trkpt lat="56.131443008780479" lon="-3.969680992886424">
        <ele>14.08</ele>
        <time>2019-09-07T08:59:49Z</time>
      </trkpt>
      <trkpt lat="56.131328009068966" lon="-3.969834968447685">
        <ele>14.08</ele>
        <time>2019-09-07T08:59:50Z</time>
      </trkpt>
      <trkpt lat="56.131192976608872" lon="-3.969974024221301">
        <ele>14.56</ele>
        <time>2019-09-07T08:59:51Z</time>
      </trkpt>
      <trkpt lat="56.131046963855624" lon="-3.970095980912447">
        <ele>14.56</ele>
        <time>2019-09-07T08:59:52Z</time>
      </trkpt>
      <trkpt lat="56.130877984687686" lon="-3.970174016430974">
        <ele>14.08</ele>
        <time>2019-09-07T08:59:53Z</time>
      </trkpt>
      <trkpt lat="56.130702970549464" lon="-3.970242999494076">
        <ele>14.08</ele>
        <time>2019-09-07T08:59:54Z</time>
      </trkpt>
      <trkpt lat="56.13051999360323" lon="-3.970313994213939">
        <ele>14.08</ele>
        <time>2019-09-07T08:59:55Z</time>
      </trkpt>
      <trkpt lat="56.128645967692137" lon="-3.970727976411581">
        <ele>12.630000000000001</ele>
        <time>2019-09-07T09:00:04Z</time>
      </trkpt>
      <trkpt lat="56.126101976260543" lon="-3.970816992223263">
        <ele>12.15</ele>
        <time>2019-09-07T09:00:16Z</time>
      </trkpt>
      <trkpt lat="56.12370802089572" lon="-3.97055103443563">
        <ele>11.67</ele>
        <time>2019-09-07T09:00:26Z</time>
      </trkpt>
      <trkpt lat="56.120662959292531" lon="-3.969678981229663">
        <ele>12.630000000000001</ele>
        <time>2019-09-07T09:00:40Z</time>
      </trkpt>
      <trkpt lat="56.117772962898016" lon="-3.968370985239744">
        <ele>12.15</ele>
        <time>2019-09-07T09:00:53Z</time>
      </trkpt>
      <trkpt lat="56.114612985402346" lon="-3.966318005695939">
        <ele>15.039999999999999</ele>
        <time>2019-09-07T09:01:07Z</time>
      </trkpt>
      <trkpt lat="56.111964974552393" lon="-3.964051036164165">
        <ele>23.210000000000001</ele>
        <time>2019-09-07T09:01:19Z</time>
      </trkpt>
      <trkpt lat="56.110407030209899" lon="-3.962450008839369">
        <ele>29.940000000000001</ele>
        <time>2019-09-07T09:01:26Z</time>
      </trkpt>
      <trkpt lat="56.110184993594885" lon="-3.962188996374607">
        <ele>30.899999999999999</ele>
        <time>2019-09-07T09:01:27Z</time>
      </trkpt>
      <trkpt lat="56.107800006866455" lon="-3.959248038008809">
        <ele>35.710000000000001</ele>
        <time>2019-09-07T09:01:38Z</time>
      </trkpt>
      <trkpt lat="56.105613000690937" lon="-3.956503970548511">
        <ele>37.149999999999999</ele>
        <time>2019-09-07T09:01:49Z</time>
      </trkpt>
      <trkpt lat="56.103816004469991" lon="-3.954703034833074">
        <ele>39.549999999999997</ele>
        <time>2019-09-07T09:01:58Z</time>
      </trkpt>
      <trkpt lat="56.101531013846397" lon="-3.95297896116972">
        <ele>43.880000000000003</ele>
        <time>2019-09-07T09:02:09Z</time>
      </trkpt>
      <trkpt lat="56.098323008045554" lon="-3.951309034600854">
        <ele>49.649999999999999</ele>
        <time>2019-09-07T09:02:23Z</time>
      </trkpt>
      <trkpt lat="56.095045013353229" lon="-3.949671965092421">
        <ele>51.090000000000003</ele>
        <time>2019-09-07T09:02:37Z</time>
      </trkpt>
      <trkpt lat="56.0924700088799" lon="-3.948360029608011">
        <ele>51.57</ele>
        <time>2019-09-07T09:02:47Z</time>
      </trkpt>
      <trkpt lat="56.089670034125447" lon="-3.946404028683901">
        <ele>49.649999999999999</ele>
        <time>2019-09-07T09:02:58Z</time>
      </trkpt>
      <trkpt lat="56.087052030488849" lon="-3.943814020603895">
        <ele>49.649999999999999</ele>
        <time>2019-09-07T09:03:09Z</time>
      </trkpt>
      <trkpt lat="56.08503601513803" lon="-3.941251002252102">
        <ele>51.57</ele>
        <time>2019-09-07T09:03:18Z</time>
      </trkpt>
      <trkpt lat="56.082989992573857" lon="-3.937924979254603">
        <ele>54.93</ele>
        <time>2019-09-07T09:03:29Z</time>
      </trkpt>
      <trkpt lat="56.08187897130847" lon="-3.935717018321157">
        <ele>60.700000000000003</ele>
        <time>2019-09-07T09:03:37Z</time>
      </trkpt>
      <trkpt lat="56.08028800226748" lon="-3.931403020396829">
        <ele>68.870000000000005</ele>
        <time>2019-09-07T09:03:51Z</time>
      </trkpt>
      <trkpt lat="56.079246969893575" lon="-3.928121002390981">
        <ele>70.790000000000006</ele>
        <time>2019-09-07T09:04:00Z</time>
      </trkpt>
      <trkpt lat="56.078228987753391" lon="-3.92384497448802">
        <ele>68.390000000000001</ele>
        <time>2019-09-07T09:04:11Z</time>
      </trkpt>
      <trkpt lat="56.077383002266288" lon="-3.919345987960696">
        <ele>66.950000000000003</ele>
        <time>2019-09-07T09:04:22Z</time>
      </trkpt>
      <trkpt lat="56.07676500454545" lon="-3.916280977427959">
        <ele>74.640000000000001</ele>
        <time>2019-09-07T09:04:29Z</time>
      </trkpt>
      <trkpt lat="56.0755829885602" lon="-3.912055995315313">
        <ele>84.730000000000004</ele>
        <time>2019-09-07T09:04:39Z</time>
      </trkpt>
      <trkpt lat="56.073832008987665" lon="-3.90796797350049">
        <ele>80.409999999999997</ele>
        <time>2019-09-07T09:04:50Z</time>
      </trkpt>
      <trkpt lat="56.071590017527342" lon="-3.902800027281046">
        <ele>72.239999999999995</ele>
        <time>2019-09-07T09:05:04Z</time>
      </trkpt>
      <trkpt lat="56.070204991847277" lon="-3.898313026875258">
        <ele>65.989999999999995</ele>
        <time>2019-09-07T09:05:15Z</time>
      </trkpt>
      <trkpt lat="56.06930703856051" lon="-3.893939014524221">
        <ele>61.659999999999997</ele>
        <time>2019-09-07T09:05:25Z</time>
      </trkpt>
      <trkpt lat="56.068746037781239" lon="-3.889389988034964">
        <ele>57.340000000000003</ele>
        <time>2019-09-07T09:05:35Z</time>
      </trkpt>
      <trkpt lat="56.068397015333176" lon="-3.883398016914725">
        <ele>55.890000000000001</ele>
        <time>2019-09-07T09:05:48Z</time>
      </trkpt>
      <trkpt lat="56.067901980131865" lon="-3.878340963274241">
        <ele>53.969999999999999</ele>
        <time>2019-09-07T09:05:59Z</time>
      </trkpt>
      <trkpt lat="56.066968990489841" lon="-3.87397600337863">
        <ele>47.240000000000002</ele>
        <time>2019-09-07T09:06:09Z</time>
      </trkpt>
      <trkpt lat="56.065406017005444" lon="-3.868600018322468">
        <ele>37.630000000000003</ele>
        <time>2019-09-07T09:06:22Z</time>
      </trkpt>
      <trkpt lat="56.064091986045241" lon="-3.864548038691282">
        <ele>32.82</ele>
        <time>2019-09-07T09:06:32Z</time>
      </trkpt>
      <trkpt lat="56.062203040346503" lon="-3.859836990013719">
        <ele>29.460000000000001</ele>
        <time>2019-09-07T09:06:44Z</time>
      </trkpt>
      <trkpt lat="56.060193981975317" lon="-3.856333019211888">
        <ele>29.460000000000001</ele>
        <time>2019-09-07T09:06:54Z</time>
      </trkpt>
      <trkpt lat="56.057334998622537" lon="-3.851519962772727">
        <ele>28.98</ele>
        <time>2019-09-07T09:07:08Z</time>
      </trkpt>
      <trkpt lat="56.055744029581547" lon="-3.847982967272401">
        <ele>29.940000000000001</ele>
        <time>2019-09-07T09:07:17Z</time>
      </trkpt>
      <trkpt lat="56.054539969190955" lon="-3.844021009281278">
        <ele>28.5</ele>
        <time>2019-09-07T09:07:26Z</time>
      </trkpt>
      <trkpt lat="56.052855039015412" lon="-3.838815009221435">
        <ele>22.25</ele>
        <time>2019-09-07T09:07:38Z</time>
      </trkpt>
      <trkpt lat="56.050909012556076" lon="-3.834543004631996">
        <ele>18.399999999999999</ele>
        <time>2019-09-07T09:07:49Z</time>
      </trkpt>
      <trkpt lat="56.048437021672726" lon="-3.830467974767089">
        <ele>19.359999999999999</ele>
        <time>2019-09-07T09:08:01Z</time>
      </trkpt>
      <trkpt lat="56.045174030587077" lon="-3.824963998049498">
        <ele>19.84</ele>
        <time>2019-09-07T09:08:17Z</time>
      </trkpt>
      <trkpt lat="56.044007018208504" lon="-3.821676028892398">
        <ele>20.32</ele>
        <time>2019-09-07T09:08:25Z</time>
      </trkpt>
      <trkpt lat="56.043506031855941" lon="-3.81910203024745">
        <ele>21.289999999999999</ele>
        <time>2019-09-07T09:08:31Z</time>
      </trkpt>
      <trkpt lat="56.04322599247098" lon="-3.815519018098712">
        <ele>24.649999999999999</ele>
        <time>2019-09-07T09:08:39Z</time>
      </trkpt>
      <trkpt lat="56.043387008830905" lon="-3.811888983473182">
        <ele>27.530000000000001</ele>
        <time>2019-09-07T09:08:47Z</time>
      </trkpt>
      <trkpt lat="56.043984973803163" lon="-3.807905986905098">
        <ele>29.940000000000001</ele>
        <time>2019-09-07T09:08:56Z</time>
      </trkpt>
      <trkpt lat="56.044896002858877" lon="-3.801941005513072">
        <ele>28.5</ele>
        <time>2019-09-07T09:09:10Z</time>
      </trkpt>
      <trkpt lat="56.045277966186404" lon="-3.797591971233487">
        <ele>25.129999999999999</ele>
        <time>2019-09-07T09:09:20Z</time>
      </trkpt>
      <trkpt lat="56.045217029750347" lon="-3.792961975559592">
        <ele>21.289999999999999</ele>
        <time>2019-09-07T09:09:30Z</time>
      </trkpt>
      <trkpt lat="56.044683018699288" lon="-3.788408003747463">
        <ele>18.879999999999999</ele>
        <time>2019-09-07T09:09:41Z</time>
      </trkpt>
      <trkpt lat="56.043501002714038" lon="-3.783169984817505">
        <ele>16.960000000000001</ele>
        <time>2019-09-07T09:09:52Z</time>
      </trkpt>
      <trkpt lat="56.042110025882721" lon="-3.779252031818032">
        <ele>16.960000000000001</ele>
        <time>2019-09-07T09:10:02Z</time>
      </trkpt>
      <trkpt lat="56.040814016014338" lon="-3.776377039030194">
        <ele>14.56</ele>
        <time>2019-09-07T09:10:11Z</time>
      </trkpt>
      <trkpt lat="56.038982989266515" lon="-3.7730179913342">
        <ele>13.119999999999999</ele>
        <time>2019-09-07T09:10:23Z</time>
      </trkpt>
      <trkpt lat="56.036796988919377" lon="-3.769925991073251">
        <ele>13.6</ele>
        <time>2019-09-07T09:10:34Z</time>
      </trkpt>
      <trkpt lat="56.035025976598263" lon="-3.767935959622264">
        <ele>13.6</ele>
        <time>2019-09-07T09:10:43Z</time>
      </trkpt>
      <trkpt lat="56.032911976799369" lon="-3.766035027801991">
        <ele>11.19</ele>
        <time>2019-09-07T09:10:55Z</time>
      </trkpt>
      <trkpt lat="56.030837958678603" lon="-3.764256974682212">
        <ele>10.710000000000001</ele>
        <time>2019-09-07T09:11:06Z</time>
      </trkpt>
      <trkpt lat="56.028463030233979" lon="-3.76225302927196">
        <ele>9.27</ele>
        <time>2019-09-07T09:11:18Z</time>
      </trkpt>
      <trkpt lat="56.02657500654459" lon="-3.760695001110435">
        <ele>8.310000000000001</ele>
        <time>2019-09-07T09:11:29Z</time>
      </trkpt>
      <trkpt lat="56.024422030895948" lon="-3.758917031809688">
        <ele>8.310000000000001</ele>
        <time>2019-09-07T09:11:40Z</time>
      </trkpt>
      <trkpt lat="56.021452993154526" lon="-3.75632300041616">
        <ele>10.23</ele>
        <time>2019-09-07T09:11:54Z</time>
      </trkpt>
      <trkpt lat="56.020384971052408" lon="-3.75524802133441">
        <ele>10.710000000000001</ele>
        <time>2019-09-07T09:12:01Z</time>
      </trkpt>
      <trkpt lat="56.018572971224785" lon="-3.753224965184927">
        <ele>10.23</ele>
        <time>2019-09-07T09:12:14Z</time>
      </trkpt>
      <trkpt lat="56.017535962164402" lon="-3.751441966742277">
        <ele>10.23</ele>
        <time>2019-09-07T09:12:23Z</time>
      </trkpt>
      <trkpt lat="56.017461027950048" lon="-3.751204004511237">
        <ele>10.23</ele>
        <time>2019-09-07T09:12:24Z</time>
      </trkpt>
      <trkpt lat="56.017389027401805" lon="-3.750975010916591">
        <ele>10.23</ele>
        <time>2019-09-07T09:12:25Z</time>
      </trkpt>
      <trkpt lat="56.01731400936842" lon="-3.750736964866519">
        <ele>10.23</ele>
        <time>2019-09-07T09:12:26Z</time>
      </trkpt>
      <trkpt lat="56.017304034903646" lon="-3.750503025949001">
        <ele>10.710000000000001</ele>
        <time>2019-09-07T09:12:27Z</time>
      </trkpt>
      <trkpt lat="56.017291964963078" lon="-3.750247964635491">
        <ele>10.710000000000001</ele>
        <time>2019-09-07T09:12:28Z</time>
      </trkpt>
      <trkpt lat="56.017280984669924" lon="-3.749993992969394">
        <ele>10.710000000000001</ele>
        <time>2019-09-07T09:12:29Z</time>
      </trkpt>
      <trkpt lat="56.017277967184782" lon="-3.749714037403464">
        <ele>10.23</ele>
        <time>2019-09-07T09:12:30Z</time>
      </trkpt>
      <trkpt lat="56.017325995489955" lon="-3.749465011060238">
        <ele>10.23</ele>
        <time>2019-09-07T09:12:32Z</time>
      </trkpt>
      <trkpt lat="56.017375029623508" lon="-3.749211961403489">
        <ele>9.75</ele>
        <time>2019-09-07T09:12:33Z</time>
      </trkpt>
      <trkpt lat="56.017511989921331" lon="-3.748745005577803">
        <ele>9.75</ele>
        <time>2019-09-07T09:12:34Z</time>
      </trkpt>
      <trkpt lat="56.01780703291297" lon="-3.747991975396872">
        <ele>9.27</ele>
        <time>2019-09-07T09:12:40Z</time>
      </trkpt>
      <trkpt lat="56.017870986834168" lon="-3.747830037027597">
        <ele>8.789999999999999</ele>
        <time>2019-09-07T09:12:48Z</time>
      </trkpt>
      <trkpt lat="56.017870986834168" lon="-3.747830037027597">
        <ele>8.789999999999999</ele>
        <time>2019-09-07T09:13:17Z</time>
      </trkpt>
      <trkpt lat="56.018000990152359" lon="-3.747498029842973">
        <ele>8.789999999999999</ele>
        <time>2019-09-07T09:13:33Z</time>
      </trkpt>
      <trkpt lat="56.018058992922306" lon="-3.747337013483048">
        <ele>8.789999999999999</ele>
        <time>2019-09-07T09:13:35Z</time>
      </trkpt>
      <trkpt lat="56.018081037327647" lon="-3.747263001278043">
        <ele>8.310000000000001</ele>
        <time>2019-09-07T09:13:36Z</time>
      </trkpt>
      <trkpt lat="56.018090005964041" lon="-3.747154036536813">
        <ele>8.310000000000001</ele>
        <time>2019-09-07T09:13:37Z</time>
      </trkpt>
      <trkpt lat="56.018051030114293" lon="-3.747108019888401">
        <ele>7.35</ele>
        <time>2019-09-07T09:13:38Z</time>
      </trkpt>
      <trkpt lat="56.01800300180912" lon="-3.747052028775215">
        <ele>6.87</ele>
        <time>2019-09-07T09:13:39Z</time>
      </trkpt>
      <trkpt lat="56.017950028181076" lon="-3.746988996863365">
        <ele>5.91</ele>
        <time>2019-09-07T09:13:40Z</time>
      </trkpt>
      <trkpt lat="56.017344016581774" lon="-3.74628902412951">
        <ele>1.1</ele>
        <time>2019-09-07T09:13:50Z</time>
      </trkpt>
      <trkpt lat="56.016987031325698" lon="-3.746004039421678">
        <ele>0.14</ele>
        <time>2019-09-07T09:13:54Z</time>
      </trkpt>
      <trkpt lat="56.016105003654957" lon="-3.745654011145234">
        <ele>-2.27</ele>
        <time>2019-09-07T09:14:05Z</time>
      </trkpt>
      <trkpt lat="56.015523970127106" lon="-3.745504980906844">
        <ele>-1.79</ele>
        <time>2019-09-07T09:14:13Z</time>
      </trkpt>
      <trkpt lat="56.014539012685418" lon="-3.745250003412366">
        <ele>0.14</ele>
        <time>2019-09-07T09:14:22Z</time>
      </trkpt>
      <trkpt lat="56.013728985562921" lon="-3.744931994006038">
        <ele>2.06</ele>
        <time>2019-09-07T09:14:32Z</time>
      </trkpt>
      <trkpt lat="56.013269992545247" lon="-3.744637034833431">
        <ele>3.02</ele>
        <time>2019-09-07T09:14:41Z</time>
      </trkpt>
      <trkpt lat="56.013190029188991" lon="-3.744565034285188">
        <ele>3.98</ele>
        <time>2019-09-07T09:14:53Z</time>
      </trkpt>
      <trkpt lat="56.013068994507194" lon="-3.744401000440121">
        <ele>4.94</ele>
        <time>2019-09-07T09:15:03Z</time>
      </trkpt>
      <trkpt lat="56.013008980080485" lon="-3.744320031255484">
        <ele>4.94</ele>
        <time>2019-09-07T09:15:04Z</time>
      </trkpt>
      <trkpt lat="56.012949971482158" lon="-3.744239984080195">
        <ele>5.42</ele>
        <time>2019-09-07T09:15:05Z</time>
      </trkpt>
      <trkpt lat="56.012905966490507" lon="-3.74412096105516">
        <ele>5.42</ele>
        <time>2019-09-07T09:15:06Z</time>
      </trkpt>
      <trkpt lat="56.012889035046101" lon="-3.743981989100575">
        <ele>5.42</ele>
        <time>2019-09-07T09:15:07Z</time>
      </trkpt>
      <trkpt lat="56.012870008125901" lon="-3.743837988004088">
        <ele>5.91</ele>
        <time>2019-09-07T09:15:09Z</time>
      </trkpt>
      <trkpt lat="56.012847041711211" lon="-3.743717037141323">
        <ele>5.42</ele>
        <time>2019-09-07T09:15:10Z</time>
      </trkpt>
      <trkpt lat="56.012745033949614" lon="-3.743606982752681">
        <ele>5.91</ele>
        <time>2019-09-07T09:15:11Z</time>
      </trkpt>
      <trkpt lat="56.01271896623075" lon="-3.743558032438159">
        <ele>5.42</ele>
        <time>2019-09-07T09:15:12Z</time>
      </trkpt>
      <trkpt lat="56.012697005644441" lon="-3.74351603910327">
        <ele>5.42</ele>
        <time>2019-09-07T09:15:13Z</time>
      </trkpt>
      <trkpt lat="56.012657023966312" lon="-3.743441021069884">
        <ele>5.42</ele>
        <time>2019-09-07T09:15:14Z</time>
      </trkpt>
      <trkpt lat="56.012657023966312" lon="-3.743441021069884">
        <ele>5.42</ele>
        <time>2019-09-07T09:15:15Z</time>
      </trkpt>
      <trkpt lat="56.012657023966312" lon="-3.743441021069884">
        <ele>5.42</ele>
        <time>2019-09-07T09:15:16Z</time>
      </trkpt>
      <trkpt lat="56.012657023966312" lon="-3.743441021069884">
        <ele>4.94</ele>
        <time>2019-09-07T09:15:17Z</time>
      </trkpt>
      <trkpt lat="56.012657023966312" lon="-3.743441021069884">
        <ele>4.94</ele>
        <time>2019-09-07T09:15:18Z</time>
      </trkpt>
      <trkpt lat="56.012486033141613" lon="-3.743345970287919">
        <ele>6.39</ele>
        <time>2019-09-07T09:15:31Z</time>
      </trkpt>
      <trkpt lat="56.012439010664821" lon="-3.743337001651526">
        <ele>6.39</ele>
        <time>2019-09-07T09:15:32Z</time>
      </trkpt>
      <trkpt lat="56.012364998459816" lon="-3.743344964459539">
        <ele>6.39</ele>
        <time>2019-09-07T09:15:33Z</time>
      </trkpt>
      <trkpt lat="56.01228897459805" lon="-3.743353011086583">
        <ele>6.39</ele>
        <time>2019-09-07T09:15:34Z</time>
      </trkpt>
      <trkpt lat="56.012058975175023" lon="-3.743418976664543">
        <ele>6.39</ele>
        <time>2019-09-07T09:15:38Z</time>
      </trkpt>
      <trkpt lat="56.011926038190722" lon="-3.74338997527957">
        <ele>6.39</ele>
        <time>2019-09-07T09:15:39Z</time>
      </trkpt>
      <trkpt lat="56.011848002672195" lon="-3.743359968066216">
        <ele>6.87</ele>
        <time>2019-09-07T09:15:40Z</time>
      </trkpt>
      <trkpt lat="56.011713976040483" lon="-3.743213033303618">
        <ele>7.35</ele>
        <time>2019-09-07T09:15:42Z</time>
      </trkpt>
      <trkpt lat="56.01091300137341" lon="-3.742382973432541">
        <ele>8.310000000000001</ele>
        <time>2019-09-07T09:15:51Z</time>
      </trkpt>
      <trkpt lat="56.010667998343706" lon="-3.742021964862943">
        <ele>8.789999999999999</ele>
        <time>2019-09-07T09:15:56Z</time>
      </trkpt>
      <trkpt lat="56.010629022493958" lon="-3.741958010941744">
        <ele>8.789999999999999</ele>
        <time>2019-09-07T09:15:57Z</time>
      </trkpt>
      <trkpt lat="56.01058904081583" lon="-3.741892967373133">
        <ele>8.789999999999999</ele>
        <time>2019-09-07T09:15:58Z</time>
      </trkpt>
      <trkpt lat="56.010551992803812" lon="-3.741833036765456">
        <ele>8.789999999999999</ele>
        <time>2019-09-07T09:15:59Z</time>
      </trkpt>
      <trkpt lat="56.010575965046883" lon="-3.741595996543765">
        <ele>8.789999999999999</ele>
        <time>2019-09-07T09:16:00Z</time>
      </trkpt>
      <trkpt lat="56.010575965046883" lon="-3.741595996543765">
        <ele>8.789999999999999</ele>
        <time>2019-09-07T09:16:01Z</time>
      </trkpt>
      <trkpt lat="56.010575965046883" lon="-3.741595996543765">
        <ele>8.789999999999999</ele>
        <time>2019-09-07T09:16:02Z</time>
      </trkpt>
      <trkpt lat="56.010488960891962" lon="-3.741307994350791">
        <ele>8.789999999999999</ele>
        <time>2019-09-07T09:16:03Z</time>
      </trkpt>
      <trkpt lat="56.010527014732361" lon="-3.741169022396207">
        <ele>8.789999999999999</ele>
        <time>2019-09-07T09:16:05Z</time>
      </trkpt>
      <trkpt lat="56.010546963661909" lon="-3.741097021847963">
        <ele>8.789999999999999</ele>
        <time>2019-09-07T09:16:06Z</time>
      </trkpt>
      <trkpt lat="56.010565990582108" lon="-3.741027032956481">
        <ele>8.789999999999999</ele>
        <time>2019-09-07T09:16:07Z</time>
      </trkpt>
      <trkpt lat="56.010585017502308" lon="-3.740958971902728">
        <ele>8.789999999999999</ele>
        <time>2019-09-07T09:16:08Z</time>
      </trkpt>
      <trkpt lat="56.010603960603476" lon="-3.740888983011246">
        <ele>8.789999999999999</ele>
        <time>2019-09-07T09:16:09Z</time>
      </trkpt>
      <trkpt lat="56.010622987523675" lon="-3.740821005776525">
        <ele>8.789999999999999</ele>
        <time>2019-09-07T09:16:10Z</time>
      </trkpt>
      <trkpt lat="56.010640002787113" lon="-3.740758979693055">
        <ele>9.27</ele>
        <time>2019-09-07T09:16:11Z</time>
      </trkpt>
      <trkpt lat="56.01065400056541" lon="-3.740707011893392">
        <ele>9.27</ele>
        <time>2019-09-07T09:16:12Z</time>
      </trkpt>
      <trkpt lat="56.010671015828848" lon="-3.740508025512099">
        <ele>9.27</ele>
        <time>2019-09-07T09:16:13Z</time>
      </trkpt>
      <trkpt lat="56.010704962536693" lon="-3.740523029118776">
        <ele>8.789999999999999</ele>
        <time>2019-09-07T09:16:16Z</time>
      </trkpt>
      <trkpt lat="56.010691970586777" lon="-3.740568039938808">
        <ele>8.789999999999999</ele>
        <time>2019-09-07T09:16:26Z</time>
      </trkpt>
      <trkpt lat="56.01069699972868" lon="-3.740551024675369">
        <ele>8.789999999999999</ele>
        <time>2019-09-07T09:16:27Z</time>
      </trkpt>
      <trkpt lat="56.010690964758396" lon="-3.740516994148493">
        <ele>8.789999999999999</ele>
        <time>2019-09-07T09:16:28Z</time>
      </trkpt>
      <trkpt lat="56.010690964758396" lon="-3.740570973604918">
        <ele>8.789999999999999</ele>
        <time>2019-09-07T09:16:30Z</time>
      </trkpt>
      <trkpt lat="56.010570013895631" lon="-3.741014041006565">
        <ele>8.310000000000001</ele>
        <time>2019-09-07T09:16:35Z</time>
      </trkpt>
      <trkpt lat="56.01054897531867" lon="-3.741088975220919">
        <ele>8.310000000000001</ele>
        <time>2019-09-07T09:16:36Z</time>
      </trkpt>
      <trkpt lat="56.010533971711993" lon="-3.741144966334105">
        <ele>7.83</ele>
        <time>2019-09-07T09:16:37Z</time>
      </trkpt>
      <trkpt lat="56.010521985590458" lon="-3.741188971325755">
        <ele>7.83</ele>
        <time>2019-09-07T09:16:38Z</time>
      </trkpt>
      <trkpt lat="56.010511005297303" lon="-3.741226019337773">
        <ele>7.83</ele>
        <time>2019-09-07T09:16:39Z</time>
      </trkpt>
      <trkpt lat="56.010502958670259" lon="-3.741258038207889">
        <ele>7.83</ele>
        <time>2019-09-07T09:16:40Z</time>
      </trkpt>
      <trkpt lat="56.010389970615506" lon="-3.741445960476995">
        <ele>7.35</ele>
        <time>2019-09-07T09:16:43Z</time>
      </trkpt>
      <trkpt lat="56.010344037786126" lon="-3.741485020145774">
        <ele>7.35</ele>
        <time>2019-09-07T09:16:44Z</time>
      </trkpt>
      <trkpt lat="56.010338002815843" lon="-3.741500023752451">
        <ele>7.35</ele>
        <time>2019-09-07T09:16:45Z</time>
      </trkpt>
      <trkpt lat="56.010322999209166" lon="-3.74160697683692">
        <ele>7.35</ele>
        <time>2019-09-07T09:16:47Z</time>
      </trkpt>
      <trkpt lat="56.010356023907661" lon="-3.741750977933407">
        <ele>7.35</ele>
        <time>2019-09-07T09:16:48Z</time>
      </trkpt>
      <trkpt lat="56.010383013635874" lon="-3.741766987368465">
        <ele>7.35</ele>
        <time>2019-09-07T09:16:49Z</time>
      </trkpt>
      <trkpt lat="56.010448979213834" lon="-3.741766987368465">
        <ele>7.35</ele>
        <time>2019-09-07T09:16:50Z</time>
      </trkpt>
      <trkpt lat="56.010565990582108" lon="-3.741856003180146">
        <ele>7.35</ele>
        <time>2019-09-07T09:16:51Z</time>
      </trkpt>
      <trkpt lat="56.010624999180436" lon="-3.74195197597146">
        <ele>7.35</ele>
        <time>2019-09-07T09:16:52Z</time>
      </trkpt>
      <trkpt lat="56.010688031092286" lon="-3.742054989561439">
        <ele>7.35</ele>
        <time>2019-09-07T09:16:53Z</time>
      </trkpt>
      <trkpt lat="56.010752990841866" lon="-3.742159008979797">
        <ele>7.35</ele>
        <time>2019-09-07T09:16:54Z</time>
      </trkpt>
      <trkpt lat="56.01097796112299" lon="-3.742449022829533">
        <ele>6.87</ele>
        <time>2019-09-07T09:16:59Z</time>
      </trkpt>
      <trkpt lat="56.011650022119284" lon="-3.743142960593104">
        <ele>5.42</ele>
        <time>2019-09-07T09:17:09Z</time>
      </trkpt>
      <trkpt lat="56.011770972982049" lon="-3.743275981396437">
        <ele>5.42</ele>
        <time>2019-09-07T09:17:16Z</time>
      </trkpt>
      <trkpt lat="56.011770972982049" lon="-3.743275981396437">
        <ele>5.42</ele>
        <time>2019-09-07T09:17:41Z</time>
      </trkpt>
      <trkpt lat="56.011886978521943" lon="-3.743565995246172">
        <ele>5.91</ele>
        <time>2019-09-07T09:18:07Z</time>
      </trkpt>
      <trkpt lat="56.01190198212862" lon="-3.743687029927969">
        <ele>5.91</ele>
        <time>2019-09-07T09:18:08Z</time>
      </trkpt>
      <trkpt lat="56.011915979906917" lon="-3.743800017982721">
        <ele>5.91</ele>
        <time>2019-09-07T09:18:09Z</time>
      </trkpt>
      <trkpt lat="56.011791005730629" lon="-3.744719009846449">
        <ele>2.54</ele>
        <time>2019-09-07T09:18:20Z</time>
      </trkpt>
      <trkpt lat="56.011738032102585" lon="-3.744894023984671">
        <ele>2.54</ele>
        <time>2019-09-07T09:18:23Z</time>
      </trkpt>
      <trkpt lat="56.011709030717611" lon="-3.744954960420728">
        <ele>2.54</ele>
        <time>2019-09-07T09:18:24Z</time>
      </trkpt>
      <trkpt lat="56.011681035161018" lon="-3.745011035352945">
        <ele>2.54</ele>
        <time>2019-09-07T09:18:25Z</time>
      </trkpt>
      <trkpt lat="56.011499986052513" lon="-3.745380006730557">
        <ele>2.54</ele>
        <time>2019-09-07T09:18:36Z</time>
      </trkpt>
      <trkpt lat="56.011499986052513" lon="-3.745380006730557">
        <ele>2.54</ele>
        <time>2019-09-07T09:18:57Z</time>
      </trkpt>
      <trkpt lat="56.011499986052513" lon="-3.745380006730557">
        <ele>2.54</ele>
        <time>2019-09-07T09:19:47Z</time>
      </trkpt>
      <trkpt lat="56.011480959132314" lon="-3.745418982580304">
        <ele>2.54</ele>
        <time>2019-09-07T09:20:07Z</time>
      </trkpt>
      <trkpt lat="56.011464027687907" lon="-3.745454018935561">
        <ele>3.02</ele>
        <time>2019-09-07T09:20:08Z</time>
      </trkpt>
      <trkpt lat="56.01114702410996" lon="-3.746087020263076">
        <ele>3.02</ele>
        <time>2019-09-07T09:20:14Z</time>
      </trkpt>
      <trkpt lat="56.01046197116375" lon="-3.747461987659335">
        <ele>4.46</ele>
        <time>2019-09-07T09:20:26Z</time>
      </trkpt>
      <trkpt lat="56.009333012625575" lon="-3.749666009098291">
        <ele>6.87</ele>
        <time>2019-09-07T09:20:40Z</time>
      </trkpt>
      <trkpt lat="56.008740998804569" lon="-3.750678040087223">
        <ele>7.35</ele>
        <time>2019-09-07T09:20:48Z</time>
      </trkpt>
      <trkpt lat="56.00794798694551" lon="-3.75217798165977">
        <ele>4.46</ele>
        <time>2019-09-07T09:20:57Z</time>
      </trkpt>
      <trkpt lat="56.007179031148553" lon="-3.753879005089402">
        <ele>4.46</ele>
        <time>2019-09-07T09:21:07Z</time>
      </trkpt>
      <trkpt lat="56.006690030917525" lon="-3.755216002464294">
        <ele>5.42</ele>
        <time>2019-09-07T09:21:13Z</time>
      </trkpt>
      <trkpt lat="56.006273031234741" lon="-3.756402963772416">
        <ele>5.42</ele>
        <time>2019-09-07T09:21:22Z</time>
      </trkpt>
      <trkpt lat="56.006171023473144" lon="-3.756606979295611">
        <ele>5.42</ele>
        <time>2019-09-07T09:21:24Z</time>
      </trkpt>
      <trkpt lat="56.006089970469475" lon="-3.756770007312298">
        <ele>5.42</ele>
        <time>2019-09-07T09:21:25Z</time>
      </trkpt>
      <trkpt lat="56.005941024050117" lon="-3.757066978141666">
        <ele>5.42</ele>
        <time>2019-09-07T09:21:29Z</time>
      </trkpt>
      <trkpt lat="56.005794005468488" lon="-3.757138978689909">
        <ele>5.42</ele>
        <time>2019-09-07T09:21:31Z</time>
      </trkpt>
      <trkpt lat="56.005720999091864" lon="-3.757222965359688">
        <ele>4.94</ele>
        <time>2019-09-07T09:21:32Z</time>
      </trkpt>
      <trkpt lat="56.005697026848793" lon="-3.757345005869865">
        <ele>5.42</ele>
        <time>2019-09-07T09:21:33Z</time>
      </trkpt>
      <trkpt lat="56.00567095912993" lon="-3.757474003359675">
        <ele>5.42</ele>
        <time>2019-09-07T09:21:34Z</time>
      </trkpt>
      <trkpt lat="56.005698032677174" lon="-3.757643988355994">
        <ele>5.42</ele>
        <time>2019-09-07T09:21:35Z</time>
      </trkpt>
      <trkpt lat="56.005757041275501" lon="-3.757757982239127">
        <ele>5.42</ele>
        <time>2019-09-07T09:21:36Z</time>
      </trkpt>
      <trkpt lat="56.005838010460138" lon="-3.757824031636119">
        <ele>4.94</ele>
        <time>2019-09-07T09:21:38Z</time>
      </trkpt>
      <trkpt lat="56.006225002929568" lon="-3.757926961407065">
        <ele>5.42</ele>
        <time>2019-09-07T09:21:41Z</time>
      </trkpt>
      <trkpt lat="56.006317958235741" lon="-3.757959986105561">
        <ele>5.91</ele>
        <time>2019-09-07T09:21:42Z</time>
      </trkpt>
      <trkpt lat="56.007290007546544" lon="-3.758661970496178">
        <ele>6.87</ele>
        <time>2019-09-07T09:21:50Z</time>
      </trkpt>
      <trkpt lat="56.008919030427933" lon="-3.759934008121491">
        <ele>8.310000000000001</ele>
        <time>2019-09-07T09:22:03Z</time>
      </trkpt>
      <trkpt lat="56.010105991736054" lon="-3.760570026934147">
        <ele>8.310000000000001</ele>
        <time>2019-09-07T09:22:11Z</time>
      </trkpt>
      <trkpt lat="56.011274009943008" lon="-3.760667005553842">
        <ele>7.35</ele>
        <time>2019-09-07T09:22:19Z</time>
      </trkpt>
      <trkpt lat="56.011737026274204" lon="-3.760705981403589">
        <ele>8.310000000000001</ele>
        <time>2019-09-07T09:22:25Z</time>
      </trkpt>
      <trkpt lat="56.01179201155901" lon="-3.760710004717112">
        <ele>8.789999999999999</ele>
        <time>2019-09-07T09:22:26Z</time>
      </trkpt>
      <trkpt lat="56.011884966865182" lon="-3.760929023846984">
        <ele>8.789999999999999</ele>
        <time>2019-09-07T09:22:27Z</time>
      </trkpt>
      <trkpt lat="56.011974988505244" lon="-3.761001024395227">
        <ele>9.27</ele>
        <time>2019-09-07T09:22:29Z</time>
      </trkpt>
      <trkpt lat="56.01207297295332" lon="-3.760975040495396">
        <ele>9.27</ele>
        <time>2019-09-07T09:22:30Z</time>
      </trkpt>
      <trkpt lat="56.012121001258492" lon="-3.760950984433293">
        <ele>9.27</ele>
        <time>2019-09-07T09:22:31Z</time>
      </trkpt>
      <trkpt lat="56.01215897127986" lon="-3.760777981951833">
        <ele>9.75</ele>
        <time>2019-09-07T09:22:32Z</time>
      </trkpt>
      <trkpt lat="56.012150002643466" lon="-3.760696006938815">
        <ele>9.27</ele>
        <time>2019-09-07T09:22:33Z</time>
      </trkpt>
      <trkpt lat="56.012123012915254" lon="-3.760572038590908">
        <ele>9.27</ele>
        <time>2019-09-07T09:22:34Z</time>
      </trkpt>
      <trkpt lat="56.012121001258492" lon="-3.760563991963863">
        <ele>9.27</ele>
        <time>2019-09-07T09:22:35Z</time>
      </trkpt>
      <trkpt lat="56.01205101236701" lon="-3.760241037234664">
        <ele>9.27</ele>
        <time>2019-09-07T09:22:36Z</time>
      </trkpt>
      <trkpt lat="56.012062998488545" lon="-3.760086977854371">
        <ele>9.27</ele>
        <time>2019-09-07T09:22:37Z</time>
      </trkpt>
      <trkpt lat="56.012075990438461" lon="-3.759917998686433">
        <ele>8.789999999999999</ele>
        <time>2019-09-07T09:22:38Z</time>
      </trkpt>
      <trkpt lat="56.012090994045138" lon="-3.759734015911818">
        <ele>8.789999999999999</ele>
        <time>2019-09-07T09:22:39Z</time>
      </trkpt>
      <trkpt lat="56.012107003480196" lon="-3.759539974853396">
        <ele>8.789999999999999</ele>
        <time>2019-09-07T09:22:40Z</time>
      </trkpt>
      <trkpt lat="56.012121001258492" lon="-3.759363032877445">
        <ele>8.789999999999999</ele>
        <time>2019-09-07T09:22:41Z</time>
      </trkpt>
      <trkpt lat="56.01222300902009" lon="-3.759209979325533">
        <ele>8.789999999999999</ele>
        <time>2019-09-07T09:22:42Z</time>
      </trkpt>
      <trkpt lat="56.012304984033108" lon="-3.759087016806006">
        <ele>8.789999999999999</ele>
        <time>2019-09-07T09:22:43Z</time>
      </trkpt>
      <trkpt lat="56.012378996238112" lon="-3.758967993780971">
        <ele>8.789999999999999</ele>
        <time>2019-09-07T09:22:45Z</time>
      </trkpt>
      <trkpt lat="56.01248100399971" lon="-3.758822986856103">
        <ele>8.789999999999999</ele>
        <time>2019-09-07T09:22:46Z</time>
      </trkpt>
      <trkpt lat="56.012538000941277" lon="-3.758812006562948">
        <ele>8.789999999999999</ele>
        <time>2019-09-07T09:22:47Z</time>
      </trkpt>
      <trkpt lat="56.012678984552622" lon="-3.758783005177975">
        <ele>8.789999999999999</ele>
        <time>2019-09-07T09:22:50Z</time>
      </trkpt>
      <trkpt lat="56.012731958180666" lon="-3.758806977421045">
        <ele>8.789999999999999</ele>
        <time>2019-09-07T09:22:51Z</time>
      </trkpt>
      <trkpt lat="56.012780992314219" lon="-3.758828015998006">
        <ele>8.789999999999999</ele>
        <time>2019-09-07T09:22:52Z</time>
      </trkpt>
      <trkpt lat="56.01286799646914" lon="-3.758866991847754">
        <ele>8.310000000000001</ele>
        <time>2019-09-07T09:22:54Z</time>
      </trkpt>
      <trkpt lat="56.012933040037751" lon="-3.758930023759604">
        <ele>8.310000000000001</ele>
        <time>2019-09-07T09:22:56Z</time>
      </trkpt>
      <trkpt lat="56.013077041134238" lon="-3.759074024856091">
        <ele>8.310000000000001</ele>
        <time>2019-09-07T09:23:00Z</time>
      </trkpt>
      <trkpt lat="56.013115011155605" lon="-3.759111994877458">
        <ele>8.310000000000001</ele>
        <time>2019-09-07T09:23:01Z</time>
      </trkpt>
      <trkpt lat="56.013150969520211" lon="-3.759148037061095">
        <ele>8.310000000000001</ele>
        <time>2019-09-07T09:23:02Z</time>
      </trkpt>
      <trkpt lat="56.013202015310526" lon="-3.759180977940559">
        <ele>8.310000000000001</ele>
        <time>2019-09-07T09:23:03Z</time>
      </trkpt>
      <trkpt lat="56.013247026130557" lon="-3.759209979325533">
        <ele>8.310000000000001</ele>
        <time>2019-09-07T09:23:04Z</time>
      </trkpt>
      <trkpt lat="56.013611974194646" lon="-3.759351968765259">
        <ele>7.35</ele>
        <time>2019-09-07T09:23:11Z</time>
      </trkpt>
      <trkpt lat="56.01368498057127" lon="-3.759356997907162">
        <ele>6.87</ele>
        <time>2019-09-07T09:23:12Z</time>
      </trkpt>
      <trkpt lat="56.014054035767913" lon="-3.759221965447068">
        <ele>5.91</ele>
        <time>2019-09-07T09:23:19Z</time>
      </trkpt>
      <trkpt lat="56.014093011617661" lon="-3.759203022345901">
        <ele>5.91</ele>
        <time>2019-09-07T09:23:20Z</time>
      </trkpt>
      <trkpt lat="56.014218991622329" lon="-3.759128004312515">
        <ele>5.91</ele>
        <time>2019-09-07T09:23:23Z</time>
      </trkpt>
      <trkpt lat="56.014260984957218" lon="-3.759079976007342">
        <ele>5.42</ele>
        <time>2019-09-07T09:23:24Z</time>
      </trkpt>
      <trkpt lat="56.014434993267059" lon="-3.758875960484147">
        <ele>5.42</ele>
        <time>2019-09-07T09:23:27Z</time>
      </trkpt>
      <trkpt lat="56.014497019350529" lon="-3.758759032934904">
        <ele>5.42</ele>
        <time>2019-09-07T09:23:28Z</time>
      </trkpt>
      <trkpt lat="56.014545969665051" lon="-3.758642021566629">
        <ele>5.42</ele>
        <time>2019-09-07T09:23:29Z</time>
      </trkpt>
      <trkpt lat="56.014705980196595" lon="-3.758100969716907">
        <ele>6.39</ele>
        <time>2019-09-07T09:23:35Z</time>
      </trkpt>
      <trkpt lat="56.014724001288414" lon="-3.758017988875508">
        <ele>6.39</ele>
        <time>2019-09-07T09:23:36Z</time>
      </trkpt>
      <trkpt lat="56.014836989343166" lon="-3.75750501640141">
        <ele>6.87</ele>
        <time>2019-09-07T09:23:41Z</time>
      </trkpt>
      <trkpt lat="56.014989959076047" lon="-3.756727008149028">
        <ele>7.35</ele>
        <time>2019-09-07T09:23:48Z</time>
      </trkpt>
      <trkpt lat="56.015238985419273" lon="-3.755323961377144">
        <ele>7.83</ele>
        <time>2019-09-07T09:23:59Z</time>
      </trkpt>
      <trkpt lat="56.015380974858999" lon="-3.754524998366833">
        <ele>6.39</ele>
        <time>2019-09-07T09:24:06Z</time>
      </trkpt>
      <trkpt lat="56.015393966808915" lon="-3.754451991990209">
        <ele>6.39</ele>
        <time>2019-09-07T09:24:07Z</time>
      </trkpt>
      <trkpt lat="56.015407964587212" lon="-3.754374040290713">
        <ele>6.39</ele>
        <time>2019-09-07T09:24:08Z</time>
      </trkpt>
      <trkpt lat="56.015421962365508" lon="-3.754299022257328">
        <ele>6.39</ele>
        <time>2019-09-07T09:24:09Z</time>
      </trkpt>
      <trkpt lat="56.01542497985065" lon="-3.754276977851987">
        <ele>6.39</ele>
        <time>2019-09-07T09:24:10Z</time>
      </trkpt>
      <trkpt lat="56.015462027862668" lon="-3.754183016717434">
        <ele>6.39</ele>
        <time>2019-09-07T09:24:11Z</time>
      </trkpt>
      <trkpt lat="56.0154880117625" lon="-3.754115961492062">
        <ele>6.87</ele>
        <time>2019-09-07T09:24:12Z</time>
      </trkpt>
      <trkpt lat="56.015516007319093" lon="-3.754045972600579">
        <ele>6.87</ele>
        <time>2019-09-07T09:24:13Z</time>
      </trkpt>
      <trkpt lat="56.015542997047305" lon="-3.753974977880716">
        <ele>6.87</ele>
        <time>2019-09-07T09:24:14Z</time>
      </trkpt>
      <trkpt lat="56.015595970675349" lon="-3.753840029239655">
        <ele>7.35</ele>
        <time>2019-09-07T09:24:16Z</time>
      </trkpt>
      <trkpt lat="56.015619020909071" lon="-3.753784038126469">
        <ele>7.35</ele>
        <time>2019-09-07T09:24:17Z</time>
      </trkpt>
      <trkpt lat="56.015652967616916" lon="-3.753760987892747">
        <ele>7.35</ele>
        <time>2019-09-07T09:24:18Z</time>
      </trkpt>
      <trkpt lat="56.015685992315412" lon="-3.753739027306438">
        <ele>7.35</ele>
        <time>2019-09-07T09:24:19Z</time>
      </trkpt>
      <trkpt lat="56.015717005357146" lon="-3.753717988729477">
        <ele>7.35</ele>
        <time>2019-09-07T09:24:20Z</time>
      </trkpt>
      <trkpt lat="56.015745000913739" lon="-3.753699967637658">
        <ele>7.83</ele>
        <time>2019-09-07T09:24:21Z</time>
      </trkpt>
      <trkpt lat="56.015819013118744" lon="-3.753722012042999">
        <ele>7.35</ele>
        <time>2019-09-07T09:24:29Z</time>
      </trkpt>
      <trkpt lat="56.015839967876673" lon="-3.753728969022632">
        <ele>7.35</ele>
        <time>2019-09-07T09:25:09Z</time>
      </trkpt>
      <trkpt lat="56.016072984784842" lon="-3.754066005349159">
        <ele>5.42</ele>
        <time>2019-09-07T09:25:19Z</time>
      </trkpt>
      <trkpt lat="56.016084970906377" lon="-3.754091989248991">
        <ele>4.46</ele>
        <time>2019-09-07T09:25:20Z</time>
      </trkpt>
      <trkpt lat="56.016109026968479" lon="-3.754075979813933">
        <ele>3.5</ele>
        <time>2019-09-07T09:25:21Z</time>
      </trkpt>
      <trkpt lat="56.016126964241266" lon="-3.75404798425734">
        <ele>3.02</ele>
        <time>2019-09-07T09:25:22Z</time>
      </trkpt>
      <trkpt lat="56.016145991161466" lon="-3.754017977043986">
        <ele>2.06</ele>
        <time>2019-09-07T09:25:23Z</time>
      </trkpt>
      <trkpt lat="56.016166023910046" lon="-3.753986964002252">
        <ele>1.58</ele>
        <time>2019-09-07T09:25:24Z</time>
      </trkpt>
      <trkpt lat="56.016240958124399" lon="-3.753870036453009">
        <ele>-3.23</ele>
        <time>2019-09-07T09:25:35Z</time>
      </trkpt>
      <trkpt lat="56.016240958124399" lon="-3.753870036453009">
        <ele>-3.23</ele>
        <time>2019-09-07T09:25:44Z</time>
      </trkpt>
      <trkpt lat="56.016314970329404" lon="-3.753642970696092">
        <ele>-2.27</ele>
        <time>2019-09-07T09:25:55Z</time>
      </trkpt>
      <trkpt lat="56.016247998923063" lon="-3.75374598428607">
        <ele>19.359999999999999</ele>
        <time>2019-09-07T09:56:22Z</time>
      </trkpt>
      <trkpt lat="56.016246993094683" lon="-3.753694016486406">
        <ele>9.75</ele>
        <time>2019-09-07T09:56:48Z</time>
      </trkpt>
      <trkpt lat="56.016269959509373" lon="-3.75368102453649">
        <ele>10.23</ele>
        <time>2019-09-07T09:57:26Z</time>
      </trkpt>
      <trkpt lat="56.016267025843263" lon="-3.753677001222968">
        <ele>7.35</ele>
        <time>2019-09-07T09:58:15Z</time>
      </trkpt>
      <trkpt lat="56.016267025843263" lon="-3.753677001222968">
        <ele>7.35</ele>
        <time>2019-09-07T09:58:22Z</time>
      </trkpt>
      <trkpt lat="56.016240958124399" lon="-3.753870036453009">
        <ele>7.35</ele>
        <time>2019-09-07T09:58:24Z</time>
      </trkpt>
      <trkpt lat="56.016240958124399" lon="-3.753870036453009">
        <ele>7.35</ele>
        <time>2019-09-07T09:58:25Z</time>
      </trkpt>
      <trkpt lat="56.016240958124399" lon="-3.753870036453009">
        <ele>7.35</ele>
        <time>2019-09-07T09:58:26Z</time>
      </trkpt>
      <trkpt lat="56.01621899753809" lon="-3.753903983160853">
        <ele>7.35</ele>
        <time>2019-09-07T09:58:27Z</time>
      </trkpt>
      <trkpt lat="56.016194019466639" lon="-3.753942959010601">
        <ele>7.35</ele>
        <time>2019-09-07T09:58:28Z</time>
      </trkpt>
      <trkpt lat="56.016141967847943" lon="-3.75402501784265">
        <ele>6.87</ele>
        <time>2019-09-07T09:58:30Z</time>
      </trkpt>
      <trkpt lat="56.016036020591855" lon="-3.753981012851">
        <ele>6.87</ele>
        <time>2019-09-07T09:58:31Z</time>
      </trkpt>
      <trkpt lat="56.016008025035262" lon="-3.753915969282389">
        <ele>6.87</ele>
        <time>2019-09-07T09:58:32Z</time>
      </trkpt>
      <trkpt lat="56.015969971194863" lon="-3.753829970955849">
        <ele>6.87</ele>
        <time>2019-09-07T09:58:33Z</time>
      </trkpt>
      <trkpt lat="56.015909034758806" lon="-3.753752019256353">
        <ele>6.87</ele>
        <time>2019-09-07T09:58:34Z</time>
      </trkpt>
      <trkpt lat="56.015842985361814" lon="-3.753729974851012">
        <ele>6.87</ele>
        <time>2019-09-07T09:58:35Z</time>
      </trkpt>
      <trkpt lat="56.015776013955474" lon="-3.753707008436322">
        <ele>6.87</ele>
        <time>2019-09-07T09:58:36Z</time>
      </trkpt>
      <trkpt lat="56.015721028670669" lon="-3.753714971244335">
        <ele>7.35</ele>
        <time>2019-09-07T09:58:37Z</time>
      </trkpt>
      <trkpt lat="56.015659002587199" lon="-3.753756964579225">
        <ele>7.35</ele>
        <time>2019-09-07T09:58:38Z</time>
      </trkpt>
      <trkpt lat="56.015619020909071" lon="-3.753784038126469">
        <ele>7.35</ele>
        <time>2019-09-07T09:58:39Z</time>
      </trkpt>
      <trkpt lat="56.015571998432279" lon="-3.753903983160853">
        <ele>6.87</ele>
        <time>2019-09-07T09:58:40Z</time>
      </trkpt>
      <trkpt lat="56.015523970127106" lon="-3.754026023671031">
        <ele>6.87</ele>
        <time>2019-09-07T09:58:41Z</time>
      </trkpt>
      <trkpt lat="56.015473008155823" lon="-3.754155021160841">
        <ele>6.87</ele>
        <time>2019-09-07T09:58:42Z</time>
      </trkpt>
      <trkpt lat="56.01542497985065" lon="-3.754276977851987">
        <ele>6.87</ele>
        <time>2019-09-07T09:58:43Z</time>
      </trkpt>
      <trkpt lat="56.015294976532459" lon="-3.755008969455957">
        <ele>5.42</ele>
        <time>2019-09-07T09:58:51Z</time>
      </trkpt>
      <trkpt lat="56.015135971829295" lon="-3.755907006561756">
        <ele>5.42</ele>
        <time>2019-09-07T09:59:00Z</time>
      </trkpt>
      <trkpt lat="56.015047039836645" lon="-3.756407992914319">
        <ele>5.42</ele>
        <time>2019-09-07T09:59:05Z</time>
      </trkpt>
      <trkpt lat="56.014764988794923" lon="-3.757831994444132">
        <ele>6.87</ele>
        <time>2019-09-07T09:59:15Z</time>
      </trkpt>
      <trkpt lat="56.014561979100108" lon="-3.758604973554611">
        <ele>8.310000000000001</ele>
        <time>2019-09-07T09:59:24Z</time>
      </trkpt>
      <trkpt lat="56.01452300325036" lon="-3.758698012679815">
        <ele>8.310000000000001</ele>
        <time>2019-09-07T09:59:25Z</time>
      </trkpt>
      <trkpt lat="56.014481009915471" lon="-3.758797002956271">
        <ele>8.310000000000001</ele>
        <time>2019-09-07T09:59:26Z</time>
      </trkpt>
      <trkpt lat="56.014427030459046" lon="-3.758886018767953">
        <ele>8.310000000000001</ele>
        <time>2019-09-07T09:59:27Z</time>
      </trkpt>
      <trkpt lat="56.014363998547196" lon="-3.758959025144577">
        <ele>7.83</ele>
        <time>2019-09-07T09:59:28Z</time>
      </trkpt>
      <trkpt lat="56.014303984120488" lon="-3.75903001986444">
        <ele>7.83</ele>
        <time>2019-09-07T09:59:29Z</time>
      </trkpt>
      <trkpt lat="56.014247993007302" lon="-3.759094979614019">
        <ele>7.83</ele>
        <time>2019-09-07T09:59:30Z</time>
      </trkpt>
      <trkpt lat="56.014201976358891" lon="-3.759148037061095">
        <ele>7.35</ele>
        <time>2019-09-07T09:59:31Z</time>
      </trkpt>
      <trkpt lat="56.014139028266072" lon="-3.759179972112179">
        <ele>7.35</ele>
        <time>2019-09-07T09:59:32Z</time>
      </trkpt>
      <trkpt lat="56.014083959162235" lon="-3.759206961840391">
        <ele>6.87</ele>
        <time>2019-09-07T09:59:33Z</time>
      </trkpt>
      <trkpt lat="56.013893019407988" lon="-3.759303018450737">
        <ele>6.39</ele>
        <time>2019-09-07T09:59:36Z</time>
      </trkpt>
      <trkpt lat="56.013816995546222" lon="-3.759340988472104">
        <ele>6.39</ele>
        <time>2019-09-07T09:59:37Z</time>
      </trkpt>
      <trkpt lat="56.013569980859756" lon="-3.759349035099149">
        <ele>6.87</ele>
        <time>2019-09-07T09:59:41Z</time>
      </trkpt>
      <trkpt lat="56.013394966721535" lon="-3.759305030107498">
        <ele>7.35</ele>
        <time>2019-09-07T09:59:44Z</time>
      </trkpt>
      <trkpt lat="56.013338975608349" lon="-3.759269993752241">
        <ele>7.35</ele>
        <time>2019-09-07T09:59:45Z</time>
      </trkpt>
      <trkpt lat="56.012822985649109" lon="-3.758847964927554">
        <ele>7.83</ele>
        <time>2019-09-07T09:59:54Z</time>
      </trkpt>
      <trkpt lat="56.01275903172791" lon="-3.758818963542581">
        <ele>7.83</ele>
        <time>2019-09-07T09:59:55Z</time>
      </trkpt>
      <trkpt lat="56.012688959017396" lon="-3.758788034319878">
        <ele>7.83</ele>
        <time>2019-09-07T09:59:56Z</time>
      </trkpt>
      <trkpt lat="56.012608995661139" lon="-3.758797002956271">
        <ele>8.310000000000001</ele>
        <time>2019-09-07T09:59:57Z</time>
      </trkpt>
      <trkpt lat="56.012520985677838" lon="-3.75881502404809">
        <ele>8.310000000000001</ele>
        <time>2019-09-07T09:59:58Z</time>
      </trkpt>
      <trkpt lat="56.012435993179679" lon="-3.758873026818037">
        <ele>8.789999999999999</ele>
        <time>2019-09-07T09:59:59Z</time>
      </trkpt>
      <trkpt lat="56.01237203925848" lon="-3.758980985730887">
        <ele>8.789999999999999</ele>
        <time>2019-09-07T10:00:00Z</time>
      </trkpt>
      <trkpt lat="56.012304984033108" lon="-3.759087016806006">
        <ele>8.789999999999999</ele>
        <time>2019-09-07T10:00:01Z</time>
      </trkpt>
      <trkpt lat="56.012238012626767" lon="-3.759187012910843">
        <ele>8.789999999999999</ele>
        <time>2019-09-07T10:00:02Z</time>
      </trkpt>
      <trkpt lat="56.012172969058156" lon="-3.759283991530538">
        <ele>8.789999999999999</ele>
        <time>2019-09-07T10:00:03Z</time>
      </trkpt>
      <trkpt lat="56.01211697794497" lon="-3.759416006505489">
        <ele>8.789999999999999</ele>
        <time>2019-09-07T10:00:04Z</time>
      </trkpt>
      <trkpt lat="56.012107003480196" lon="-3.759540980681777">
        <ele>8.310000000000001</ele>
        <time>2019-09-07T10:00:05Z</time>
      </trkpt>
      <trkpt lat="56.012098034843802" lon="-3.7596520408988">
        <ele>8.310000000000001</ele>
        <time>2019-09-07T10:00:06Z</time>
      </trkpt>
      <trkpt lat="56.012089988216758" lon="-3.759750025346875">
        <ele>8.310000000000001</ele>
        <time>2019-09-07T10:00:07Z</time>
      </trkpt>
      <trkpt lat="56.012083031237125" lon="-3.759833006188273">
        <ele>7.83</ele>
        <time>2019-09-07T10:00:08Z</time>
      </trkpt>
      <trkpt lat="56.012052018195391" lon="-3.760229973122478">
        <ele>7.83</ele>
        <time>2019-09-07T10:00:13Z</time>
      </trkpt>
      <trkpt lat="56.012043971568346" lon="-3.760322006419301">
        <ele>7.83</ele>
        <time>2019-09-07T10:00:14Z</time>
      </trkpt>
      <trkpt lat="56.011998038738966" lon="-3.760456033051014">
        <ele>7.83</ele>
        <time>2019-09-07T10:00:15Z</time>
      </trkpt>
      <trkpt lat="56.011935006827116" lon="-3.760492997244">
        <ele>7.83</ele>
        <time>2019-09-07T10:00:16Z</time>
      </trkpt>
      <trkpt lat="56.011884966865182" lon="-3.760520992800593">
        <ele>7.83</ele>
        <time>2019-09-07T10:00:17Z</time>
      </trkpt>
      <trkpt lat="56.011783964931965" lon="-3.760710004717112">
        <ele>7.83</ele>
        <time>2019-09-07T10:00:18Z</time>
      </trkpt>
      <trkpt lat="56.011693021282554" lon="-3.760702041909099">
        <ele>8.310000000000001</ele>
        <time>2019-09-07T10:00:19Z</time>
      </trkpt>
      <trkpt lat="56.01159998215735" lon="-3.760695001110435">
        <ele>8.310000000000001</ele>
        <time>2019-09-07T10:00:20Z</time>
      </trkpt>
      <trkpt lat="56.011504009366035" lon="-3.760687038302422">
        <ele>8.310000000000001</ele>
        <time>2019-09-07T10:00:21Z</time>
      </trkpt>
      <trkpt lat="56.01140501908958" lon="-3.760677985846996">
        <ele>8.310000000000001</ele>
        <time>2019-09-07T10:00:22Z</time>
      </trkpt>
      <trkpt lat="56.010401034727693" lon="-3.760595005005598">
        <ele>8.310000000000001</ele>
        <time>2019-09-07T10:00:32Z</time>
      </trkpt>
      <trkpt lat="56.009318009018898" lon="-3.760246988385916">
        <ele>8.310000000000001</ele>
        <time>2019-09-07T10:00:41Z</time>
      </trkpt>
      <trkpt lat="56.007795017212629" lon="-3.759057009592652">
        <ele>7.83</ele>
        <time>2019-09-07T10:00:54Z</time>
      </trkpt>
      <trkpt lat="56.006816010922194" lon="-3.758291993290186">
        <ele>3.5</ele>
        <time>2019-09-07T10:01:04Z</time>
      </trkpt>
      <trkpt lat="56.006446033716202" lon="-3.75799703411758">
        <ele>2.06</ele>
        <time>2019-09-07T10:01:13Z</time>
      </trkpt>
      <trkpt lat="56.006391970440745" lon="-3.757918998599052">
        <ele>3.02</ele>
        <time>2019-09-07T10:01:24Z</time>
      </trkpt>
      <trkpt lat="56.006274037063122" lon="-3.757749013602734">
        <ele>4.46</ele>
        <time>2019-09-07T10:01:34Z</time>
      </trkpt>
      <trkpt lat="56.006187032908201" lon="-3.757624039426446">
        <ele>4.94</ele>
        <time>2019-09-07T10:01:37Z</time>
      </trkpt>
      <trkpt lat="56.006113020703197" lon="-3.757495963945985">
        <ele>4.94</ele>
        <time>2019-09-07T10:01:38Z</time>
      </trkpt>
      <trkpt lat="56.006113020703197" lon="-3.757385993376374">
        <ele>4.94</ele>
        <time>2019-09-07T10:01:39Z</time>
      </trkpt>
      <trkpt lat="56.006091982126236" lon="-3.757292032241821">
        <ele>4.94</ele>
        <time>2019-09-07T10:01:40Z</time>
      </trkpt>
      <trkpt lat="56.006041020154953" lon="-3.757216008380055">
        <ele>4.94</ele>
        <time>2019-09-07T10:01:41Z</time>
      </trkpt>
      <trkpt lat="56.005991986021399" lon="-3.757143002003431">
        <ele>4.94</ele>
        <time>2019-09-07T10:01:42Z</time>
      </trkpt>
      <trkpt lat="56.005921997129917" lon="-3.757072007283568">
        <ele>4.94</ele>
        <time>2019-09-07T10:01:43Z</time>
      </trkpt>
      <trkpt lat="56.005855025723577" lon="-3.757088016718626">
        <ele>4.46</ele>
        <time>2019-09-07T10:01:44Z</time>
      </trkpt>
      <trkpt lat="56.005801968276501" lon="-3.757067983970046">
        <ele>4.46</ele>
        <time>2019-09-07T10:01:45Z</time>
      </trkpt>
      <trkpt lat="56.005603987723589" lon="-3.756990032270551">
        <ele>4.46</ele>
        <time>2019-09-07T10:01:49Z</time>
      </trkpt>
      <trkpt lat="56.005564006045461" lon="-3.756975028663874">
        <ele>4.46</ele>
        <time>2019-09-07T10:01:50Z</time>
      </trkpt>
      <trkpt lat="56.005523018538952" lon="-3.756958013400435">
        <ele>4.46</ele>
        <time>2019-09-07T10:01:51Z</time>
      </trkpt>
      <trkpt lat="56.0052390396595" lon="-3.756791967898607">
        <ele>4.46</ele>
        <time>2019-09-07T10:01:58Z</time>
      </trkpt>
      <trkpt lat="56.00519897416234" lon="-3.756759027019143">
        <ele>4.46</ele>
        <time>2019-09-07T10:01:59Z</time>
      </trkpt>
      <trkpt lat="56.005158992484212" lon="-3.756724996492267">
        <ele>4.46</ele>
        <time>2019-09-07T10:02:00Z</time>
      </trkpt>
      <trkpt lat="56.005120016634464" lon="-3.756691971793771">
        <ele>4.94</ele>
        <time>2019-09-07T10:02:01Z</time>
      </trkpt>
      <trkpt lat="56.005078023299575" lon="-3.756656013429165">
        <ele>4.94</ele>
        <time>2019-09-07T10:02:02Z</time>
      </trkpt>
      <trkpt lat="56.004644008353353" lon="-3.756311014294624">
        <ele>5.91</ele>
        <time>2019-09-07T10:02:11Z</time>
      </trkpt>
      <trkpt lat="56.004603020846844" lon="-3.756278995424509">
        <ele>5.91</ele>
        <time>2019-09-07T10:02:12Z</time>
      </trkpt>
      <trkpt lat="56.004559015855193" lon="-3.756244964897633">
        <ele>6.39</ele>
        <time>2019-09-07T10:02:13Z</time>
      </trkpt>
      <trkpt lat="56.004304038360715" lon="-3.756046984344721">
        <ele>6.87</ele>
        <time>2019-09-07T10:02:18Z</time>
      </trkpt>
      <trkpt lat="56.004159031435847" lon="-3.755932990461588">
        <ele>6.39</ele>
        <time>2019-09-07T10:02:21Z</time>
      </trkpt>
      <trkpt lat="56.004107985645533" lon="-3.75589401461184">
        <ele>6.39</ele>
        <time>2019-09-07T10:02:22Z</time>
      </trkpt>
      <trkpt lat="56.004056017845869" lon="-3.755853027105331">
        <ele>6.39</ele>
        <time>2019-09-07T10:02:23Z</time>
      </trkpt>
      <trkpt lat="56.003988040611148" lon="-3.755542980507016">
        <ele>6.39</ele>
        <time>2019-09-07T10:02:24Z</time>
      </trkpt>
      <trkpt lat="56.003988040611148" lon="-3.755542980507016">
        <ele>6.39</ele>
        <time>2019-09-07T10:02:25Z</time>
      </trkpt>
      <trkpt lat="56.003967002034187" lon="-3.755494030192494">
        <ele>6.39</ele>
        <time>2019-09-07T10:02:26Z</time>
      </trkpt>
      <trkpt lat="56.003934983164072" lon="-3.755424041301012">
        <ele>6.39</ele>
        <time>2019-09-07T10:02:27Z</time>
      </trkpt>
      <trkpt lat="56.003902964293957" lon="-3.755350029096007">
        <ele>6.87</ele>
        <time>2019-09-07T10:02:28Z</time>
      </trkpt>
      <trkpt lat="56.003858037292957" lon="-3.755338964983821">
        <ele>6.87</ele>
        <time>2019-09-07T10:02:29Z</time>
      </trkpt>
      <trkpt lat="56.003816965967417" lon="-3.755328990519047">
        <ele>6.87</ele>
        <time>2019-09-07T10:02:30Z</time>
      </trkpt>
      <trkpt lat="56.003816965967417" lon="-3.755328990519047">
        <ele>6.87</ele>
        <time>2019-09-07T10:02:31Z</time>
      </trkpt>
      <trkpt lat="56.003754017874599" lon="-3.755353968590498">
        <ele>6.87</ele>
        <time>2019-09-07T10:02:32Z</time>
      </trkpt>
      <trkpt lat="56.003726022318006" lon="-3.755365032702684">
        <ele>6.87</ele>
        <time>2019-09-07T10:02:33Z</time>
      </trkpt>
      <trkpt lat="56.003709007054567" lon="-3.755371989682317">
        <ele>7.35</ele>
        <time>2019-09-07T10:02:34Z</time>
      </trkpt>
      <trkpt lat="56.003358978778124" lon="-3.755277022719383">
        <ele>6.87</ele>
        <time>2019-09-07T10:02:44Z</time>
      </trkpt>
      <trkpt lat="56.003255965188146" lon="-3.755196975544095">
        <ele>6.87</ele>
        <time>2019-09-07T10:02:46Z</time>
      </trkpt>
      <trkpt lat="56.002452978864312" lon="-3.754578977823257">
        <ele>5.91</ele>
        <time>2019-09-07T10:02:57Z</time>
      </trkpt>
      <trkpt lat="56.001468021422625" lon="-3.753872970119119">
        <ele>2.54</ele>
        <time>2019-09-07T10:03:07Z</time>
      </trkpt>
      <trkpt lat="56.000810964033008" lon="-3.75340199097991">
        <ele>2.54</ele>
        <time>2019-09-07T10:03:15Z</time>
      </trkpt>
      <trkpt lat="56.000735023990273" lon="-3.753348011523485">
        <ele>2.54</ele>
        <time>2019-09-07T10:03:16Z</time>
      </trkpt>
      <trkpt lat="56.000659000128508" lon="-3.75329302623868">
        <ele>2.54</ele>
        <time>2019-09-07T10:03:17Z</time>
      </trkpt>
      <trkpt lat="56.000585993751884" lon="-3.753240974619985">
        <ele>2.54</ele>
        <time>2019-09-07T10:03:18Z</time>
      </trkpt>
      <trkpt lat="56.000510975718498" lon="-3.75318699516356">
        <ele>2.54</ele>
        <time>2019-09-07T10:03:19Z</time>
      </trkpt>
      <trkpt lat="55.999956009909511" lon="-3.752787010744214">
        <ele>5.91</ele>
        <time>2019-09-07T10:03:28Z</time>
      </trkpt>
      <trkpt lat="55.999741014093161" lon="-3.752544019371271">
        <ele>7.35</ele>
        <time>2019-09-07T10:03:32Z</time>
      </trkpt>
      <trkpt lat="55.999682005494833" lon="-3.752472018823028">
        <ele>7.83</ele>
        <time>2019-09-07T10:03:33Z</time>
      </trkpt>
      <trkpt lat="55.999616961926222" lon="-3.752379985526204">
        <ele>8.310000000000001</ele>
        <time>2019-09-07T10:03:34Z</time>
      </trkpt>
      <trkpt lat="55.999584021046758" lon="-3.752229027450085">
        <ele>8.310000000000001</ele>
        <time>2019-09-07T10:03:35Z</time>
      </trkpt>
      <trkpt lat="55.999550996348262" lon="-3.75206901691854">
        <ele>8.789999999999999</ele>
        <time>2019-09-07T10:03:36Z</time>
      </trkpt>
      <trkpt lat="55.999523000791669" lon="-3.751891991123557">
        <ele>8.789999999999999</ele>
        <time>2019-09-07T10:03:37Z</time>
      </trkpt>
      <trkpt lat="55.999515037983656" lon="-3.751693004742265">
        <ele>9.27</ele>
        <time>2019-09-07T10:03:38Z</time>
      </trkpt>
      <trkpt lat="55.999505985528231" lon="-3.751474991440773">
        <ele>9.27</ele>
        <time>2019-09-07T10:03:39Z</time>
      </trkpt>
      <trkpt lat="55.999451000243425" lon="-3.749337019398809">
        <ele>9.27</ele>
        <time>2019-09-07T10:03:47Z</time>
      </trkpt>
      <trkpt lat="55.999410012736917" lon="-3.745240028947592">
        <ele>9.75</ele>
        <time>2019-09-07T10:04:00Z</time>
      </trkpt>
      <trkpt lat="55.999429039657116" lon="-3.742399988695979">
        <ele>9.27</ele>
        <time>2019-09-07T10:04:10Z</time>
      </trkpt>
      <trkpt lat="55.9994609747082" lon="-3.741802023723722">
        <ele>8.789999999999999</ele>
        <time>2019-09-07T10:04:13Z</time>
      </trkpt>
      <trkpt lat="55.999484024941921" lon="-3.741656010970473">
        <ele>8.789999999999999</ele>
        <time>2019-09-07T10:04:14Z</time>
      </trkpt>
      <trkpt lat="55.99950497969985" lon="-3.741526007652283">
        <ele>8.310000000000001</ele>
        <time>2019-09-07T10:04:15Z</time>
      </trkpt>
      <trkpt lat="55.999521994963288" lon="-3.741415031254292">
        <ele>8.310000000000001</ele>
        <time>2019-09-07T10:04:16Z</time>
      </trkpt>
      <trkpt lat="55.99969700910151" lon="-3.741187965497375">
        <ele>8.789999999999999</ele>
        <time>2019-09-07T10:04:17Z</time>
      </trkpt>
      <trkpt lat="55.99969700910151" lon="-3.741187965497375">
        <ele>8.310000000000001</ele>
        <time>2019-09-07T10:04:18Z</time>
      </trkpt>
      <trkpt lat="55.999760963022709" lon="-3.741124011576176">
        <ele>8.310000000000001</ele>
        <time>2019-09-07T10:04:19Z</time>
      </trkpt>
      <trkpt lat="55.999802034348249" lon="-3.741022003814578">
        <ele>7.83</ele>
        <time>2019-09-07T10:04:20Z</time>
      </trkpt>
      <trkpt lat="55.999837992712855" lon="-3.740871967747808">
        <ele>7.83</ele>
        <time>2019-09-07T10:04:21Z</time>
      </trkpt>
      <trkpt lat="55.999806979671121" lon="-3.740735007449985">
        <ele>7.83</ele>
        <time>2019-09-07T10:04:22Z</time>
      </trkpt>
      <trkpt lat="55.99978300742805" lon="-3.740629982203245">
        <ele>7.83</ele>
        <time>2019-09-07T10:04:23Z</time>
      </trkpt>
      <trkpt lat="55.999665996059775" lon="-3.740482041612268">
        <ele>7.83</ele>
        <time>2019-09-07T10:04:24Z</time>
      </trkpt>
      <trkpt lat="55.999627020210028" lon="-3.740310966968536">
        <ele>7.83</ele>
        <time>2019-09-07T10:04:25Z</time>
      </trkpt>
      <trkpt lat="55.999585026875138" lon="-3.740131007507443">
        <ele>8.310000000000001</ele>
        <time>2019-09-07T10:04:26Z</time>
      </trkpt>
      <trkpt lat="55.999266011640429" lon="-3.738462002947927">
        <ele>8.789999999999999</ele>
        <time>2019-09-07T10:04:33Z</time>
      </trkpt>
      <trkpt lat="55.999044980853796" lon="-3.735363967716694">
        <ele>8.789999999999999</ele>
        <time>2019-09-07T10:04:43Z</time>
      </trkpt>
      <trkpt lat="55.998612977564335" lon="-3.731053993105888">
        <ele>11.67</ele>
        <time>2019-09-07T10:04:57Z</time>
      </trkpt>
      <trkpt lat="55.998464031144977" lon="-3.730492992326617">
        <ele>12.15</ele>
        <time>2019-09-07T10:04:59Z</time>
      </trkpt>
      <trkpt lat="55.997551996260881" lon="-3.727698968723416">
        <ele>14.56</ele>
        <time>2019-09-07T10:05:09Z</time>
      </trkpt>
      <trkpt lat="55.997103983536363" lon="-3.725499976426363">
        <ele>13.119999999999999</ele>
        <time>2019-09-07T10:05:17Z</time>
      </trkpt>
      <trkpt lat="55.996769964694977" lon="-3.722303034737706">
        <ele>15.039999999999999</ele>
        <time>2019-09-07T10:05:28Z</time>
      </trkpt>
      <trkpt lat="55.996528984978795" lon="-3.720091972500086">
        <ele>13.6</ele>
        <time>2019-09-07T10:05:38Z</time>
      </trkpt>
      <trkpt lat="55.996490009129047" lon="-3.719762982800603">
        <ele>14.08</ele>
        <time>2019-09-07T10:05:40Z</time>
      </trkpt>
      <trkpt lat="55.996515993028879" lon="-3.719589980319142">
        <ele>14.08</ele>
        <time>2019-09-07T10:05:41Z</time>
      </trkpt>
      <trkpt lat="55.996567960828543" lon="-3.719486966729164">
        <ele>13.6</ele>
        <time>2019-09-07T10:05:42Z</time>
      </trkpt>
      <trkpt lat="55.996611965820193" lon="-3.719399040564895">
        <ele>13.6</ele>
        <time>2019-09-07T10:05:43Z</time>
      </trkpt>
      <trkpt lat="55.996650019660592" lon="-3.719341959804297">
        <ele>13.6</ele>
        <time>2019-09-07T10:05:44Z</time>
      </trkpt>
      <trkpt lat="55.996682038530707" lon="-3.719308013096452">
        <ele>13.6</ele>
        <time>2019-09-07T10:05:45Z</time>
      </trkpt>
      <trkpt lat="55.99671196192503" lon="-3.719273982569575">
        <ele>13.119999999999999</ele>
        <time>2019-09-07T10:05:46Z</time>
      </trkpt>
      <trkpt lat="55.996750015765429" lon="-3.719232995063067">
        <ele>13.119999999999999</ele>
        <time>2019-09-07T10:05:47Z</time>
      </trkpt>
      <trkpt lat="55.996799971908331" lon="-3.719179015606642">
        <ele>13.119999999999999</ele>
        <time>2019-09-07T10:05:48Z</time>
      </trkpt>
      <trkpt lat="55.996892005205154" lon="-3.719108020886779">
        <ele>12.630000000000001</ele>
        <time>2019-09-07T10:05:49Z</time>
      </trkpt>
      <trkpt lat="55.996972974389791" lon="-3.719085976481438">
        <ele>12.630000000000001</ele>
        <time>2019-09-07T10:05:50Z</time>
      </trkpt>
      <trkpt lat="55.997069031000137" lon="-3.719038031995297">
        <ele>12.630000000000001</ele>
        <time>2019-09-07T10:05:51Z</time>
      </trkpt>
      <trkpt lat="55.997157040983438" lon="-3.718949016183615">
        <ele>12.630000000000001</ele>
        <time>2019-09-07T10:05:52Z</time>
      </trkpt>
      <trkpt lat="55.997258964926004" lon="-3.718815995380282">
        <ele>12.630000000000001</ele>
        <time>2019-09-07T10:05:53Z</time>
      </trkpt>
      <trkpt lat="55.997456023469567" lon="-3.718495974317193">
        <ele>13.119999999999999</ele>
        <time>2019-09-07T10:05:55Z</time>
      </trkpt>
      <trkpt lat="55.997756011784077" lon="-3.717871019616723">
        <ele>13.6</ele>
        <time>2019-09-07T10:05:59Z</time>
      </trkpt>
      <trkpt lat="55.997791970148683" lon="-3.717758031561971">
        <ele>13.6</ele>
        <time>2019-09-07T10:06:00Z</time>
      </trkpt>
      <trkpt lat="55.997812002897263" lon="-3.717599026858807">
        <ele>13.6</ele>
        <time>2019-09-07T10:06:01Z</time>
      </trkpt>
      <trkpt lat="55.997830023989081" lon="-3.7174560315907">
        <ele>13.119999999999999</ele>
        <time>2019-09-07T10:06:02Z</time>
      </trkpt>
      <trkpt lat="55.997816026210785" lon="-3.717318987473846">
        <ele>13.119999999999999</ele>
        <time>2019-09-07T10:06:03Z</time>
      </trkpt>
      <trkpt lat="55.997799010947347" lon="-3.717164006084204">
        <ele>13.119999999999999</ele>
        <time>2019-09-07T10:06:04Z</time>
      </trkpt>
      <trkpt lat="55.997780989855528" lon="-3.71702897362411">
        <ele>12.630000000000001</ele>
        <time>2019-09-07T10:06:05Z</time>
      </trkpt>
      <trkpt lat="55.997729022055864" lon="-3.716874998062849">
        <ele>12.630000000000001</ele>
        <time>2019-09-07T10:06:06Z</time>
      </trkpt>
      <trkpt lat="55.997665990144014" lon="-3.7167480122298">
        <ele>12.630000000000001</ele>
        <time>2019-09-07T10:06:07Z</time>
      </trkpt>
      <trkpt lat="55.99756901152432" lon="-3.716628989204764">
        <ele>12.630000000000001</ele>
        <time>2019-09-07T10:06:08Z</time>
      </trkpt>
      <trkpt lat="55.997465997934341" lon="-3.716528993099928">
        <ele>12.15</ele>
        <time>2019-09-07T10:06:09Z</time>
      </trkpt>
      <trkpt lat="55.997344963252544" lon="-3.716452969238162">
        <ele>12.15</ele>
        <time>2019-09-07T10:06:10Z</time>
      </trkpt>
      <trkpt lat="55.997231975197792" lon="-3.716378035023809">
        <ele>11.67</ele>
        <time>2019-09-07T10:06:11Z</time>
      </trkpt>
      <trkpt lat="55.997124016284943" lon="-3.716306034475565">
        <ele>11.67</ele>
        <time>2019-09-07T10:06:12Z</time>
      </trkpt>
      <trkpt lat="55.997027959674597" lon="-3.716200003400445">
        <ele>11.67</ele>
        <time>2019-09-07T10:06:13Z</time>
      </trkpt>
      <trkpt lat="55.996940033510327" lon="-3.716067988425493">
        <ele>11.67</ele>
        <time>2019-09-07T10:06:14Z</time>
      </trkpt>
      <trkpt lat="55.996869960799813" lon="-3.715902026742697">
        <ele>11.67</ele>
        <time>2019-09-07T10:06:15Z</time>
      </trkpt>
      <trkpt lat="55.996806006878614" lon="-3.715703962370753">
        <ele>12.15</ele>
        <time>2019-09-07T10:06:17Z</time>
      </trkpt>
      <trkpt lat="55.996052976697683" lon="-3.713451996445656">
        <ele>16.48</ele>
        <time>2019-09-07T10:06:25Z</time>
      </trkpt>
      <trkpt lat="55.99484103731811" lon="-3.710252037271857">
        <ele>23.210000000000001</ele>
        <time>2019-09-07T10:06:36Z</time>
      </trkpt>
      <trkpt lat="55.993737978860736" lon="-3.706641029566526">
        <ele>25.609999999999999</ele>
        <time>2019-09-07T10:06:47Z</time>
      </trkpt>
      <trkpt lat="55.993431033566594" lon="-3.705633021891117">
        <ele>26.09</ele>
        <time>2019-09-07T10:06:50Z</time>
      </trkpt>
      <trkpt lat="55.993331959471107" lon="-3.705308977514505">
        <ele>26.09</ele>
        <time>2019-09-07T10:06:51Z</time>
      </trkpt>
      <trkpt lat="55.992120020091534" lon="-3.701356993988156">
        <ele>31.379999999999999</ele>
        <time>2019-09-07T10:07:03Z</time>
      </trkpt>
      <trkpt lat="55.990498038008809" lon="-3.695733994245529">
        <ele>35.710000000000001</ele>
        <time>2019-09-07T10:07:19Z</time>
      </trkpt>
      <trkpt lat="55.989655992016196" lon="-3.691251017153263">
        <ele>40.030000000000001</ele>
        <time>2019-09-07T10:07:31Z</time>
      </trkpt>
      <trkpt lat="55.989245027303696" lon="-3.686969960108399">
        <ele>44.359999999999999</ele>
        <time>2019-09-07T10:07:42Z</time>
      </trkpt>
      <trkpt lat="55.98897404037416" lon="-3.683379990980029">
        <ele>46.280000000000001</ele>
        <time>2019-09-07T10:07:52Z</time>
      </trkpt>
      <trkpt lat="55.988715961575508" lon="-3.680042987689376">
        <ele>46.759999999999998</ele>
        <time>2019-09-07T10:08:01Z</time>
      </trkpt>
      <trkpt lat="55.988252023234963" lon="-3.674117987975478">
        <ele>51.57</ele>
        <time>2019-09-07T10:08:17Z</time>
      </trkpt>
      <trkpt lat="55.987508967518806" lon="-3.668247973546386">
        <ele>57.340000000000003</ele>
        <time>2019-09-07T10:08:33Z</time>
      </trkpt>
      <trkpt lat="55.986668011173606" lon="-3.663762984797359">
        <ele>55.409999999999997</ele>
        <time>2019-09-07T10:08:45Z</time>
      </trkpt>
      <trkpt lat="55.985921015962958" lon="-3.658794024959207">
        <ele>52.049999999999997</ele>
        <time>2019-09-07T10:08:58Z</time>
      </trkpt>
      <trkpt lat="55.985548021271825" lon="-3.653721967712045">
        <ele>49.159999999999997</ele>
        <time>2019-09-07T10:09:11Z</time>
      </trkpt>
      <trkpt lat="55.985221965238452" lon="-3.64653498865664">
        <ele>45.799999999999997</ele>
        <time>2019-09-07T10:09:29Z</time>
      </trkpt>
      <trkpt lat="55.984938992187381" lon="-3.640039013698697">
        <ele>41.950000000000003</ele>
        <time>2019-09-07T10:09:44Z</time>
      </trkpt>
      <trkpt lat="55.984446974471211" lon="-3.633695002645254">
        <ele>40.030000000000001</ele>
        <time>2019-09-07T10:09:58Z</time>
      </trkpt>
      <trkpt lat="55.983609035611153" lon="-3.629528023302555">
        <ele>38.590000000000003</ele>
        <time>2019-09-07T10:10:08Z</time>
      </trkpt>
      <trkpt lat="55.982247982174158" lon="-3.624395029619336">
        <ele>38.590000000000003</ele>
        <time>2019-09-07T10:10:21Z</time>
      </trkpt>
      <trkpt lat="55.981411971151829" lon="-3.620008025318384">
        <ele>39.549999999999997</ele>
        <time>2019-09-07T10:10:32Z</time>
      </trkpt>
      <trkpt lat="55.981137966737151" lon="-3.615952022373676">
        <ele>42.920000000000002</ele>
        <time>2019-09-07T10:10:42Z</time>
      </trkpt>
      <trkpt lat="55.981161016970873" lon="-3.613499980419874">
        <ele>45.32</ele>
        <time>2019-09-07T10:10:48Z</time>
      </trkpt>
      <trkpt lat="55.981377018615603" lon="-3.609832981601358">
        <ele>48.68</ele>
        <time>2019-09-07T10:10:57Z</time>
      </trkpt>
      <trkpt lat="55.981995016336441" lon="-3.604840971529484">
        <ele>54.450000000000003</ele>
        <time>2019-09-07T10:11:10Z</time>
      </trkpt>
      <trkpt lat="55.982958013191819" lon="-3.600442986935377">
        <ele>56.859999999999999</ele>
        <time>2019-09-07T10:11:22Z</time>
      </trkpt>
      <trkpt lat="55.98409803584218" lon="-3.596089007332921">
        <ele>57.340000000000003</ele>
        <time>2019-09-07T10:11:34Z</time>
      </trkpt>
      <trkpt lat="55.985755976289511" lon="-3.589755976572633">
        <ele>56.859999999999999</ele>
        <time>2019-09-07T10:11:51Z</time>
      </trkpt>
      <trkpt lat="55.987277962267399" lon="-3.583919992670417">
        <ele>64.069999999999993</ele>
        <time>2019-09-07T10:12:06Z</time>
      </trkpt>
      <trkpt lat="55.98824598826468" lon="-3.579406002536416">
        <ele>68.870000000000005</ele>
        <time>2019-09-07T10:12:17Z</time>
      </trkpt>
      <trkpt lat="55.988725014030933" lon="-3.575078006833792">
        <ele>71.269999999999996</ele>
        <time>2019-09-07T10:12:27Z</time>
      </trkpt>
      <trkpt lat="55.98873901180923" lon="-3.570961989462376">
        <ele>70.790000000000006</ele>
        <time>2019-09-07T10:12:36Z</time>
      </trkpt>
      <trkpt lat="55.988338021561503" lon="-3.56596402823925">
        <ele>69.349999999999994</ele>
        <time>2019-09-07T10:12:47Z</time>
      </trkpt>
      <trkpt lat="55.987840974703431" lon="-3.560648979619145">
        <ele>66.469999999999999</ele>
        <time>2019-09-07T10:12:59Z</time>
      </trkpt>
      <trkpt lat="55.987138990312815" lon="-3.553310036659241">
        <ele>64.069999999999993</ele>
        <time>2019-09-07T10:13:16Z</time>
      </trkpt>
      <trkpt lat="55.986328963190317" lon="-3.546529999002814">
        <ele>61.18</ele>
        <time>2019-09-07T10:13:32Z</time>
      </trkpt>
      <trkpt lat="55.985395973548293" lon="-3.542580027133226">
        <ele>59.259999999999998</ele>
        <time>2019-09-07T10:13:42Z</time>
      </trkpt>
      <trkpt lat="55.984214041382074" lon="-3.537276964634657">
        <ele>55.409999999999997</ele>
        <time>2019-09-07T10:13:55Z</time>
      </trkpt>
      <trkpt lat="55.983564024791121" lon="-3.532487964257598">
        <ele>53.490000000000002</ele>
        <time>2019-09-07T10:14:06Z</time>
      </trkpt>
      <trkpt lat="55.983170997351408" lon="-3.52683998644352">
        <ele>55.409999999999997</ele>
        <time>2019-09-07T10:14:19Z</time>
      </trkpt>
      <trkpt lat="55.982473958283663" lon="-3.518604012206197">
        <ele>59.259999999999998</ele>
        <time>2019-09-07T10:14:38Z</time>
      </trkpt>
      <trkpt lat="55.981553960591555" lon="-3.510411037132144">
        <ele>63.579999999999998</ele>
        <time>2019-09-07T10:14:57Z</time>
      </trkpt>
      <trkpt lat="55.980673022568226" lon="-3.503268985077739">
        <ele>68.870000000000005</ele>
        <time>2019-09-07T10:15:14Z</time>
      </trkpt>
      <trkpt lat="55.979862995445728" lon="-3.496862025931478">
        <ele>78.480000000000004</ele>
        <time>2019-09-07T10:15:30Z</time>
      </trkpt>
      <trkpt lat="55.978823974728584" lon="-3.489677980542183">
        <ele>88.099999999999994</ele>
        <time>2019-09-07T10:15:48Z</time>
      </trkpt>
      <trkpt lat="55.977843040600419" lon="-3.484154976904392">
        <ele>91.939999999999998</ele>
        <time>2019-09-07T10:16:02Z</time>
      </trkpt>
      <trkpt lat="55.976550970226526" lon="-3.477947004139423">
        <ele>88.579999999999998</ele>
        <time>2019-09-07T10:16:18Z</time>
      </trkpt>
      <trkpt lat="55.975149013102055" lon="-3.472322998568416">
        <ele>82.329999999999998</ele>
        <time>2019-09-07T10:16:33Z</time>
      </trkpt>
      <trkpt lat="55.973315974697471" lon="-3.466028021648526">
        <ele>78.480000000000004</ele>
        <time>2019-09-07T10:16:50Z</time>
      </trkpt>
      <trkpt lat="55.971111031249166" lon="-3.459547972306609">
        <ele>76.560000000000002</ele>
        <time>2019-09-07T10:17:08Z</time>
      </trkpt>
      <trkpt lat="55.969185037538409" lon="-3.454544981941581">
        <ele>77.519999999999996</ele>
        <time>2019-09-07T10:17:23Z</time>
      </trkpt>
      <trkpt lat="55.966823017224669" lon="-3.449176037684083">
        <ele>79.930000000000007</ele>
        <time>2019-09-07T10:17:40Z</time>
      </trkpt>
      <trkpt lat="55.965056028217077" lon="-3.44639902934432">
        <ele>80.409999999999997</ele>
        <time>2019-09-07T10:17:50Z</time>
      </trkpt>
      <trkpt lat="55.962860975414515" lon="-3.443880015984178">
        <ele>77.040000000000006</ele>
        <time>2019-09-07T10:18:01Z</time>
      </trkpt>
      <trkpt lat="55.960970018059015" lon="-3.441365025937557">
        <ele>72.239999999999995</ele>
        <time>2019-09-07T10:18:11Z</time>
      </trkpt>
      <trkpt lat="55.959502011537552" lon="-3.438647026196122">
        <ele>65.510000000000005</ele>
        <time>2019-09-07T10:18:20Z</time>
      </trkpt>
      <trkpt lat="55.958254029974341" lon="-3.43501397408545">
        <ele>59.740000000000002</ele>
        <time>2019-09-07T10:18:30Z</time>
      </trkpt>
      <trkpt lat="55.957362027838826" lon="-3.430595034733415">
        <ele>57.340000000000003</ele>
        <time>2019-09-07T10:18:41Z</time>
      </trkpt>
      <trkpt lat="55.956400958821177" lon="-3.424512958154082">
        <ele>55.890000000000001</ele>
        <time>2019-09-07T10:18:56Z</time>
      </trkpt>
      <trkpt lat="55.955699980258942" lon="-3.420534990727902">
        <ele>53.969999999999999</ele>
        <time>2019-09-07T10:19:08Z</time>
      </trkpt>
      <trkpt lat="55.954899005591869" lon="-3.417891003191471">
        <ele>53.009999999999998</ele>
        <time>2019-09-07T10:19:16Z</time>
      </trkpt>
      <trkpt lat="55.953697040677071" lon="-3.415307030081749">
        <ele>50.130000000000003</ele>
        <time>2019-09-07T10:19:24Z</time>
      </trkpt>
      <trkpt lat="55.952145969495177" lon="-3.413263019174337">
        <ele>46.280000000000001</ele>
        <time>2019-09-07T10:19:32Z</time>
      </trkpt>
      <trkpt lat="55.949583034962416" lon="-3.410565974190831">
        <ele>40.990000000000002</ele>
        <time>2019-09-07T10:19:45Z</time>
      </trkpt>
      <trkpt lat="55.948493974283338" lon="-3.409512033686042">
        <ele>40.509999999999998</ele>
        <time>2019-09-07T10:19:52Z</time>
      </trkpt>
      <trkpt lat="55.946926977485418" lon="-3.407968003302813">
        <ele>39.07</ele>
        <time>2019-09-07T10:20:01Z</time>
      </trkpt>
      <trkpt lat="55.944185005500913" lon="-3.405266012996435">
        <ele>40.030000000000001</ele>
        <time>2019-09-07T10:20:16Z</time>
      </trkpt>
      <trkpt lat="55.942208971828222" lon="-3.403760036453605">
        <ele>38.109999999999999</ele>
        <time>2019-09-07T10:20:29Z</time>
      </trkpt>
      <trkpt lat="55.940482970327139" lon="-3.402667958289385">
        <ele>35.229999999999997</ele>
        <time>2019-09-07T10:20:39Z</time>
      </trkpt>
      <trkpt lat="55.938713969662786" lon="-3.401748966425657">
        <ele>31.859999999999999</ele>
        <time>2019-09-07T10:20:49Z</time>
      </trkpt>
      <trkpt lat="55.937118977308273" lon="-3.401120994240046">
        <ele>39.07</ele>
        <time>2019-09-07T10:21:00Z</time>
      </trkpt>
      <trkpt lat="55.935438992455602" lon="-3.400538032874465">
        <ele>47.240000000000002</ele>
        <time>2019-09-07T10:21:12Z</time>
      </trkpt>
      <trkpt lat="55.933902002871037" lon="-3.400437030941248">
        <ele>50.609999999999999</ele>
        <time>2019-09-07T10:21:22Z</time>
      </trkpt>
      <trkpt lat="55.932423016056418" lon="-3.40082997456193">
        <ele>53.490000000000002</ele>
        <time>2019-09-07T10:21:31Z</time>
      </trkpt>
      <trkpt lat="55.930046997964382" lon="-3.401309000328183">
        <ele>59.259999999999998</ele>
        <time>2019-09-07T10:21:44Z</time>
      </trkpt>
      <trkpt lat="55.928654009476304" lon="-3.400810025632381">
        <ele>65.510000000000005</ele>
        <time>2019-09-07T10:21:51Z</time>
      </trkpt>
      <trkpt lat="55.92744299210608" lon="-3.399423994123936">
        <ele>73.680000000000007</ele>
        <time>2019-09-07T10:21:58Z</time>
      </trkpt>
      <trkpt lat="55.926899006590247" lon="-3.398289000615478">
        <ele>78.969999999999999</ele>
        <time>2019-09-07T10:22:02Z</time>
      </trkpt>
      <trkpt lat="55.926781995221972" lon="-3.397969985380769">
        <ele>79.930000000000007</ele>
        <time>2019-09-07T10:22:03Z</time>
      </trkpt>
      <trkpt lat="55.926315961405635" lon="-3.395454995334148">
        <ele>84.25</ele>
        <time>2019-09-07T10:22:10Z</time>
      </trkpt>
      <trkpt lat="55.926329037174582" lon="-3.392700031399727">
        <ele>84.25</ele>
        <time>2019-09-07T10:22:17Z</time>
      </trkpt>
      <trkpt lat="55.926896994933486" lon="-3.389259008690715">
        <ele>80.890000000000001</ele>
        <time>2019-09-07T10:22:26Z</time>
      </trkpt>
      <trkpt lat="55.927877007052302" lon="-3.386150998994708">
        <ele>75.599999999999994</ele>
        <time>2019-09-07T10:22:34Z</time>
      </trkpt>
      <trkpt lat="55.928908986970782" lon="-3.383022034540772">
        <ele>69.829999999999998</ele>
        <time>2019-09-07T10:22:42Z</time>
      </trkpt>
      <trkpt lat="55.929734017699957" lon="-3.379218997433782">
        <ele>63.100000000000001</ele>
        <time>2019-09-07T10:22:51Z</time>
      </trkpt>
      <trkpt lat="55.93019200488925" lon="-3.37530598975718">
        <ele>56.859999999999999</ele>
        <time>2019-09-07T10:23:01Z</time>
      </trkpt>
      <trkpt lat="55.930566005408764" lon="-3.370408024638891">
        <ele>54.93</ele>
        <time>2019-09-07T10:23:13Z</time>
      </trkpt>
      <trkpt lat="55.930428961291909" lon="-3.365340996533632">
        <ele>52.530000000000001</ele>
        <time>2019-09-07T10:23:25Z</time>
      </trkpt>
      <trkpt lat="55.930093014612794" lon="-3.359641972929239">
        <ele>51.57</ele>
        <time>2019-09-07T10:23:38Z</time>
      </trkpt>
      <trkpt lat="55.929470993578434" lon="-3.355785040184856">
        <ele>52.049999999999997</ele>
        <time>2019-09-07T10:23:47Z</time>
      </trkpt>
      <trkpt lat="55.928358966484666" lon="-3.352290960028768">
        <ele>52.530000000000001</ele>
        <time>2019-09-07T10:23:56Z</time>
      </trkpt>
      <trkpt lat="55.927149960771203" lon="-3.349883006885648">
        <ele>53.969999999999999</ele>
        <time>2019-09-07T10:24:04Z</time>
      </trkpt>
      <trkpt lat="55.925337038934231" lon="-3.347347984090447">
        <ele>57.82</ele>
        <time>2019-09-07T10:24:14Z</time>
      </trkpt>
      <trkpt lat="55.922536980360746" lon="-3.343707975000143">
        <ele>61.18</ele>
        <time>2019-09-07T10:24:29Z</time>
      </trkpt>
      <trkpt lat="55.920970989391208" lon="-3.34086399525404">
        <ele>62.140000000000001</ele>
        <time>2019-09-07T10:24:39Z</time>
      </trkpt>
      <trkpt lat="55.919869020581245" lon="-3.33757895976305">
        <ele>62.619999999999997</ele>
        <time>2019-09-07T10:24:49Z</time>
      </trkpt>
      <trkpt lat="55.919217998161912" lon="-3.33416098728776">
        <ele>63.100000000000001</ele>
        <time>2019-09-07T10:24:58Z</time>
      </trkpt>
      <trkpt lat="55.919015994295478" lon="-3.330525001510978">
        <ele>62.140000000000001</ele>
        <time>2019-09-07T10:25:07Z</time>
      </trkpt>
      <trkpt lat="55.919270971789956" lon="-3.326824977993965">
        <ele>58.780000000000001</ele>
        <time>2019-09-07T10:25:16Z</time>
      </trkpt>
      <trkpt lat="55.919995000585914" lon="-3.323255041614175">
        <ele>57.340000000000003</ele>
        <time>2019-09-07T10:25:25Z</time>
      </trkpt>
      <trkpt lat="55.920780971646309" lon="-3.320964016020298">
        <ele>58.299999999999997</ele>
        <time>2019-09-07T10:25:32Z</time>
      </trkpt>
      <trkpt lat="55.921411961317062" lon="-3.319457033649087">
        <ele>58.780000000000001</ele>
        <time>2019-09-07T10:25:40Z</time>
      </trkpt>
      <trkpt lat="55.921719996258616" lon="-3.318723030388355">
        <ele>59.740000000000002</ele>
        <time>2019-09-07T10:25:47Z</time>
      </trkpt>
      <trkpt lat="55.922260964289308" lon="-3.317555012181401">
        <ele>59.740000000000002</ele>
        <time>2019-09-07T10:25:56Z</time>
      </trkpt>
      <trkpt lat="55.92282498255372" lon="-3.31628498621285">
        <ele>59.259999999999998</ele>
        <time>2019-09-07T10:26:05Z</time>
      </trkpt>
      <trkpt lat="55.92351296916604" lon="-3.314699968323112">
        <ele>57.340000000000003</ele>
        <time>2019-09-07T10:26:18Z</time>
      </trkpt>
      <trkpt lat="55.923794014379382" lon="-3.314086999744177">
        <ele>56.859999999999999</ele>
        <time>2019-09-07T10:26:24Z</time>
      </trkpt>
      <trkpt lat="55.923836007714272" lon="-3.314004018902779">
        <ele>56.859999999999999</ele>
        <time>2019-09-07T10:26:25Z</time>
      </trkpt>
      <trkpt lat="55.9238759893924" lon="-3.31392397172749">
        <ele>56.859999999999999</ele>
        <time>2019-09-07T10:26:26Z</time>
      </trkpt>
      <trkpt lat="55.923914965242147" lon="-3.313845014199615">
        <ele>56.859999999999999</ele>
        <time>2019-09-07T10:26:27Z</time>
      </trkpt>
      <trkpt lat="55.923953019082546" lon="-3.313769996166229">
        <ele>57.340000000000003</ele>
        <time>2019-09-07T10:26:28Z</time>
      </trkpt>
      <trkpt lat="55.923994006589055" lon="-3.313687015324831">
        <ele>57.340000000000003</ele>
        <time>2019-09-07T10:26:29Z</time>
      </trkpt>
      <trkpt lat="55.924217971041799" lon="-3.313258029520512">
        <ele>57.82</ele>
        <time>2019-09-07T10:26:35Z</time>
      </trkpt>
      <trkpt lat="55.924252001568675" lon="-3.313192985951901">
        <ele>57.82</ele>
        <time>2019-09-07T10:26:36Z</time>
      </trkpt>
      <trkpt lat="55.924316039308906" lon="-3.313136994838715">
        <ele>57.82</ele>
        <time>2019-09-07T10:26:37Z</time>
      </trkpt>
      <trkpt lat="55.924380999058485" lon="-3.313079997897148">
        <ele>57.82</ele>
        <time>2019-09-07T10:26:38Z</time>
      </trkpt>
      <trkpt lat="55.924445958808064" lon="-3.313021995127201">
        <ele>57.82</ele>
        <time>2019-09-07T10:26:39Z</time>
      </trkpt>
      <trkpt lat="55.924511002376676" lon="-3.312963992357254">
        <ele>57.82</ele>
        <time>2019-09-07T10:26:40Z</time>
      </trkpt>
      <trkpt lat="55.924576967954636" lon="-3.312905989587307">
        <ele>57.82</ele>
        <time>2019-09-07T10:26:41Z</time>
      </trkpt>
      <trkpt lat="55.924647962674499" lon="-3.312866007909179">
        <ele>58.299999999999997</ele>
        <time>2019-09-07T10:26:42Z</time>
      </trkpt>
      <trkpt lat="55.924896989017725" lon="-3.312801970168948">
        <ele>58.780000000000001</ele>
        <time>2019-09-07T10:26:45Z</time>
      </trkpt>
      <trkpt lat="55.924965972080827" lon="-3.312724018469453">
        <ele>58.299999999999997</ele>
        <time>2019-09-07T10:26:46Z</time>
      </trkpt>
      <trkpt lat="55.92503503896296" lon="-3.312644977122545">
        <ele>58.299999999999997</ele>
        <time>2019-09-07T10:26:47Z</time>
      </trkpt>
      <trkpt lat="55.925102010369301" lon="-3.312568031251431">
        <ele>57.82</ele>
        <time>2019-09-07T10:26:48Z</time>
      </trkpt>
      <trkpt lat="55.925174010917544" lon="-3.312484966591001">
        <ele>57.82</ele>
        <time>2019-09-07T10:26:49Z</time>
      </trkpt>
      <trkpt lat="55.92520896345377" lon="-3.312392011284828">
        <ele>57.340000000000003</ele>
        <time>2019-09-07T10:26:50Z</time>
      </trkpt>
      <trkpt lat="55.925238970667124" lon="-3.312313975766301">
        <ele>57.340000000000003</ele>
        <time>2019-09-07T10:26:51Z</time>
      </trkpt>
      <trkpt lat="55.925305020064116" lon="-3.311953973025084">
        <ele>56.369999999999997</ele>
        <time>2019-09-07T10:26:54Z</time>
      </trkpt>
      <trkpt lat="55.925343995913863" lon="-3.311748029664159">
        <ele>55.890000000000001</ele>
        <time>2019-09-07T10:26:56Z</time>
      </trkpt>
      <trkpt lat="55.925339972600341" lon="-3.311633029952645">
        <ele>55.409999999999997</ele>
        <time>2019-09-07T10:26:57Z</time>
      </trkpt>
      <trkpt lat="55.925334021449089" lon="-3.311531022191048">
        <ele>55.409999999999997</ele>
        <time>2019-09-07T10:26:58Z</time>
      </trkpt>
      <trkpt lat="55.925327986478806" lon="-3.311427002772689">
        <ele>54.93</ele>
        <time>2019-09-07T10:26:59Z</time>
      </trkpt>
      <trkpt lat="55.925308959558606" lon="-3.311318960040808">
        <ele>54.450000000000003</ele>
        <time>2019-09-07T10:27:00Z</time>
      </trkpt>
      <trkpt lat="55.925278030335903" lon="-3.311217958107591">
        <ele>53.969999999999999</ele>
        <time>2019-09-07T10:27:01Z</time>
      </trkpt>
      <trkpt lat="55.925246011465788" lon="-3.311115028336644">
        <ele>53.009999999999998</ele>
        <time>2019-09-07T10:27:02Z</time>
      </trkpt>
      <trkpt lat="55.925203012302518" lon="-3.311036992818117">
        <ele>52.530000000000001</ele>
        <time>2019-09-07T10:27:03Z</time>
      </trkpt>
      <trkpt lat="55.925150960683823" lon="-3.310958035290241">
        <ele>52.530000000000001</ele>
        <time>2019-09-07T10:27:04Z</time>
      </trkpt>
      <trkpt lat="55.925092035904527" lon="-3.310885028913617">
        <ele>52.049999999999997</ele>
        <time>2019-09-07T10:27:05Z</time>
      </trkpt>
      <trkpt lat="55.925009977072477" lon="-3.31082702614367">
        <ele>52.049999999999997</ele>
        <time>2019-09-07T10:27:06Z</time>
      </trkpt>
      <trkpt lat="55.924919033423066" lon="-3.31076399423182">
        <ele>52.049999999999997</ele>
        <time>2019-09-07T10:27:07Z</time>
      </trkpt>
      <trkpt lat="55.924814008176327" lon="-3.310760976746678">
        <ele>52.049999999999997</ele>
        <time>2019-09-07T10:27:08Z</time>
      </trkpt>
      <trkpt lat="55.924597000703216" lon="-3.310622004792094">
        <ele>52.049999999999997</ele>
        <time>2019-09-07T10:27:10Z</time>
      </trkpt>
      <trkpt lat="55.924489963799715" lon="-3.31052896566689">
        <ele>52.049999999999997</ele>
        <time>2019-09-07T10:27:11Z</time>
      </trkpt>
      <trkpt lat="55.924380999058485" lon="-3.310436010360718">
        <ele>52.530000000000001</ele>
        <time>2019-09-07T10:27:12Z</time>
      </trkpt>
      <trkpt lat="55.924276979640126" lon="-3.310342971235514">
        <ele>52.530000000000001</ele>
        <time>2019-09-07T10:27:13Z</time>
      </trkpt>
      <trkpt lat="55.924170026555657" lon="-3.310237023979425">
        <ele>53.009999999999998</ele>
        <time>2019-09-07T10:27:15Z</time>
      </trkpt>
      <trkpt lat="55.922619961202145" lon="-3.308471962809563">
        <ele>60.219999999999999</ele>
        <time>2019-09-07T10:27:28Z</time>
      </trkpt>
      <trkpt lat="55.921514974907041" lon="-3.306975038722158">
        <ele>64.069999999999993</ele>
        <time>2019-09-07T10:27:37Z</time>
      </trkpt>
      <trkpt lat="55.920247966423631" lon="-3.30513495951891">
        <ele>67.909999999999997</ele>
        <time>2019-09-07T10:27:47Z</time>
      </trkpt>
      <trkpt lat="55.918928990140557" lon="-3.303198991343379">
        <ele>71.760000000000005</ele>
        <time>2019-09-07T10:27:56Z</time>
      </trkpt>
      <trkpt lat="55.916940970346332" lon="-3.300291979685426">
        <ele>74.640000000000001</ele>
        <time>2019-09-07T10:28:08Z</time>
      </trkpt>
      <trkpt lat="55.915285041555762" lon="-3.297277009114623">
        <ele>77.519999999999996</ele>
        <time>2019-09-07T10:28:19Z</time>
      </trkpt>
      <trkpt lat="55.914150970056653" lon="-3.294022986665368">
        <ele>78.480000000000004</ele>
        <time>2019-09-07T10:28:29Z</time>
      </trkpt>
      <trkpt lat="55.913231978192925" lon="-3.290077960118651">
        <ele>78</ele>
        <time>2019-09-07T10:28:40Z</time>
      </trkpt>
      <trkpt lat="55.912413988262415" lon="-3.286373997107148">
        <ele>83.290000000000006</ele>
        <time>2019-09-07T10:28:50Z</time>
      </trkpt>
      <trkpt lat="55.911346971988678" lon="-3.283042022958398">
        <ele>96.75</ele>
        <time>2019-09-07T10:29:00Z</time>
      </trkpt>
      <trkpt lat="55.910144001245499" lon="-3.280448997393251">
        <ele>107.81</ele>
        <time>2019-09-07T10:29:09Z</time>
      </trkpt>
      <trkpt lat="55.90847197920084" lon="-3.27808303758502">
        <ele>119.34</ele>
        <time>2019-09-07T10:29:20Z</time>
      </trkpt>
      <trkpt lat="55.90702903456986" lon="-3.27662399969995">
        <ele>124.15000000000001</ele>
        <time>2019-09-07T10:29:29Z</time>
      </trkpt>
      <trkpt lat="55.905916001647711" lon="-3.275681035593152">
        <ele>124.15000000000001</ele>
        <time>2019-09-07T10:29:37Z</time>
      </trkpt>
      <trkpt lat="55.904155969619751" lon="-3.274209005758166">
        <ele>127.51000000000001</ele>
        <time>2019-09-07T10:29:47Z</time>
      </trkpt>
      <trkpt lat="55.902458969503641" lon="-3.272300027310848">
        <ele>133.28</ele>
        <time>2019-09-07T10:29:56Z</time>
      </trkpt>
      <trkpt lat="55.9009949862957" lon="-3.269832981750369">
        <ele>142.88999999999999</ele>
        <time>2019-09-07T10:30:05Z</time>
      </trkpt>
      <trkpt lat="55.899843983352184" lon="-3.266850030049682">
        <ele>152.03</ele>
        <time>2019-09-07T10:30:14Z</time>
      </trkpt>
      <trkpt lat="55.899066980928183" lon="-3.263559965416789">
        <ele>153.47</ele>
        <time>2019-09-07T10:30:23Z</time>
      </trkpt>
      <trkpt lat="55.898620979860425" lon="-3.259785007685423">
        <ele>152.03</ele>
        <time>2019-09-07T10:30:34Z</time>
      </trkpt>
      <trkpt lat="55.898434985429049" lon="-3.256784034892917">
        <ele>153.94999999999999</ele>
        <time>2019-09-07T10:30:43Z</time>
      </trkpt>
      <trkpt lat="55.89833096601069" lon="-3.253685999661684">
        <ele>154.43000000000001</ele>
        <time>2019-09-07T10:30:54Z</time>
      </trkpt>
      <trkpt lat="55.898370025679469" lon="-3.250663988292217">
        <ele>152.03</ele>
        <time>2019-09-07T10:31:05Z</time>
      </trkpt>
      <trkpt lat="55.898598013445735" lon="-3.246950972825289">
        <ele>153.94999999999999</ele>
        <time>2019-09-07T10:31:18Z</time>
      </trkpt>
      <trkpt lat="55.898913005366921" lon="-3.243609024211764">
        <ele>158.27000000000001</ele>
        <time>2019-09-07T10:31:28Z</time>
      </trkpt>
      <trkpt lat="55.899355988949537" lon="-3.237962974235416">
        <ele>163.08000000000001</ele>
        <time>2019-09-07T10:31:44Z</time>
      </trkpt>
      <trkpt lat="55.899567967280746" lon="-3.233224013820291">
        <ele>164.03999999999999</ele>
        <time>2019-09-07T10:31:57Z</time>
      </trkpt>
      <trkpt lat="55.899520022794604" lon="-3.230866016820073">
        <ele>161.63999999999999</ele>
        <time>2019-09-07T10:32:05Z</time>
      </trkpt>
      <trkpt lat="55.899395970627666" lon="-3.22832303121686">
        <ele>160.19999999999999</ele>
        <time>2019-09-07T10:32:16Z</time>
      </trkpt>
      <trkpt lat="55.899249035865068" lon="-3.225471004843712">
        <ele>157.31</ele>
        <time>2019-09-07T10:32:27Z</time>
      </trkpt>
      <trkpt lat="55.899087013676763" lon="-3.223233036696911">
        <ele>156.83000000000001</ele>
        <time>2019-09-07T10:32:38Z</time>
      </trkpt>
      <trkpt lat="55.898835975676775" lon="-3.220144975930452">
        <ele>156.83000000000001</ele>
        <time>2019-09-07T10:32:50Z</time>
      </trkpt>
      <trkpt lat="55.898412019014359" lon="-3.215944971889257">
        <ele>153.94999999999999</ele>
        <time>2019-09-07T10:33:04Z</time>
      </trkpt>
      <trkpt lat="55.897884964942932" lon="-3.211636003106833">
        <ele>151.53999999999999</ele>
        <time>2019-09-07T10:33:17Z</time>
      </trkpt>
      <trkpt lat="55.89712698943913" lon="-3.207153026014566">
        <ele>148.66</ele>
        <time>2019-09-07T10:33:29Z</time>
      </trkpt>
      <trkpt lat="55.896157035604119" lon="-3.20365902967751">
        <ele>147.22</ele>
        <time>2019-09-07T10:33:39Z</time>
      </trkpt>
      <trkpt lat="55.895725032314658" lon="-3.202433008700609">
        <ele>145.78</ele>
        <time>2019-09-07T10:33:43Z</time>
      </trkpt>
      <trkpt lat="55.894641000777483" lon="-3.199158031493425">
        <ele>144.81999999999999</ele>
        <time>2019-09-07T10:33:54Z</time>
      </trkpt>
      <trkpt lat="55.893708011135459" lon="-3.195662023499608">
        <ele>144.34</ele>
        <time>2019-09-07T10:34:06Z</time>
      </trkpt>
      <trkpt lat="55.893214987590909" lon="-3.193291034549475">
        <ele>141.44999999999999</ele>
        <time>2019-09-07T10:34:15Z</time>
      </trkpt>
      <trkpt lat="55.892745014280081" lon="-3.190459962934256">
        <ele>136.16</ele>
        <time>2019-09-07T10:34:26Z</time>
      </trkpt>
      <trkpt lat="55.892314016819" lon="-3.186941994354129">
        <ele>130.88</ele>
        <time>2019-09-07T10:34:37Z</time>
      </trkpt>
      <trkpt lat="55.891809007152915" lon="-3.181667011231184">
        <ele>127.51000000000001</ele>
        <time>2019-09-07T10:34:53Z</time>
      </trkpt>
      <trkpt lat="55.891211964190006" lon="-3.175819041207433">
        <ele>129.91999999999999</ele>
        <time>2019-09-07T10:35:09Z</time>
      </trkpt>
      <trkpt lat="55.890785995870829" lon="-3.171922964975238">
        <ele>132.80000000000001</ele>
        <time>2019-09-07T10:35:21Z</time>
      </trkpt>
      <trkpt lat="55.890334965661168" lon="-3.167837038636208">
        <ele>136.63999999999999</ele>
        <time>2019-09-07T10:35:34Z</time>
      </trkpt>
      <trkpt lat="55.889910003170371" lon="-3.162661967799068">
        <ele>141.44999999999999</ele>
        <time>2019-09-07T10:35:49Z</time>
      </trkpt>
      <trkpt lat="55.889810007065535" lon="-3.158039012923837">
        <ele>144.34</ele>
        <time>2019-09-07T10:36:01Z</time>
      </trkpt>
      <trkpt lat="55.889816964045167" lon="-3.153647985309362">
        <ele>145.30000000000001</ele>
        <time>2019-09-07T10:36:13Z</time>
      </trkpt>
      <trkpt lat="55.889921989291906" lon="-3.149127960205078">
        <ele>141.93000000000001</ele>
        <time>2019-09-07T10:36:26Z</time>
      </trkpt>
      <trkpt lat="55.890394980087876" lon="-3.144182972609997">
        <ele>135.68000000000001</ele>
        <time>2019-09-07T10:36:40Z</time>
      </trkpt>
      <trkpt lat="55.891082966700196" lon="-3.140026973560453">
        <ele>128.94999999999999</ele>
        <time>2019-09-07T10:36:52Z</time>
      </trkpt>
      <trkpt lat="55.892128022387624" lon="-3.135757986456156">
        <ele>121.73999999999999</ele>
        <time>2019-09-07T10:37:04Z</time>
      </trkpt>
      <trkpt lat="55.893744975328445" lon="-3.13097502104938">
        <ele>110.20999999999999</ele>
        <time>2019-09-07T10:37:18Z</time>
      </trkpt>
      <trkpt lat="55.895189009606838" lon="-3.126839976757765">
        <ele>98.189999999999998</ele>
        <time>2019-09-07T10:37:31Z</time>
      </trkpt>
      <trkpt lat="55.896636983379722" lon="-3.122551962733269">
        <ele>85.689999999999998</ele>
        <time>2019-09-07T10:37:45Z</time>
      </trkpt>
      <trkpt lat="55.897826040163636" lon="-3.11806496232748">
        <ele>77.040000000000006</ele>
        <time>2019-09-07T10:37:58Z</time>
      </trkpt>
      <trkpt lat="55.898355022072792" lon="-3.115285020321608">
        <ele>73.200000000000003</ele>
        <time>2019-09-07T10:38:07Z</time>
      </trkpt>
      <trkpt lat="55.898669008165598" lon="-3.113355003297329">
        <ele>71.269999999999996</ele>
        <time>2019-09-07T10:38:16Z</time>
      </trkpt>
      <trkpt lat="55.898933038115501" lon="-3.111421968787909">
        <ele>69.829999999999998</ele>
        <time>2019-09-07T10:38:27Z</time>
      </trkpt>
      <trkpt lat="55.899046026170254" lon="-3.110325029119849">
        <ele>69.349999999999994</ele>
        <time>2019-09-07T10:38:37Z</time>
      </trkpt>
      <trkpt lat="55.899067986756563" lon="-3.110107015818358">
        <ele>69.349999999999994</ele>
        <time>2019-09-07T10:38:40Z</time>
      </trkpt>
      <trkpt lat="55.899137975648046" lon="-3.109377035871148">
        <ele>71.760000000000005</ele>
        <time>2019-09-07T10:38:50Z</time>
      </trkpt>
      <trkpt lat="55.899143004789948" lon="-3.109301012009382">
        <ele>71.760000000000005</ele>
        <time>2019-09-07T10:38:51Z</time>
      </trkpt>
      <trkpt lat="55.899152979254723" lon="-3.10914795845747">
        <ele>72.239999999999995</ele>
        <time>2019-09-07T10:38:53Z</time>
      </trkpt>
      <trkpt lat="55.899159014225006" lon="-3.109074030071497">
        <ele>72.239999999999995</ele>
        <time>2019-09-07T10:38:54Z</time>
      </trkpt>
      <trkpt lat="55.899163959547877" lon="-3.109001023694873">
        <ele>71.760000000000005</ele>
        <time>2019-09-07T10:38:55Z</time>
      </trkpt>
      <trkpt lat="55.89916898868978" lon="-3.108929023146629">
        <ele>71.760000000000005</ele>
        <time>2019-09-07T10:38:56Z</time>
      </trkpt>
      <trkpt lat="55.899174017831683" lon="-3.108852999284864">
        <ele>72.239999999999995</ele>
        <time>2019-09-07T10:38:57Z</time>
      </trkpt>
      <trkpt lat="55.899179968982935" lon="-3.108770018443465">
        <ele>72.239999999999995</ele>
        <time>2019-09-07T10:38:58Z</time>
      </trkpt>
      <trkpt lat="55.899186003953218" lon="-3.108686031773686">
        <ele>72.719999999999999</ele>
        <time>2019-09-07T10:38:59Z</time>
      </trkpt>
      <trkpt lat="55.899191033095121" lon="-3.108602967113257">
        <ele>73.200000000000003</ele>
        <time>2019-09-07T10:39:00Z</time>
      </trkpt>
      <trkpt lat="55.899235038086772" lon="-3.107974994927645">
        <ele>75.599999999999994</ele>
        <time>2019-09-07T10:39:11Z</time>
      </trkpt>
      <trkpt lat="55.89927401393652" lon="-3.107416005805135">
        <ele>76.079999999999998</ele>
        <time>2019-09-07T10:39:22Z</time>
      </trkpt>
      <trkpt lat="55.899315001443028" lon="-3.10682499781251">
        <ele>74.159999999999997</ele>
        <time>2019-09-07T10:39:34Z</time>
      </trkpt>
      <trkpt lat="55.89936101809144" lon="-3.106170035898686">
        <ele>70.790000000000006</ele>
        <time>2019-09-07T10:39:44Z</time>
      </trkpt>
      <trkpt lat="55.899363029748201" lon="-3.10600901953876">
        <ele>68.870000000000005</ele>
        <time>2019-09-07T10:39:46Z</time>
      </trkpt>
      <trkpt lat="55.899375015869737" lon="-3.105291025713086">
        <ele>62.140000000000001</ele>
        <time>2019-09-07T10:39:58Z</time>
      </trkpt>
      <trkpt lat="55.899381972849369" lon="-3.104847958311439">
        <ele>62.140000000000001</ele>
        <time>2019-09-07T10:40:05Z</time>
      </trkpt>
      <trkpt lat="55.899384990334511" lon="-3.104672022163868">
        <ele>62.140000000000001</ele>
        <time>2019-09-07T10:40:07Z</time>
      </trkpt>
      <trkpt lat="55.899385996162891" lon="-3.104577977210283">
        <ele>62.140000000000001</ele>
        <time>2019-09-07T10:40:08Z</time>
      </trkpt>
      <trkpt lat="55.899388007819653" lon="-3.104491978883743">
        <ele>62.140000000000001</ele>
        <time>2019-09-07T10:40:09Z</time>
      </trkpt>
      <trkpt lat="55.899389013648033" lon="-3.104418972507119">
        <ele>62.140000000000001</ele>
        <time>2019-09-07T10:40:10Z</time>
      </trkpt>
      <trkpt lat="55.899390019476414" lon="-3.104357030242682">
        <ele>62.619999999999997</ele>
        <time>2019-09-07T10:40:11Z</time>
      </trkpt>
      <trkpt lat="55.899391025304794" lon="-3.104301961138845">
        <ele>62.140000000000001</ele>
        <time>2019-09-07T10:40:12Z</time>
      </trkpt>
      <trkpt lat="55.899392031133175" lon="-3.104244964197278">
        <ele>62.619999999999997</ele>
        <time>2019-09-07T10:40:13Z</time>
      </trkpt>
      <trkpt lat="55.899400999769568" lon="-3.103687986731529">
        <ele>64.069999999999993</ele>
        <time>2019-09-07T10:40:23Z</time>
      </trkpt>
      <trkpt lat="55.899397982284427" lon="-3.102906960994005">
        <ele>65.030000000000001</ele>
        <time>2019-09-07T10:40:37Z</time>
      </trkpt>
      <trkpt lat="55.899392031133175" lon="-3.102379990741611">
        <ele>66.469999999999999</ele>
        <time>2019-09-07T10:40:47Z</time>
      </trkpt>
      <trkpt lat="55.899387001991272" lon="-3.10184296220541">
        <ele>67.909999999999997</ele>
        <time>2019-09-07T10:40:59Z</time>
      </trkpt>
      <trkpt lat="55.899387001991272" lon="-3.10184296220541">
        <ele>67.909999999999997</ele>
        <time>2019-09-07T10:41:01Z</time>
      </trkpt>
      <trkpt lat="55.899380967020988" lon="-3.101273998618126">
        <ele>68.390000000000001</ele>
        <time>2019-09-07T10:41:09Z</time>
      </trkpt>
      <trkpt lat="55.899379961192608" lon="-3.101200992241502">
        <ele>68.390000000000001</ele>
        <time>2019-09-07T10:41:10Z</time>
      </trkpt>
      <trkpt lat="55.899376021698117" lon="-3.10080997645855">
        <ele>67.909999999999997</ele>
        <time>2019-09-07T10:41:16Z</time>
      </trkpt>
      <trkpt lat="55.899375015869737" lon="-3.100728001445532">
        <ele>67.909999999999997</ele>
        <time>2019-09-07T10:41:17Z</time>
      </trkpt>
      <trkpt lat="55.899374010041356" lon="-3.100653989240527">
        <ele>67.909999999999997</ele>
        <time>2019-09-07T10:41:18Z</time>
      </trkpt>
      <trkpt lat="55.899374010041356" lon="-3.1005949806422">
        <ele>67.909999999999997</ele>
        <time>2019-09-07T10:41:19Z</time>
      </trkpt>
      <trkpt lat="55.899373004212976" lon="-3.100546030327678">
        <ele>67.909999999999997</ele>
        <time>2019-09-07T10:41:20Z</time>
      </trkpt>
      <trkpt lat="55.899366969242692" lon="-3.099953010678291">
        <ele>65.510000000000005</ele>
        <time>2019-09-07T10:41:32Z</time>
      </trkpt>
      <trkpt lat="55.89936101809144" lon="-3.099337024614215">
        <ele>65.510000000000005</ele>
        <time>2019-09-07T10:41:43Z</time>
      </trkpt>
      <trkpt lat="55.899379039183259" lon="-3.098934022709727">
        <ele>65.030000000000001</ele>
        <time>2019-09-07T10:41:48Z</time>
      </trkpt>
      <trkpt lat="55.89938297867775" lon="-3.0988559871912">
        <ele>65.030000000000001</ele>
        <time>2019-09-07T10:41:49Z</time>
      </trkpt>
      <trkpt lat="55.899423966184258" lon="-3.097982006147504">
        <ele>64.549999999999997</ele>
        <time>2019-09-07T10:42:01Z</time>
      </trkpt>
      <trkpt lat="55.899445004761219" lon="-3.097531981766224">
        <ele>64.549999999999997</ele>
        <time>2019-09-07T10:42:05Z</time>
      </trkpt>
      <trkpt lat="55.899453973397613" lon="-3.097412958741188">
        <ele>64.549999999999997</ele>
        <time>2019-09-07T10:42:06Z</time>
      </trkpt>
      <trkpt lat="55.899463025853038" lon="-3.097304999828339">
        <ele>64.549999999999997</ele>
        <time>2019-09-07T10:42:07Z</time>
      </trkpt>
      <trkpt lat="55.899517005309463" lon="-3.096648026257753">
        <ele>65.030000000000001</ele>
        <time>2019-09-07T10:42:17Z</time>
      </trkpt>
      <trkpt lat="55.899581965059042" lon="-3.095861971378326">
        <ele>65.030000000000001</ele>
        <time>2019-09-07T10:42:30Z</time>
      </trkpt>
      <trkpt lat="55.899588000029325" lon="-3.095784019678831">
        <ele>65.030000000000001</ele>
        <time>2019-09-07T10:42:31Z</time>
      </trkpt>
      <trkpt lat="55.899690007790923" lon="-3.09494499117136">
        <ele>63.579999999999998</ele>
        <time>2019-09-07T10:42:44Z</time>
      </trkpt>
      <trkpt lat="55.899720015004277" lon="-3.094712980091572">
        <ele>63.579999999999998</ele>
        <time>2019-09-07T10:42:54Z</time>
      </trkpt>
      <trkpt lat="55.899797966703773" lon="-3.094324981793761">
        <ele>61.659999999999997</ele>
        <time>2019-09-07T10:43:11Z</time>
      </trkpt>
      <trkpt lat="55.899959988892078" lon="-3.093443037942052">
        <ele>60.219999999999999</ele>
        <time>2019-09-07T10:43:18Z</time>
      </trkpt>
      <trkpt lat="55.899971975013614" lon="-3.093379000201821">
        <ele>60.219999999999999</ele>
        <time>2019-09-07T10:43:19Z</time>
      </trkpt>
      <trkpt lat="55.899981027469039" lon="-3.093330971896648">
        <ele>60.219999999999999</ele>
        <time>2019-09-07T10:43:20Z</time>
      </trkpt>
      <trkpt lat="55.899993013590574" lon="-3.093299036845565">
        <ele>59.740000000000002</ele>
        <time>2019-09-07T10:43:21Z</time>
      </trkpt>
      <trkpt lat="55.90000499971211" lon="-3.093279004096985">
        <ele>59.740000000000002</ele>
        <time>2019-09-07T10:43:22Z</time>
      </trkpt>
      <trkpt lat="55.90000499971211" lon="-3.093279004096985">
        <ele>59.259999999999998</ele>
        <time>2019-09-07T10:43:36Z</time>
      </trkpt>
      <trkpt lat="55.900116981938481" lon="-3.093089992180467">
        <ele>59.740000000000002</ele>
        <time>2019-09-07T10:43:54Z</time>
      </trkpt>
      <trkpt lat="55.900168027728796" lon="-3.093001982197166">
        <ele>59.259999999999998</ele>
        <time>2019-09-07T10:43:55Z</time>
      </trkpt>
      <trkpt lat="55.90019803494215" lon="-3.092952026054263">
        <ele>59.259999999999998</ele>
        <time>2019-09-07T10:43:56Z</time>
      </trkpt>
      <trkpt lat="55.900443037971854" lon="-3.092742981389165">
        <ele>58.780000000000001</ele>
        <time>2019-09-07T10:44:00Z</time>
      </trkpt>
      <trkpt lat="55.900487964972854" lon="-3.092664023861289">
        <ele>58.780000000000001</ele>
        <time>2019-09-07T10:44:01Z</time>
      </trkpt>
      <trkpt lat="55.900529036298394" lon="-3.092551035806537">
        <ele>58.780000000000001</ele>
        <time>2019-09-07T10:44:02Z</time>
      </trkpt>
      <trkpt lat="55.90054102241993" lon="-3.092480041086674">
        <ele>58.780000000000001</ele>
        <time>2019-09-07T10:44:03Z</time>
      </trkpt>
      <trkpt lat="55.900547979399562" lon="-3.092321958392859">
        <ele>58.780000000000001</ele>
        <time>2019-09-07T10:44:04Z</time>
      </trkpt>
      <trkpt lat="55.900555020198226" lon="-3.0921920388937">
        <ele>58.780000000000001</ele>
        <time>2019-09-07T10:44:05Z</time>
      </trkpt>
      <trkpt lat="55.900561977177858" lon="-3.092029010877013">
        <ele>58.780000000000001</ele>
        <time>2019-09-07T10:44:06Z</time>
      </trkpt>
      <trkpt lat="55.900534987449646" lon="-3.091928008943796">
        <ele>58.299999999999997</ele>
        <time>2019-09-07T10:44:07Z</time>
      </trkpt>
      <trkpt lat="55.900505986064672" lon="-3.091819966211915">
        <ele>58.780000000000001</ele>
        <time>2019-09-07T10:44:08Z</time>
      </trkpt>
      <trkpt lat="55.900482013821602" lon="-3.091596001759172">
        <ele>58.780000000000001</ele>
        <time>2019-09-07T10:44:10Z</time>
      </trkpt>
      <trkpt lat="55.900472039356828" lon="-3.091470021754503">
        <ele>58.780000000000001</ele>
        <time>2019-09-07T10:44:12Z</time>
      </trkpt>
      <trkpt lat="55.900474973022938" lon="-3.091198028996587">
        <ele>58.780000000000001</ele>
        <time>2019-09-07T10:44:13Z</time>
      </trkpt>
      <trkpt lat="55.900515038520098" lon="-3.091068025678396">
        <ele>58.780000000000001</ele>
        <time>2019-09-07T10:44:14Z</time>
      </trkpt>
      <trkpt lat="55.900557031854987" lon="-3.090915977954865">
        <ele>58.780000000000001</ele>
        <time>2019-09-07T10:44:15Z</time>
      </trkpt>
      <trkpt lat="55.900985011830926" lon="-3.089484013617039">
        <ele>59.740000000000002</ele>
        <time>2019-09-07T10:44:23Z</time>
      </trkpt>
      <trkpt lat="55.901560010388494" lon="-3.087998991832137">
        <ele>58.780000000000001</ele>
        <time>2019-09-07T10:44:33Z</time>
      </trkpt>
      <trkpt lat="55.902323015034199" lon="-3.086348008364439">
        <ele>58.780000000000001</ele>
        <time>2019-09-07T10:44:40Z</time>
      </trkpt>
      <trkpt lat="55.903904009610415" lon="-3.083360027521849">
        <ele>57.340000000000003</ele>
        <time>2019-09-07T10:44:51Z</time>
      </trkpt>
      <trkpt lat="55.906418999657035" lon="-3.078280007466674">
        <ele>53.490000000000002</ele>
        <time>2019-09-07T10:45:09Z</time>
      </trkpt>
      <trkpt lat="55.908599970862269" lon="-3.073581028729677">
        <ele>50.130000000000003</ele>
        <time>2019-09-07T10:45:25Z</time>
      </trkpt>
      <trkpt lat="55.910423034802079" lon="-3.069616975262761">
        <ele>46.759999999999998</ele>
        <time>2019-09-07T10:45:38Z</time>
      </trkpt>
      <trkpt lat="55.911485021933913" lon="-3.067901032045484">
        <ele>45.799999999999997</ele>
        <time>2019-09-07T10:45:46Z</time>
      </trkpt>
      <trkpt lat="55.912889996543527" lon="-3.066723961383104">
        <ele>42.920000000000002</ele>
        <time>2019-09-07T10:45:56Z</time>
      </trkpt>
      <trkpt lat="55.913414033129811" lon="-3.066386003047228">
        <ele>39.07</ele>
        <time>2019-09-07T10:46:01Z</time>
      </trkpt>
      <trkpt lat="55.913478992879391" lon="-3.066361024975777">
        <ele>38.590000000000003</ele>
        <time>2019-09-07T10:46:02Z</time>
      </trkpt>
      <trkpt lat="55.913532972335815" lon="-3.066348033025861">
        <ele>37.630000000000003</ele>
        <time>2019-09-07T10:46:03Z</time>
      </trkpt>
      <trkpt lat="55.913594998419285" lon="-3.066372005268931">
        <ele>37.149999999999999</ele>
        <time>2019-09-07T10:46:04Z</time>
      </trkpt>
      <trkpt lat="55.913653001189232" lon="-3.066393965855241">
        <ele>36.670000000000002</ele>
        <time>2019-09-07T10:46:05Z</time>
      </trkpt>
      <trkpt lat="55.913705974817276" lon="-3.066415004432201">
        <ele>36.189999999999998</ele>
        <time>2019-09-07T10:46:06Z</time>
      </trkpt>
      <trkpt lat="55.913802031427622" lon="-3.066451968625188">
        <ele>35.710000000000001</ele>
        <time>2019-09-07T10:46:07Z</time>
      </trkpt>
      <trkpt lat="55.913826003670692" lon="-3.066472001373768">
        <ele>35.229999999999997</ele>
        <time>2019-09-07T10:46:08Z</time>
      </trkpt>
      <trkpt lat="55.913887023925781" lon="-3.066523969173431">
        <ele>34.740000000000002</ele>
        <time>2019-09-07T10:46:09Z</time>
      </trkpt>
      <trkpt lat="55.913951983675361" lon="-3.066579960286617">
        <ele>34.259999999999998</ele>
        <time>2019-09-07T10:46:10Z</time>
      </trkpt>
      <trkpt lat="55.914011998102069" lon="-3.066565962508321">
        <ele>34.259999999999998</ele>
        <time>2019-09-07T10:46:11Z</time>
      </trkpt>
      <trkpt lat="55.914060026407242" lon="-3.066469989717007">
        <ele>34.740000000000002</ele>
        <time>2019-09-07T10:46:12Z</time>
      </trkpt>
      <trkpt lat="55.914085004478693" lon="-3.066370999440551">
        <ele>34.740000000000002</ele>
        <time>2019-09-07T10:46:13Z</time>
      </trkpt>
      <trkpt lat="55.914095984771848" lon="-3.066259017214179">
        <ele>34.740000000000002</ele>
        <time>2019-09-07T10:46:14Z</time>
      </trkpt>
      <trkpt lat="55.914080981165171" lon="-3.066150974482298">
        <ele>34.740000000000002</ele>
        <time>2019-09-07T10:46:15Z</time>
      </trkpt>
      <trkpt lat="55.914019960910082" lon="-3.066079979762435">
        <ele>34.740000000000002</ele>
        <time>2019-09-07T10:46:16Z</time>
      </trkpt>
      <trkpt lat="55.913955001160502" lon="-3.06600496172905">
        <ele>34.740000000000002</ele>
        <time>2019-09-07T10:46:17Z</time>
      </trkpt>
      <trkpt lat="55.913912001997232" lon="-3.06583296507597">
        <ele>34.740000000000002</ele>
        <time>2019-09-07T10:46:18Z</time>
      </trkpt>
      <trkpt lat="55.913878977298737" lon="-3.065693993121386">
        <ele>34.740000000000002</ele>
        <time>2019-09-07T10:46:19Z</time>
      </trkpt>
      <trkpt lat="55.913841007277369" lon="-3.065535994246602">
        <ele>35.229999999999997</ele>
        <time>2019-09-07T10:46:20Z</time>
      </trkpt>
      <trkpt lat="55.913802031427622" lon="-3.065377995371819">
        <ele>36.189999999999998</ele>
        <time>2019-09-07T10:46:21Z</time>
      </trkpt>
      <trkpt lat="55.913766995072365" lon="-3.065224019810557">
        <ele>37.149999999999999</ele>
        <time>2019-09-07T10:46:22Z</time>
      </trkpt>
      <trkpt lat="55.91373598203063" lon="-3.06508001871407">
        <ele>37.630000000000003</ele>
        <time>2019-09-07T10:46:23Z</time>
      </trkpt>
      <trkpt lat="55.913707986474037" lon="-3.064957978203893">
        <ele>38.109999999999999</ele>
        <time>2019-09-07T10:46:24Z</time>
      </trkpt>
      <trkpt lat="55.913802031427622" lon="-3.064670981839299">
        <ele>38.590000000000003</ele>
        <time>2019-09-07T10:46:25Z</time>
      </trkpt>
      <trkpt lat="55.913802031427622" lon="-3.06462898850441">
        <ele>39.07</ele>
        <time>2019-09-07T10:46:26Z</time>
      </trkpt>
      <trkpt lat="55.913802031427622" lon="-3.064469983801246">
        <ele>39.07</ele>
        <time>2019-09-07T10:46:27Z</time>
      </trkpt>
      <trkpt lat="55.913760038092732" lon="-3.064321037381887">
        <ele>39.07</ele>
        <time>2019-09-07T10:46:28Z</time>
      </trkpt>
      <trkpt lat="55.913665993139148" lon="-3.064180975779891">
        <ele>38.590000000000003</ele>
        <time>2019-09-07T10:46:29Z</time>
      </trkpt>
      <trkpt lat="55.913631040602922" lon="-3.063997998833656">
        <ele>38.590000000000003</ele>
        <time>2019-09-07T10:46:30Z</time>
      </trkpt>
      <trkpt lat="55.913593992590904" lon="-3.063804041594267">
        <ele>38.109999999999999</ele>
        <time>2019-09-07T10:46:31Z</time>
      </trkpt>
      <trkpt lat="55.913237007334828" lon="-3.061614017933607">
        <ele>36.189999999999998</ele>
        <time>2019-09-07T10:46:40Z</time>
      </trkpt>
      <trkpt lat="55.91268396936357" lon="-3.058277014642954">
        <ele>34.259999999999998</ele>
        <time>2019-09-07T10:46:51Z</time>
      </trkpt>
      <trkpt lat="55.911942003294826" lon="-3.053722037002444">
        <ele>31.859999999999999</ele>
        <time>2019-09-07T10:47:05Z</time>
      </trkpt>
      <trkpt lat="55.911138011142612" lon="-3.048884002491832">
        <ele>34.259999999999998</ele>
        <time>2019-09-07T10:47:19Z</time>
      </trkpt>
      <trkpt lat="55.910392021760345" lon="-3.045891998335719">
        <ele>35.229999999999997</ele>
        <time>2019-09-07T10:47:28Z</time>
      </trkpt>
      <trkpt lat="55.909018982201815" lon="-3.042537979781628">
        <ele>41.950000000000003</ele>
        <time>2019-09-07T10:47:39Z</time>
      </trkpt>
      <trkpt lat="55.906757963821292" lon="-3.037596009671688">
        <ele>58.780000000000001</ele>
        <time>2019-09-07T10:47:56Z</time>
      </trkpt>
      <trkpt lat="55.905002038925886" lon="-3.03349600173533">
        <ele>74.640000000000001</ele>
        <time>2019-09-07T10:48:09Z</time>
      </trkpt>
      <trkpt lat="55.902888039126992" lon="-3.028242979198694">
        <ele>94.829999999999998</ele>
        <time>2019-09-07T10:48:25Z</time>
      </trkpt>
      <trkpt lat="55.901469988748431" lon="-3.024554019793868">
        <ele>104.92</ele>
        <time>2019-09-07T10:48:36Z</time>
      </trkpt>
      <trkpt lat="55.899299997836351" lon="-3.018401032313705">
        <ele>120.3</ele>
        <time>2019-09-07T10:48:54Z</time>
      </trkpt>
      <trkpt lat="55.897554969415069" lon="-3.013346996158361">
        <ele>127.98999999999999</ele>
        <time>2019-09-07T10:49:09Z</time>
      </trkpt>
      <trkpt lat="55.895767025649548" lon="-3.008204028010368">
        <ele>144.34</ele>
        <time>2019-09-07T10:49:25Z</time>
      </trkpt>
      <trkpt lat="55.893953014165163" lon="-3.002879004925489">
        <ele>158.27000000000001</ele>
        <time>2019-09-07T10:49:41Z</time>
      </trkpt>
      <trkpt lat="55.892413007095456" lon="-2.999152997508645">
        <ele>168.84999999999999</ele>
        <time>2019-09-07T10:49:53Z</time>
      </trkpt>
      <trkpt lat="55.890718018636107" lon="-2.996672037988901">
        <ele>172.21000000000001</ele>
        <time>2019-09-07T10:50:03Z</time>
      </trkpt>
      <trkpt lat="55.888777021318674" lon="-2.994875041767955">
        <ele>170.28999999999999</ele>
        <time>2019-09-07T10:50:13Z</time>
      </trkpt>
      <trkpt lat="55.886016022413969" lon="-2.992651993408799">
        <ele>161.63999999999999</ele>
        <time>2019-09-07T10:50:27Z</time>
      </trkpt>
      <trkpt lat="55.883461972698569" lon="-2.990565989166498">
        <ele>156.83000000000001</ele>
        <time>2019-09-07T10:50:40Z</time>
      </trkpt>
      <trkpt lat="55.881113028153777" lon="-2.988684000447393">
        <ele>154.43000000000001</ele>
        <time>2019-09-07T10:50:52Z</time>
      </trkpt>
      <trkpt lat="55.879640998318791" lon="-2.987505001947284">
        <ele>153.47</ele>
        <time>2019-09-07T10:51:00Z</time>
      </trkpt>
      <trkpt lat="55.8772730268538" lon="-2.985504996031523">
        <ele>148.18000000000001</ele>
        <time>2019-09-07T10:51:13Z</time>
      </trkpt>
      <trkpt lat="55.875132959336042" lon="-2.982801999896765">
        <ele>144.81999999999999</ele>
        <time>2019-09-07T10:51:26Z</time>
      </trkpt>
      <trkpt lat="55.873189028352499" lon="-2.980221966281533">
        <ele>139.53</ele>
        <time>2019-09-07T10:51:38Z</time>
      </trkpt>
      <trkpt lat="55.871277032420039" lon="-2.977091995999217">
        <ele>132.31999999999999</ele>
        <time>2019-09-07T10:51:51Z</time>
      </trkpt>
      <trkpt lat="55.870435992255807" lon="-2.975471019744873">
        <ele>131.36000000000001</ele>
        <time>2019-09-07T10:51:59Z</time>
      </trkpt>
      <trkpt lat="55.869441982358694" lon="-2.97353002242744">
        <ele>131.84</ele>
        <time>2019-09-07T10:52:10Z</time>
      </trkpt>
      <trkpt lat="55.868886010721326" lon="-2.972218003123999">
        <ele>135.68000000000001</ele>
        <time>2019-09-07T10:52:17Z</time>
      </trkpt>
      <trkpt lat="55.868848962709308" lon="-2.972041983157396">
        <ele>136.63999999999999</ele>
        <time>2019-09-07T10:52:18Z</time>
      </trkpt>
      <trkpt lat="55.868559032678604" lon="-2.970134010538459">
        <ele>143.37</ele>
        <time>2019-09-07T10:52:29Z</time>
      </trkpt>
      <trkpt lat="55.868503041565418" lon="-2.969764033332467">
        <ele>144.81999999999999</ele>
        <time>2019-09-07T10:52:31Z</time>
      </trkpt>
      <trkpt lat="55.868463981896639" lon="-2.969583990052342">
        <ele>145.78</ele>
        <time>2019-09-07T10:52:32Z</time>
      </trkpt>
      <trkpt lat="55.867694020271301" lon="-2.967920014634728">
        <ele>152.50999999999999</ele>
        <time>2019-09-07T10:52:43Z</time>
      </trkpt>
      <trkpt lat="55.866692969575524" lon="-2.966477992013097">
        <ele>158.27000000000001</ele>
        <time>2019-09-07T10:52:54Z</time>
      </trkpt>
      <trkpt lat="55.865489998832345" lon="-2.964933961629868">
        <ele>166.93000000000001</ele>
        <time>2019-09-07T10:53:06Z</time>
      </trkpt>
      <trkpt lat="55.864472016692162" lon="-2.963973982259631">
        <ele>171.25</ele>
        <time>2019-09-07T10:53:16Z</time>
      </trkpt>
      <trkpt lat="55.863657966256142" lon="-2.963509960100055">
        <ele>173.16999999999999</ele>
        <time>2019-09-07T10:53:23Z</time>
      </trkpt>
      <trkpt lat="55.863547995686531" lon="-2.963407030329108">
        <ele>173.66</ele>
        <time>2019-09-07T10:53:24Z</time>
      </trkpt>
      <trkpt lat="55.863443976268172" lon="-2.963292030617595">
        <ele>173.66</ele>
        <time>2019-09-07T10:53:25Z</time>
      </trkpt>
      <trkpt lat="55.863356972113252" lon="-2.963130008429289">
        <ele>174.13999999999999</ele>
        <time>2019-09-07T10:53:26Z</time>
      </trkpt>
      <trkpt lat="55.863268962129951" lon="-2.962967986240983">
        <ele>174.13999999999999</ele>
        <time>2019-09-07T10:53:27Z</time>
      </trkpt>
      <trkpt lat="55.862594973295927" lon="-2.96128598973155">
        <ele>177.02000000000001</ele>
        <time>2019-09-07T10:53:36Z</time>
      </trkpt>
      <trkpt lat="55.861963983625174" lon="-2.959471978247166">
        <ele>180.38</ele>
        <time>2019-09-07T10:53:44Z</time>
      </trkpt>
      <trkpt lat="55.861843032762408" lon="-2.959229992702603">
        <ele>180.87</ele>
        <time>2019-09-07T10:53:45Z</time>
      </trkpt>
      <trkpt lat="55.861566010862589" lon="-2.958776028826833">
        <ele>181.83000000000001</ele>
        <time>2019-09-07T10:53:47Z</time>
      </trkpt>
      <trkpt lat="55.859920978546143" lon="-2.956639984622598">
        <ele>190.96000000000001</ele>
        <time>2019-09-07T10:53:57Z</time>
      </trkpt>
      <trkpt lat="55.858378037810326" lon="-2.954234965145588">
        <ele>195.77000000000001</ele>
        <time>2019-09-07T10:54:07Z</time>
      </trkpt>
      <trkpt lat="55.856421031057835" lon="-2.950673997402191">
        <ele>202.00999999999999</ele>
        <time>2019-09-07T10:54:20Z</time>
      </trkpt>
      <trkpt lat="55.855832034721971" lon="-2.949598012492061">
        <ele>206.34</ele>
        <time>2019-09-07T10:54:24Z</time>
      </trkpt>
      <trkpt lat="55.854040989652276" lon="-2.946188002824783">
        <ele>207.30000000000001</ele>
        <time>2019-09-07T10:54:36Z</time>
      </trkpt>
      <trkpt lat="55.853119986131787" lon="-2.944162013009191">
        <ele>202.97999999999999</ele>
        <time>2019-09-07T10:54:44Z</time>
      </trkpt>
      <trkpt lat="55.852505005896091" lon="-2.943155011162162">
        <ele>201.53</ele>
        <time>2019-09-07T10:54:49Z</time>
      </trkpt>
      <trkpt lat="55.852363016456366" lon="-2.942976979538798">
        <ele>201.53</ele>
        <time>2019-09-07T10:54:50Z</time>
      </trkpt>
      <trkpt lat="55.850908001884818" lon="-2.94091796502471">
        <ele>199.13</ele>
        <time>2019-09-07T10:55:01Z</time>
      </trkpt>
      <trkpt lat="55.849826987832785" lon="-2.938414961099625">
        <ele>197.21000000000001</ele>
        <time>2019-09-07T10:55:11Z</time>
      </trkpt>
      <trkpt lat="55.848538018763065" lon="-2.935262024402618">
        <ele>196.72999999999999</ele>
        <time>2019-09-07T10:55:22Z</time>
      </trkpt>
      <trkpt lat="55.847270004451275" lon="-2.93305498547852">
        <ele>199.61000000000001</ele>
        <time>2019-09-07T10:55:31Z</time>
      </trkpt>
      <trkpt lat="55.846323017030954" lon="-2.931066965684295">
        <ele>201.53</ele>
        <time>2019-09-07T10:55:39Z</time>
      </trkpt>
      <trkpt lat="55.845550959929824" lon="-2.928351983428001">
        <ele>204.90000000000001</ele>
        <time>2019-09-07T10:55:49Z</time>
      </trkpt>
      <trkpt lat="55.84530302323401" lon="-2.927312040701509">
        <ele>207.78</ele>
        <time>2019-09-07T10:55:55Z</time>
      </trkpt>
      <trkpt lat="55.84509096108377" lon="-2.92665196582675">
        <ele>210.66999999999999</ele>
        <time>2019-09-07T10:56:03Z</time>
      </trkpt>
      <trkpt lat="55.844564996659756" lon="-2.925321003422141">
        <ele>213.06999999999999</ele>
        <time>2019-09-07T10:56:12Z</time>
      </trkpt>
      <trkpt lat="55.843447018414736" lon="-2.923419987782836">
        <ele>214.03</ele>
        <time>2019-09-07T10:56:22Z</time>
      </trkpt>
      <trkpt lat="55.84208101965487" lon="-2.921093003824353">
        <ele>215.94999999999999</ele>
        <time>2019-09-07T10:56:33Z</time>
      </trkpt>
      <trkpt lat="55.840497007593513" lon="-2.918399982154369">
        <ele>214.99000000000001</ele>
        <time>2019-09-07T10:56:45Z</time>
      </trkpt>
      <trkpt lat="55.83885901607573" lon="-2.915538987144828">
        <ele>210.19</ele>
        <time>2019-09-07T10:56:57Z</time>
      </trkpt>
      <trkpt lat="55.838663969188929" lon="-2.915102038532496">
        <ele>209.69999999999999</ele>
        <time>2019-09-07T10:56:59Z</time>
      </trkpt>
      <trkpt lat="55.83860102109611" lon="-2.914858041331172">
        <ele>209.22</ele>
        <time>2019-09-07T10:57:00Z</time>
      </trkpt>
      <trkpt lat="55.838555004447699" lon="-2.914604991674423">
        <ele>208.74000000000001</ele>
        <time>2019-09-07T10:57:01Z</time>
      </trkpt>
      <trkpt lat="55.838527008891106" lon="-2.914352025836706">
        <ele>208.74000000000001</ele>
        <time>2019-09-07T10:57:02Z</time>
      </trkpt>
      <trkpt lat="55.838499013334513" lon="-2.914107022807002">
        <ele>208.25999999999999</ele>
        <time>2019-09-07T10:57:03Z</time>
      </trkpt>
      <trkpt lat="55.838291980326176" lon="-2.911620028316975">
        <ele>210.19</ele>
        <time>2019-09-07T10:57:13Z</time>
      </trkpt>
      <trkpt lat="55.838291980326176" lon="-2.911369996145368">
        <ele>210.66999999999999</ele>
        <time>2019-09-07T10:57:14Z</time>
      </trkpt>
      <trkpt lat="55.838291980326176" lon="-2.91111895814538">
        <ele>211.15000000000001</ele>
        <time>2019-09-07T10:57:15Z</time>
      </trkpt>
      <trkpt lat="55.838327016681433" lon="-2.910874960944057">
        <ele>211.63</ele>
        <time>2019-09-07T10:57:16Z</time>
      </trkpt>
      <trkpt lat="55.838361969217658" lon="-2.91062300093472">
        <ele>212.11000000000001</ele>
        <time>2019-09-07T10:57:17Z</time>
      </trkpt>
      <trkpt lat="55.838776035234332" lon="-2.907524965703487">
        <ele>221.24000000000001</ele>
        <time>2019-09-07T10:57:28Z</time>
      </trkpt>
      <trkpt lat="55.838694982230663" lon="-2.90490897372365">
        <ele>228.44999999999999</ele>
        <time>2019-09-07T10:57:36Z</time>
      </trkpt>
      <trkpt lat="55.838216040283442" lon="-2.90198503062129">
        <ele>232.78</ele>
        <time>2019-09-07T10:57:44Z</time>
      </trkpt>
      <trkpt lat="55.837329989299178" lon="-2.899431986734271">
        <ele>239.50999999999999</ele>
        <time>2019-09-07T10:57:51Z</time>
      </trkpt>
      <trkpt lat="55.836074966937304" lon="-2.896838961169124">
        <ele>242.38999999999999</ele>
        <time>2019-09-07T10:57:59Z</time>
      </trkpt>
      <trkpt lat="55.834794966503978" lon="-2.893772022798657">
        <ele>246.72</ele>
        <time>2019-09-07T10:58:09Z</time>
      </trkpt>
      <trkpt lat="55.833513960242271" lon="-2.890645992010832">
        <ele>252.96000000000001</ele>
        <time>2019-09-07T10:58:19Z</time>
      </trkpt>
      <trkpt lat="55.832303026691079" lon="-2.888554036617279">
        <ele>255.37</ele>
        <time>2019-09-07T10:58:27Z</time>
      </trkpt>
      <trkpt lat="55.83082303404808" lon="-2.885975008830428">
        <ele>264.5</ele>
        <time>2019-09-07T10:58:37Z</time>
      </trkpt>
      <trkpt lat="55.829124022275209" lon="-2.883098004385829">
        <ele>269.31</ele>
        <time>2019-09-07T10:58:49Z</time>
      </trkpt>
      <trkpt lat="55.827399026602507" lon="-2.879859991371632">
        <ele>269.79000000000002</ele>
        <time>2019-09-07T10:59:00Z</time>
      </trkpt>
      <trkpt lat="55.8258399926126" lon="-2.876781988888979">
        <ele>280.83999999999997</ele>
        <time>2019-09-07T10:59:11Z</time>
      </trkpt>
      <trkpt lat="55.825547967106104" lon="-2.87622501142323">
        <ele>282.76999999999998</ele>
        <time>2019-09-07T10:59:13Z</time>
      </trkpt>
      <trkpt lat="55.8254100009799" lon="-2.87594597786665">
        <ele>284.20999999999998</ele>
        <time>2019-09-07T10:59:14Z</time>
      </trkpt>
      <trkpt lat="55.824677003547549" lon="-2.873954018577933">
        <ele>291.42000000000002</ele>
        <time>2019-09-07T10:59:21Z</time>
      </trkpt>
      <trkpt lat="55.824079038575292" lon="-2.871130993589759">
        <ele>297.67000000000002</ele>
        <time>2019-09-07T10:59:30Z</time>
      </trkpt>
      <trkpt lat="55.823959009721875" lon="-2.869955012574792">
        <ele>299.58999999999997</ele>
        <time>2019-09-07T10:59:34Z</time>
      </trkpt>
      <trkpt lat="55.823959009721875" lon="-2.869643038138747">
        <ele>300.55000000000001</ele>
        <time>2019-09-07T10:59:35Z</time>
      </trkpt>
      <trkpt lat="55.823978036642075" lon="-2.869303990155459">
        <ele>301.50999999999999</ele>
        <time>2019-09-07T10:59:36Z</time>
      </trkpt>
      <trkpt lat="55.824015000835061" lon="-2.868953039869666">
        <ele>302.47000000000003</ele>
        <time>2019-09-07T10:59:37Z</time>
      </trkpt>
      <trkpt lat="55.824073003605008" lon="-2.868577027693391">
        <ele>303.43000000000001</ele>
        <time>2019-09-07T10:59:38Z</time>
      </trkpt>
      <trkpt lat="55.824171993881464" lon="-2.868224987760186">
        <ele>304.38999999999999</ele>
        <time>2019-09-07T10:59:39Z</time>
      </trkpt>
      <trkpt lat="55.824272995814681" lon="-2.867869008332491">
        <ele>305.36000000000001</ele>
        <time>2019-09-07T10:59:40Z</time>
      </trkpt>
      <trkpt lat="55.824384978041053" lon="-2.867515962570906">
        <ele>306.31999999999999</ele>
        <time>2019-09-07T10:59:41Z</time>
      </trkpt>
      <trkpt lat="55.82547596655786" lon="-2.864525970071554">
        <ele>315.44999999999999</ele>
        <time>2019-09-07T10:59:49Z</time>
      </trkpt>
      <trkpt lat="55.825586020946503" lon="-2.864181976765394">
        <ele>316.41000000000003</ele>
        <time>2019-09-07T10:59:50Z</time>
      </trkpt>
      <trkpt lat="55.82566699013114" lon="-2.863838989287615">
        <ele>317.37</ele>
        <time>2019-09-07T10:59:51Z</time>
      </trkpt>
      <trkpt lat="55.825691968202591" lon="-2.863448979333043">
        <ele>318.32999999999998</ele>
        <time>2019-09-07T10:59:52Z</time>
      </trkpt>
      <trkpt lat="55.825670007616282" lon="-2.863057963550091">
        <ele>319.77999999999997</ele>
        <time>2019-09-07T10:59:53Z</time>
      </trkpt>
      <trkpt lat="55.825635977089405" lon="-2.862668037414551">
        <ele>320.74000000000001</ele>
        <time>2019-09-07T10:59:54Z</time>
      </trkpt>
      <trkpt lat="55.825590966269374" lon="-2.862304011359811">
        <ele>321.69999999999999</ele>
        <time>2019-09-07T10:59:55Z</time>
      </trkpt>
      <trkpt lat="55.825517037883401" lon="-2.861988013610244">
        <ele>322.66000000000003</ele>
        <time>2019-09-07T10:59:56Z</time>
      </trkpt>
      <trkpt lat="55.825445959344506" lon="-2.861685007810593">
        <ele>323.62</ele>
        <time>2019-09-07T10:59:57Z</time>
      </trkpt>
      <trkpt lat="55.825270023196936" lon="-2.86071103066206">
        <ele>326.5</ele>
        <time>2019-09-07T11:00:00Z</time>
      </trkpt>
      <trkpt lat="55.825249990448356" lon="-2.860352033749223">
        <ele>327.94999999999999</ele>
        <time>2019-09-07T11:00:01Z</time>
      </trkpt>
      <trkpt lat="55.825255019590259" lon="-2.859992031008005">
        <ele>328.91000000000003</ele>
        <time>2019-09-07T11:00:02Z</time>
      </trkpt>
      <trkpt lat="55.825267005711794" lon="-2.859619036316872">
        <ele>329.87</ele>
        <time>2019-09-07T11:00:03Z</time>
      </trkpt>
      <trkpt lat="55.825278991833329" lon="-2.85925199277699">
        <ele>330.82999999999998</ele>
        <time>2019-09-07T11:00:04Z</time>
      </trkpt>
      <trkpt lat="55.825315034016967" lon="-2.857120977714658">
        <ele>336.12</ele>
        <time>2019-09-07T11:00:10Z</time>
      </trkpt>
      <trkpt lat="55.82528100349009" lon="-2.856747983023524">
        <ele>337.07999999999998</ele>
        <time>2019-09-07T11:00:11Z</time>
      </trkpt>
      <trkpt lat="55.825234986841679" lon="-2.856389991939068">
        <ele>338.04000000000002</ele>
        <time>2019-09-07T11:00:12Z</time>
      </trkpt>
      <trkpt lat="55.825182013213634" lon="-2.856057984754443">
        <ele>339</ele>
        <time>2019-09-07T11:00:13Z</time>
      </trkpt>
      <trkpt lat="55.82510800100863" lon="-2.855743998661637">
        <ele>339.95999999999998</ele>
        <time>2019-09-07T11:00:14Z</time>
      </trkpt>
      <trkpt lat="55.825032982975245" lon="-2.855432024225593">
        <ele>340.92000000000002</ele>
        <time>2019-09-07T11:00:15Z</time>
      </trkpt>
      <trkpt lat="55.82493701018393" lon="-2.855141004547477">
        <ele>341.41000000000003</ele>
        <time>2019-09-07T11:00:16Z</time>
      </trkpt>
      <trkpt lat="55.824810024350882" lon="-2.854887032881379">
        <ele>342.37</ele>
        <time>2019-09-07T11:00:17Z</time>
      </trkpt>
      <trkpt lat="55.824682032689452" lon="-2.854629959911108">
        <ele>342.85000000000002</ele>
        <time>2019-09-07T11:00:18Z</time>
      </trkpt>
      <trkpt lat="55.8245500177145" lon="-2.854367019608617">
        <ele>343.32999999999998</ele>
        <time>2019-09-07T11:00:19Z</time>
      </trkpt>
      <trkpt lat="55.823073964565992" lon="-2.852079011499882">
        <ele>345.73000000000002</ele>
        <time>2019-09-07T11:00:28Z</time>
      </trkpt>
      <trkpt lat="55.821234975010157" lon="-2.850228035822511">
        <ele>340.44</ele>
        <time>2019-09-07T11:00:37Z</time>
      </trkpt>
      <trkpt lat="55.819034976884723" lon="-2.848429027944803">
        <ele>332.26999999999998</ele>
        <time>2019-09-07T11:00:47Z</time>
      </trkpt>
      <trkpt lat="55.817152988165617" lon="-2.846671007573605">
        <ele>332.26999999999998</ele>
        <time>2019-09-07T11:00:57Z</time>
      </trkpt>
      <trkpt lat="55.814361982047558" lon="-2.843915037810803">
        <ele>340.44</ele>
        <time>2019-09-07T11:01:11Z</time>
      </trkpt>
      <trkpt lat="55.811695028096437" lon="-2.841245988383889">
        <ele>349.57999999999998</ele>
        <time>2019-09-07T11:01:23Z</time>
      </trkpt>
      <trkpt lat="55.80918800085783" lon="-2.83875597640872">
        <ele>360.63</ele>
        <time>2019-09-07T11:01:35Z</time>
      </trkpt>
      <trkpt lat="55.807603988796473" lon="-2.837212029844523">
        <ele>365.92000000000002</ele>
        <time>2019-09-07T11:01:44Z</time>
      </trkpt>
      <trkpt lat="55.806294986978173" lon="-2.835993971675634">
        <ele>367.83999999999997</ele>
        <time>2019-09-07T11:01:51Z</time>
      </trkpt>
      <trkpt lat="55.804989002645016" lon="-2.835155026987195">
        <ele>364</ele>
        <time>2019-09-07T11:01:58Z</time>
      </trkpt>
      <trkpt lat="55.804812982678413" lon="-2.835125019773841">
        <ele>363.04000000000002</ele>
        <time>2019-09-07T11:01:59Z</time>
      </trkpt>
      <trkpt lat="55.804648026823997" lon="-2.835153015330434">
        <ele>362.06999999999999</ele>
        <time>2019-09-07T11:02:00Z</time>
      </trkpt>
      <trkpt lat="55.804487010464072" lon="-2.835182016715407">
        <ele>361.11000000000001</ele>
        <time>2019-09-07T11:02:01Z</time>
      </trkpt>
      <trkpt lat="55.804329011589289" lon="-2.835219986736774">
        <ele>360.14999999999998</ele>
        <time>2019-09-07T11:02:02Z</time>
      </trkpt>
      <trkpt lat="55.804174030199647" lon="-2.835291987285018">
        <ele>359.19</ele>
        <time>2019-09-07T11:02:03Z</time>
      </trkpt>
      <trkpt lat="55.804019970819354" lon="-2.835384020581842">
        <ele>358.23000000000002</ele>
        <time>2019-09-07T11:02:04Z</time>
      </trkpt>
      <trkpt lat="55.803862977772951" lon="-2.835504971444607">
        <ele>357.26999999999998</ele>
        <time>2019-09-07T11:02:05Z</time>
      </trkpt>
      <trkpt lat="55.803701961413026" lon="-2.835630029439926">
        <ele>356.31</ele>
        <time>2019-09-07T11:02:06Z</time>
      </trkpt>
      <trkpt lat="55.803542034700513" lon="-2.835771013051271">
        <ele>355.33999999999997</ele>
        <time>2019-09-07T11:02:07Z</time>
      </trkpt>
      <trkpt lat="55.801961040124297" lon="-2.837651995941997">
        <ele>344.76999999999998</ele>
        <time>2019-09-07T11:02:17Z</time>
      </trkpt>
      <trkpt lat="55.800719009712338" lon="-2.838399996981025">
        <ele>337.56</ele>
        <time>2019-09-07T11:02:24Z</time>
      </trkpt>
      <trkpt lat="55.799383018165827" lon="-2.838334031403065">
        <ele>330.35000000000002</ele>
        <time>2019-09-07T11:02:31Z</time>
      </trkpt>
      <trkpt lat="55.798104023560882" lon="-2.837362987920642">
        <ele>323.13999999999999</ele>
        <time>2019-09-07T11:02:38Z</time>
      </trkpt>
      <trkpt lat="55.796654960140586" lon="-2.835300033912063">
        <ele>314.49000000000001</ele>
        <time>2019-09-07T11:02:47Z</time>
      </trkpt>
      <trkpt lat="55.795208998024464" lon="-2.834210973232985">
        <ele>307.27999999999997</ele>
        <time>2019-09-07T11:02:54Z</time>
      </trkpt>
      <trkpt lat="55.792229985818267" lon="-2.832337031140924">
        <ele>291.89999999999998</ele>
        <time>2019-09-07T11:03:08Z</time>
      </trkpt>
      <trkpt lat="55.789530007168651" lon="-2.83044196665287">
        <ele>277</ele>
        <time>2019-09-07T11:03:21Z</time>
      </trkpt>
      <trkpt lat="55.788356037810445" lon="-2.828805986791849">
        <ele>269.31</ele>
        <time>2019-09-07T11:03:28Z</time>
      </trkpt>
      <trkpt lat="55.787500999867916" lon="-2.826587967574596">
        <ele>264.5</ele>
        <time>2019-09-07T11:03:35Z</time>
      </trkpt>
      <trkpt lat="55.786295011639595" lon="-2.822905965149403">
        <ele>255.37</ele>
        <time>2019-09-07T11:03:45Z</time>
      </trkpt>
      <trkpt lat="55.785114001482725" lon="-2.819811031222343">
        <ele>246.72</ele>
        <time>2019-09-07T11:03:54Z</time>
      </trkpt>
      <trkpt lat="55.783617999404669" lon="-2.814523978158832">
        <ele>235.18000000000001</ele>
        <time>2019-09-07T11:04:09Z</time>
      </trkpt>
      <trkpt lat="55.782737983390689" lon="-2.811353020370007">
        <ele>229.41</ele>
        <time>2019-09-07T11:04:18Z</time>
      </trkpt>
      <trkpt lat="55.781034026294947" lon="-2.807245971634984">
        <ele>223.63999999999999</ele>
        <time>2019-09-07T11:04:31Z</time>
      </trkpt>
      <trkpt lat="55.779181038960814" lon="-2.804106026887894">
        <ele>220.28</ele>
        <time>2019-09-07T11:04:43Z</time>
      </trkpt>
      <trkpt lat="55.776981962844729" lon="-2.800326962023974">
        <ele>215.94999999999999</ele>
        <time>2019-09-07T11:04:58Z</time>
      </trkpt>
      <trkpt lat="55.775543041527271" lon="-2.797521958127618">
        <ele>212.59</ele>
        <time>2019-09-07T11:05:08Z</time>
      </trkpt>
      <trkpt lat="55.773776974529028" lon="-2.793582966551185">
        <ele>208.74000000000001</ele>
        <time>2019-09-07T11:05:21Z</time>
      </trkpt>
      <trkpt lat="55.772160021588206" lon="-2.789903981611133">
        <ele>207.30000000000001</ele>
        <time>2019-09-07T11:05:33Z</time>
      </trkpt>
      <trkpt lat="55.77154504135251" lon="-2.788590034469962">
        <ele>207.78</ele>
        <time>2019-09-07T11:05:39Z</time>
      </trkpt>
      <trkpt lat="55.771213034167886" lon="-2.788038002327085">
        <ele>206.81999999999999</ele>
        <time>2019-09-07T11:05:43Z</time>
      </trkpt>
      <trkpt lat="55.771145978942513" lon="-2.787934988737106">
        <ele>206.34</ele>
        <time>2019-09-07T11:05:44Z</time>
      </trkpt>
      <trkpt lat="55.771151008084416" lon="-2.787609016522765">
        <ele>206.34</ele>
        <time>2019-09-07T11:05:45Z</time>
      </trkpt>
      <trkpt lat="55.771086970344186" lon="-2.787458980455995">
        <ele>205.86000000000001</ele>
        <time>2019-09-07T11:05:47Z</time>
      </trkpt>
      <trkpt lat="55.771006001159549" lon="-2.787365019321442">
        <ele>205.86000000000001</ele>
        <time>2019-09-07T11:05:48Z</time>
      </trkpt>
      <trkpt lat="55.770957972854376" lon="-2.787309028208256">
        <ele>205.86000000000001</ele>
        <time>2019-09-07T11:05:49Z</time>
      </trkpt>
      <trkpt lat="55.770716993138194" lon="-2.787177013233304">
        <ele>205.38</ele>
        <time>2019-09-07T11:05:51Z</time>
      </trkpt>
      <trkpt lat="55.770625965669751" lon="-2.787027982994914">
        <ele>204.90000000000001</ele>
        <time>2019-09-07T11:05:52Z</time>
      </trkpt>
      <trkpt lat="55.769645031541586" lon="-2.785895001143217">
        <ele>203.94</ele>
        <time>2019-09-07T11:05:59Z</time>
      </trkpt>
      <trkpt lat="55.767469005659223" lon="-2.783658038824797">
        <ele>206.34</ele>
        <time>2019-09-07T11:06:12Z</time>
      </trkpt>
      <trkpt lat="55.765578970313072" lon="-2.782065980136395">
        <ele>210.19</ele>
        <time>2019-09-07T11:06:22Z</time>
      </trkpt>
      <trkpt lat="55.763092981651425" lon="-2.781340023502708">
        <ele>208.74000000000001</ele>
        <time>2019-09-07T11:06:33Z</time>
      </trkpt>
      <trkpt lat="55.760274985805154" lon="-2.780154990032315">
        <ele>200.09</ele>
        <time>2019-09-07T11:06:45Z</time>
      </trkpt>
      <trkpt lat="55.757663017138839" lon="-2.77850903570652">
        <ele>195.28</ele>
        <time>2019-09-07T11:06:57Z</time>
      </trkpt>
      <trkpt lat="55.755843976512551" lon="-2.777267005294561">
        <ele>193.36000000000001</ele>
        <time>2019-09-07T11:07:07Z</time>
      </trkpt>
      <trkpt lat="55.754124009981751" lon="-2.775890026241541">
        <ele>189.52000000000001</ele>
        <time>2019-09-07T11:07:16Z</time>
      </trkpt>
      <trkpt lat="55.751167964190245" lon="-2.773628002032638">
        <ele>193.84</ele>
        <time>2019-09-07T11:07:31Z</time>
      </trkpt>
      <trkpt lat="55.748716006055474" lon="-2.772157983854413">
        <ele>189.03999999999999</ele>
        <time>2019-09-07T11:07:44Z</time>
      </trkpt>
      <trkpt lat="55.746232029050589" lon="-2.770921988412738">
        <ele>185.66999999999999</ele>
        <time>2019-09-07T11:07:56Z</time>
      </trkpt>
      <trkpt lat="55.743411015719175" lon="-2.769634025171399">
        <ele>187.11000000000001</ele>
        <time>2019-09-07T11:08:10Z</time>
      </trkpt>
      <trkpt lat="55.7403480168432" lon="-2.768082031980157">
        <ele>187.59</ele>
        <time>2019-09-07T11:08:25Z</time>
      </trkpt>
      <trkpt lat="55.737424995750189" lon="-2.766594998538494">
        <ele>187.11000000000001</ele>
        <time>2019-09-07T11:08:37Z</time>
      </trkpt>
      <trkpt lat="55.734487976878881" lon="-2.765353973954916">
        <ele>186.63</ele>
        <time>2019-09-07T11:08:49Z</time>
      </trkpt>
      <trkpt lat="55.731349959969521" lon="-2.764126025140286">
        <ele>184.71000000000001</ele>
        <time>2019-09-07T11:09:03Z</time>
      </trkpt>
      <trkpt lat="55.729936016723514" lon="-2.763372994959354">
        <ele>189.03999999999999</ele>
        <time>2019-09-07T11:09:10Z</time>
      </trkpt>
      <trkpt lat="55.728660961613059" lon="-2.762829009443522">
        <ele>190</ele>
        <time>2019-09-07T11:09:18Z</time>
      </trkpt>
      <trkpt lat="55.727187003940344" lon="-2.76228804141283">
        <ele>187.11000000000001</ele>
        <time>2019-09-07T11:09:27Z</time>
      </trkpt>
      <trkpt lat="55.7267040386796" lon="-2.761907000094652">
        <ele>184.71000000000001</ele>
        <time>2019-09-07T11:09:30Z</time>
      </trkpt>
      <trkpt lat="55.726546039804816" lon="-2.761775990948081">
        <ele>183.75</ele>
        <time>2019-09-07T11:09:31Z</time>
      </trkpt>
      <trkpt lat="55.725078033283353" lon="-2.759905988350511">
        <ele>184.71000000000001</ele>
        <time>2019-09-07T11:09:42Z</time>
      </trkpt>
      <trkpt lat="55.724488031119108" lon="-2.758891023695469">
        <ele>186.15000000000001</ele>
        <time>2019-09-07T11:09:48Z</time>
      </trkpt>
      <trkpt lat="55.724409995600581" lon="-2.758755991235375">
        <ele>187.11000000000001</ele>
        <time>2019-09-07T11:09:49Z</time>
      </trkpt>
      <trkpt lat="55.723297968506813" lon="-2.756889006122947">
        <ele>186.15000000000001</ele>
        <time>2019-09-07T11:10:03Z</time>
      </trkpt>
      <trkpt lat="55.722506968304515" lon="-2.755480008199811">
        <ele>184.22999999999999</ele>
        <time>2019-09-07T11:10:14Z</time>
      </trkpt>
      <trkpt lat="55.722089968621731" lon="-2.754743993282318">
        <ele>186.15000000000001</ele>
        <time>2019-09-07T11:10:22Z</time>
      </trkpt>
      <trkpt lat="55.722060967236757" lon="-2.754693031311035">
        <ele>186.15000000000001</ele>
        <time>2019-09-07T11:10:23Z</time>
      </trkpt>
      <trkpt lat="55.722036994993687" lon="-2.754649026319385">
        <ele>186.15000000000001</ele>
        <time>2019-09-07T11:10:24Z</time>
      </trkpt>
      <trkpt lat="55.722015034407377" lon="-2.754609966650605">
        <ele>186.63</ele>
        <time>2019-09-07T11:10:25Z</time>
      </trkpt>
      <trkpt lat="55.721993995830417" lon="-2.754574008285999">
        <ele>187.11000000000001</ele>
        <time>2019-09-07T11:10:26Z</time>
      </trkpt>
      <trkpt lat="55.72176500223577" lon="-2.754170000553131">
        <ele>189.03999999999999</ele>
        <time>2019-09-07T11:10:38Z</time>
      </trkpt>
      <trkpt lat="55.721683027222753" lon="-2.754024993628264">
        <ele>189.52000000000001</ele>
        <time>2019-09-07T11:10:52Z</time>
      </trkpt>
      <trkpt lat="55.721652014181018" lon="-2.753971014171839">
        <ele>189.52000000000001</ele>
        <time>2019-09-07T11:11:05Z</time>
      </trkpt>
      <trkpt lat="55.721637010574341" lon="-2.7539730258286">
        <ele>190.47999999999999</ele>
        <time>2019-09-07T11:11:08Z</time>
      </trkpt>
      <trkpt lat="55.721623012796044" lon="-2.753984006121755">
        <ele>190.47999999999999</ele>
        <time>2019-09-07T11:11:09Z</time>
      </trkpt>
      <trkpt lat="55.721728960052133" lon="-2.753849979490042">
        <ele>189.03999999999999</ele>
        <time>2019-09-07T12:00:39Z</time>
      </trkpt>
      <trkpt lat="55.721674980595708" lon="-2.753891972824931">
        <ele>189.52000000000001</ele>
        <time>2019-09-07T12:01:27Z</time>
      </trkpt>
      <trkpt lat="55.721706999465823" lon="-2.753910999745131">
        <ele>184.71000000000001</ele>
        <time>2019-09-07T12:02:15Z</time>
      </trkpt>
      <trkpt lat="55.721703981980681" lon="-2.753902031108737">
        <ele>184.22999999999999</ele>
        <time>2019-09-07T12:02:52Z</time>
      </trkpt>
      <trkpt lat="55.721703981980681" lon="-2.753901025280356">
        <ele>184.22999999999999</ele>
        <time>2019-09-07T12:03:26Z</time>
      </trkpt>
      <trkpt lat="55.721560986712575" lon="-2.753755012527108">
        <ele>184.22999999999999</ele>
        <time>2019-09-07T12:03:37Z</time>
      </trkpt>
      <trkpt lat="55.721541037783027" lon="-2.753705978393555">
        <ele>184.22999999999999</ele>
        <time>2019-09-07T12:03:38Z</time>
      </trkpt>
      <trkpt lat="55.721518993377686" lon="-2.753499029204249">
        <ele>184.22999999999999</ele>
        <time>2019-09-07T12:03:39Z</time>
      </trkpt>
      <trkpt lat="55.721498960629106" lon="-2.753318985924125">
        <ele>184.22999999999999</ele>
        <time>2019-09-07T12:03:40Z</time>
      </trkpt>
      <trkpt lat="55.721480017527938" lon="-2.753143971785903">
        <ele>184.22999999999999</ele>
        <time>2019-09-07T12:03:41Z</time>
      </trkpt>
      <trkpt lat="55.721445987001061" lon="-2.752825962379575">
        <ele>183.27000000000001</ele>
        <time>2019-09-07T12:03:43Z</time>
      </trkpt>
      <trkpt lat="55.721424026414752" lon="-2.752665029838681">
        <ele>182.31</ele>
        <time>2019-09-07T12:03:44Z</time>
      </trkpt>
      <trkpt lat="55.721395025029778" lon="-2.752506025135517">
        <ele>181.83000000000001</ele>
        <time>2019-09-07T12:03:45Z</time>
      </trkpt>
      <trkpt lat="55.721341967582703" lon="-2.752356994897127">
        <ele>180.87</ele>
        <time>2019-09-07T12:03:46Z</time>
      </trkpt>
      <trkpt lat="55.721286982297897" lon="-2.752213999629021">
        <ele>179.41999999999999</ele>
        <time>2019-09-07T12:03:47Z</time>
      </trkpt>
      <trkpt lat="55.721230991184711" lon="-2.752069998532534">
        <ele>178.46000000000001</ele>
        <time>2019-09-07T12:03:48Z</time>
      </trkpt>
      <trkpt lat="55.721176005899906" lon="-2.751927003264427">
        <ele>177.97999999999999</ele>
        <time>2019-09-07T12:03:49Z</time>
      </trkpt>
      <trkpt lat="55.721115991473198" lon="-2.751789037138224">
        <ele>177.5</ele>
        <time>2019-09-07T12:03:50Z</time>
      </trkpt>
      <trkpt lat="55.720501011237502" lon="-2.750768037512898">
        <ele>175.58000000000001</ele>
        <time>2019-09-07T12:03:59Z</time>
      </trkpt>
      <trkpt lat="55.720275035127997" lon="-2.750380039215088">
        <ele>175.58000000000001</ele>
        <time>2019-09-07T12:04:02Z</time>
      </trkpt>
      <trkpt lat="55.720207979902625" lon="-2.750251963734627">
        <ele>176.06</ele>
        <time>2019-09-07T12:04:03Z</time>
      </trkpt>
      <trkpt lat="55.72013396769762" lon="-2.750109974294901">
        <ele>176.53999999999999</ele>
        <time>2019-09-07T12:04:04Z</time>
      </trkpt>
      <trkpt lat="55.719514964148402" lon="-2.748566027730703">
        <ele>180.38</ele>
        <time>2019-09-07T12:04:15Z</time>
      </trkpt>
      <trkpt lat="55.719061000272632" lon="-2.747215032577515">
        <ele>180.38</ele>
        <time>2019-09-07T12:04:24Z</time>
      </trkpt>
      <trkpt lat="55.718446020036936" lon="-2.745362967252731">
        <ele>179.90000000000001</ele>
        <time>2019-09-07T12:04:36Z</time>
      </trkpt>
      <trkpt lat="55.717848977074027" lon="-2.743286015465856">
        <ele>177.5</ele>
        <time>2019-09-07T12:04:47Z</time>
      </trkpt>
      <trkpt lat="55.717438012361526" lon="-2.742311032488942">
        <ele>175.09999999999999</ele>
        <time>2019-09-07T12:04:52Z</time>
      </trkpt>
      <trkpt lat="55.717326030135155" lon="-2.742159990593791">
        <ele>174.62</ele>
        <time>2019-09-07T12:04:53Z</time>
      </trkpt>
      <trkpt lat="55.71587503887713" lon="-2.740221004933119">
        <ele>171.25</ele>
        <time>2019-09-07T12:05:06Z</time>
      </trkpt>
      <trkpt lat="55.715137012302876" lon="-2.739251973107457">
        <ele>168.37</ele>
        <time>2019-09-07T12:05:14Z</time>
      </trkpt>
      <trkpt lat="55.715078003704548" lon="-2.739173015579581">
        <ele>167.88999999999999</ele>
        <time>2019-09-07T12:05:15Z</time>
      </trkpt>
      <trkpt lat="55.715073980391026" lon="-2.738924995064735">
        <ele>167.88999999999999</ele>
        <time>2019-09-07T12:05:16Z</time>
      </trkpt>
      <trkpt lat="55.715117985382676" lon="-2.738793985918164">
        <ele>167.41</ele>
        <time>2019-09-07T12:05:17Z</time>
      </trkpt>
      <trkpt lat="55.715170037001371" lon="-2.738637998700142">
        <ele>167.41</ele>
        <time>2019-09-07T12:05:18Z</time>
      </trkpt>
      <trkpt lat="55.715228039771318" lon="-2.738463990390301">
        <ele>166.93000000000001</ele>
        <time>2019-09-07T12:05:19Z</time>
      </trkpt>
      <trkpt lat="55.715896999463439" lon="-2.736604968085885">
        <ele>164.03999999999999</ele>
        <time>2019-09-07T12:05:29Z</time>
      </trkpt>
      <trkpt lat="55.716620022431016" lon="-2.734626000747085">
        <ele>160.68000000000001</ele>
        <time>2019-09-07T12:05:38Z</time>
      </trkpt>
      <trkpt lat="55.717299962416291" lon="-2.732085026800633">
        <ele>160.68000000000001</ele>
        <time>2019-09-07T12:05:49Z</time>
      </trkpt>
      <trkpt lat="55.717463996261358" lon="-2.730166995897889">
        <ele>166.44999999999999</ele>
        <time>2019-09-07T12:05:56Z</time>
      </trkpt>
      <trkpt lat="55.717418985441327" lon="-2.729772040620446">
        <ele>168.37</ele>
        <time>2019-09-07T12:05:58Z</time>
      </trkpt>
      <trkpt lat="55.717372968792915" lon="-2.729554027318955">
        <ele>169.33000000000001</ele>
        <time>2019-09-07T12:05:59Z</time>
      </trkpt>
      <trkpt lat="55.71731798350811" lon="-2.729334002360702">
        <ele>170.28999999999999</ele>
        <time>2019-09-07T12:06:00Z</time>
      </trkpt>
      <trkpt lat="55.716460011899471" lon="-2.727487972006202">
        <ele>178.46000000000001</ele>
        <time>2019-09-07T12:06:08Z</time>
      </trkpt>
      <trkpt lat="55.714598977938294" lon="-2.723804963752627">
        <ele>191.91999999999999</ele>
        <time>2019-09-07T12:06:22Z</time>
      </trkpt>
      <trkpt lat="55.713618965819478" lon="-2.721629021689296">
        <ele>197.69</ele>
        <time>2019-09-07T12:06:30Z</time>
      </trkpt>
      <trkpt lat="55.713534979149699" lon="-2.721348982304335">
        <ele>198.16999999999999</ele>
        <time>2019-09-07T12:06:31Z</time>
      </trkpt>
      <trkpt lat="55.71349298581481" lon="-2.721042959019542">
        <ele>199.13</ele>
        <time>2019-09-07T12:06:32Z</time>
      </trkpt>
      <trkpt lat="55.713462978601456" lon="-2.720726039260626">
        <ele>200.09</ele>
        <time>2019-09-07T12:06:33Z</time>
      </trkpt>
      <trkpt lat="55.713432971388102" lon="-2.720409035682678">
        <ele>200.56999999999999</ele>
        <time>2019-09-07T12:06:34Z</time>
      </trkpt>
      <trkpt lat="55.713416039943695" lon="-2.720095971599221">
        <ele>201.05000000000001</ele>
        <time>2019-09-07T12:06:35Z</time>
      </trkpt>
      <trkpt lat="55.713460966944695" lon="-2.719777040183544">
        <ele>201.53</ele>
        <time>2019-09-07T12:06:36Z</time>
      </trkpt>
      <trkpt lat="55.713506983593106" lon="-2.719456013292074">
        <ele>202.49000000000001</ele>
        <time>2019-09-07T12:06:37Z</time>
      </trkpt>
      <trkpt lat="55.713559035211802" lon="-2.719095004722476">
        <ele>202.97999999999999</ele>
        <time>2019-09-07T12:06:38Z</time>
      </trkpt>
      <trkpt lat="55.713647967204452" lon="-2.718834998086095">
        <ele>203.46000000000001</ele>
        <time>2019-09-07T12:06:39Z</time>
      </trkpt>
      <trkpt lat="55.713743017986417" lon="-2.718557976186276">
        <ele>203.94</ele>
        <time>2019-09-07T12:06:40Z</time>
      </trkpt>
      <trkpt lat="55.714553967118263" lon="-2.716199979186058">
        <ele>209.22</ele>
        <time>2019-09-07T12:06:48Z</time>
      </trkpt>
      <trkpt lat="55.715814018622041" lon="-2.712537003681064">
        <ele>216.43000000000001</ele>
        <time>2019-09-07T12:07:00Z</time>
      </trkpt>
      <trkpt lat="55.716224983334541" lon="-2.711341995745897">
        <ele>219.31999999999999</ele>
        <time>2019-09-07T12:07:06Z</time>
      </trkpt>
      <trkpt lat="55.7163480296731" lon="-2.71098199300468">
        <ele>221.24000000000001</ele>
        <time>2019-09-07T12:07:09Z</time>
      </trkpt>
      <trkpt lat="55.716381976380944" lon="-2.710909992456436">
        <ele>221.72</ele>
        <time>2019-09-07T12:07:10Z</time>
      </trkpt>
      <trkpt lat="55.716422963887453" lon="-2.710877973586321">
        <ele>221.72</ele>
        <time>2019-09-07T12:07:11Z</time>
      </trkpt>
      <trkpt lat="55.716450959444046" lon="-2.710857018828392">
        <ele>222.19999999999999</ele>
        <time>2019-09-07T12:07:12Z</time>
      </trkpt>
      <trkpt lat="55.716474009677768" lon="-2.710837991908193">
        <ele>222.68000000000001</ele>
        <time>2019-09-07T12:07:13Z</time>
      </trkpt>
      <trkpt lat="55.716496976092458" lon="-2.710820976644754">
        <ele>223.16</ele>
        <time>2019-09-07T12:07:14Z</time>
      </trkpt>
      <trkpt lat="55.71652103215456" lon="-2.710802033543587">
        <ele>223.16</ele>
        <time>2019-09-07T12:07:15Z</time>
      </trkpt>
      <trkpt lat="55.71656302548945" lon="-2.710769008845091">
        <ele>223.63999999999999</ele>
        <time>2019-09-07T12:07:16Z</time>
      </trkpt>
      <trkpt lat="55.716547016054392" lon="-2.710633976384997">
        <ele>224.12</ele>
        <time>2019-09-07T12:07:17Z</time>
      </trkpt>
      <trkpt lat="55.716528994962573" lon="-2.710484024137259">
        <ele>224.12</ele>
        <time>2019-09-07T12:07:18Z</time>
      </trkpt>
      <trkpt lat="55.716507034376264" lon="-2.710297023877502">
        <ele>224.61000000000001</ele>
        <time>2019-09-07T12:07:19Z</time>
      </trkpt>
      <trkpt lat="55.716425981372595" lon="-2.708988022059202">
        <ele>225.09</ele>
        <time>2019-09-07T12:07:24Z</time>
      </trkpt>
      <trkpt lat="55.716482978314161" lon="-2.708329036831856">
        <ele>225.09</ele>
        <time>2019-09-07T12:07:26Z</time>
      </trkpt>
      <trkpt lat="55.716537041589618" lon="-2.707985965535045">
        <ele>225.09</ele>
        <time>2019-09-07T12:07:27Z</time>
      </trkpt>
      <trkpt lat="55.716620022431016" lon="-2.707636021077633">
        <ele>225.09</ele>
        <time>2019-09-07T12:07:28Z</time>
      </trkpt>
      <trkpt lat="55.717525016516447" lon="-2.704053008928895">
        <ele>225.09</ele>
        <time>2019-09-07T12:07:38Z</time>
      </trkpt>
      <trkpt lat="55.717913014814258" lon="-2.702672006562352">
        <ele>224.61000000000001</ele>
        <time>2019-09-07T12:07:42Z</time>
      </trkpt>
      <trkpt lat="55.718051986768842" lon="-2.702378975227475">
        <ele>225.09</ele>
        <time>2019-09-07T12:07:43Z</time>
      </trkpt>
      <trkpt lat="55.718203028663993" lon="-2.702101031318307">
        <ele>224.61000000000001</ele>
        <time>2019-09-07T12:07:44Z</time>
      </trkpt>
      <trkpt lat="55.718353986740112" lon="-2.701820991933346">
        <ele>224.61000000000001</ele>
        <time>2019-09-07T12:07:45Z</time>
      </trkpt>
      <trkpt lat="55.718525983393192" lon="-2.701579006388784">
        <ele>224.61000000000001</ele>
        <time>2019-09-07T12:07:46Z</time>
      </trkpt>
      <trkpt lat="55.719772037118673" lon="-2.69972300156951">
        <ele>220.75999999999999</ele>
        <time>2019-09-07T12:07:54Z</time>
      </trkpt>
      <trkpt lat="55.720618022605777" lon="-2.697574971243739">
        <ele>216.43000000000001</ele>
        <time>2019-09-07T12:08:01Z</time>
      </trkpt>
      <trkpt lat="55.721053965389729" lon="-2.694945987313986">
        <ele>211.15000000000001</ele>
        <time>2019-09-07T12:08:08Z</time>
      </trkpt>
      <trkpt lat="55.721681015565991" lon="-2.689887005835772">
        <ele>202.00999999999999</ele>
        <time>2019-09-07T12:08:21Z</time>
      </trkpt>
      <trkpt lat="55.722399009391665" lon="-2.68674798309803">
        <ele>197.21000000000001</ele>
        <time>2019-09-07T12:08:29Z</time>
      </trkpt>
      <trkpt lat="55.723345996811986" lon="-2.684407001361251">
        <ele>195.28</ele>
        <time>2019-09-07T12:08:36Z</time>
      </trkpt>
      <trkpt lat="55.723540959879756" lon="-2.683771988376975">
        <ele>195.28</ele>
        <time>2019-09-07T12:08:38Z</time>
      </trkpt>
      <trkpt lat="55.723589994013309" lon="-2.683424977585673">
        <ele>194.80000000000001</ele>
        <time>2019-09-07T12:08:39Z</time>
      </trkpt>
      <trkpt lat="55.723609020933509" lon="-2.683068998157978">
        <ele>194.80000000000001</ele>
        <time>2019-09-07T12:08:40Z</time>
      </trkpt>
      <trkpt lat="55.723617989569902" lon="-2.68270798958838">
        <ele>194.31999999999999</ele>
        <time>2019-09-07T12:08:41Z</time>
      </trkpt>
      <trkpt lat="55.723600974306464" lon="-2.682345975190401">
        <ele>194.31999999999999</ele>
        <time>2019-09-07T12:08:42Z</time>
      </trkpt>
      <trkpt lat="55.723477005958557" lon="-2.679074015468359">
        <ele>194.80000000000001</ele>
        <time>2019-09-07T12:08:52Z</time>
      </trkpt>
      <trkpt lat="55.723581025376916" lon="-2.676323996856809">
        <ele>197.69</ele>
        <time>2019-09-07T12:09:00Z</time>
      </trkpt>
      <trkpt lat="55.723949996754527" lon="-2.671719985082746">
        <ele>199.13</ele>
        <time>2019-09-07T12:09:13Z</time>
      </trkpt>
      <trkpt lat="55.723889982327819" lon="-2.66992500051856">
        <ele>196.25</ele>
        <time>2019-09-07T12:09:18Z</time>
      </trkpt>
      <trkpt lat="55.724045969545841" lon="-2.667148998007178">
        <ele>194.80000000000001</ele>
        <time>2019-09-07T12:09:26Z</time>
      </trkpt>
      <trkpt lat="55.724091986194253" lon="-2.666819002479315">
        <ele>194.80000000000001</ele>
        <time>2019-09-07T12:09:27Z</time>
      </trkpt>
      <trkpt lat="55.724523989483714" lon="-2.663788022473455">
        <ele>203.46000000000001</ele>
        <time>2019-09-07T12:09:36Z</time>
      </trkpt>
      <trkpt lat="55.724546033889055" lon="-2.663431037217379">
        <ele>204.41999999999999</ele>
        <time>2019-09-07T12:09:37Z</time>
      </trkpt>
      <trkpt lat="55.724565982818604" lon="-2.663077991455793">
        <ele>205.38</ele>
        <time>2019-09-07T12:09:38Z</time>
      </trkpt>
      <trkpt lat="55.724187036976218" lon="-2.660688981413841">
        <ele>214.50999999999999</ele>
        <time>2019-09-07T12:09:45Z</time>
      </trkpt>
      <trkpt lat="55.723253963515162" lon="-2.658289996907115">
        <ele>219.31999999999999</ele>
        <time>2019-09-07T12:09:53Z</time>
      </trkpt>
      <trkpt lat="55.721346996724606" lon="-2.655079979449511">
        <ele>216.91</ele>
        <time>2019-09-07T12:10:06Z</time>
      </trkpt>
      <trkpt lat="55.719542037695646" lon="-2.652875036001205">
        <ele>212.59</ele>
        <time>2019-09-07T12:10:17Z</time>
      </trkpt>
      <trkpt lat="55.719419997185469" lon="-2.652613017708063">
        <ele>212.59</ele>
        <time>2019-09-07T12:10:18Z</time>
      </trkpt>
      <trkpt lat="55.719306003302336" lon="-2.652339013293386">
        <ele>212.59</ele>
        <time>2019-09-07T12:10:19Z</time>
      </trkpt>
      <trkpt lat="55.719224028289318" lon="-2.652027038857341">
        <ele>213.06999999999999</ele>
        <time>2019-09-07T12:10:20Z</time>
      </trkpt>
      <trkpt lat="55.719183962792158" lon="-2.651697965338826">
        <ele>213.06999999999999</ele>
        <time>2019-09-07T12:10:21Z</time>
      </trkpt>
      <trkpt lat="55.719157978892326" lon="-2.651356989517808">
        <ele>213.55000000000001</ele>
        <time>2019-09-07T12:10:22Z</time>
      </trkpt>
      <trkpt lat="55.719131994992495" lon="-2.65101701952517">
        <ele>213.55000000000001</ele>
        <time>2019-09-07T12:10:23Z</time>
      </trkpt>
      <trkpt lat="55.71912202052772" lon="-2.65069498680532">
        <ele>214.03</ele>
        <time>2019-09-07T12:10:24Z</time>
      </trkpt>
      <trkpt lat="55.719136018306017" lon="-2.650376977398992">
        <ele>214.03</ele>
        <time>2019-09-07T12:10:25Z</time>
      </trkpt>
      <trkpt lat="55.719215981662273" lon="-2.648234982043505">
        <ele>215.94999999999999</ele>
        <time>2019-09-07T12:10:32Z</time>
      </trkpt>
      <trkpt lat="55.71927297860384" lon="-2.645182963460684">
        <ele>215.94999999999999</ele>
        <time>2019-09-07T12:10:41Z</time>
      </trkpt>
      <trkpt lat="55.719313966110349" lon="-2.641605986282229">
        <ele>224.12</ele>
        <time>2019-09-07T12:10:51Z</time>
      </trkpt>
      <trkpt lat="55.719357971101999" lon="-2.640924034640193">
        <ele>227.00999999999999</ele>
        <time>2019-09-07T12:10:53Z</time>
      </trkpt>
      <trkpt lat="55.719440029934049" lon="-2.640623962506652">
        <ele>228.44999999999999</ele>
        <time>2019-09-07T12:10:54Z</time>
      </trkpt>
      <trkpt lat="55.719520999118686" lon="-2.640322968363762">
        <ele>230.37</ele>
        <time>2019-09-07T12:10:55Z</time>
      </trkpt>
      <trkpt lat="55.720358015969396" lon="-2.637798003852367">
        <ele>238.53999999999999</ele>
        <time>2019-09-07T12:11:03Z</time>
      </trkpt>
      <trkpt lat="55.720666972920299" lon="-2.636340977624059">
        <ele>240.47</ele>
        <time>2019-09-07T12:11:07Z</time>
      </trkpt>
      <trkpt lat="55.720704020932317" lon="-2.635972006246448">
        <ele>240.94999999999999</ele>
        <time>2019-09-07T12:11:08Z</time>
      </trkpt>
      <trkpt lat="55.720704020932317" lon="-2.635598005726934">
        <ele>240.94999999999999</ele>
        <time>2019-09-07T12:11:09Z</time>
      </trkpt>
      <trkpt lat="55.720704020932317" lon="-2.635219981893897">
        <ele>240.94999999999999</ele>
        <time>2019-09-07T12:11:10Z</time>
      </trkpt>
      <trkpt lat="55.720704020932317" lon="-2.63483801856637">
        <ele>240.94999999999999</ele>
        <time>2019-09-07T12:11:11Z</time>
      </trkpt>
      <trkpt lat="55.720557002350688" lon="-2.631974006071687">
        <ele>239.50999999999999</ele>
        <time>2019-09-07T12:11:19Z</time>
      </trkpt>
      <trkpt lat="55.720190964639187" lon="-2.628367021679878">
        <ele>240.47</ele>
        <time>2019-09-07T12:11:29Z</time>
      </trkpt>
      <trkpt lat="55.719885025173426" lon="-2.625579033046961">
        <ele>239.50999999999999</ele>
        <time>2019-09-07T12:11:37Z</time>
      </trkpt>
      <trkpt lat="55.719677992165089" lon="-2.622589040547609">
        <ele>238.53999999999999</ele>
        <time>2019-09-07T12:11:45Z</time>
      </trkpt>
      <trkpt lat="55.719439024105668" lon="-2.619158998131752">
        <ele>237.58000000000001</ele>
        <time>2019-09-07T12:11:54Z</time>
      </trkpt>
      <trkpt lat="55.719197038561106" lon="-2.615662990137935">
        <ele>236.62</ele>
        <time>2019-09-07T12:12:03Z</time>
      </trkpt>
      <trkpt lat="55.718909958377481" lon="-2.611530041322112">
        <ele>227.97</ele>
        <time>2019-09-07T12:12:14Z</time>
      </trkpt>
      <trkpt lat="55.718494970351458" lon="-2.605550978332758">
        <ele>221.72</ele>
        <time>2019-09-07T12:12:30Z</time>
      </trkpt>
      <trkpt lat="55.718062967061996" lon="-2.60071998462081">
        <ele>219.80000000000001</ele>
        <time>2019-09-07T12:12:43Z</time>
      </trkpt>
      <trkpt lat="55.717891976237297" lon="-2.59810097515583">
        <ele>214.50999999999999</ele>
        <time>2019-09-07T12:12:50Z</time>
      </trkpt>
      <trkpt lat="55.717677986249328" lon="-2.593292025849223">
        <ele>215.94999999999999</ele>
        <time>2019-09-07T12:13:03Z</time>
      </trkpt>
      <trkpt lat="55.717601962387562" lon="-2.591368965804577">
        <ele>221.72</ele>
        <time>2019-09-07T12:13:10Z</time>
      </trkpt>
      <trkpt lat="55.717328041791916" lon="-2.5882369838655">
        <ele>224.61000000000001</ele>
        <time>2019-09-07T12:13:21Z</time>
      </trkpt>
      <trkpt lat="55.717031992971897" lon="-2.58525101467967">
        <ele>224.12</ele>
        <time>2019-09-07T12:13:29Z</time>
      </trkpt>
      <trkpt lat="55.716546010226011" lon="-2.580349026247859">
        <ele>216.43000000000001</ele>
        <time>2019-09-07T12:13:41Z</time>
      </trkpt>
      <trkpt lat="55.715933041647077" lon="-2.574296034872532">
        <ele>211.63</ele>
        <time>2019-09-07T12:13:56Z</time>
      </trkpt>
      <trkpt lat="55.715223010629416" lon="-2.568673035129905">
        <ele>203.94</ele>
        <time>2019-09-07T12:14:10Z</time>
      </trkpt>
      <trkpt lat="55.71495596319437" lon="-2.56456296890974">
        <ele>198.65000000000001</ele>
        <time>2019-09-07T12:14:20Z</time>
      </trkpt>
      <trkpt lat="55.714557990431786" lon="-2.558446023613215">
        <ele>190</ele>
        <time>2019-09-07T12:14:35Z</time>
      </trkpt>
      <trkpt lat="55.714274011552334" lon="-2.553116977214813">
        <ele>189.03999999999999</ele>
        <time>2019-09-07T12:14:48Z</time>
      </trkpt>
      <trkpt lat="55.714192958548665" lon="-2.549027027562261">
        <ele>187.59</ele>
        <time>2019-09-07T12:14:58Z</time>
      </trkpt>
      <trkpt lat="55.713646039366722" lon="-2.546330988407135">
        <ele>185.66999999999999</ele>
        <time>2019-09-07T12:15:05Z</time>
      </trkpt>
      <trkpt lat="55.712731992825866" lon="-2.542197033762932">
        <ele>190.47999999999999</ele>
        <time>2019-09-07T12:15:16Z</time>
      </trkpt>
      <trkpt lat="55.71269997395575" lon="-2.539350958541036">
        <ele>195.77000000000001</ele>
        <time>2019-09-07T12:15:23Z</time>
      </trkpt>
      <trkpt lat="55.712842969223857" lon="-2.535672979429364">
        <ele>202.00999999999999</ele>
        <time>2019-09-07T12:15:32Z</time>
      </trkpt>
      <trkpt lat="55.712725035846233" lon="-2.534039011225104">
        <ele>203.94</ele>
        <time>2019-09-07T12:15:36Z</time>
      </trkpt>
      <trkpt lat="55.712647000327706" lon="-2.533645983785391">
        <ele>204.41999999999999</ele>
        <time>2019-09-07T12:15:37Z</time>
      </trkpt>
      <trkpt lat="55.711506977677345" lon="-2.52870099619031">
        <ele>211.63</ele>
        <time>2019-09-07T12:15:50Z</time>
      </trkpt>
      <trkpt lat="55.710174003615975" lon="-2.522537028416991">
        <ele>215.94999999999999</ele>
        <time>2019-09-07T12:16:06Z</time>
      </trkpt>
      <trkpt lat="55.710045006126165" lon="-2.51931200735271">
        <ele>212.59</ele>
        <time>2019-09-07T12:16:14Z</time>
      </trkpt>
      <trkpt lat="55.709892036393285" lon="-2.514701960608363">
        <ele>208.25999999999999</ele>
        <time>2019-09-07T12:16:26Z</time>
      </trkpt>
      <trkpt lat="55.709685003384948" lon="-2.508556013926864">
        <ele>201.05000000000001</ele>
        <time>2019-09-07T12:16:42Z</time>
      </trkpt>
      <trkpt lat="55.709348972886801" lon="-2.502927985042334">
        <ele>199.13</ele>
        <time>2019-09-07T12:16:56Z</time>
      </trkpt>
      <trkpt lat="55.70863600820303" lon="-2.49535501934588">
        <ele>187.11000000000001</ele>
        <time>2019-09-07T12:17:15Z</time>
      </trkpt>
      <trkpt lat="55.7077999971807" lon="-2.488289996981621">
        <ele>177.5</ele>
        <time>2019-09-07T12:17:33Z</time>
      </trkpt>
      <trkpt lat="55.706944037228823" lon="-2.481582965701819">
        <ele>177.02000000000001</ele>
        <time>2019-09-07T12:17:50Z</time>
      </trkpt>
      <trkpt lat="55.706110037863255" lon="-2.47485900297761">
        <ele>169.33000000000001</ele>
        <time>2019-09-07T12:18:07Z</time>
      </trkpt>
      <trkpt lat="55.705904010683298" lon="-2.470973990857601">
        <ele>161.63999999999999</ele>
        <time>2019-09-07T12:18:17Z</time>
      </trkpt>
      <trkpt lat="55.705858999863267" lon="-2.469218987971544">
        <ele>158.75</ele>
        <time>2019-09-07T12:18:24Z</time>
      </trkpt>
      <trkpt lat="55.705835027620196" lon="-2.467196015641093">
        <ele>153.94999999999999</ele>
        <time>2019-09-07T12:18:35Z</time>
      </trkpt>
      <trkpt lat="55.706065027043223" lon="-2.464994005858898">
        <ele>151.06</ele>
        <time>2019-09-07T12:18:46Z</time>
      </trkpt>
      <trkpt lat="55.7064029853791" lon="-2.463122997432947">
        <ele>150.58000000000001</ele>
        <time>2019-09-07T12:18:56Z</time>
      </trkpt>
      <trkpt lat="55.706730969250202" lon="-2.461705030873418">
        <ele>152.50999999999999</ele>
        <time>2019-09-07T12:19:04Z</time>
      </trkpt>
      <trkpt lat="55.706761982291937" lon="-2.461547031998634">
        <ele>152.50999999999999</ele>
        <time>2019-09-07T12:19:05Z</time>
      </trkpt>
      <trkpt lat="55.706777991726995" lon="-2.461370006203651">
        <ele>152.99000000000001</ele>
        <time>2019-09-07T12:19:06Z</time>
      </trkpt>
      <trkpt lat="55.706949988380075" lon="-2.459224993363023">
        <ele>151.06</ele>
        <time>2019-09-07T12:19:17Z</time>
      </trkpt>
      <trkpt lat="55.706941019743681" lon="-2.458185972645879">
        <ele>147.69999999999999</ele>
        <time>2019-09-07T12:19:23Z</time>
      </trkpt>
      <trkpt lat="55.706924004480243" lon="-2.457861006259918">
        <ele>146.74000000000001</ele>
        <time>2019-09-07T12:19:25Z</time>
      </trkpt>
      <trkpt lat="55.7068329770118" lon="-2.456186972558498">
        <ele>143.37</ele>
        <time>2019-09-07T12:19:35Z</time>
      </trkpt>
      <trkpt lat="55.706825014203787" lon="-2.456023022532463">
        <ele>142.88999999999999</ele>
        <time>2019-09-07T12:19:36Z</time>
      </trkpt>
      <trkpt lat="55.70678997784853" lon="-2.455890001729131">
        <ele>142.41</ele>
        <time>2019-09-07T12:19:37Z</time>
      </trkpt>
      <trkpt lat="55.706729041412473" lon="-2.455752035602927">
        <ele>142.41</ele>
        <time>2019-09-07T12:19:38Z</time>
      </trkpt>
      <trkpt lat="55.706648994237185" lon="-2.455572998151183">
        <ele>142.41</ele>
        <time>2019-09-07T12:19:39Z</time>
      </trkpt>
      <trkpt lat="55.706584034487605" lon="-2.45547903701663">
        <ele>141.93000000000001</ele>
        <time>2019-09-07T12:19:40Z</time>
      </trkpt>
      <trkpt lat="55.706071984022856" lon="-2.454674961045384">
        <ele>140.97</ele>
        <time>2019-09-07T12:19:46Z</time>
      </trkpt>
      <trkpt lat="55.705991014838219" lon="-2.454514028504491">
        <ele>140.97</ele>
        <time>2019-09-07T12:19:47Z</time>
      </trkpt>
      <trkpt lat="55.705023994669318" lon="-2.452350994572043">
        <ele>141.44999999999999</ele>
        <time>2019-09-07T12:19:58Z</time>
      </trkpt>
      <trkpt lat="55.70461998693645" lon="-2.451289007440209">
        <ele>144.34</ele>
        <time>2019-09-07T12:20:03Z</time>
      </trkpt>
      <trkpt lat="55.704571958631277" lon="-2.451041992753744">
        <ele>144.81999999999999</ele>
        <time>2019-09-07T12:20:04Z</time>
      </trkpt>
      <trkpt lat="55.704333996400237" lon="-2.448695981875062">
        <ele>150.58000000000001</ele>
        <time>2019-09-07T12:20:12Z</time>
      </trkpt>
      <trkpt lat="55.704370960593224" lon="-2.444278970360756">
        <ele>164.03999999999999</ele>
        <time>2019-09-07T12:20:25Z</time>
      </trkpt>
      <trkpt lat="55.704313041642308" lon="-2.441521994769573">
        <ele>173.16999999999999</ele>
        <time>2019-09-07T12:20:35Z</time>
      </trkpt>
      <trkpt lat="55.703890006989241" lon="-2.439430961385369">
        <ele>172.21000000000001</ele>
        <time>2019-09-07T12:20:42Z</time>
      </trkpt>
      <trkpt lat="55.703365970402956" lon="-2.438010983169079">
        <ele>166.44999999999999</ele>
        <time>2019-09-07T12:20:48Z</time>
      </trkpt>
      <trkpt lat="55.70322297513485" lon="-2.437538998201489">
        <ele>164.52000000000001</ele>
        <time>2019-09-07T12:20:50Z</time>
      </trkpt>
      <trkpt lat="55.703189028427005" lon="-2.437269017100334">
        <ele>164.03999999999999</ele>
        <time>2019-09-07T12:20:51Z</time>
      </trkpt>
      <trkpt lat="55.703154997900128" lon="-2.436996018514037">
        <ele>163.56</ele>
        <time>2019-09-07T12:20:52Z</time>
      </trkpt>
      <trkpt lat="55.703130019828677" lon="-2.436715979129076">
        <ele>163.08000000000001</ele>
        <time>2019-09-07T12:20:53Z</time>
      </trkpt>
      <trkpt lat="55.703130019828677" lon="-2.436429988592863">
        <ele>162.59999999999999</ele>
        <time>2019-09-07T12:20:54Z</time>
      </trkpt>
      <trkpt lat="55.703121973201632" lon="-2.433504033833742">
        <ele>162.59999999999999</ele>
        <time>2019-09-07T12:21:04Z</time>
      </trkpt>
      <trkpt lat="55.703096995130181" lon="-2.431281991302967">
        <ele>167.88999999999999</ele>
        <time>2019-09-07T12:21:12Z</time>
      </trkpt>
      <trkpt lat="55.703073022887111" lon="-2.429109988734126">
        <ele>167.88999999999999</ele>
        <time>2019-09-07T12:21:19Z</time>
      </trkpt>
      <trkpt lat="55.703044021502137" lon="-2.426548982039094">
        <ele>167.88999999999999</ele>
        <time>2019-09-07T12:21:28Z</time>
      </trkpt>
      <trkpt lat="55.703004039824009" lon="-2.42391798645258">
        <ele>165.47999999999999</ele>
        <time>2019-09-07T12:21:37Z</time>
      </trkpt>
      <trkpt lat="55.703131025657058" lon="-2.421127986162901">
        <ele>162.12</ele>
        <time>2019-09-07T12:21:46Z</time>
      </trkpt>
      <trkpt lat="55.703345015645027" lon="-2.416813988238573">
        <ele>155.87</ele>
        <time>2019-09-07T12:22:00Z</time>
      </trkpt>
      <trkpt lat="55.703277038410306" lon="-2.415436003357172">
        <ele>153.94999999999999</ele>
        <time>2019-09-07T12:22:04Z</time>
      </trkpt>
      <trkpt lat="55.703239990398288" lon="-2.415089998394251">
        <ele>153.47</ele>
        <time>2019-09-07T12:22:05Z</time>
      </trkpt>
      <trkpt lat="55.703188022598624" lon="-2.414760002866387">
        <ele>152.50999999999999</ele>
        <time>2019-09-07T12:22:06Z</time>
      </trkpt>
      <trkpt lat="55.703105963766575" lon="-2.414436964318156">
        <ele>151.53999999999999</ele>
        <time>2019-09-07T12:22:07Z</time>
      </trkpt>
      <trkpt lat="55.703022982925177" lon="-2.414117027074099">
        <ele>150.58000000000001</ele>
        <time>2019-09-07T12:22:08Z</time>
      </trkpt>
      <trkpt lat="55.702903037890792" lon="-2.413809997960925">
        <ele>149.62</ele>
        <time>2019-09-07T12:22:09Z</time>
      </trkpt>
      <trkpt lat="55.702782003208995" lon="-2.413501041010022">
        <ele>148.66</ele>
        <time>2019-09-07T12:22:10Z</time>
      </trkpt>
      <trkpt lat="55.70266398601234" lon="-2.413199041038752">
        <ele>147.22</ele>
        <time>2019-09-07T12:22:11Z</time>
      </trkpt>
      <trkpt lat="55.702528031542897" lon="-2.412923024967313">
        <ele>146.25999999999999</ele>
        <time>2019-09-07T12:22:12Z</time>
      </trkpt>
      <trkpt lat="55.700907977297902" lon="-2.409857008606195">
        <ele>129.43000000000001</ele>
        <time>2019-09-07T12:22:23Z</time>
      </trkpt>
      <trkpt lat="55.69920402020216" lon="-2.406631987541914">
        <ele>122.22</ele>
        <time>2019-09-07T12:22:35Z</time>
      </trkpt>
      <trkpt lat="55.697712963446975" lon="-2.403810974210501">
        <ele>115.5</ele>
        <time>2019-09-07T12:22:46Z</time>
      </trkpt>
      <trkpt lat="55.695780012756586" lon="-2.400083960965276">
        <ele>114.53</ele>
        <time>2019-09-07T12:23:02Z</time>
      </trkpt>
      <trkpt lat="55.694342013448477" lon="-2.397077037021518">
        <ele>105.88</ele>
        <time>2019-09-07T12:23:14Z</time>
      </trkpt>
      <trkpt lat="55.69276001304388" lon="-2.394622983410955">
        <ele>97.709999999999994</ele>
        <time>2019-09-07T12:23:24Z</time>
      </trkpt>
      <trkpt lat="55.691642034798861" lon="-2.393076019361615">
        <ele>93.390000000000001</ele>
        <time>2019-09-07T12:23:32Z</time>
      </trkpt>
      <trkpt lat="55.690337978303432" lon="-2.391248010098934">
        <ele>88.579999999999998</ele>
        <time>2019-09-07T12:23:41Z</time>
      </trkpt>
      <trkpt lat="55.689105000346899" lon="-2.389038037508726">
        <ele>82.810000000000002</ele>
        <time>2019-09-07T12:23:50Z</time>
      </trkpt>
      <trkpt lat="55.688381977379322" lon="-2.387030990794301">
        <ele>81.849999999999994</ele>
        <time>2019-09-07T12:23:56Z</time>
      </trkpt>
      <trkpt lat="55.687400037422776" lon="-2.384206037968397">
        <ele>80.409999999999997</ele>
        <time>2019-09-07T12:24:04Z</time>
      </trkpt>
      <trkpt lat="55.686116013675928" lon="-2.381171034649015">
        <ele>83.769999999999996</ele>
        <time>2019-09-07T12:24:16Z</time>
      </trkpt>
      <trkpt lat="55.684845987707376" lon="-2.378166960552335">
        <ele>78.969999999999999</ele>
        <time>2019-09-07T12:24:28Z</time>
      </trkpt>
      <trkpt lat="55.683629019185901" lon="-2.375178979709745">
        <ele>77.519999999999996</ele>
        <time>2019-09-07T12:24:40Z</time>
      </trkpt>
      <trkpt lat="55.682649007067084" lon="-2.372700031846762">
        <ele>72.719999999999999</ele>
        <time>2019-09-07T12:24:49Z</time>
      </trkpt>
      <trkpt lat="55.681605041027069" lon="-2.370059983804822">
        <ele>71.269999999999996</ele>
        <time>2019-09-07T12:24:58Z</time>
      </trkpt>
      <trkpt lat="55.680506005883217" lon="-2.367482967674732">
        <ele>71.760000000000005</ele>
        <time>2019-09-07T12:25:05Z</time>
      </trkpt>
      <trkpt lat="55.678384965285659" lon="-2.363959969952703">
        <ele>75.599999999999994</ele>
        <time>2019-09-07T12:25:17Z</time>
      </trkpt>
      <trkpt lat="55.676651000976563" lon="-2.361699035391212">
        <ele>73.680000000000007</ele>
        <time>2019-09-07T12:25:27Z</time>
      </trkpt>
      <trkpt lat="55.67569999024272" lon="-2.359835989773274">
        <ele>74.640000000000001</ele>
        <time>2019-09-07T12:25:34Z</time>
      </trkpt>
      <trkpt lat="55.675070006400347" lon="-2.357285041362047">
        <ele>75.599999999999994</ele>
        <time>2019-09-07T12:25:42Z</time>
      </trkpt>
      <trkpt lat="55.674560973420739" lon="-2.353645032271743">
        <ele>75.120000000000005</ele>
        <time>2019-09-07T12:25:51Z</time>
      </trkpt>
      <trkpt lat="55.673622032627463" lon="-2.348430985584855">
        <ele>68.390000000000001</ele>
        <time>2019-09-07T12:26:03Z</time>
      </trkpt>
      <trkpt lat="55.672963969409466" lon="-2.34521702863276">
        <ele>65.030000000000001</ele>
        <time>2019-09-07T12:26:12Z</time>
      </trkpt>
      <trkpt lat="55.672866990789771" lon="-2.344943024218082">
        <ele>65.510000000000005</ele>
        <time>2019-09-07T12:26:13Z</time>
      </trkpt>
      <trkpt lat="55.672738999128342" lon="-2.344686035066843">
        <ele>65.510000000000005</ele>
        <time>2019-09-07T12:26:14Z</time>
      </trkpt>
      <trkpt lat="55.671456987038255" lon="-2.342336000874639">
        <ele>61.659999999999997</ele>
        <time>2019-09-07T12:26:22Z</time>
      </trkpt>
      <trkpt lat="55.670334985479712" lon="-2.340865982696414">
        <ele>57.82</ele>
        <time>2019-09-07T12:26:28Z</time>
      </trkpt>
      <trkpt lat="55.669064959511161" lon="-2.339623030275106">
        <ele>54.450000000000003</ele>
        <time>2019-09-07T12:26:34Z</time>
      </trkpt>
      <trkpt lat="55.668887011706829" lon="-2.339337039738894">
        <ele>54.450000000000003</ele>
        <time>2019-09-07T12:26:35Z</time>
      </trkpt>
      <trkpt lat="55.668721972033381" lon="-2.339031016454101">
        <ele>54.450000000000003</ele>
        <time>2019-09-07T12:26:36Z</time>
      </trkpt>
      <trkpt lat="55.668595992028713" lon="-2.338676964864135">
        <ele>54.450000000000003</ele>
        <time>2019-09-07T12:26:37Z</time>
      </trkpt>
      <trkpt lat="55.668475963175297" lon="-2.338306987658143">
        <ele>54.450000000000003</ele>
        <time>2019-09-07T12:26:38Z</time>
      </trkpt>
      <trkpt lat="55.668382002040744" lon="-2.337918989360333">
        <ele>54.450000000000003</ele>
        <time>2019-09-07T12:26:39Z</time>
      </trkpt>
      <trkpt lat="55.668300027027726" lon="-2.337533002719283">
        <ele>54.93</ele>
        <time>2019-09-07T12:26:40Z</time>
      </trkpt>
      <trkpt lat="55.668269013985991" lon="-2.337125977501273">
        <ele>54.93</ele>
        <time>2019-09-07T12:26:41Z</time>
      </trkpt>
      <trkpt lat="55.668236995115876" lon="-2.336701015010476">
        <ele>55.409999999999997</ele>
        <time>2019-09-07T12:26:42Z</time>
      </trkpt>
      <trkpt lat="55.668020993471146" lon="-2.332957992330194">
        <ele>56.859999999999999</ele>
        <time>2019-09-07T12:26:51Z</time>
      </trkpt>
      <trkpt lat="55.667912028729916" lon="-2.329010032117367">
        <ele>53.490000000000002</ele>
        <time>2019-09-07T12:27:01Z</time>
      </trkpt>
      <trkpt lat="55.667846985161304" lon="-2.324602995067835">
        <ele>55.890000000000001</ele>
        <time>2019-09-07T12:27:12Z</time>
      </trkpt>
      <trkpt lat="55.667774984613061" lon="-2.319790022447705">
        <ele>63.100000000000001</ele>
        <time>2019-09-07T12:27:24Z</time>
      </trkpt>
      <trkpt lat="55.667706001549959" lon="-2.3152020201087">
        <ele>64.069999999999993</ele>
        <time>2019-09-07T12:27:36Z</time>
      </trkpt>
      <trkpt lat="55.667625032365322" lon="-2.311882032081485">
        <ele>63.100000000000001</ele>
        <time>2019-09-07T12:27:45Z</time>
      </trkpt>
      <trkpt lat="55.667588990181684" lon="-2.311551030725241">
        <ele>63.579999999999998</ele>
        <time>2019-09-07T12:27:46Z</time>
      </trkpt>
      <trkpt lat="55.66751497797668" lon="-2.311233021318913">
        <ele>63.579999999999998</ele>
        <time>2019-09-07T12:27:47Z</time>
      </trkpt>
      <trkpt lat="55.667440965771675" lon="-2.310911994427443">
        <ele>64.069999999999993</ele>
        <time>2019-09-07T12:27:48Z</time>
      </trkpt>
      <trkpt lat="55.667337030172348" lon="-2.310611000284553">
        <ele>64.549999999999997</ele>
        <time>2019-09-07T12:27:49Z</time>
      </trkpt>
      <trkpt lat="55.667223958298564" lon="-2.310311011970043">
        <ele>65.510000000000005</ele>
        <time>2019-09-07T12:27:50Z</time>
      </trkpt>
      <trkpt lat="55.666092988103628" lon="-2.30742696672678">
        <ele>61.659999999999997</ele>
        <time>2019-09-07T12:27:59Z</time>
      </trkpt>
      <trkpt lat="55.664416020736098" lon="-2.303083967417479">
        <ele>52.530000000000001</ele>
        <time>2019-09-07T12:28:13Z</time>
      </trkpt>
      <trkpt lat="55.663415975868702" lon="-2.300022980198264">
        <ele>54.93</ele>
        <time>2019-09-07T12:28:23Z</time>
      </trkpt>
      <trkpt lat="55.662799989804626" lon="-2.298090029507875">
        <ele>50.609999999999999</ele>
        <time>2019-09-07T12:28:30Z</time>
      </trkpt>
      <trkpt lat="55.662679960951209" lon="-2.297915015369654">
        <ele>50.130000000000003</ele>
        <time>2019-09-07T12:28:31Z</time>
      </trkpt>
      <trkpt lat="55.66255196928978" lon="-2.297759028151631">
        <ele>49.649999999999999</ele>
        <time>2019-09-07T12:28:32Z</time>
      </trkpt>
      <trkpt lat="55.662405034527183" lon="-2.297638999298215">
        <ele>48.68</ele>
        <time>2019-09-07T12:28:33Z</time>
      </trkpt>
      <trkpt lat="55.662253992632031" lon="-2.297516958788037">
        <ele>47.240000000000002</ele>
        <time>2019-09-07T12:28:34Z</time>
      </trkpt>
      <trkpt lat="55.662095993757248" lon="-2.297387961298227">
        <ele>46.280000000000001</ele>
        <time>2019-09-07T12:28:35Z</time>
      </trkpt>
      <trkpt lat="55.660002026706934" lon="-2.295790035277605">
        <ele>39.07</ele>
        <time>2019-09-07T12:28:47Z</time>
      </trkpt>
      <trkpt lat="55.657871011644602" lon="-2.294170986860991">
        <ele>38.590000000000003</ele>
        <time>2019-09-07T12:28:59Z</time>
      </trkpt>
      <trkpt lat="55.656168982386589" lon="-2.292877994477749">
        <ele>33.299999999999997</ele>
        <time>2019-09-07T12:29:08Z</time>
      </trkpt>
      <trkpt lat="55.654123965650797" lon="-2.291327007114887">
        <ele>35.710000000000001</ele>
        <time>2019-09-07T12:29:19Z</time>
      </trkpt>
      <trkpt lat="55.652558980509639" lon="-2.290140967816114">
        <ele>30.420000000000002</ele>
        <time>2019-09-07T12:29:27Z</time>
      </trkpt>
      <trkpt lat="55.650157984346151" lon="-2.288319999352098">
        <ele>25.129999999999999</ele>
        <time>2019-09-07T12:29:39Z</time>
      </trkpt>
      <trkpt lat="55.648480011150241" lon="-2.286978978663683">
        <ele>25.609999999999999</ele>
        <time>2019-09-07T12:29:48Z</time>
      </trkpt>
      <trkpt lat="55.647663027048111" lon="-2.285735020413995">
        <ele>29.940000000000001</ele>
        <time>2019-09-07T12:29:54Z</time>
      </trkpt>
      <trkpt lat="55.647559007629752" lon="-2.285494962707162">
        <ele>30.899999999999999</ele>
        <time>2019-09-07T12:29:55Z</time>
      </trkpt>
      <trkpt lat="55.647480972111225" lon="-2.28520997799933">
        <ele>31.859999999999999</ele>
        <time>2019-09-07T12:29:56Z</time>
      </trkpt>
      <trkpt lat="55.647412994876504" lon="-2.284921975806356">
        <ele>32.340000000000003</ele>
        <time>2019-09-07T12:29:57Z</time>
      </trkpt>
      <trkpt lat="55.647349962964654" lon="-2.284619975835085">
        <ele>32.82</ele>
        <time>2019-09-07T12:29:58Z</time>
      </trkpt>
      <trkpt lat="55.646975040435791" lon="-2.281559994444251">
        <ele>34.740000000000002</ele>
        <time>2019-09-07T12:30:07Z</time>
      </trkpt>
      <trkpt lat="55.64688703045249" lon="-2.278451984748244">
        <ele>32.340000000000003</ele>
        <time>2019-09-07T12:30:15Z</time>
      </trkpt>
      <trkpt lat="55.646986020728946" lon="-2.275225035846233">
        <ele>36.670000000000002</ele>
        <time>2019-09-07T12:30:24Z</time>
      </trkpt>
      <trkpt lat="55.647100014612079" lon="-2.271485030651093">
        <ele>36.189999999999998</ele>
        <time>2019-09-07T12:30:36Z</time>
      </trkpt>
      <trkpt lat="55.647227000445127" lon="-2.267330959439278">
        <ele>33.299999999999997</ele>
        <time>2019-09-07T12:30:48Z</time>
      </trkpt>
      <trkpt lat="55.647289026528597" lon="-2.265322990715504">
        <ele>31.859999999999999</ele>
        <time>2019-09-07T12:30:55Z</time>
      </trkpt>
      <trkpt lat="55.64746999181807" lon="-2.263387022539973">
        <ele>33.780000000000001</ele>
        <time>2019-09-07T12:31:04Z</time>
      </trkpt>
      <trkpt lat="55.64759898930788" lon="-2.262598033994436">
        <ele>32.82</ele>
        <time>2019-09-07T12:31:08Z</time>
      </trkpt>
      <trkpt lat="55.647636037319899" lon="-2.262396030128002">
        <ele>32.82</ele>
        <time>2019-09-07T12:31:09Z</time>
      </trkpt>
      <trkpt lat="55.648010037839413" lon="-2.260340033099055">
        <ele>28.98</ele>
        <time>2019-09-07T12:31:19Z</time>
      </trkpt>
      <trkpt lat="55.648211035877466" lon="-2.259280979633331">
        <ele>24.649999999999999</ele>
        <time>2019-09-07T12:31:24Z</time>
      </trkpt>
      <trkpt lat="55.648268032819033" lon="-2.259112000465393">
        <ele>23.690000000000001</ele>
        <time>2019-09-07T12:31:25Z</time>
      </trkpt>
      <trkpt lat="55.648399963974953" lon="-2.258773036301136">
        <ele>21.77</ele>
        <time>2019-09-07T12:31:27Z</time>
      </trkpt>
      <trkpt lat="55.649206973612309" lon="-2.256938992068172">
        <ele>16</ele>
        <time>2019-09-07T12:31:39Z</time>
      </trkpt>
      <trkpt lat="55.649971989914775" lon="-2.255575004965067">
        <ele>17.920000000000002</ele>
        <time>2019-09-07T12:31:50Z</time>
      </trkpt>
      <trkpt lat="55.650129988789558" lon="-2.255294965580106">
        <ele>19.84</ele>
        <time>2019-09-07T12:31:54Z</time>
      </trkpt>
      <trkpt lat="55.650233002379537" lon="-2.255119029432535">
        <ele>20.809999999999999</ele>
        <time>2019-09-07T12:31:57Z</time>
      </trkpt>
      <trkpt lat="55.650270972400904" lon="-2.255059015005827">
        <ele>20.809999999999999</ele>
        <time>2019-09-07T12:31:58Z</time>
      </trkpt>
      <trkpt lat="55.650309026241302" lon="-2.25500101223588">
        <ele>20.809999999999999</ele>
        <time>2019-09-07T12:31:59Z</time>
      </trkpt>
      <trkpt lat="55.650403993204236" lon="-2.254850976169109">
        <ele>21.289999999999999</ele>
        <time>2019-09-07T12:32:02Z</time>
      </trkpt>
      <trkpt lat="55.650746980682015" lon="-2.254182016476989">
        <ele>22.25</ele>
        <time>2019-09-07T12:32:11Z</time>
      </trkpt>
      <trkpt lat="55.650783022865653" lon="-2.254084032028914">
        <ele>22.73</ele>
        <time>2019-09-07T12:32:12Z</time>
      </trkpt>
      <trkpt lat="55.650816969573498" lon="-2.253985963761807">
        <ele>22.73</ele>
        <time>2019-09-07T12:32:13Z</time>
      </trkpt>
      <trkpt lat="55.651252996176481" lon="-2.252705041319132">
        <ele>22.73</ele>
        <time>2019-09-07T12:32:24Z</time>
      </trkpt>
      <trkpt lat="55.651447959244251" lon="-2.25203700363636">
        <ele>23.210000000000001</ele>
        <time>2019-09-07T12:32:29Z</time>
      </trkpt>
      <trkpt lat="55.651488024741411" lon="-2.251903982833028">
        <ele>23.690000000000001</ele>
        <time>2019-09-07T12:32:30Z</time>
      </trkpt>
      <trkpt lat="55.652306014671922" lon="-2.250257022678852">
        <ele>28.02</ele>
        <time>2019-09-07T12:32:44Z</time>
      </trkpt>
      <trkpt lat="55.653056027367711" lon="-2.248916001990438">
        <ele>27.050000000000001</ele>
        <time>2019-09-07T12:32:55Z</time>
      </trkpt>
      <trkpt lat="55.653326008468866" lon="-2.248410992324352">
        <ele>27.530000000000001</ele>
        <time>2019-09-07T12:32:59Z</time>
      </trkpt>
      <trkpt lat="55.65337898209691" lon="-2.248272020369768">
        <ele>27.530000000000001</ele>
        <time>2019-09-07T12:33:00Z</time>
      </trkpt>
      <trkpt lat="55.6534209754318" lon="-2.248130030930042">
        <ele>28.02</ele>
        <time>2019-09-07T12:33:01Z</time>
      </trkpt>
      <trkpt lat="55.653475960716605" lon="-2.247636001557112">
        <ele>28.5</ele>
        <time>2019-09-07T12:33:04Z</time>
      </trkpt>
      <trkpt lat="55.653472021222115" lon="-2.247469034045935">
        <ele>28.98</ele>
        <time>2019-09-07T12:33:05Z</time>
      </trkpt>
      <trkpt lat="55.653469003736973" lon="-2.247300976887345">
        <ele>28.98</ele>
        <time>2019-09-07T12:33:06Z</time>
      </trkpt>
      <trkpt lat="55.653532035648823" lon="-2.245976971462369">
        <ele>30.420000000000002</ele>
        <time>2019-09-07T12:33:13Z</time>
      </trkpt>
      <trkpt lat="55.653575034812093" lon="-2.245773961767554">
        <ele>30.420000000000002</ele>
        <time>2019-09-07T12:33:14Z</time>
      </trkpt>
      <trkpt lat="55.653632031753659" lon="-2.245572963729501">
        <ele>30.420000000000002</ele>
        <time>2019-09-07T12:33:15Z</time>
      </trkpt>
      <trkpt lat="55.653690034523606" lon="-2.245369032025337">
        <ele>29.940000000000001</ele>
        <time>2019-09-07T12:33:16Z</time>
      </trkpt>
      <trkpt lat="55.653777960687876" lon="-2.245173985138536">
        <ele>29.460000000000001</ele>
        <time>2019-09-07T12:33:17Z</time>
      </trkpt>
      <trkpt lat="55.654468964785337" lon="-2.243905970826745">
        <ele>26.57</ele>
        <time>2019-09-07T12:33:24Z</time>
      </trkpt>
      <trkpt lat="55.654851011931896" lon="-2.24288497120142">
        <ele>24.170000000000002</ele>
        <time>2019-09-07T12:33:30Z</time>
      </trkpt>
      <trkpt lat="55.654871966689825" lon="-2.242695959284902">
        <ele>23.210000000000001</ele>
        <time>2019-09-07T12:33:31Z</time>
      </trkpt>
      <trkpt lat="55.654894011095166" lon="-2.24249797873199">
        <ele>22.73</ele>
        <time>2019-09-07T12:33:32Z</time>
      </trkpt>
      <trkpt lat="55.654839025810361" lon="-2.242362024262548">
        <ele>22.25</ele>
        <time>2019-09-07T12:33:33Z</time>
      </trkpt>
      <trkpt lat="55.654756966978312" lon="-2.242215005680919">
        <ele>21.77</ele>
        <time>2019-09-07T12:33:34Z</time>
      </trkpt>
      <trkpt lat="55.654658982530236" lon="-2.242080979049206">
        <ele>21.77</ele>
        <time>2019-09-07T12:33:35Z</time>
      </trkpt>
      <trkpt lat="55.653672013431787" lon="-2.240940034389496">
        <ele>20.32</ele>
        <time>2019-09-07T12:33:44Z</time>
      </trkpt>
      <trkpt lat="55.653533963486552" lon="-2.240868033841252">
        <ele>19.84</ele>
        <time>2019-09-07T12:33:45Z</time>
      </trkpt>
      <trkpt lat="55.653370013460517" lon="-2.240782035514712">
        <ele>19.359999999999999</ele>
        <time>2019-09-07T12:33:46Z</time>
      </trkpt>
      <trkpt lat="55.652026981115341" lon="-2.240422032773495">
        <ele>16</ele>
        <time>2019-09-07T12:33:56Z</time>
      </trkpt>
      <trkpt lat="55.651905024424195" lon="-2.240350032225251">
        <ele>16</ele>
        <time>2019-09-07T12:33:57Z</time>
      </trkpt>
      <trkpt lat="55.651791030541062" lon="-2.240242995321751">
        <ele>15.52</ele>
        <time>2019-09-07T12:33:58Z</time>
      </trkpt>
      <trkpt lat="55.651673013344407" lon="-2.24013302475214">
        <ele>15.52</ele>
        <time>2019-09-07T12:33:59Z</time>
      </trkpt>
      <trkpt lat="55.651559019461274" lon="-2.239995980635285">
        <ele>15.52</ele>
        <time>2019-09-07T12:34:00Z</time>
      </trkpt>
      <trkpt lat="55.651450976729393" lon="-2.23983395844698">
        <ele>15.52</ele>
        <time>2019-09-07T12:34:01Z</time>
      </trkpt>
      <trkpt lat="55.651254002004862" lon="-2.239431040361524">
        <ele>15.52</ele>
        <time>2019-09-07T12:34:03Z</time>
      </trkpt>
      <trkpt lat="55.650226967409253" lon="-2.236617989838123">
        <ele>16.960000000000001</ele>
        <time>2019-09-07T12:34:14Z</time>
      </trkpt>
      <trkpt lat="55.649722963571548" lon="-2.23375397734344">
        <ele>17.920000000000002</ele>
        <time>2019-09-07T12:34:23Z</time>
      </trkpt>
      <trkpt lat="55.649264976382256" lon="-2.230629036203027">
        <ele>19.359999999999999</ele>
        <time>2019-09-07T12:34:33Z</time>
      </trkpt>
      <trkpt lat="55.649149976670742" lon="-2.230142969638109">
        <ele>18.879999999999999</ele>
        <time>2019-09-07T12:34:35Z</time>
      </trkpt>
      <trkpt lat="55.649061966687441" lon="-2.229936020448804">
        <ele>18.879999999999999</ele>
        <time>2019-09-07T12:34:36Z</time>
      </trkpt>
      <trkpt lat="55.648974040523171" lon="-2.229738039895892">
        <ele>18.879999999999999</ele>
        <time>2019-09-07T12:34:37Z</time>
      </trkpt>
      <trkpt lat="55.648849988356233" lon="-2.229609964415431">
        <ele>18.879999999999999</ele>
        <time>2019-09-07T12:34:38Z</time>
      </trkpt>
      <trkpt lat="55.648734988644719" lon="-2.229494964703918">
        <ele>18.879999999999999</ele>
        <time>2019-09-07T12:34:39Z</time>
      </trkpt>
      <trkpt lat="55.648615965619683" lon="-2.229421036317945">
        <ele>18.879999999999999</ele>
        <time>2019-09-07T12:34:40Z</time>
      </trkpt>
      <trkpt lat="55.64850197173655" lon="-2.229350041598082">
        <ele>18.879999999999999</ele>
        <time>2019-09-07T12:34:41Z</time>
      </trkpt>
      <trkpt lat="55.647780960425735" lon="-2.228914014995098">
        <ele>21.289999999999999</ele>
        <time>2019-09-07T12:34:49Z</time>
      </trkpt>
      <trkpt lat="55.647000018507242" lon="-2.228415040299296">
        <ele>24.649999999999999</ele>
        <time>2019-09-07T12:34:59Z</time>
      </trkpt>
      <trkpt lat="55.646903039887547" lon="-2.228347985073924">
        <ele>25.129999999999999</ele>
        <time>2019-09-07T12:35:00Z</time>
      </trkpt>
      <trkpt lat="55.646813018247485" lon="-2.228272967040539">
        <ele>25.609999999999999</ele>
        <time>2019-09-07T12:35:01Z</time>
      </trkpt>
      <trkpt lat="55.646731965243816" lon="-2.22814598120749">
        <ele>25.609999999999999</ele>
        <time>2019-09-07T12:35:02Z</time>
      </trkpt>
      <trkpt lat="55.646664993837476" lon="-2.227998040616512">
        <ele>26.57</ele>
        <time>2019-09-07T12:35:03Z</time>
      </trkpt>
      <trkpt lat="55.646630963310599" lon="-2.227809028699994">
        <ele>27.050000000000001</ele>
        <time>2019-09-07T12:35:04Z</time>
      </trkpt>
      <trkpt lat="55.646611014381051" lon="-2.227621022611857">
        <ele>27.530000000000001</ele>
        <time>2019-09-07T12:35:05Z</time>
      </trkpt>
      <trkpt lat="55.646611014381051" lon="-2.227413989603519">
        <ele>28.02</ele>
        <time>2019-09-07T12:35:06Z</time>
      </trkpt>
      <trkpt lat="55.646621994674206" lon="-2.227197987958789">
        <ele>28.5</ele>
        <time>2019-09-07T12:35:07Z</time>
      </trkpt>
      <trkpt lat="55.646658036857843" lon="-2.226992966607213">
        <ele>28.5</ele>
        <time>2019-09-07T12:35:08Z</time>
      </trkpt>
      <trkpt lat="55.646936986595392" lon="-2.225432004779577">
        <ele>30.899999999999999</ele>
        <time>2019-09-07T12:35:17Z</time>
      </trkpt>
      <trkpt lat="55.646987026557326" lon="-2.225252967327833">
        <ele>31.379999999999999</ele>
        <time>2019-09-07T12:35:18Z</time>
      </trkpt>
      <trkpt lat="55.647041006013751" lon="-2.225075019523501">
        <ele>31.859999999999999</ele>
        <time>2019-09-07T12:35:19Z</time>
      </trkpt>
      <trkpt lat="55.64777098596096" lon="-2.223184984177351">
        <ele>37.149999999999999</ele>
        <time>2019-09-07T12:35:30Z</time>
      </trkpt>
      <trkpt lat="55.648064017295837" lon="-2.222648039460182">
        <ele>36.670000000000002</ele>
        <time>2019-09-07T12:35:34Z</time>
      </trkpt>
      <trkpt lat="55.648133000358939" lon="-2.222544020041823">
        <ele>36.189999999999998</ele>
        <time>2019-09-07T12:35:35Z</time>
      </trkpt>
      <trkpt lat="55.648197960108519" lon="-2.222447963431478">
        <ele>36.189999999999998</ele>
        <time>2019-09-07T12:35:36Z</time>
      </trkpt>
      <trkpt lat="55.648255040869117" lon="-2.222362970933318">
        <ele>36.189999999999998</ele>
        <time>2019-09-07T12:35:37Z</time>
      </trkpt>
      <trkpt lat="55.648300973698497" lon="-2.222291976213455">
        <ele>36.189999999999998</ele>
        <time>2019-09-07T12:35:38Z</time>
      </trkpt>
      <trkpt lat="55.64843500033021" lon="-2.222349978983402">
        <ele>35.710000000000001</ele>
        <time>2019-09-07T12:35:39Z</time>
      </trkpt>
      <trkpt lat="55.648459978401661" lon="-2.2223000228405">
        <ele>35.710000000000001</ele>
        <time>2019-09-07T12:35:40Z</time>
      </trkpt>
      <trkpt lat="55.64849803224206" lon="-2.222223998978734">
        <ele>35.710000000000001</ele>
        <time>2019-09-07T12:35:41Z</time>
      </trkpt>
      <trkpt lat="55.648502977564931" lon="-2.222088966518641">
        <ele>35.229999999999997</ele>
        <time>2019-09-07T12:35:42Z</time>
      </trkpt>
      <trkpt lat="55.648480011150241" lon="-2.221975978463888">
        <ele>35.229999999999997</ele>
        <time>2019-09-07T12:35:43Z</time>
      </trkpt>
      <trkpt lat="55.648386972025037" lon="-2.221847986802459">
        <ele>35.229999999999997</ele>
        <time>2019-09-07T12:35:44Z</time>
      </trkpt>
      <trkpt lat="55.648100981488824" lon="-2.22034796141088">
        <ele>33.299999999999997</ele>
        <time>2019-09-07T12:35:51Z</time>
      </trkpt>
      <trkpt lat="55.647521037608385" lon="-2.218228010460734">
        <ele>32.82</ele>
        <time>2019-09-07T12:35:58Z</time>
      </trkpt>
      <trkpt lat="55.646757027134299" lon="-2.215514034032822">
        <ele>32.340000000000003</ele>
        <time>2019-09-07T12:36:07Z</time>
      </trkpt>
      <trkpt lat="55.645912969484925" lon="-2.212343998253346">
        <ele>39.07</ele>
        <time>2019-09-07T12:36:19Z</time>
      </trkpt>
      <trkpt lat="55.645870976150036" lon="-2.21203101798892">
        <ele>40.030000000000001</ele>
        <time>2019-09-07T12:36:20Z</time>
      </trkpt>
      <trkpt lat="55.645850021392107" lon="-2.211704961955547">
        <ele>40.990000000000002</ele>
        <time>2019-09-07T12:36:21Z</time>
      </trkpt>
      <trkpt lat="55.645842980593443" lon="-2.211369015276432">
        <ele>42.439999999999998</ele>
        <time>2019-09-07T12:36:22Z</time>
      </trkpt>
      <trkpt lat="55.645854966714978" lon="-2.21104396507144">
        <ele>43.399999999999999</ele>
        <time>2019-09-07T12:36:23Z</time>
      </trkpt>
      <trkpt lat="55.645815990865231" lon="-2.210454968735576">
        <ele>45.32</ele>
        <time>2019-09-07T12:36:25Z</time>
      </trkpt>
      <trkpt lat="55.645776009187102" lon="-2.210179036483169">
        <ele>46.280000000000001</ele>
        <time>2019-09-07T12:36:26Z</time>
      </trkpt>
      <trkpt lat="55.645703002810478" lon="-2.2099269926548">
        <ele>46.759999999999998</ele>
        <time>2019-09-07T12:36:27Z</time>
      </trkpt>
      <trkpt lat="55.644824998453259" lon="-2.207225002348423">
        <ele>46.759999999999998</ele>
        <time>2019-09-07T12:36:38Z</time>
      </trkpt>
      <trkpt lat="55.644428031519055" lon="-2.206425033509731">
        <ele>44.840000000000003</ele>
        <time>2019-09-07T12:36:42Z</time>
      </trkpt>
      <trkpt lat="55.644305991008878" lon="-2.206286983564496">
        <ele>43.880000000000003</ele>
        <time>2019-09-07T12:36:43Z</time>
      </trkpt>
      <trkpt lat="55.64418001100421" lon="-2.20614398829639">
        <ele>43.399999999999999</ele>
        <time>2019-09-07T12:36:44Z</time>
      </trkpt>
      <trkpt lat="55.644042966887355" lon="-2.206028988584876">
        <ele>42.920000000000002</ele>
        <time>2019-09-07T12:36:45Z</time>
      </trkpt>
      <trkpt lat="55.643903994932771" lon="-2.205911977216601">
        <ele>42.439999999999998</ele>
        <time>2019-09-07T12:36:46Z</time>
      </trkpt>
      <trkpt lat="55.643499987199903" lon="-2.205569995567203">
        <ele>41.469999999999999</ele>
        <time>2019-09-07T12:36:49Z</time>
      </trkpt>
      <trkpt lat="55.643383981660008" lon="-2.205390958115459">
        <ele>41.469999999999999</ele>
        <time>2019-09-07T12:36:50Z</time>
      </trkpt>
      <trkpt lat="55.643266970291734" lon="-2.205213010311127">
        <ele>41.950000000000003</ele>
        <time>2019-09-07T12:36:51Z</time>
      </trkpt>
      <trkpt lat="55.64196702092886" lon="-2.203120971098542">
        <ele>50.609999999999999</ele>
        <time>2019-09-07T12:37:01Z</time>
      </trkpt>
      <trkpt lat="55.640409998595715" lon="-2.200630037114024">
        <ele>55.890000000000001</ele>
        <time>2019-09-07T12:37:13Z</time>
      </trkpt>
      <trkpt lat="55.638691959902644" lon="-2.198159974068403">
        <ele>54.450000000000003</ele>
        <time>2019-09-07T12:37:26Z</time>
      </trkpt>
      <trkpt lat="55.637755030766129" lon="-2.196068018674851">
        <ele>54.450000000000003</ele>
        <time>2019-09-07T12:37:35Z</time>
      </trkpt>
      <trkpt lat="55.637567024677992" lon="-2.193996012210846">
        <ele>54.450000000000003</ele>
        <time>2019-09-07T12:37:42Z</time>
      </trkpt>
      <trkpt lat="55.637781014665961" lon="-2.191198971122503">
        <ele>55.409999999999997</ele>
        <time>2019-09-07T12:37:51Z</time>
      </trkpt>
      <trkpt lat="55.638063987717032" lon="-2.188296988606453">
        <ele>54.93</ele>
        <time>2019-09-07T12:37:59Z</time>
      </trkpt>
      <trkpt lat="55.638399012386799" lon="-2.184878010302782">
        <ele>55.409999999999997</ele>
        <time>2019-09-07T12:38:08Z</time>
      </trkpt>
      <trkpt lat="55.638743005692959" lon="-2.181369010359049">
        <ele>54.93</ele>
        <time>2019-09-07T12:38:17Z</time>
      </trkpt>
      <trkpt lat="55.639079036191106" lon="-2.177943997085095">
        <ele>52.530000000000001</ele>
        <time>2019-09-07T12:38:25Z</time>
      </trkpt>
      <trkpt lat="55.639528976753354" lon="-2.173438975587487">
        <ele>52.530000000000001</ele>
        <time>2019-09-07T12:38:35Z</time>
      </trkpt>
      <trkpt lat="55.639965003356338" lon="-2.169166970998049">
        <ele>54.93</ele>
        <time>2019-09-07T12:38:46Z</time>
      </trkpt>
      <trkpt lat="55.640326011925936" lon="-2.166146971285343">
        <ele>53.009999999999998</ele>
        <time>2019-09-07T12:38:54Z</time>
      </trkpt>
      <trkpt lat="55.640734964981675" lon="-2.162976013496518">
        <ele>51.57</ele>
        <time>2019-09-07T12:39:03Z</time>
      </trkpt>
      <trkpt lat="55.641207033768296" lon="-2.159888036549091">
        <ele>46.280000000000001</ele>
        <time>2019-09-07T12:39:13Z</time>
      </trkpt>
      <trkpt lat="55.641750013455749" lon="-2.15702704153955">
        <ele>50.609999999999999</ele>
        <time>2019-09-07T12:39:23Z</time>
      </trkpt>
      <trkpt lat="55.641779014840722" lon="-2.156719006597996">
        <ele>51.090000000000003</ele>
        <time>2019-09-07T12:39:24Z</time>
      </trkpt>
      <trkpt lat="55.641802987083793" lon="-2.156412983313203">
        <ele>51.57</ele>
        <time>2019-09-07T12:39:25Z</time>
      </trkpt>
      <trkpt lat="55.64179603010416" lon="-2.156094973906875">
        <ele>52.049999999999997</ele>
        <time>2019-09-07T12:39:26Z</time>
      </trkpt>
      <trkpt lat="55.641786977648735" lon="-2.155775036662817">
        <ele>52.049999999999997</ele>
        <time>2019-09-07T12:39:27Z</time>
      </trkpt>
      <trkpt lat="55.641764011234045" lon="-2.155460966750979">
        <ele>52.530000000000001</ele>
        <time>2019-09-07T12:39:28Z</time>
      </trkpt>
      <trkpt lat="55.641722017899156" lon="-2.155149998143315">
        <ele>52.530000000000001</ele>
        <time>2019-09-07T12:39:29Z</time>
      </trkpt>
      <trkpt lat="55.64166703261435" lon="-2.154840035364032">
        <ele>52.530000000000001</ele>
        <time>2019-09-07T12:39:30Z</time>
      </trkpt>
      <trkpt lat="55.641598971560597" lon="-2.154538035392761">
        <ele>53.009999999999998</ele>
        <time>2019-09-07T12:39:31Z</time>
      </trkpt>
      <trkpt lat="55.641530994325876" lon="-2.154233017936349">
        <ele>53.009999999999998</ele>
        <time>2019-09-07T12:39:32Z</time>
      </trkpt>
      <trkpt lat="55.640906039625406" lon="-2.152235023677349">
        <ele>53.009999999999998</ele>
        <time>2019-09-07T12:39:39Z</time>
      </trkpt>
      <trkpt lat="55.64001202583313" lon="-2.149174958467484">
        <ele>47.719999999999999</ele>
        <time>2019-09-07T12:39:49Z</time>
      </trkpt>
      <trkpt lat="55.639091022312641" lon="-2.146211033686996">
        <ele>39.07</ele>
        <time>2019-09-07T12:39:58Z</time>
      </trkpt>
      <trkpt lat="55.638126013800502" lon="-2.14315096847713">
        <ele>42.439999999999998</ele>
        <time>2019-09-07T12:40:07Z</time>
      </trkpt>
      <trkpt lat="55.637694010511041" lon="-2.140003982931376">
        <ele>42.439999999999998</ele>
        <time>2019-09-07T12:40:15Z</time>
      </trkpt>
      <trkpt lat="55.637503992766142" lon="-2.139012990519404">
        <ele>41.950000000000003</ele>
        <time>2019-09-07T12:40:18Z</time>
      </trkpt>
      <trkpt lat="55.637408019974828" lon="-2.138734962791205">
        <ele>42.439999999999998</ele>
        <time>2019-09-07T12:40:19Z</time>
      </trkpt>
      <trkpt lat="55.637297965586185" lon="-2.138515021651983">
        <ele>42.439999999999998</ele>
        <time>2019-09-07T12:40:20Z</time>
      </trkpt>
      <trkpt lat="55.637138038873672" lon="-2.138286028057337">
        <ele>41.950000000000003</ele>
        <time>2019-09-07T12:40:21Z</time>
      </trkpt>
      <trkpt lat="55.636993031948805" lon="-2.138082012534142">
        <ele>41.950000000000003</ele>
        <time>2019-09-07T12:40:22Z</time>
      </trkpt>
      <trkpt lat="55.636820029467344" lon="-2.137937005609274">
        <ele>41.950000000000003</ele>
        <time>2019-09-07T12:40:23Z</time>
      </trkpt>
      <trkpt lat="55.636646021157503" lon="-2.137797027826309">
        <ele>41.469999999999999</ele>
        <time>2019-09-07T12:40:24Z</time>
      </trkpt>
      <trkpt lat="55.636466983705759" lon="-2.137680016458035">
        <ele>41.469999999999999</ele>
        <time>2019-09-07T12:40:25Z</time>
      </trkpt>
      <trkpt lat="55.635168040171266" lon="-2.136898990720511">
        <ele>37.149999999999999</ele>
        <time>2019-09-07T12:40:33Z</time>
      </trkpt>
      <trkpt lat="55.635044993832707" lon="-2.136738980188966">
        <ele>36.670000000000002</ele>
        <time>2019-09-07T12:40:34Z</time>
      </trkpt>
      <trkpt lat="55.633623003959656" lon="-2.13487601839006">
        <ele>38.590000000000003</ele>
        <time>2019-09-07T12:40:44Z</time>
      </trkpt>
      <trkpt lat="55.631643030792475" lon="-2.132264971733093">
        <ele>44.359999999999999</ele>
        <time>2019-09-07T12:40:56Z</time>
      </trkpt>
      <trkpt lat="55.629563983529806" lon="-2.129668006673455">
        <ele>47.240000000000002</ele>
        <time>2019-09-07T12:41:09Z</time>
      </trkpt>
      <trkpt lat="55.627128034830093" lon="-2.126953024417162">
        <ele>44.359999999999999</ele>
        <time>2019-09-07T12:41:24Z</time>
      </trkpt>
      <trkpt lat="55.625120988115668" lon="-2.124996017664671">
        <ele>41.950000000000003</ele>
        <time>2019-09-07T12:41:35Z</time>
      </trkpt>
      <trkpt lat="55.623157024383545" lon="-2.123258030042052">
        <ele>40.990000000000002</ele>
        <time>2019-09-07T12:41:46Z</time>
      </trkpt>
      <trkpt lat="55.622902968898416" lon="-2.122925017029047">
        <ele>40.990000000000002</ele>
        <time>2019-09-07T12:41:48Z</time>
      </trkpt>
      <trkpt lat="55.622794004157186" lon="-2.122746985405684">
        <ele>40.990000000000002</ele>
        <time>2019-09-07T12:41:49Z</time>
      </trkpt>
      <trkpt lat="55.622688978910446" lon="-2.122578006237745">
        <ele>40.990000000000002</ele>
        <time>2019-09-07T12:41:50Z</time>
      </trkpt>
      <trkpt lat="55.622634999454021" lon="-2.122348006814718">
        <ele>40.990000000000002</ele>
        <time>2019-09-07T12:41:51Z</time>
      </trkpt>
      <trkpt lat="55.622578002512455" lon="-2.122098980471492">
        <ele>40.990000000000002</ele>
        <time>2019-09-07T12:41:52Z</time>
      </trkpt>
      <trkpt lat="55.622561993077397" lon="-2.121874010190368">
        <ele>40.509999999999998</ele>
        <time>2019-09-07T12:41:53Z</time>
      </trkpt>
      <trkpt lat="55.622556963935494" lon="-2.12162297219038">
        <ele>40.509999999999998</ele>
        <time>2019-09-07T12:41:54Z</time>
      </trkpt>
      <trkpt lat="55.622556963935494" lon="-2.121366988867521">
        <ele>40.509999999999998</ele>
        <time>2019-09-07T12:41:55Z</time>
      </trkpt>
      <trkpt lat="55.622353032231331" lon="-2.11934301070869">
        <ele>39.549999999999997</ele>
        <time>2019-09-07T12:42:02Z</time>
      </trkpt>
      <trkpt lat="55.622280025854707" lon="-2.119045034050942">
        <ele>39.549999999999997</ele>
        <time>2019-09-07T12:42:03Z</time>
      </trkpt>
      <trkpt lat="55.622205007821321" lon="-2.11874202825129">
        <ele>39.549999999999997</ele>
        <time>2019-09-07T12:42:04Z</time>
      </trkpt>
      <trkpt lat="55.622086990624666" lon="-2.118477998301387">
        <ele>39.549999999999997</ele>
        <time>2019-09-07T12:42:05Z</time>
      </trkpt>
      <trkpt lat="55.621961010619998" lon="-2.11822603829205">
        <ele>39.07</ele>
        <time>2019-09-07T12:42:06Z</time>
      </trkpt>
      <trkpt lat="55.621833018958569" lon="-2.11796997115016">
        <ele>39.07</ele>
        <time>2019-09-07T12:42:07Z</time>
      </trkpt>
      <trkpt lat="55.620588976889849" lon="-2.116015981882811">
        <ele>38.109999999999999</ele>
        <time>2019-09-07T12:42:16Z</time>
      </trkpt>
      <trkpt lat="55.62005303800106" lon="-2.115232022479177">
        <ele>37.630000000000003</ele>
        <time>2019-09-07T12:42:20Z</time>
      </trkpt>
      <trkpt lat="55.619892021641135" lon="-2.115108976140618">
        <ele>37.149999999999999</ele>
        <time>2019-09-07T12:42:21Z</time>
      </trkpt>
      <trkpt lat="55.619723964482546" lon="-2.114980984479189">
        <ele>37.149999999999999</ele>
        <time>2019-09-07T12:42:22Z</time>
      </trkpt>
      <trkpt lat="55.617493037134409" lon="-2.113398984074593">
        <ele>36.670000000000002</ele>
        <time>2019-09-07T12:42:34Z</time>
      </trkpt>
      <trkpt lat="55.615049041807652" lon="-2.111751018092036">
        <ele>38.109999999999999</ele>
        <time>2019-09-07T12:42:47Z</time>
      </trkpt>
      <trkpt lat="55.612413017079234" lon="-2.110058963298798">
        <ele>39.07</ele>
        <time>2019-09-07T12:43:01Z</time>
      </trkpt>
      <trkpt lat="55.610827999189496" lon="-2.109898030757904">
        <ele>38.590000000000003</ele>
        <time>2019-09-07T12:43:09Z</time>
      </trkpt>
      <trkpt lat="55.608307980000973" lon="-2.109706001356244">
        <ele>40.509999999999998</ele>
        <time>2019-09-07T12:43:22Z</time>
      </trkpt>
      <trkpt lat="55.605587968602777" lon="-2.108735963702202">
        <ele>41.950000000000003</ele>
        <time>2019-09-07T12:43:36Z</time>
      </trkpt>
      <trkpt lat="55.603178003802896" lon="-2.107962984591723">
        <ele>42.439999999999998</ele>
        <time>2019-09-07T12:43:48Z</time>
      </trkpt>
      <trkpt lat="55.601760959252715" lon="-2.107942029833794">
        <ele>43.399999999999999</ele>
        <time>2019-09-07T12:43:55Z</time>
      </trkpt>
      <trkpt lat="55.601588962599635" lon="-2.107868017628789">
        <ele>43.399999999999999</ele>
        <time>2019-09-07T12:43:56Z</time>
      </trkpt>
      <trkpt lat="55.601400034502149" lon="-2.10778696462512">
        <ele>42.920000000000002</ele>
        <time>2019-09-07T12:43:57Z</time>
      </trkpt>
      <trkpt lat="55.601260978728533" lon="-2.107648998498917">
        <ele>42.920000000000002</ele>
        <time>2019-09-07T12:43:58Z</time>
      </trkpt>
      <trkpt lat="55.601099962368608" lon="-2.107486976310611">
        <ele>42.920000000000002</ele>
        <time>2019-09-07T12:43:59Z</time>
      </trkpt>
      <trkpt lat="55.599905960261822" lon="-2.106549963355064">
        <ele>43.880000000000003</ele>
        <time>2019-09-07T12:44:07Z</time>
      </trkpt>
      <trkpt lat="55.599790038540959" lon="-2.10645298473537">
        <ele>43.880000000000003</ele>
        <time>2019-09-07T12:44:08Z</time>
      </trkpt>
      <trkpt lat="55.599694987758994" lon="-2.106320969760418">
        <ele>43.880000000000003</ele>
        <time>2019-09-07T12:44:09Z</time>
      </trkpt>
      <trkpt lat="55.599603038281202" lon="-2.106175040826201">
        <ele>43.880000000000003</ele>
        <time>2019-09-07T12:44:10Z</time>
      </trkpt>
      <trkpt lat="55.599506981670856" lon="-2.106025004759431">
        <ele>43.880000000000003</ele>
        <time>2019-09-07T12:44:11Z</time>
      </trkpt>
      <trkpt lat="55.599407991394401" lon="-2.105870023369789">
        <ele>43.399999999999999</ele>
        <time>2019-09-07T12:44:12Z</time>
      </trkpt>
      <trkpt lat="55.598450023680925" lon="-2.104564039036632">
        <ele>42.920000000000002</ele>
        <time>2019-09-07T12:44:22Z</time>
      </trkpt>
      <trkpt lat="55.598196974024177" lon="-2.104133041575551">
        <ele>42.920000000000002</ele>
        <time>2019-09-07T12:44:25Z</time>
      </trkpt>
      <trkpt lat="55.598113993182778" lon="-2.103979988023639">
        <ele>42.920000000000002</ele>
        <time>2019-09-07T12:44:26Z</time>
      </trkpt>
      <trkpt lat="55.598065964877605" lon="-2.103777984157205">
        <ele>42.920000000000002</ele>
        <time>2019-09-07T12:44:27Z</time>
      </trkpt>
      <trkpt lat="55.598017014563084" lon="-2.103571034967899">
        <ele>42.920000000000002</ele>
        <time>2019-09-07T12:44:28Z</time>
      </trkpt>
      <trkpt lat="55.59796697460115" lon="-2.103361990302801">
        <ele>42.920000000000002</ele>
        <time>2019-09-07T12:44:29Z</time>
      </trkpt>
      <trkpt lat="55.597916012629867" lon="-2.103151017799974">
        <ele>42.439999999999998</ele>
        <time>2019-09-07T12:44:30Z</time>
      </trkpt>
      <trkpt lat="55.597855998203158" lon="-2.102947002276778">
        <ele>42.439999999999998</ele>
        <time>2019-09-07T12:44:31Z</time>
      </trkpt>
      <trkpt lat="55.597774023190141" lon="-2.10275799036026">
        <ele>41.950000000000003</ele>
        <time>2019-09-07T12:44:32Z</time>
      </trkpt>
      <trkpt lat="55.597691964358091" lon="-2.102567972615361">
        <ele>41.469999999999999</ele>
        <time>2019-09-07T12:44:33Z</time>
      </trkpt>
      <trkpt lat="55.597608983516693" lon="-2.102378038689494">
        <ele>41.469999999999999</ele>
        <time>2019-09-07T12:44:34Z</time>
      </trkpt>
      <trkpt lat="55.59691496193409" lon="-2.100533014163375">
        <ele>41.469999999999999</ele>
        <time>2019-09-07T12:44:43Z</time>
      </trkpt>
      <trkpt lat="55.596344992518425" lon="-2.098285993561149">
        <ele>41.469999999999999</ele>
        <time>2019-09-07T12:44:53Z</time>
      </trkpt>
      <trkpt lat="55.596285983920097" lon="-2.098092036321759">
        <ele>41.469999999999999</ele>
        <time>2019-09-07T12:44:54Z</time>
      </trkpt>
      <trkpt lat="55.596207026392221" lon="-2.097917022183538">
        <ele>41.469999999999999</ele>
        <time>2019-09-07T12:44:55Z</time>
      </trkpt>
      <trkpt lat="55.59609797783196" lon="-2.097787018865347">
        <ele>41.469999999999999</ele>
        <time>2019-09-07T12:44:56Z</time>
      </trkpt>
      <trkpt lat="55.595983983948827" lon="-2.097651986405253">
        <ele>41.469999999999999</ele>
        <time>2019-09-07T12:44:57Z</time>
      </trkpt>
      <trkpt lat="55.595864038914442" lon="-2.097508991137147">
        <ele>41.950000000000003</ele>
        <time>2019-09-07T12:44:58Z</time>
      </trkpt>
      <trkpt lat="55.595729006454349" lon="-2.097418969497085">
        <ele>42.439999999999998</ele>
        <time>2019-09-07T12:44:59Z</time>
      </trkpt>
      <trkpt lat="55.594578003510833" lon="-2.096726959571242">
        <ele>43.399999999999999</ele>
        <time>2019-09-07T12:45:06Z</time>
      </trkpt>
      <trkpt lat="55.592432990670204" lon="-2.095678970217705">
        <ele>44.840000000000003</ele>
        <time>2019-09-07T12:45:17Z</time>
      </trkpt>
      <trkpt lat="55.588453011587262" lon="-2.093758005648851">
        <ele>47.719999999999999</ele>
        <time>2019-09-07T12:45:37Z</time>
      </trkpt>
      <trkpt lat="55.585083989426494" lon="-2.092196037992835">
        <ele>49.649999999999999</ele>
        <time>2019-09-07T12:45:54Z</time>
      </trkpt>
      <trkpt lat="55.582544021308422" lon="-2.091301018372178">
        <ele>49.159999999999997</ele>
        <time>2019-09-07T12:46:07Z</time>
      </trkpt>
      <trkpt lat="55.582360960543156" lon="-2.09128400310874">
        <ele>48.68</ele>
        <time>2019-09-07T12:46:08Z</time>
      </trkpt>
      <trkpt lat="55.582186030223966" lon="-2.091217031702399">
        <ele>48.200000000000003</ele>
        <time>2019-09-07T12:46:09Z</time>
      </trkpt>
      <trkpt lat="55.582015039399266" lon="-2.091121980920434">
        <ele>47.719999999999999</ele>
        <time>2019-09-07T12:46:10Z</time>
      </trkpt>
      <trkpt lat="55.581848993897438" lon="-2.090991977602243">
        <ele>47.240000000000002</ele>
        <time>2019-09-07T12:46:11Z</time>
      </trkpt>
      <trkpt lat="55.581687977537513" lon="-2.090820986777544">
        <ele>46.759999999999998</ele>
        <time>2019-09-07T12:46:12Z</time>
      </trkpt>
      <trkpt lat="55.581534001976252" lon="-2.090630969032645">
        <ele>46.759999999999998</ele>
        <time>2019-09-07T12:46:13Z</time>
      </trkpt>
      <trkpt lat="55.579784028232098" lon="-2.088279007002711">
        <ele>48.200000000000003</ele>
        <time>2019-09-07T12:46:24Z</time>
      </trkpt>
      <trkpt lat="55.578850032761693" lon="-2.086733970791102">
        <ele>50.609999999999999</ele>
        <time>2019-09-07T12:46:31Z</time>
      </trkpt>
      <trkpt lat="55.578464968129992" lon="-2.086071968078613">
        <ele>51.57</ele>
        <time>2019-09-07T12:46:34Z</time>
      </trkpt>
      <trkpt lat="55.577185973525047" lon="-2.08417103625834">
        <ele>52.530000000000001</ele>
        <time>2019-09-07T12:46:43Z</time>
      </trkpt>
      <trkpt lat="55.575615037232637" lon="-2.081933990120888">
        <ele>50.130000000000003</ele>
        <time>2019-09-07T12:46:54Z</time>
      </trkpt>
      <trkpt lat="55.574123980477452" lon="-2.079814961180091">
        <ele>50.609999999999999</ele>
        <time>2019-09-07T12:47:04Z</time>
      </trkpt>
      <trkpt lat="55.572471991181374" lon="-2.07746802829206">
        <ele>50.130000000000003</ele>
        <time>2019-09-07T12:47:15Z</time>
      </trkpt>
      <trkpt lat="55.571128036826849" lon="-2.07555896602571">
        <ele>49.159999999999997</ele>
        <time>2019-09-07T12:47:24Z</time>
      </trkpt>
      <trkpt lat="55.570106031373143" lon="-2.074623964726925">
        <ele>47.719999999999999</ele>
        <time>2019-09-07T12:47:30Z</time>
      </trkpt>
      <trkpt lat="55.568579016253352" lon="-2.073166016489267">
        <ele>41.469999999999999</ele>
        <time>2019-09-07T12:47:39Z</time>
      </trkpt>
      <trkpt lat="55.566756036132574" lon="-2.072181981056929">
        <ele>39.07</ele>
        <time>2019-09-07T12:47:49Z</time>
      </trkpt>
      <trkpt lat="55.56417097337544" lon="-2.071565994992852">
        <ele>41.950000000000003</ele>
        <time>2019-09-07T12:48:02Z</time>
      </trkpt>
      <trkpt lat="55.562226958572865" lon="-2.070799972862005">
        <ele>46.280000000000001</ele>
        <time>2019-09-07T12:48:12Z</time>
      </trkpt>
      <trkpt lat="55.561364963650703" lon="-2.069943007081747">
        <ele>51.090000000000003</ele>
        <time>2019-09-07T12:48:17Z</time>
      </trkpt>
      <trkpt lat="55.561208976432681" lon="-2.069729017093778">
        <ele>52.530000000000001</ele>
        <time>2019-09-07T12:48:18Z</time>
      </trkpt>
      <trkpt lat="55.561082996428013" lon="-2.069457024335861">
        <ele>53.490000000000002</ele>
        <time>2019-09-07T12:48:19Z</time>
      </trkpt>
      <trkpt lat="55.560961961746216" lon="-2.0691769849509">
        <ele>54.450000000000003</ele>
        <time>2019-09-07T12:48:20Z</time>
      </trkpt>
      <trkpt lat="55.560845034196973" lon="-2.068905998021364">
        <ele>55.409999999999997</ele>
        <time>2019-09-07T12:48:21Z</time>
      </trkpt>
      <trkpt lat="55.560760041698813" lon="-2.068567033857107">
        <ele>56.369999999999997</ele>
        <time>2019-09-07T12:48:22Z</time>
      </trkpt>
      <trkpt lat="55.560696003958583" lon="-2.068236032500863">
        <ele>56.859999999999999</ele>
        <time>2019-09-07T12:48:23Z</time>
      </trkpt>
      <trkpt lat="55.560651998966932" lon="-2.067889021709561">
        <ele>57.340000000000003</ele>
        <time>2019-09-07T12:48:24Z</time>
      </trkpt>
      <trkpt lat="55.560607993975282" lon="-2.067536981776357">
        <ele>57.82</ele>
        <time>2019-09-07T12:48:25Z</time>
      </trkpt>
      <trkpt lat="55.560351004824042" lon="-2.063951035961509">
        <ele>54.93</ele>
        <time>2019-09-07T12:48:35Z</time>
      </trkpt>
      <trkpt lat="55.560392998158932" lon="-2.058989033102989">
        <ele>49.159999999999997</ele>
        <time>2019-09-07T12:48:49Z</time>
      </trkpt>
      <trkpt lat="55.560198035091162" lon="-2.056566998362541">
        <ele>46.759999999999998</ele>
        <time>2019-09-07T12:48:56Z</time>
      </trkpt>
      <trkpt lat="55.560038024559617" lon="-2.055923016741872">
        <ele>46.759999999999998</ele>
        <time>2019-09-07T12:48:58Z</time>
      </trkpt>
      <trkpt lat="55.559941967949271" lon="-2.05561900511384">
        <ele>46.759999999999998</ele>
        <time>2019-09-07T12:48:59Z</time>
      </trkpt>
      <trkpt lat="55.559813976287842" lon="-2.055352963507175">
        <ele>47.240000000000002</ele>
        <time>2019-09-07T12:49:00Z</time>
      </trkpt>
      <trkpt lat="55.559685984626412" lon="-2.055087005719543">
        <ele>47.719999999999999</ele>
        <time>2019-09-07T12:49:01Z</time>
      </trkpt>
      <trkpt lat="55.559536032378674" lon="-2.054850971326232">
        <ele>48.200000000000003</ele>
        <time>2019-09-07T12:49:02Z</time>
      </trkpt>
      <trkpt lat="55.559381972998381" lon="-2.054676963016391">
        <ele>49.159999999999997</ele>
        <time>2019-09-07T12:49:03Z</time>
      </trkpt>
      <trkpt lat="55.559217017143965" lon="-2.054489040747285">
        <ele>49.649999999999999</ele>
        <time>2019-09-07T12:49:04Z</time>
      </trkpt>
      <trkpt lat="55.559063963592052" lon="-2.054315032437444">
        <ele>50.130000000000003</ele>
        <time>2019-09-07T12:49:05Z</time>
      </trkpt>
      <trkpt lat="55.558937983587384" lon="-2.054077992215753">
        <ele>50.130000000000003</ele>
        <time>2019-09-07T12:49:06Z</time>
      </trkpt>
      <trkpt lat="55.558835975825787" lon="-2.053831983357668">
        <ele>50.609999999999999</ele>
        <time>2019-09-07T12:49:07Z</time>
      </trkpt>
      <trkpt lat="55.558752994984388" lon="-2.053546998649836">
        <ele>51.090000000000003</ele>
        <time>2019-09-07T12:49:08Z</time>
      </trkpt>
      <trkpt lat="55.558666996657848" lon="-2.053251033648849">
        <ele>51.090000000000003</ele>
        <time>2019-09-07T12:49:09Z</time>
      </trkpt>
      <trkpt lat="55.558576975017786" lon="-2.052945010364056">
        <ele>51.090000000000003</ele>
        <time>2019-09-07T12:49:10Z</time>
      </trkpt>
      <trkpt lat="55.558011028915644" lon="-2.050597993656993">
        <ele>50.609999999999999</ele>
        <time>2019-09-07T12:49:18Z</time>
      </trkpt>
      <trkpt lat="55.557204019278288" lon="-2.047351012006402">
        <ele>50.130000000000003</ele>
        <time>2019-09-07T12:49:28Z</time>
      </trkpt>
      <trkpt lat="55.556216966360807" lon="-2.044677017256618">
        <ele>53.490000000000002</ele>
        <time>2019-09-07T12:49:37Z</time>
      </trkpt>
      <trkpt lat="55.555784041061997" lon="-2.043482009321451">
        <ele>54.93</ele>
        <time>2019-09-07T12:49:41Z</time>
      </trkpt>
      <trkpt lat="55.555680021643639" lon="-2.043172968551517">
        <ele>55.409999999999997</ele>
        <time>2019-09-07T12:49:42Z</time>
      </trkpt>
      <trkpt lat="55.555610032752156" lon="-2.042841967195272">
        <ele>56.369999999999997</ele>
        <time>2019-09-07T12:49:43Z</time>
      </trkpt>
      <trkpt lat="55.555329993367195" lon="-2.041197018697858">
        <ele>59.259999999999998</ele>
        <time>2019-09-07T12:49:48Z</time>
      </trkpt>
      <trkpt lat="55.555261010304093" lon="-2.040888983756304">
        <ele>59.740000000000002</ele>
        <time>2019-09-07T12:49:49Z</time>
      </trkpt>
      <trkpt lat="55.555142993107438" lon="-2.04062101431191">
        <ele>60.219999999999999</ele>
        <time>2019-09-07T12:49:50Z</time>
      </trkpt>
      <trkpt lat="55.555021958425641" lon="-2.040346004068852">
        <ele>60.700000000000003</ele>
        <time>2019-09-07T12:49:51Z</time>
      </trkpt>
      <trkpt lat="55.554905030876398" lon="-2.040081974118948">
        <ele>61.18</ele>
        <time>2019-09-07T12:49:52Z</time>
      </trkpt>
      <trkpt lat="55.554309999570251" lon="-2.038644980639219">
        <ele>65.510000000000005</ele>
        <time>2019-09-07T12:49:59Z</time>
      </trkpt>
      <trkpt lat="55.554048987105489" lon="-2.037905026227236">
        <ele>66.469999999999999</ele>
        <time>2019-09-07T12:50:03Z</time>
      </trkpt>
      <trkpt lat="55.553999030962586" lon="-2.037703022360802">
        <ele>66.469999999999999</ele>
        <time>2019-09-07T12:50:04Z</time>
      </trkpt>
      <trkpt lat="55.553927030414343" lon="-2.037279987707734">
        <ele>65.989999999999995</ele>
        <time>2019-09-07T12:50:06Z</time>
      </trkpt>
      <trkpt lat="55.553928958252072" lon="-2.037071026861668">
        <ele>65.989999999999995</ele>
        <time>2019-09-07T12:50:07Z</time>
      </trkpt>
      <trkpt lat="55.553960977122188" lon="-2.036872040480375">
        <ele>65.989999999999995</ele>
        <time>2019-09-07T12:50:08Z</time>
      </trkpt>
      <trkpt lat="55.554002970457077" lon="-2.03668998554349">
        <ele>65.510000000000005</ele>
        <time>2019-09-07T12:50:09Z</time>
      </trkpt>
      <trkpt lat="55.554062984883785" lon="-2.036515977233648">
        <ele>65.989999999999995</ele>
        <time>2019-09-07T12:50:10Z</time>
      </trkpt>
      <trkpt lat="55.554126016795635" lon="-2.036336017772555">
        <ele>65.510000000000005</ele>
        <time>2019-09-07T12:50:11Z</time>
      </trkpt>
      <trkpt lat="55.554181002080441" lon="-2.036136025562882">
        <ele>65.510000000000005</ele>
        <time>2019-09-07T12:50:12Z</time>
      </trkpt>
      <trkpt lat="55.554211009293795" lon="-2.035909965634346">
        <ele>65.030000000000001</ele>
        <time>2019-09-07T12:50:13Z</time>
      </trkpt>
      <trkpt lat="55.554230036213994" lon="-2.035655993968248">
        <ele>64.549999999999997</ele>
        <time>2019-09-07T12:50:14Z</time>
      </trkpt>
      <trkpt lat="55.554208997637033" lon="-2.035402022302151">
        <ele>64.069999999999993</ele>
        <time>2019-09-07T12:50:15Z</time>
      </trkpt>
      <trkpt lat="55.554184019565582" lon="-2.035138998180628">
        <ele>63.579999999999998</ele>
        <time>2019-09-07T12:50:16Z</time>
      </trkpt>
      <trkpt lat="55.554142026230693" lon="-2.034871028736234">
        <ele>63.100000000000001</ele>
        <time>2019-09-07T12:50:17Z</time>
      </trkpt>
      <trkpt lat="55.554099027067423" lon="-2.034600963816047">
        <ele>62.619999999999997</ele>
        <time>2019-09-07T12:50:18Z</time>
      </trkpt>
      <trkpt lat="55.553609021008015" lon="-2.032302981242538">
        <ele>64.069999999999993</ele>
        <time>2019-09-07T12:50:28Z</time>
      </trkpt>
      <trkpt lat="55.553549006581306" lon="-2.031897967681289">
        <ele>65.030000000000001</ele>
        <time>2019-09-07T12:50:30Z</time>
      </trkpt>
      <trkpt lat="55.553527968004346" lon="-2.031677020713687">
        <ele>65.030000000000001</ele>
        <time>2019-09-07T12:50:31Z</time>
      </trkpt>
      <trkpt lat="55.553498966619372" lon="-2.029640972614288">
        <ele>59.740000000000002</ele>
        <time>2019-09-07T12:50:39Z</time>
      </trkpt>
      <trkpt lat="55.553511958569288" lon="-2.027828972786665">
        <ele>55.890000000000001</ele>
        <time>2019-09-07T12:50:46Z</time>
      </trkpt>
      <trkpt lat="55.553515981882811" lon="-2.027572989463806">
        <ele>55.409999999999997</ele>
        <time>2019-09-07T12:50:47Z</time>
      </trkpt>
      <trkpt lat="55.55353500880301" lon="-2.027313988655806">
        <ele>55.409999999999997</ele>
        <time>2019-09-07T12:50:48Z</time>
      </trkpt>
      <trkpt lat="55.553573984652758" lon="-2.026795987039805">
        <ele>56.369999999999997</ele>
        <time>2019-09-07T12:50:50Z</time>
      </trkpt>
      <trkpt lat="55.553594017401338" lon="-2.026532040908933">
        <ele>56.859999999999999</ele>
        <time>2019-09-07T12:50:51Z</time>
      </trkpt>
      <trkpt lat="55.553437024354935" lon="-2.024368001148105">
        <ele>57.82</ele>
        <time>2019-09-07T12:50:59Z</time>
      </trkpt>
      <trkpt lat="55.552838975563645" lon="-2.021463001146913">
        <ele>57.82</ele>
        <time>2019-09-07T12:51:10Z</time>
      </trkpt>
      <trkpt lat="55.552724981680512" lon="-2.02096302062273">
        <ele>56.859999999999999</ele>
        <time>2019-09-07T12:51:12Z</time>
      </trkpt>
      <trkpt lat="55.552690029144287" lon="-2.020697984844446">
        <ele>56.369999999999997</ele>
        <time>2019-09-07T12:51:13Z</time>
      </trkpt>
      <trkpt lat="55.552661027759314" lon="-2.020433032885194">
        <ele>55.890000000000001</ele>
        <time>2019-09-07T12:51:14Z</time>
      </trkpt>
      <trkpt lat="55.552574023604393" lon="-2.019639015197754">
        <ele>54.450000000000003</ele>
        <time>2019-09-07T12:51:17Z</time>
      </trkpt>
      <trkpt lat="55.552517026662827" lon="-2.019388983026147">
        <ele>54.450000000000003</ele>
        <time>2019-09-07T12:51:18Z</time>
      </trkpt>
      <trkpt lat="55.552444020286202" lon="-2.019153032451868">
        <ele>54.450000000000003</ele>
        <time>2019-09-07T12:51:19Z</time>
      </trkpt>
      <trkpt lat="55.552127016708255" lon="-2.018264969810844">
        <ele>54.450000000000003</ele>
        <time>2019-09-07T12:51:23Z</time>
      </trkpt>
      <trkpt lat="55.55202903226018" lon="-2.018109988421202">
        <ele>54.450000000000003</ele>
        <time>2019-09-07T12:51:24Z</time>
      </trkpt>
      <trkpt lat="55.551916966214776" lon="-2.017979985103011">
        <ele>54.93</ele>
        <time>2019-09-07T12:51:25Z</time>
      </trkpt>
      <trkpt lat="55.551426960155368" lon="-2.017414039000869">
        <ele>55.409999999999997</ele>
        <time>2019-09-07T12:51:30Z</time>
      </trkpt>
      <trkpt lat="55.551268961280584" lon="-2.017156966030598">
        <ele>55.890000000000001</ele>
        <time>2019-09-07T12:51:32Z</time>
      </trkpt>
      <trkpt lat="55.551194027066231" lon="-2.017023023217917">
        <ele>55.890000000000001</ele>
        <time>2019-09-07T12:51:33Z</time>
      </trkpt>
      <trkpt lat="55.55112898349762" lon="-2.016877010464668">
        <ele>55.890000000000001</ele>
        <time>2019-09-07T12:51:34Z</time>
      </trkpt>
      <trkpt lat="55.551081039011478" lon="-2.016714988276362">
        <ele>56.369999999999997</ele>
        <time>2019-09-07T12:51:35Z</time>
      </trkpt>
      <trkpt lat="55.551035022363067" lon="-2.016552966088057">
        <ele>56.369999999999997</ele>
        <time>2019-09-07T12:51:36Z</time>
      </trkpt>
      <trkpt lat="55.550996968522668" lon="-2.016382981091738">
        <ele>56.369999999999997</ele>
        <time>2019-09-07T12:51:37Z</time>
      </trkpt>
      <trkpt lat="55.550497993826866" lon="-2.014161022379994">
        <ele>54.450000000000003</ele>
        <time>2019-09-07T12:51:49Z</time>
      </trkpt>
      <trkpt lat="55.550402021035552" lon="-2.013820968568325">
        <ele>53.490000000000002</ele>
        <time>2019-09-07T12:51:51Z</time>
      </trkpt>
      <trkpt lat="55.55035600438714" lon="-2.01365701854229">
        <ele>52.530000000000001</ele>
        <time>2019-09-07T12:51:52Z</time>
      </trkpt>
      <trkpt lat="55.550310993567109" lon="-2.013498013839126">
        <ele>52.049999999999997</ele>
        <time>2019-09-07T12:51:53Z</time>
      </trkpt>
      <trkpt lat="55.550253996625543" lon="-2.013354012742639">
        <ele>51.57</ele>
        <time>2019-09-07T12:51:54Z</time>
      </trkpt>
      <trkpt lat="55.550181996077299" lon="-2.013220991939306">
        <ele>51.090000000000003</ele>
        <time>2019-09-07T12:51:55Z</time>
      </trkpt>
      <trkpt lat="55.550088034942746" lon="-2.01309903524816">
        <ele>51.090000000000003</ele>
        <time>2019-09-07T12:51:56Z</time>
      </trkpt>
      <trkpt lat="55.549977980554104" lon="-2.013013958930969">
        <ele>50.609999999999999</ele>
        <time>2019-09-07T12:51:57Z</time>
      </trkpt>
      <trkpt lat="55.54986197501421" lon="-2.012924021109939">
        <ele>50.609999999999999</ele>
        <time>2019-09-07T12:51:58Z</time>
      </trkpt>
      <trkpt lat="55.549515970051289" lon="-2.012656973674893">
        <ele>50.609999999999999</ele>
        <time>2019-09-07T12:52:01Z</time>
      </trkpt>
      <trkpt lat="55.548499999567866" lon="-2.011754997074604">
        <ele>51.090000000000003</ele>
        <time>2019-09-07T12:52:12Z</time>
      </trkpt>
      <trkpt lat="55.54840100929141" lon="-2.011728007346392">
        <ele>51.090000000000003</ele>
        <time>2019-09-07T12:52:13Z</time>
      </trkpt>
      <trkpt lat="55.547366011887789" lon="-2.011364987120032">
        <ele>53.969999999999999</ele>
        <time>2019-09-07T12:52:23Z</time>
      </trkpt>
      <trkpt lat="55.546197993680835" lon="-2.010815972462297">
        <ele>53.490000000000002</ele>
        <time>2019-09-07T12:52:33Z</time>
      </trkpt>
      <trkpt lat="55.545039027929306" lon="-2.010320015251637">
        <ele>54.93</ele>
        <time>2019-09-07T12:52:42Z</time>
      </trkpt>
      <trkpt lat="55.544911036267877" lon="-2.010315991938114">
        <ele>55.409999999999997</ele>
        <time>2019-09-07T12:52:43Z</time>
      </trkpt>
      <trkpt lat="55.544786984100938" lon="-2.010341975837946">
        <ele>56.369999999999997</ele>
        <time>2019-09-07T12:52:44Z</time>
      </trkpt>
      <trkpt lat="55.544572994112968" lon="-2.010386986657977">
        <ele>57.82</ele>
        <time>2019-09-07T12:52:46Z</time>
      </trkpt>
      <trkpt lat="55.54449001327157" lon="-2.010404001921415">
        <ele>58.299999999999997</ele>
        <time>2019-09-07T12:52:47Z</time>
      </trkpt>
      <trkpt lat="55.544420024380088" lon="-2.010338036343455">
        <ele>58.780000000000001</ele>
        <time>2019-09-07T12:52:48Z</time>
      </trkpt>
      <trkpt lat="55.544367972761393" lon="-2.010214990004897">
        <ele>59.259999999999998</ele>
        <time>2019-09-07T12:52:49Z</time>
      </trkpt>
      <trkpt lat="55.544308964163065" lon="-2.010075012221932">
        <ele>59.259999999999998</ele>
        <time>2019-09-07T12:52:50Z</time>
      </trkpt>
      <trkpt lat="55.544240986928344" lon="-2.009928999468684">
        <ele>59.259999999999998</ele>
        <time>2019-09-07T12:52:51Z</time>
      </trkpt>
      <trkpt lat="55.544172003865242" lon="-2.0097900275141">
        <ele>58.780000000000001</ele>
        <time>2019-09-07T12:52:52Z</time>
      </trkpt>
      <trkpt lat="55.544058009982109" lon="-2.009677039459348">
        <ele>58.299999999999997</ele>
        <time>2019-09-07T12:52:53Z</time>
      </trkpt>
      <trkpt lat="55.543947033584118" lon="-2.009564973413944">
        <ele>58.299999999999997</ele>
        <time>2019-09-07T12:52:54Z</time>
      </trkpt>
      <trkpt lat="55.542829977348447" lon="-2.008441966027021">
        <ele>58.299999999999997</ele>
        <time>2019-09-07T12:53:03Z</time>
      </trkpt>
      <trkpt lat="55.541810989379883" lon="-2.007389031350613">
        <ele>59.740000000000002</ele>
        <time>2019-09-07T12:53:12Z</time>
      </trkpt>
      <trkpt lat="55.541086038574576" lon="-2.006669025868177">
        <ele>61.18</ele>
        <time>2019-09-07T12:53:18Z</time>
      </trkpt>
      <trkpt lat="55.539874015375972" lon="-2.005465971305966">
        <ele>64.549999999999997</ele>
        <time>2019-09-07T12:53:26Z</time>
      </trkpt>
      <trkpt lat="55.538441967219114" lon="-2.004261994734407">
        <ele>62.140000000000001</ele>
        <time>2019-09-07T12:53:35Z</time>
      </trkpt>
      <trkpt lat="55.536579005420208" lon="-2.003124989569187">
        <ele>64.069999999999993</ele>
        <time>2019-09-07T12:53:46Z</time>
      </trkpt>
      <trkpt lat="55.534557038918138" lon="-2.001854963600636">
        <ele>66.950000000000003</ele>
        <time>2019-09-07T12:53:57Z</time>
      </trkpt>
      <trkpt lat="55.532916029915214" lon="-2.000548979267478">
        <ele>69.829999999999998</ele>
        <time>2019-09-07T12:54:07Z</time>
      </trkpt>
      <trkpt lat="55.531139988452196" lon="-1.999480035156012">
        <ele>73.680000000000007</ele>
        <time>2019-09-07T12:54:17Z</time>
      </trkpt>
      <trkpt lat="55.52910503000021" lon="-1.998331965878606">
        <ele>76.560000000000002</ele>
        <time>2019-09-07T12:54:28Z</time>
      </trkpt>
      <trkpt lat="55.527323959395289" lon="-1.997165037319064">
        <ele>79.450000000000003</ele>
        <time>2019-09-07T12:54:39Z</time>
      </trkpt>
      <trkpt lat="55.526063991710544" lon="-1.996136996895075">
        <ele>82.810000000000002</ele>
        <time>2019-09-07T12:54:47Z</time>
      </trkpt>
      <trkpt lat="55.525900041684508" lon="-1.996089974418283">
        <ele>83.290000000000006</ele>
        <time>2019-09-07T12:54:48Z</time>
      </trkpt>
      <trkpt lat="55.524375038221478" lon="-1.995602985844016">
        <ele>86.659999999999997</ele>
        <time>2019-09-07T12:54:57Z</time>
      </trkpt>
      <trkpt lat="55.5237349960953" lon="-1.995239965617657">
        <ele>88.099999999999994</ele>
        <time>2019-09-07T12:55:01Z</time>
      </trkpt>
      <trkpt lat="55.523568028584123" lon="-1.995122032240033">
        <ele>88.579999999999998</ele>
        <time>2019-09-07T12:55:02Z</time>
      </trkpt>
      <trkpt lat="55.52199499681592" lon="-1.993958037346602">
        <ele>87.140000000000001</ele>
        <time>2019-09-07T12:55:11Z</time>
      </trkpt>
      <trkpt lat="55.520767970010638" lon="-1.992606036365032">
        <ele>85.209999999999994</ele>
        <time>2019-09-07T12:55:19Z</time>
      </trkpt>
      <trkpt lat="55.518591022118926" lon="-1.989884013310075">
        <ele>90.980000000000004</ele>
        <time>2019-09-07T12:55:32Z</time>
      </trkpt>
      <trkpt lat="55.516354981809855" lon="-1.986884968355298">
        <ele>98.670000000000002</ele>
        <time>2019-09-07T12:55:45Z</time>
      </trkpt>
      <trkpt lat="55.515211019665003" lon="-1.985139017924666">
        <ele>102.52</ele>
        <time>2019-09-07T12:55:52Z</time>
      </trkpt>
      <trkpt lat="55.515023013576865" lon="-1.984943971037865">
        <ele>103</ele>
        <time>2019-09-07T12:55:53Z</time>
      </trkpt>
      <trkpt lat="55.513182012364268" lon="-1.982938013970852">
        <ele>103.95999999999999</ele>
        <time>2019-09-07T12:56:03Z</time>
      </trkpt>
      <trkpt lat="55.513052009046078" lon="-1.98269996792078">
        <ele>103.95999999999999</ele>
        <time>2019-09-07T12:56:04Z</time>
      </trkpt>
      <trkpt lat="55.512933991849422" lon="-1.982430992648006">
        <ele>103.48</ele>
        <time>2019-09-07T12:56:05Z</time>
      </trkpt>
      <trkpt lat="55.511892037466168" lon="-1.980057992041111">
        <ele>104.44</ele>
        <time>2019-09-07T12:56:13Z</time>
      </trkpt>
      <trkpt lat="55.510689988732338" lon="-1.977374022826552">
        <ele>108.29000000000001</ele>
        <time>2019-09-07T12:56:22Z</time>
      </trkpt>
      <trkpt lat="55.509592965245247" lon="-1.975008985027671">
        <ele>109.73</ele>
        <time>2019-09-07T12:56:30Z</time>
      </trkpt>
      <trkpt lat="55.50873801112175" lon="-1.973407035693526">
        <ele>106.36</ele>
        <time>2019-09-07T12:56:36Z</time>
      </trkpt>
      <trkpt lat="55.507495980709791" lon="-1.971717998385429">
        <ele>103.48</ele>
        <time>2019-09-07T12:56:45Z</time>
      </trkpt>
      <trkpt lat="55.506724007427692" lon="-1.970378989353776">
        <ele>102.04000000000001</ele>
        <time>2019-09-07T12:56:51Z</time>
      </trkpt>
      <trkpt lat="55.505372006446123" lon="-1.96744398213923">
        <ele>106.84</ele>
        <time>2019-09-07T12:57:02Z</time>
      </trkpt>
      <trkpt lat="55.50379503518343" lon="-1.964997975155711">
        <ele>107.81</ele>
        <time>2019-09-07T12:57:12Z</time>
      </trkpt>
      <trkpt lat="55.501882033422589" lon="-1.961962971836329">
        <ele>108.29000000000001</ele>
        <time>2019-09-07T12:57:23Z</time>
      </trkpt>
      <trkpt lat="55.499980011954904" lon="-1.958654969930649">
        <ele>108.29000000000001</ele>
        <time>2019-09-07T12:57:34Z</time>
      </trkpt>
      <trkpt lat="55.498762037605047" lon="-1.9559929613024">
        <ele>106.84</ele>
        <time>2019-09-07T12:57:42Z</time>
      </trkpt>
      <trkpt lat="55.496996976435184" lon="-1.951389033347368">
        <ele>101.56</ele>
        <time>2019-09-07T12:57:55Z</time>
      </trkpt>
      <trkpt lat="55.495779002085328" lon="-1.949313003569841">
        <ele>99.150000000000006</ele>
        <time>2019-09-07T12:58:02Z</time>
      </trkpt>
      <trkpt lat="55.493385968729854" lon="-1.946661975234747">
        <ele>90.980000000000004</ele>
        <time>2019-09-07T12:58:14Z</time>
      </trkpt>
      <trkpt lat="55.490396982058883" lon="-1.943407030776143">
        <ele>85.689999999999998</ele>
        <time>2019-09-07T12:58:30Z</time>
      </trkpt>
      <trkpt lat="55.488615995272994" lon="-1.942007001489401">
        <ele>80.409999999999997</ele>
        <time>2019-09-07T12:58:39Z</time>
      </trkpt>
      <trkpt lat="55.486729983240366" lon="-1.94121197797358">
        <ele>78</ele>
        <time>2019-09-07T12:58:48Z</time>
      </trkpt>
      <trkpt lat="55.484950002282858" lon="-1.939891995862126">
        <ele>79.450000000000003</ele>
        <time>2019-09-07T12:58:57Z</time>
      </trkpt>
      <trkpt lat="55.482394024729729" lon="-1.93777296692133">
        <ele>76.560000000000002</ele>
        <time>2019-09-07T12:59:10Z</time>
      </trkpt>
      <trkpt lat="55.480630975216627" lon="-1.936123995110393">
        <ele>75.599999999999994</ele>
        <time>2019-09-07T12:59:20Z</time>
      </trkpt>
      <trkpt lat="55.480495020747185" lon="-1.935899024829269">
        <ele>75.599999999999994</ele>
        <time>2019-09-07T12:59:21Z</time>
      </trkpt>
      <trkpt lat="55.480370968580246" lon="-1.935653015971184">
        <ele>75.599999999999994</ele>
        <time>2019-09-07T12:59:22Z</time>
      </trkpt>
      <trkpt lat="55.478776982054114" lon="-1.932382984086871">
        <ele>80.890000000000001</ele>
        <time>2019-09-07T12:59:35Z</time>
      </trkpt>
      <trkpt lat="55.477511985227466" lon="-1.930779023095965">
        <ele>79.930000000000007</ele>
        <time>2019-09-07T12:59:43Z</time>
      </trkpt>
      <trkpt lat="55.47578003257513" lon="-1.92838397808373">
        <ele>81.370000000000005</ele>
        <time>2019-09-07T12:59:54Z</time>
      </trkpt>
      <trkpt lat="55.47328700311482" lon="-1.924526039510965">
        <ele>88.579999999999998</ele>
        <time>2019-09-07T13:00:10Z</time>
      </trkpt>
      <trkpt lat="55.470638992264867" lon="-1.920381020754576">
        <ele>89.060000000000002</ele>
        <time>2019-09-07T13:00:27Z</time>
      </trkpt>
      <trkpt lat="55.468615014106035" lon="-1.917819008231163">
        <ele>91.459999999999994</ele>
        <time>2019-09-07T13:00:39Z</time>
      </trkpt>
      <trkpt lat="55.466969981789589" lon="-1.916818963363767">
        <ele>95.310000000000002</ele>
        <time>2019-09-07T13:00:47Z</time>
      </trkpt>
      <trkpt lat="55.464017959311604" lon="-1.915598977357149">
        <ele>100.59999999999999</ele>
        <time>2019-09-07T13:01:01Z</time>
      </trkpt>
      <trkpt lat="55.461487965658307" lon="-1.914566997438669">
        <ele>103.95999999999999</ele>
        <time>2019-09-07T13:01:13Z</time>
      </trkpt>
      <trkpt lat="55.458855964243412" lon="-1.9134930241853">
        <ele>108.77</ele>
        <time>2019-09-07T13:01:25Z</time>
      </trkpt>
      <trkpt lat="55.456865010783076" lon="-1.912680985406041">
        <ele>110.69</ele>
        <time>2019-09-07T13:01:34Z</time>
      </trkpt>
      <trkpt lat="55.455034989863634" lon="-1.911933990195394">
        <ele>110.69</ele>
        <time>2019-09-07T13:01:43Z</time>
      </trkpt>
      <trkpt lat="55.453315023332834" lon="-1.911228988319635">
        <ele>103</ele>
        <time>2019-09-07T13:01:53Z</time>
      </trkpt>
      <trkpt lat="55.451389029622078" lon="-1.91044301725924">
        <ele>98.670000000000002</ele>
        <time>2019-09-07T13:02:03Z</time>
      </trkpt>
      <trkpt lat="55.448568016290665" lon="-1.909239962697029">
        <ele>86.180000000000007</ele>
        <time>2019-09-07T13:02:17Z</time>
      </trkpt>
      <trkpt lat="55.446780994534492" lon="-1.908496990799904">
        <ele>86.180000000000007</ele>
        <time>2019-09-07T13:02:26Z</time>
      </trkpt>
      <trkpt lat="55.445773992687464" lon="-1.9078029692173">
        <ele>85.209999999999994</ele>
        <time>2019-09-07T13:02:33Z</time>
      </trkpt>
      <trkpt lat="55.444256030023098" lon="-1.906770989298821">
        <ele>83.769999999999996</ele>
        <time>2019-09-07T13:02:45Z</time>
      </trkpt>
      <trkpt lat="55.442656008526683" lon="-1.905597019940615">
        <ele>83.769999999999996</ele>
        <time>2019-09-07T13:02:58Z</time>
      </trkpt>
      <trkpt lat="55.442552994936705" lon="-1.905495012179017">
        <ele>83.769999999999996</ele>
        <time>2019-09-07T13:02:59Z</time>
      </trkpt>
      <trkpt lat="55.442457022145391" lon="-1.905364003032446">
        <ele>83.769999999999996</ele>
        <time>2019-09-07T13:03:00Z</time>
      </trkpt>
      <trkpt lat="55.442358031868935" lon="-1.905226958915591">
        <ele>84.25</ele>
        <time>2019-09-07T13:03:01Z</time>
      </trkpt>
      <trkpt lat="55.442258035764098" lon="-1.905089998617768">
        <ele>84.25</ele>
        <time>2019-09-07T13:03:02Z</time>
      </trkpt>
      <trkpt lat="55.442172037437558" lon="-1.904924958944321">
        <ele>84.25</ele>
        <time>2019-09-07T13:03:03Z</time>
      </trkpt>
      <trkpt lat="55.442097019404173" lon="-1.904752040281892">
        <ele>84.25</ele>
        <time>2019-09-07T13:03:04Z</time>
      </trkpt>
      <trkpt lat="55.442032981663942" lon="-1.904562022536993">
        <ele>84.730000000000004</ele>
        <time>2019-09-07T13:03:05Z</time>
      </trkpt>
      <trkpt lat="55.44198302552104" lon="-1.904397988691926">
        <ele>84.730000000000004</ele>
        <time>2019-09-07T13:03:06Z</time>
      </trkpt>
      <trkpt lat="55.441932985559106" lon="-1.90423496067524">
        <ele>85.209999999999994</ele>
        <time>2019-09-07T13:03:07Z</time>
      </trkpt>
      <trkpt lat="55.441836006939411" lon="-1.903928015381098">
        <ele>85.689999999999998</ele>
        <time>2019-09-07T13:03:09Z</time>
      </trkpt>
      <trkpt lat="55.441761994734406" lon="-1.903807986527681">
        <ele>85.689999999999998</ele>
        <time>2019-09-07T13:03:10Z</time>
      </trkpt>
      <trkpt lat="55.441675996407866" lon="-1.903705978766084">
        <ele>85.209999999999994</ele>
        <time>2019-09-07T13:03:11Z</time>
      </trkpt>
      <trkpt lat="55.441583041101694" lon="-1.903596008196473">
        <ele>84.730000000000004</ele>
        <time>2019-09-07T13:03:12Z</time>
      </trkpt>
      <trkpt lat="55.441484972834587" lon="-1.90354697406292">
        <ele>84.25</ele>
        <time>2019-09-07T13:03:13Z</time>
      </trkpt>
      <trkpt lat="55.441367961466312" lon="-1.903488971292973">
        <ele>84.25</ele>
        <time>2019-09-07T13:03:14Z</time>
      </trkpt>
      <trkpt lat="55.441267965361476" lon="-1.903468016535044">
        <ele>84.25</ele>
        <time>2019-09-07T13:03:15Z</time>
      </trkpt>
      <trkpt lat="55.441160006448627" lon="-1.903444966301322">
        <ele>84.730000000000004</ele>
        <time>2019-09-07T13:03:16Z</time>
      </trkpt>
      <trkpt lat="55.441053975373507" lon="-1.903423005715013">
        <ele>84.25</ele>
        <time>2019-09-07T13:03:17Z</time>
      </trkpt>
      <trkpt lat="55.440961020067334" lon="-1.903402972966433">
        <ele>84.730000000000004</ele>
        <time>2019-09-07T13:03:18Z</time>
      </trkpt>
      <trkpt lat="55.440849037840962" lon="-1.903315968811512">
        <ele>84.730000000000004</ele>
        <time>2019-09-07T13:03:19Z</time>
      </trkpt>
      <trkpt lat="55.440752981230617" lon="-1.903197029605508">
        <ele>85.209999999999994</ele>
        <time>2019-09-07T13:03:20Z</time>
      </trkpt>
      <trkpt lat="55.440710987895727" lon="-1.903028972446919">
        <ele>85.689999999999998</ele>
        <time>2019-09-07T13:03:21Z</time>
      </trkpt>
      <trkpt lat="55.440666982904077" lon="-1.902851024642587">
        <ele>85.689999999999998</ele>
        <time>2019-09-07T13:03:22Z</time>
      </trkpt>
      <trkpt lat="55.440633958205581" lon="-1.902656983584166">
        <ele>86.180000000000007</ele>
        <time>2019-09-07T13:03:23Z</time>
      </trkpt>
      <trkpt lat="55.440602023154497" lon="-1.90245196223259">
        <ele>87.140000000000001</ele>
        <time>2019-09-07T13:03:24Z</time>
      </trkpt>
      <trkpt lat="55.440568998456001" lon="-1.902244007214904">
        <ele>87.620000000000005</ele>
        <time>2019-09-07T13:03:25Z</time>
      </trkpt>
      <trkpt lat="55.440535973757505" lon="-1.902033034712076">
        <ele>88.099999999999994</ele>
        <time>2019-09-07T13:03:26Z</time>
      </trkpt>
      <trkpt lat="55.440151998773217" lon="-1.899594990536571">
        <ele>93.390000000000001</ele>
        <time>2019-09-07T13:03:37Z</time>
      </trkpt>
      <trkpt lat="55.439652018249035" lon="-1.897087041288614">
        <ele>94.829999999999998</ele>
        <time>2019-09-07T13:03:46Z</time>
      </trkpt>
      <trkpt lat="55.438939975574613" lon="-1.893789013847709">
        <ele>98.189999999999998</ele>
        <time>2019-09-07T13:03:56Z</time>
      </trkpt>
      <trkpt lat="55.438001034781337" lon="-1.890491992235184">
        <ele>103</ele>
        <time>2019-09-07T13:04:06Z</time>
      </trkpt>
      <trkpt lat="55.437719989567995" lon="-1.889950018376112">
        <ele>103.48</ele>
        <time>2019-09-07T13:04:08Z</time>
      </trkpt>
      <trkpt lat="55.437564002349973" lon="-1.889707027003169">
        <ele>103.95999999999999</ele>
        <time>2019-09-07T13:04:09Z</time>
      </trkpt>
      <trkpt lat="55.436124997213483" lon="-1.888261986896396">
        <ele>106.84</ele>
        <time>2019-09-07T13:04:17Z</time>
      </trkpt>
      <trkpt lat="55.434220964089036" lon="-1.886657020077109">
        <ele>112.13</ele>
        <time>2019-09-07T13:04:27Z</time>
      </trkpt>
      <trkpt lat="55.433182027190924" lon="-1.884766984730959">
        <ele>113.56999999999999</ele>
        <time>2019-09-07T13:04:34Z</time>
      </trkpt>
      <trkpt lat="55.432183993980289" lon="-1.883425964042544">
        <ele>113.09</ele>
        <time>2019-09-07T13:04:40Z</time>
      </trkpt>
      <trkpt lat="55.430743983015418" lon="-1.882719034329057">
        <ele>107.81</ele>
        <time>2019-09-07T13:04:47Z</time>
      </trkpt>
      <trkpt lat="55.429095011204481" lon="-1.882035993039608">
        <ele>103</ele>
        <time>2019-09-07T13:04:55Z</time>
      </trkpt>
      <trkpt lat="55.428898958489299" lon="-1.881921999156475">
        <ele>103</ele>
        <time>2019-09-07T13:04:56Z</time>
      </trkpt>
      <trkpt lat="55.428720004856586" lon="-1.881745979189873">
        <ele>103.48</ele>
        <time>2019-09-07T13:04:57Z</time>
      </trkpt>
      <trkpt lat="55.426738020032644" lon="-1.879748990759254">
        <ele>111.65000000000001</ele>
        <time>2019-09-07T13:05:08Z</time>
      </trkpt>
      <trkpt lat="55.424656039103866" lon="-1.877801036462188">
        <ele>110.20999999999999</ele>
        <time>2019-09-07T13:05:19Z</time>
      </trkpt>
      <trkpt lat="55.421663029119372" lon="-1.875011958181858">
        <ele>103.48</ele>
        <time>2019-09-07T13:05:35Z</time>
      </trkpt>
      <trkpt lat="55.419527990743518" lon="-1.873024022206664">
        <ele>103.48</ele>
        <time>2019-09-07T13:05:46Z</time>
      </trkpt>
      <trkpt lat="55.416943011805415" lon="-1.870688991621137">
        <ele>92.420000000000002</ele>
        <time>2019-09-07T13:05:59Z</time>
      </trkpt>
      <trkpt lat="55.414891960099339" lon="-1.869325004518032">
        <ele>82.329999999999998</ele>
        <time>2019-09-07T13:06:09Z</time>
      </trkpt>
      <trkpt lat="55.412393985316157" lon="-1.867825984954834">
        <ele>70.310000000000002</ele>
        <time>2019-09-07T13:06:21Z</time>
      </trkpt>
      <trkpt lat="55.409487979486585" lon="-1.866081040352583">
        <ele>66.469999999999999</ele>
        <time>2019-09-07T13:06:35Z</time>
      </trkpt>
      <trkpt lat="55.406120968982577" lon="-1.864059995859861">
        <ele>64.549999999999997</ele>
        <time>2019-09-07T13:06:51Z</time>
      </trkpt>
      <trkpt lat="55.403207000344992" lon="-1.862310022115707">
        <ele>60.700000000000003</ele>
        <time>2019-09-07T13:07:05Z</time>
      </trkpt>
      <trkpt lat="55.400585979223251" lon="-1.860749982297421">
        <ele>60.219999999999999</ele>
        <time>2019-09-07T13:07:18Z</time>
      </trkpt>
      <trkpt lat="55.397759014740586" lon="-1.859044013544917">
        <ele>66.469999999999999</ele>
        <time>2019-09-07T13:07:32Z</time>
      </trkpt>
      <trkpt lat="55.393481981009245" lon="-1.856463979929686">
        <ele>79.450000000000003</ele>
        <time>2019-09-07T13:07:53Z</time>
      </trkpt>
      <trkpt lat="55.39142900146544" lon="-1.855272995308042">
        <ele>84.730000000000004</ele>
        <time>2019-09-07T13:08:03Z</time>
      </trkpt>
      <trkpt lat="55.388791970908642" lon="-1.854148982092738">
        <ele>88.579999999999998</ele>
        <time>2019-09-07T13:08:15Z</time>
      </trkpt>
      <trkpt lat="55.385611960664392" lon="-1.852952968329191">
        <ele>99.629999999999995</ele>
        <time>2019-09-07T13:08:30Z</time>
      </trkpt>
      <trkpt lat="55.382997980341315" lon="-1.852491963654757">
        <ele>97.230000000000004</ele>
        <time>2019-09-07T13:08:43Z</time>
      </trkpt>
      <trkpt lat="55.38060100749135" lon="-1.852114023640752">
        <ele>91.939999999999998</ele>
        <time>2019-09-07T13:08:55Z</time>
      </trkpt>
      <trkpt lat="55.37787496112287" lon="-1.851710015907884">
        <ele>95.790000000000006</ele>
        <time>2019-09-07T13:09:08Z</time>
      </trkpt>
      <trkpt lat="55.375481005758047" lon="-1.851757960394025">
        <ele>109.73</ele>
        <time>2019-09-07T13:09:19Z</time>
      </trkpt>
      <trkpt lat="55.37370203062892" lon="-1.85196097008884">
        <ele>119.34</ele>
        <time>2019-09-07T13:09:27Z</time>
      </trkpt>
      <trkpt lat="55.371287036687136" lon="-1.852334970608354">
        <ele>132.31999999999999</ele>
        <time>2019-09-07T13:09:38Z</time>
      </trkpt>
      <trkpt lat="55.369861023500562" lon="-1.853366028517485">
        <ele>141.44999999999999</ele>
        <time>2019-09-07T13:09:45Z</time>
      </trkpt>
      <trkpt lat="55.369074968621135" lon="-1.85389400459826">
        <ele>145.78</ele>
        <time>2019-09-07T13:09:49Z</time>
      </trkpt>
      <trkpt lat="55.368872964754701" lon="-1.853942032903433">
        <ele>146.74000000000001</ele>
        <time>2019-09-07T13:09:50Z</time>
      </trkpt>
      <trkpt lat="55.366928027942777" lon="-1.854243027046323">
        <ele>157.78999999999999</ele>
        <time>2019-09-07T13:09:59Z</time>
      </trkpt>
      <trkpt lat="55.365385003387928" lon="-1.854464979842305">
        <ele>163.08000000000001</ele>
        <time>2019-09-07T13:10:06Z</time>
      </trkpt>
      <trkpt lat="55.363438976928592" lon="-1.854932019487023">
        <ele>171.25</ele>
        <time>2019-09-07T13:10:15Z</time>
      </trkpt>
      <trkpt lat="55.361037980765104" lon="-1.854843003675342">
        <ele>180.38</ele>
        <time>2019-09-07T13:10:26Z</time>
      </trkpt>
      <trkpt lat="55.358176985755563" lon="-1.854521976783872">
        <ele>195.28</ele>
        <time>2019-09-07T13:10:39Z</time>
      </trkpt>
      <trkpt lat="55.355629976838827" lon="-1.854026019573212">
        <ele>197.21000000000001</ele>
        <time>2019-09-07T13:10:51Z</time>
      </trkpt>
      <trkpt lat="55.35546300932765" lon="-1.853922000154853">
        <ele>196.72999999999999</ele>
        <time>2019-09-07T13:10:52Z</time>
      </trkpt>
      <trkpt lat="55.355294030159712" lon="-1.853803982958198">
        <ele>196.25</ele>
        <time>2019-09-07T13:10:53Z</time>
      </trkpt>
      <trkpt lat="55.355134019628167" lon="-1.853629974648356">
        <ele>195.77000000000001</ele>
        <time>2019-09-07T13:10:54Z</time>
      </trkpt>
      <trkpt lat="55.353394020348787" lon="-1.851731976494193">
        <ele>183.27000000000001</ele>
        <time>2019-09-07T13:11:04Z</time>
      </trkpt>
      <trkpt lat="55.351212965324521" lon="-1.849316982552409">
        <ele>192.40000000000001</ele>
        <time>2019-09-07T13:11:17Z</time>
      </trkpt>
      <trkpt lat="55.350185008719563" lon="-1.847744034603238">
        <ele>196.25</ele>
        <time>2019-09-07T13:11:24Z</time>
      </trkpt>
      <trkpt lat="55.349434996023774" lon="-1.845401963219047">
        <ele>197.21000000000001</ele>
        <time>2019-09-07T13:11:32Z</time>
      </trkpt>
      <trkpt lat="55.348492031916976" lon="-1.842209966853261">
        <ele>202.00999999999999</ele>
        <time>2019-09-07T13:11:43Z</time>
      </trkpt>
      <trkpt lat="55.347669012844563" lon="-1.839343020692468">
        <ele>206.81999999999999</ele>
        <time>2019-09-07T13:11:52Z</time>
      </trkpt>
      <trkpt lat="55.34740598872304" lon="-1.837968975305557">
        <ele>207.30000000000001</ele>
        <time>2019-09-07T13:11:56Z</time>
      </trkpt>
      <trkpt lat="55.347368018701673" lon="-1.837616013363004">
        <ele>207.30000000000001</ele>
        <time>2019-09-07T13:11:57Z</time>
      </trkpt>
      <trkpt lat="55.347189987078309" lon="-1.834457963705063">
        <ele>209.69999999999999</ele>
        <time>2019-09-07T13:12:06Z</time>
      </trkpt>
      <trkpt lat="55.347121004015207" lon="-1.834126962348819">
        <ele>209.69999999999999</ele>
        <time>2019-09-07T13:12:07Z</time>
      </trkpt>
      <trkpt lat="55.346456989645958" lon="-1.831088019534946">
        <ele>210.19</ele>
        <time>2019-09-07T13:12:16Z</time>
      </trkpt>
      <trkpt lat="55.345616033300757" lon="-1.827450022101402">
        <ele>207.30000000000001</ele>
        <time>2019-09-07T13:12:27Z</time>
      </trkpt>
      <trkpt lat="55.344595033675432" lon="-1.823035022243857">
        <ele>204.90000000000001</ele>
        <time>2019-09-07T13:12:41Z</time>
      </trkpt>
      <trkpt lat="55.343865975737572" lon="-1.819880995899439">
        <ele>204.41999999999999</ele>
        <time>2019-09-07T13:12:51Z</time>
      </trkpt>
      <trkpt lat="55.342915970832109" lon="-1.816117018461227">
        <ele>207.30000000000001</ele>
        <time>2019-09-07T13:13:03Z</time>
      </trkpt>
      <trkpt lat="55.342793008312583" lon="-1.815846031531692">
        <ele>207.30000000000001</ele>
        <time>2019-09-07T13:13:04Z</time>
      </trkpt>
      <trkpt lat="55.342645989730954" lon="-1.815621983259916">
        <ele>206.81999999999999</ele>
        <time>2019-09-07T13:13:05Z</time>
      </trkpt>
      <trkpt lat="55.342484973371029" lon="-1.815422996878624">
        <ele>206.34</ele>
        <time>2019-09-07T13:13:06Z</time>
      </trkpt>
      <trkpt lat="55.342323035001755" lon="-1.815225016325712">
        <ele>205.86000000000001</ele>
        <time>2019-09-07T13:13:07Z</time>
      </trkpt>
      <trkpt lat="55.342160006985068" lon="-1.815037010237575">
        <ele>205.38</ele>
        <time>2019-09-07T13:13:08Z</time>
      </trkpt>
      <trkpt lat="55.341979963704944" lon="-1.81489703245461">
        <ele>204.41999999999999</ele>
        <time>2019-09-07T13:13:09Z</time>
      </trkpt>
      <trkpt lat="55.340666016563773" lon="-1.814305018633604">
        <ele>200.56999999999999</ele>
        <time>2019-09-07T13:13:16Z</time>
      </trkpt>
      <trkpt lat="55.339104970917106" lon="-1.814577011391521">
        <ele>194.80000000000001</ele>
        <time>2019-09-07T13:13:24Z</time>
      </trkpt>
      <trkpt lat="55.336687965318561" lon="-1.815206995233893">
        <ele>185.66999999999999</ele>
        <time>2019-09-07T13:13:36Z</time>
      </trkpt>
      <trkpt lat="55.334725007414818" lon="-1.815526010468602">
        <ele>183.27000000000001</ele>
        <time>2019-09-07T13:13:46Z</time>
      </trkpt>
      <trkpt lat="55.331940036267042" lon="-1.815833961591125">
        <ele>180.87</ele>
        <time>2019-09-07T13:14:01Z</time>
      </trkpt>
      <trkpt lat="55.330080008134246" lon="-1.815690966323018">
        <ele>174.13999999999999</ele>
        <time>2019-09-07T13:14:11Z</time>
      </trkpt>
      <trkpt lat="55.327397966757417" lon="-1.814869958907366">
        <ele>161.16</ele>
        <time>2019-09-07T13:14:25Z</time>
      </trkpt>
      <trkpt lat="55.325525030493736" lon="-1.813720967620611">
        <ele>154.43000000000001</ele>
        <time>2019-09-07T13:14:35Z</time>
      </trkpt>
      <trkpt lat="55.321932965889573" lon="-1.811555000022054">
        <ele>147.69999999999999</ele>
        <time>2019-09-07T13:14:53Z</time>
      </trkpt>
      <trkpt lat="55.319683011621237" lon="-1.810529977083206">
        <ele>145.30000000000001</ele>
        <time>2019-09-07T13:15:04Z</time>
      </trkpt>
      <trkpt lat="55.317450994625688" lon="-1.80952800437808">
        <ele>142.88999999999999</ele>
        <time>2019-09-07T13:15:15Z</time>
      </trkpt>
      <trkpt lat="55.315488036721945" lon="-1.808303995057941">
        <ele>144.81999999999999</ele>
        <time>2019-09-07T13:15:25Z</time>
      </trkpt>
      <trkpt lat="55.313723981380463" lon="-1.806330978870392">
        <ele>149.62</ele>
        <time>2019-09-07T13:15:35Z</time>
      </trkpt>
      <trkpt lat="55.312228985130787" lon="-1.804299037903547">
        <ele>155.38999999999999</ele>
        <time>2019-09-07T13:15:44Z</time>
      </trkpt>
      <trkpt lat="55.309744002297521" lon="-1.801571985706687">
        <ele>161.63999999999999</ele>
        <time>2019-09-07T13:15:58Z</time>
      </trkpt>
      <trkpt lat="55.309016034007072" lon="-1.800726000219584">
        <ele>160.19999999999999</ele>
        <time>2019-09-07T13:16:04Z</time>
      </trkpt>
      <trkpt lat="55.307824965566397" lon="-1.799352960661054">
        <ele>155.87</ele>
        <time>2019-09-07T13:16:16Z</time>
      </trkpt>
      <trkpt lat="55.307622961699963" lon="-1.799179036170244">
        <ele>156.34999999999999</ele>
        <time>2019-09-07T13:16:18Z</time>
      </trkpt>
      <trkpt lat="55.30750603415072" lon="-1.799117010086775">
        <ele>156.34999999999999</ele>
        <time>2019-09-07T13:16:19Z</time>
      </trkpt>
      <trkpt lat="55.306758033111691" lon="-1.798672014847398">
        <ele>158.27000000000001</ele>
        <time>2019-09-07T13:16:25Z</time>
      </trkpt>
      <trkpt lat="55.306640015915036" lon="-1.798552991822362">
        <ele>158.75</ele>
        <time>2019-09-07T13:16:26Z</time>
      </trkpt>
      <trkpt lat="55.306425020098686" lon="-1.798296002671123">
        <ele>159.24000000000001</ele>
        <time>2019-09-07T13:16:28Z</time>
      </trkpt>
      <trkpt lat="55.305927973240614" lon="-1.797467032447457">
        <ele>158.27000000000001</ele>
        <time>2019-09-07T13:16:34Z</time>
      </trkpt>
      <trkpt lat="55.305234035477042" lon="-1.796143027022481">
        <ele>158.27000000000001</ele>
        <time>2019-09-07T13:16:43Z</time>
      </trkpt>
      <trkpt lat="55.305134961381555" lon="-1.7960349842906">
        <ele>158.27000000000001</ele>
        <time>2019-09-07T13:16:44Z</time>
      </trkpt>
      <trkpt lat="55.305034965276718" lon="-1.795941023156047">
        <ele>158.75</ele>
        <time>2019-09-07T13:16:45Z</time>
      </trkpt>
      <trkpt lat="55.304933041334152" lon="-1.79584396071732">
        <ele>158.27000000000001</ele>
        <time>2019-09-07T13:16:46Z</time>
      </trkpt>
      <trkpt lat="55.304830027744174" lon="-1.795746982097626">
        <ele>157.78999999999999</ele>
        <time>2019-09-07T13:16:47Z</time>
      </trkpt>
      <trkpt lat="55.304627018049359" lon="-1.795543972402811">
        <ele>157.31</ele>
        <time>2019-09-07T13:16:49Z</time>
      </trkpt>
      <trkpt lat="55.303896032273769" lon="-1.794832013547421">
        <ele>156.34999999999999</ele>
        <time>2019-09-07T13:16:56Z</time>
      </trkpt>
      <trkpt lat="55.303122969344258" lon="-1.794162970036268">
        <ele>154.43000000000001</ele>
        <time>2019-09-07T13:17:04Z</time>
      </trkpt>
      <trkpt lat="55.303050968796015" lon="-1.794041013345122">
        <ele>154.43000000000001</ele>
        <time>2019-09-07T13:17:05Z</time>
      </trkpt>
      <trkpt lat="55.302987014874816" lon="-1.793916039168835">
        <ele>154.43000000000001</ele>
        <time>2019-09-07T13:17:06Z</time>
      </trkpt>
      <trkpt lat="55.302413022145629" lon="-1.792669985443354">
        <ele>152.99000000000001</ele>
        <time>2019-09-07T13:17:14Z</time>
      </trkpt>
      <trkpt lat="55.302323000505567" lon="-1.792521961033344">
        <ele>152.50999999999999</ele>
        <time>2019-09-07T13:17:15Z</time>
      </trkpt>
      <trkpt lat="55.302128959447145" lon="-1.792224990203977">
        <ele>152.03</ele>
        <time>2019-09-07T13:17:17Z</time>
      </trkpt>
      <trkpt lat="55.302012031897902" lon="-1.792095992714167">
        <ele>151.53999999999999</ele>
        <time>2019-09-07T13:17:18Z</time>
      </trkpt>
      <trkpt lat="55.301774991676211" lon="-1.791832968592644">
        <ele>150.09999999999999</ele>
        <time>2019-09-07T13:17:20Z</time>
      </trkpt>
      <trkpt lat="55.300586018711329" lon="-1.790840970352292">
        <ele>142.41</ele>
        <time>2019-09-07T13:17:28Z</time>
      </trkpt>
      <trkpt lat="55.29893402941525" lon="-1.789749981835485">
        <ele>132.31999999999999</ele>
        <time>2019-09-07T13:17:38Z</time>
      </trkpt>
      <trkpt lat="55.297451019287109" lon="-1.789061995223165">
        <ele>124.15000000000001</ele>
        <time>2019-09-07T13:17:46Z</time>
      </trkpt>
      <trkpt lat="55.295158987864852" lon="-1.788176028057933">
        <ele>114.05</ele>
        <time>2019-09-07T13:17:57Z</time>
      </trkpt>
      <trkpt lat="55.293183960020542" lon="-1.787413023412228">
        <ele>107.81</ele>
        <time>2019-09-07T13:18:06Z</time>
      </trkpt>
      <trkpt lat="55.290316008031368" lon="-1.786304013803601">
        <ele>97.709999999999994</ele>
        <time>2019-09-07T13:18:19Z</time>
      </trkpt>
      <trkpt lat="55.287684006616473" lon="-1.785287037491798">
        <ele>89.060000000000002</ele>
        <time>2019-09-07T13:18:31Z</time>
      </trkpt>
      <trkpt lat="55.286067975685" lon="-1.784669039770961">
        <ele>82.810000000000002</ele>
        <time>2019-09-07T13:18:39Z</time>
      </trkpt>
      <trkpt lat="55.284405006095767" lon="-1.784044001251459">
        <ele>74.640000000000001</ele>
        <time>2019-09-07T13:18:49Z</time>
      </trkpt>
      <trkpt lat="55.282226968556643" lon="-1.783206984400749">
        <ele>62.140000000000001</ele>
        <time>2019-09-07T13:19:00Z</time>
      </trkpt>
      <trkpt lat="55.279750032350421" lon="-1.782253962010145">
        <ele>56.369999999999997</ele>
        <time>2019-09-07T13:19:12Z</time>
      </trkpt>
      <trkpt lat="55.277841975912452" lon="-1.781525993719697">
        <ele>63.100000000000001</ele>
        <time>2019-09-07T13:19:22Z</time>
      </trkpt>
      <trkpt lat="55.276002986356616" lon="-1.780814034864306">
        <ele>76.079999999999998</ele>
        <time>2019-09-07T13:19:32Z</time>
      </trkpt>
      <trkpt lat="55.275346012786031" lon="-1.780572971329093">
        <ele>81.370000000000005</ele>
        <time>2019-09-07T13:19:38Z</time>
      </trkpt>
      <trkpt lat="55.275275018066168" lon="-1.780545981600881">
        <ele>81.849999999999994</ele>
        <time>2019-09-07T13:19:39Z</time>
      </trkpt>
      <trkpt lat="55.27521600946784" lon="-1.780523015186191">
        <ele>82.329999999999998</ele>
        <time>2019-09-07T13:19:40Z</time>
      </trkpt>
      <trkpt lat="55.275017023086548" lon="-1.780445985496044">
        <ele>84.730000000000004</ele>
        <time>2019-09-07T13:19:44Z</time>
      </trkpt>
      <trkpt lat="55.274963965639472" lon="-1.780425030738115">
        <ele>85.209999999999994</ele>
        <time>2019-09-07T13:19:45Z</time>
      </trkpt>
      <trkpt lat="55.274900011718273" lon="-1.780400974676013">
        <ele>86.180000000000007</ele>
        <time>2019-09-07T13:19:46Z</time>
      </trkpt>
      <trkpt lat="55.274675041437149" lon="-1.780312964692712">
        <ele>87.620000000000005</ele>
        <time>2019-09-07T13:19:49Z</time>
      </trkpt>
      <trkpt lat="55.274597005918622" lon="-1.780283041298389">
        <ele>88.099999999999994</ele>
        <time>2019-09-07T13:19:50Z</time>
      </trkpt>
      <trkpt lat="55.273824026808143" lon="-1.779979029670358">
        <ele>90.980000000000004</ele>
        <time>2019-09-07T13:20:00Z</time>
      </trkpt>
      <trkpt lat="55.27298198081553" lon="-1.779626989737153">
        <ele>93.390000000000001</ele>
        <time>2019-09-07T13:20:13Z</time>
      </trkpt>
      <trkpt lat="55.272910986095667" lon="-1.779596982523799">
        <ele>93.870000000000005</ele>
        <time>2019-09-07T13:20:14Z</time>
      </trkpt>
      <trkpt lat="55.272837979719043" lon="-1.779565969482064">
        <ele>94.349999999999994</ele>
        <time>2019-09-07T13:20:15Z</time>
      </trkpt>
      <trkpt lat="55.272761033847928" lon="-1.779534034430981">
        <ele>94.349999999999994</ele>
        <time>2019-09-07T13:20:16Z</time>
      </trkpt>
      <trkpt lat="55.27240396477282" lon="-1.779385004192591">
        <ele>96.269999999999996</ele>
        <time>2019-09-07T13:20:20Z</time>
      </trkpt>
      <trkpt lat="55.272302962839603" lon="-1.779343010857701">
        <ele>96.75</ele>
        <time>2019-09-07T13:20:21Z</time>
      </trkpt>
      <trkpt lat="55.272197015583515" lon="-1.779299005866051">
        <ele>97.709999999999994</ele>
        <time>2019-09-07T13:20:22Z</time>
      </trkpt>
      <trkpt lat="55.271204011514783" lon="-1.778897009789944">
        <ele>103</ele>
        <time>2019-09-07T13:20:29Z</time>
      </trkpt>
      <trkpt lat="55.269528971984982" lon="-1.778197959065437">
        <ele>114.05</ele>
        <time>2019-09-07T13:20:38Z</time>
      </trkpt>
      <trkpt lat="55.267236018553376" lon="-1.77747200243175">
        <ele>133.75999999999999</ele>
        <time>2019-09-07T13:20:50Z</time>
      </trkpt>
      <trkpt lat="55.264360019937158" lon="-1.777328001335263">
        <ele>140.49000000000001</ele>
        <time>2019-09-07T13:21:04Z</time>
      </trkpt>
      <trkpt lat="55.262968959286809" lon="-1.777123985812068">
        <ele>148.18000000000001</ele>
        <time>2019-09-07T13:21:12Z</time>
      </trkpt>
      <trkpt lat="55.262793023139238" lon="-1.776975961402059">
        <ele>148.18000000000001</ele>
        <time>2019-09-07T13:21:13Z</time>
      </trkpt>
      <trkpt lat="55.262632006779313" lon="-1.776839001104236">
        <ele>147.69999999999999</ele>
        <time>2019-09-07T13:21:14Z</time>
      </trkpt>
      <trkpt lat="55.261161988601089" lon="-1.775575010105968">
        <ele>139.05000000000001</ele>
        <time>2019-09-07T13:21:22Z</time>
      </trkpt>
      <trkpt lat="55.258750012144446" lon="-1.773601993918419">
        <ele>128.94999999999999</ele>
        <time>2019-09-07T13:21:34Z</time>
      </trkpt>
      <trkpt lat="55.257226014509797" lon="-1.773034036159515">
        <ele>127.98999999999999</ele>
        <time>2019-09-07T13:21:41Z</time>
      </trkpt>
      <trkpt lat="55.255354000255466" lon="-1.772665986791253">
        <ele>124.15000000000001</ele>
        <time>2019-09-07T13:21:50Z</time>
      </trkpt>
      <trkpt lat="55.252439025789499" lon="-1.772148991003633">
        <ele>120.78</ele>
        <time>2019-09-07T13:22:04Z</time>
      </trkpt>
      <trkpt lat="55.249521033838391" lon="-1.771339969709516">
        <ele>118.38</ele>
        <time>2019-09-07T13:22:18Z</time>
      </trkpt>
      <trkpt lat="55.24818898178637" lon="-1.77055299282074">
        <ele>117.90000000000001</ele>
        <time>2019-09-07T13:22:25Z</time>
      </trkpt>
      <trkpt lat="55.24728499352932" lon="-1.76990800537169">
        <ele>120.3</ele>
        <time>2019-09-07T13:22:33Z</time>
      </trkpt>
      <trkpt lat="55.246930019930005" lon="-1.769667025655508">
        <ele>121.26000000000001</ele>
        <time>2019-09-07T13:22:37Z</time>
      </trkpt>
      <trkpt lat="55.246836980804801" lon="-1.769604999572039">
        <ele>121.26000000000001</ele>
        <time>2019-09-07T13:22:38Z</time>
      </trkpt>
      <trkpt lat="55.246372036635876" lon="-1.769247008487582">
        <ele>121.26000000000001</ele>
        <time>2019-09-07T13:22:43Z</time>
      </trkpt>
      <trkpt lat="55.246280003339052" lon="-1.769160004332662">
        <ele>121.26000000000001</ele>
        <time>2019-09-07T13:22:44Z</time>
      </trkpt>
      <trkpt lat="55.246200961992145" lon="-1.769035030156374">
        <ele>121.26000000000001</ele>
        <time>2019-09-07T13:22:45Z</time>
      </trkpt>
      <trkpt lat="55.246123010292649" lon="-1.768902009353042">
        <ele>121.26000000000001</ele>
        <time>2019-09-07T13:22:46Z</time>
      </trkpt>
      <trkpt lat="55.246062995865941" lon="-1.768737975507975">
        <ele>120.78</ele>
        <time>2019-09-07T13:22:47Z</time>
      </trkpt>
      <trkpt lat="55.246005998924375" lon="-1.768564973026514">
        <ele>120.78</ele>
        <time>2019-09-07T13:22:48Z</time>
      </trkpt>
      <trkpt lat="55.245898040011525" lon="-1.768231960013509">
        <ele>120.3</ele>
        <time>2019-09-07T13:22:50Z</time>
      </trkpt>
      <trkpt lat="55.24584598839283" lon="-1.768072033300996">
        <ele>120.3</ele>
        <time>2019-09-07T13:22:51Z</time>
      </trkpt>
      <trkpt lat="55.245783962309361" lon="-1.767925014719367">
        <ele>120.3</ele>
        <time>2019-09-07T13:22:52Z</time>
      </trkpt>
      <trkpt lat="55.245688995346427" lon="-1.767828036099672">
        <ele>120.3</ele>
        <time>2019-09-07T13:22:53Z</time>
      </trkpt>
      <trkpt lat="55.245577013120055" lon="-1.76771798171103">
        <ele>120.3</ele>
        <time>2019-09-07T13:22:54Z</time>
      </trkpt>
      <trkpt lat="55.245460001751781" lon="-1.767602981999517">
        <ele>120.3</ele>
        <time>2019-09-07T13:22:55Z</time>
      </trkpt>
      <trkpt lat="55.244536986574531" lon="-1.766695976257324">
        <ele>120.78</ele>
        <time>2019-09-07T13:23:04Z</time>
      </trkpt>
      <trkpt lat="55.244460962712765" lon="-1.766568990424275">
        <ele>120.78</ele>
        <time>2019-09-07T13:23:05Z</time>
      </trkpt>
      <trkpt lat="55.244388040155172" lon="-1.76644703373313">
        <ele>120.3</ele>
        <time>2019-09-07T13:23:06Z</time>
      </trkpt>
      <trkpt lat="55.244236998260021" lon="-1.766195995733142">
        <ele>119.81999999999999</ele>
        <time>2019-09-07T13:23:08Z</time>
      </trkpt>
      <trkpt lat="55.2441690210253" lon="-1.766054006293416">
        <ele>119.34</ele>
        <time>2019-09-07T13:23:09Z</time>
      </trkpt>
      <trkpt lat="55.244102971628308" lon="-1.765902964398265">
        <ele>118.86</ele>
        <time>2019-09-07T13:23:10Z</time>
      </trkpt>
      <trkpt lat="55.244039017707109" lon="-1.765756029635668">
        <ele>117.90000000000001</ele>
        <time>2019-09-07T13:23:11Z</time>
      </trkpt>
      <trkpt lat="55.243974979966879" lon="-1.76561001688242">
        <ele>117.42</ele>
        <time>2019-09-07T13:23:12Z</time>
      </trkpt>
      <trkpt lat="55.243909014388919" lon="-1.76546098664403">
        <ele>116.94</ele>
        <time>2019-09-07T13:23:13Z</time>
      </trkpt>
      <trkpt lat="55.243706004694104" lon="-1.764995036646724">
        <ele>115.5</ele>
        <time>2019-09-07T13:23:16Z</time>
      </trkpt>
      <trkpt lat="55.243636015802622" lon="-1.76483703777194">
        <ele>114.53</ele>
        <time>2019-09-07T13:23:17Z</time>
      </trkpt>
      <trkpt lat="55.242758011445403" lon="-1.76260300911963">
        <ele>104.44</ele>
        <time>2019-09-07T13:23:30Z</time>
      </trkpt>
      <trkpt lat="55.242032976821065" lon="-1.760572995990515">
        <ele>99.629999999999995</ele>
        <time>2019-09-07T13:23:39Z</time>
      </trkpt>
      <trkpt lat="55.241817981004715" lon="-1.760129006579518">
        <ele>98.670000000000002</ele>
        <time>2019-09-07T13:23:41Z</time>
      </trkpt>
      <trkpt lat="55.241688983514905" lon="-1.759925996884704">
        <ele>98.189999999999998</ele>
        <time>2019-09-07T13:23:42Z</time>
      </trkpt>
      <trkpt lat="55.240664966404438" lon="-1.758288005366921">
        <ele>96.75</ele>
        <time>2019-09-07T13:23:50Z</time>
      </trkpt>
      <trkpt lat="55.239094030112028" lon="-1.755548967048526">
        <ele>100.59999999999999</ele>
        <time>2019-09-07T13:24:02Z</time>
      </trkpt>
      <trkpt lat="55.237263003364205" lon="-1.753203039988875">
        <ele>108.29000000000001</ele>
        <time>2019-09-07T13:24:13Z</time>
      </trkpt>
      <trkpt lat="55.235036015510559" lon="-1.751083005219698">
        <ele>112.61</ele>
        <time>2019-09-07T13:24:25Z</time>
      </trkpt>
      <trkpt lat="55.234855972230434" lon="-1.750912014394999">
        <ele>113.09</ele>
        <time>2019-09-07T13:24:26Z</time>
      </trkpt>
      <trkpt lat="55.233322000131011" lon="-1.74911099486053">
        <ele>118.38</ele>
        <time>2019-09-07T13:24:35Z</time>
      </trkpt>
      <trkpt lat="55.232083993032575" lon="-1.747460011392832">
        <ele>127.98999999999999</ele>
        <time>2019-09-07T13:24:44Z</time>
      </trkpt>
      <trkpt lat="55.230645993724465" lon="-1.745863007381558">
        <ele>138.09</ele>
        <time>2019-09-07T13:24:54Z</time>
      </trkpt>
      <trkpt lat="55.228712037205696" lon="-1.744123008102179">
        <ele>140.97</ele>
        <time>2019-09-07T13:25:05Z</time>
      </trkpt>
      <trkpt lat="55.226305006071925" lon="-1.742571014910936">
        <ele>144.34</ele>
        <time>2019-09-07T13:25:17Z</time>
      </trkpt>
      <trkpt lat="55.224850997328758" lon="-1.74195502884686">
        <ele>146.74000000000001</ele>
        <time>2019-09-07T13:25:25Z</time>
      </trkpt>
      <trkpt lat="55.222438015043736" lon="-1.741569964215159">
        <ele>137.61000000000001</ele>
        <time>2019-09-07T13:25:37Z</time>
      </trkpt>
      <trkpt lat="55.221121972426772" lon="-1.740784998983145">
        <ele>131.36000000000001</ele>
        <time>2019-09-07T13:25:44Z</time>
      </trkpt>
      <trkpt lat="55.219534020870924" lon="-1.739380024373531">
        <ele>126.55</ele>
        <time>2019-09-07T13:25:53Z</time>
      </trkpt>
      <trkpt lat="55.217396970838308" lon="-1.73824000172317">
        <ele>117.90000000000001</ele>
        <time>2019-09-07T13:26:04Z</time>
      </trkpt>
      <trkpt lat="55.214638989418745" lon="-1.736961007118225">
        <ele>115.01000000000001</ele>
        <time>2019-09-07T13:26:19Z</time>
      </trkpt>
      <trkpt lat="55.212292978540063" lon="-1.735336007550359">
        <ele>110.20999999999999</ele>
        <time>2019-09-07T13:26:32Z</time>
      </trkpt>
      <trkpt lat="55.209411028772593" lon="-1.73301799222827">
        <ele>105.40000000000001</ele>
        <time>2019-09-07T13:26:47Z</time>
      </trkpt>
      <trkpt lat="55.206992011517286" lon="-1.731090992689133">
        <ele>115.98</ele>
        <time>2019-09-07T13:27:00Z</time>
      </trkpt>
      <trkpt lat="55.205236002802849" lon="-1.729569006711245">
        <ele>115.98</ele>
        <time>2019-09-07T13:27:10Z</time>
      </trkpt>
      <trkpt lat="55.203923983499408" lon="-1.72857197932899">
        <ele>111.65000000000001</ele>
        <time>2019-09-07T13:27:18Z</time>
      </trkpt>
      <trkpt lat="55.201358031481504" lon="-1.727191982790828">
        <ele>115.01000000000001</ele>
        <time>2019-09-07T13:27:32Z</time>
      </trkpt>
      <trkpt lat="55.198574988171458" lon="-1.725668990984559">
        <ele>124.63</ele>
        <time>2019-09-07T13:27:47Z</time>
      </trkpt>
      <trkpt lat="55.1977180223912" lon="-1.725014029070735">
        <ele>126.06999999999999</ele>
        <time>2019-09-07T13:27:54Z</time>
      </trkpt>
      <trkpt lat="55.196979995816946" lon="-1.724374992772937">
        <ele>125.11</ele>
        <time>2019-09-07T13:28:04Z</time>
      </trkpt>
      <trkpt lat="55.196073995903134" lon="-1.723478967323899">
        <ele>120.3</ele>
        <time>2019-09-07T13:28:15Z</time>
      </trkpt>
      <trkpt lat="55.195071017369628" lon="-1.722426032647491">
        <ele>115.98</ele>
        <time>2019-09-07T13:28:26Z</time>
      </trkpt>
      <trkpt lat="55.194735992699862" lon="-1.722299968823791">
        <ele>116.45999999999999</ele>
        <time>2019-09-07T13:28:30Z</time>
      </trkpt>
      <trkpt lat="55.194499958306551" lon="-1.722299968823791">
        <ele>115.01000000000001</ele>
        <time>2019-09-07T13:28:36Z</time>
      </trkpt>
      <trkpt lat="55.194438016042113" lon="-1.722299968823791">
        <ele>114.53</ele>
        <time>2019-09-07T13:28:43Z</time>
      </trkpt>
      <trkpt lat="55.194307006895542" lon="-1.722155967727304">
        <ele>113.56999999999999</ele>
        <time>2019-09-07T13:28:47Z</time>
      </trkpt>
      <trkpt lat="55.194247998297215" lon="-1.722073992714286">
        <ele>113.56999999999999</ele>
        <time>2019-09-07T13:28:48Z</time>
      </trkpt>
      <trkpt lat="55.193719016388059" lon="-1.721348036080599">
        <ele>112.13</ele>
        <time>2019-09-07T13:28:52Z</time>
      </trkpt>
      <trkpt lat="55.19243398681283" lon="-1.719060027971864">
        <ele>105.40000000000001</ele>
        <time>2019-09-07T13:29:01Z</time>
      </trkpt>
      <trkpt lat="55.191468978300691" lon="-1.71705599874258">
        <ele>98.189999999999998</ele>
        <time>2019-09-07T13:29:09Z</time>
      </trkpt>
      <trkpt lat="55.191238978877664" lon="-1.716578984633088">
        <ele>97.230000000000004</ele>
        <time>2019-09-07T13:29:11Z</time>
      </trkpt>
      <trkpt lat="55.191129008308053" lon="-1.716345967724919">
        <ele>97.230000000000004</ele>
        <time>2019-09-07T13:29:12Z</time>
      </trkpt>
      <trkpt lat="55.191024988889694" lon="-1.716124014928937">
        <ele>97.230000000000004</ele>
        <time>2019-09-07T13:29:13Z</time>
      </trkpt>
      <trkpt lat="55.190923986956477" lon="-1.715911030769348">
        <ele>97.230000000000004</ele>
        <time>2019-09-07T13:29:14Z</time>
      </trkpt>
      <trkpt lat="55.190826002508402" lon="-1.71570198610425">
        <ele>97.709999999999994</ele>
        <time>2019-09-07T13:29:15Z</time>
      </trkpt>
      <trkpt lat="55.190272964537144" lon="-1.714748963713646">
        <ele>97.230000000000004</ele>
        <time>2019-09-07T13:29:20Z</time>
      </trkpt>
      <trkpt lat="55.190129969269037" lon="-1.71460697427392">
        <ele>96.75</ele>
        <time>2019-09-07T13:29:21Z</time>
      </trkpt>
      <trkpt lat="55.18998202867806" lon="-1.714483005926013">
        <ele>96.269999999999996</ele>
        <time>2019-09-07T13:29:22Z</time>
      </trkpt>
      <trkpt lat="55.189816989004612" lon="-1.714446041733027">
        <ele>95.310000000000002</ele>
        <time>2019-09-07T13:29:23Z</time>
      </trkpt>
      <trkpt lat="55.189651027321815" lon="-1.714408993721008">
        <ele>94.829999999999998</ele>
        <time>2019-09-07T13:29:24Z</time>
      </trkpt>
      <trkpt lat="55.189485987648368" lon="-1.714445035904646">
        <ele>93.870000000000005</ele>
        <time>2019-09-07T13:29:25Z</time>
      </trkpt>
      <trkpt lat="55.189323965460062" lon="-1.714492980390787">
        <ele>93.390000000000001</ele>
        <time>2019-09-07T13:29:26Z</time>
      </trkpt>
      <trkpt lat="55.189165966585279" lon="-1.71458300203085">
        <ele>92.420000000000002</ele>
        <time>2019-09-07T13:29:27Z</time>
      </trkpt>
      <trkpt lat="55.189010985195637" lon="-1.714700013399124">
        <ele>91.939999999999998</ele>
        <time>2019-09-07T13:29:28Z</time>
      </trkpt>
      <trkpt lat="55.188859021291137" lon="-1.714814007282257">
        <ele>90.980000000000004</ele>
        <time>2019-09-07T13:29:29Z</time>
      </trkpt>
      <trkpt lat="55.188706973567605" lon="-1.71492800116539">
        <ele>90.019999999999996</ele>
        <time>2019-09-07T13:29:30Z</time>
      </trkpt>
      <trkpt lat="55.188549980521202" lon="-1.715035960078239">
        <ele>89.540000000000006</ele>
        <time>2019-09-07T13:29:31Z</time>
      </trkpt>
      <trkpt lat="55.187933994457126" lon="-1.715303007513285">
        <ele>86.180000000000007</ele>
        <time>2019-09-07T13:29:35Z</time>
      </trkpt>
      <trkpt lat="55.186234982684255" lon="-1.715539041906595">
        <ele>79.930000000000007</ele>
        <time>2019-09-07T13:29:44Z</time>
      </trkpt>
      <trkpt lat="55.1832589879632" lon="-1.715685976669192">
        <ele>76.079999999999998</ele>
        <time>2019-09-07T13:29:58Z</time>
      </trkpt>
      <trkpt lat="55.181343974545598" lon="-1.715820003300905">
        <ele>79.450000000000003</ele>
        <time>2019-09-07T13:30:08Z</time>
      </trkpt>
      <trkpt lat="55.179529041051865" lon="-1.716257035732269">
        <ele>79.930000000000007</ele>
        <time>2019-09-07T13:30:19Z</time>
      </trkpt>
      <trkpt lat="55.177732966840267" lon="-1.717044012621045">
        <ele>75.599999999999994</ele>
        <time>2019-09-07T13:30:30Z</time>
      </trkpt>
      <trkpt lat="55.176423965021968" lon="-1.717737028375268">
        <ele>67.909999999999997</ele>
        <time>2019-09-07T13:30:39Z</time>
      </trkpt>
      <trkpt lat="55.176091035827994" lon="-1.717831995338202">
        <ele>65.989999999999995</ele>
        <time>2019-09-07T13:30:42Z</time>
      </trkpt>
      <trkpt lat="55.176011994481087" lon="-1.717810034751892">
        <ele>65.510000000000005</ele>
        <time>2019-09-07T13:30:43Z</time>
      </trkpt>
      <trkpt lat="55.175936976447701" lon="-1.717772986739874">
        <ele>65.030000000000001</ele>
        <time>2019-09-07T13:30:44Z</time>
      </trkpt>
      <trkpt lat="55.175849972292781" lon="-1.71772101894021">
        <ele>65.030000000000001</ele>
        <time>2019-09-07T13:30:45Z</time>
      </trkpt>
      <trkpt lat="55.175830023363233" lon="-1.717600990086794">
        <ele>65.030000000000001</ele>
        <time>2019-09-07T13:30:46Z</time>
      </trkpt>
      <trkpt lat="55.175821976736188" lon="-1.717451037839055">
        <ele>65.030000000000001</ele>
        <time>2019-09-07T13:30:47Z</time>
      </trkpt>
      <trkpt lat="55.175814013928175" lon="-1.717287003993988">
        <ele>64.549999999999997</ele>
        <time>2019-09-07T13:30:48Z</time>
      </trkpt>
      <trkpt lat="55.175833040848374" lon="-1.717094974592328">
        <ele>64.549999999999997</ele>
        <time>2019-09-07T13:30:49Z</time>
      </trkpt>
      <trkpt lat="55.17588903196156" lon="-1.716921972110868">
        <ele>64.549999999999997</ele>
        <time>2019-09-07T13:30:50Z</time>
      </trkpt>
      <trkpt lat="55.175950974225998" lon="-1.716730026528239">
        <ele>64.549999999999997</ele>
        <time>2019-09-07T13:30:51Z</time>
      </trkpt>
      <trkpt lat="55.176022974774241" lon="-1.716506984084845">
        <ele>64.549999999999997</ele>
        <time>2019-09-07T13:30:52Z</time>
      </trkpt>
      <trkpt lat="55.176987983286381" lon="-1.714857006445527">
        <ele>65.030000000000001</ele>
        <time>2019-09-07T13:31:01Z</time>
      </trkpt>
      <trkpt lat="55.178300002589822" lon="-1.712617026641965">
        <ele>63.579999999999998</ele>
        <time>2019-09-07T13:31:13Z</time>
      </trkpt>
      <trkpt lat="55.178728988394141" lon="-1.711194030940533">
        <ele>62.140000000000001</ele>
        <time>2019-09-07T13:31:21Z</time>
      </trkpt>
      <trkpt lat="55.178770981729031" lon="-1.711084982380271">
        <ele>62.140000000000001</ele>
        <time>2019-09-07T13:31:22Z</time>
      </trkpt>
      <trkpt lat="55.178801994770765" lon="-1.711036032065749">
        <ele>62.619999999999997</ele>
        <time>2019-09-07T13:31:23Z</time>
      </trkpt>
      <trkpt lat="55.178823033347726" lon="-1.711004013195634">
        <ele>62.619999999999997</ele>
        <time>2019-09-07T13:31:24Z</time>
      </trkpt>
      <trkpt lat="55.178838958963752" lon="-1.710979035124183">
        <ele>62.619999999999997</ele>
        <time>2019-09-07T13:31:25Z</time>
      </trkpt>
      <trkpt lat="55.178857985883951" lon="-1.710949027910829">
        <ele>62.619999999999997</ele>
        <time>2019-09-07T13:31:26Z</time>
      </trkpt>
      <trkpt lat="55.178888998925686" lon="-1.710900999605656">
        <ele>62.619999999999997</ele>
        <time>2019-09-07T13:31:27Z</time>
      </trkpt>
      <trkpt lat="55.178968040272593" lon="-1.710834028199315">
        <ele>63.100000000000001</ele>
        <time>2019-09-07T13:31:28Z</time>
      </trkpt>
      <trkpt lat="55.179031994193792" lon="-1.71090804040432">
        <ele>63.100000000000001</ele>
        <time>2019-09-07T13:31:29Z</time>
      </trkpt>
      <trkpt lat="55.179093014448881" lon="-1.710992027074099">
        <ele>63.100000000000001</ele>
        <time>2019-09-07T13:31:30Z</time>
      </trkpt>
      <trkpt lat="55.179166020825505" lon="-1.711111972108483">
        <ele>63.100000000000001</ele>
        <time>2019-09-07T13:31:31Z</time>
      </trkpt>
      <trkpt lat="55.179218994453549" lon="-1.711281035095453">
        <ele>63.579999999999998</ele>
        <time>2019-09-07T13:31:32Z</time>
      </trkpt>
      <trkpt lat="55.179278003051877" lon="-1.71146702952683">
        <ele>64.069999999999993</ele>
        <time>2019-09-07T13:31:33Z</time>
      </trkpt>
      <trkpt lat="55.179339023306966" lon="-1.71166299842298">
        <ele>64.549999999999997</ele>
        <time>2019-09-07T13:31:34Z</time>
      </trkpt>
      <trkpt lat="55.179404988884926" lon="-1.71185402199626">
        <ele>65.030000000000001</ele>
        <time>2019-09-07T13:31:35Z</time>
      </trkpt>
      <trkpt lat="55.180086018517613" lon="-1.713149026036263">
        <ele>67.909999999999997</ele>
        <time>2019-09-07T13:31:44Z</time>
      </trkpt>
      <trkpt lat="55.180555991828442" lon="-1.714041028171778">
        <ele>69.829999999999998</ele>
        <time>2019-09-07T13:31:53Z</time>
      </trkpt>
      <trkpt lat="55.180622963234782" lon="-1.714169019833207">
        <ele>70.310000000000002</ele>
        <time>2019-09-07T13:31:55Z</time>
      </trkpt>
      <trkpt lat="55.180646013468504" lon="-1.714211013168097">
        <ele>70.790000000000006</ele>
        <time>2019-09-07T13:31:56Z</time>
      </trkpt>
      <trkpt lat="55.180661017075181" lon="-1.71424001455307">
        <ele>70.790000000000006</ele>
        <time>2019-09-07T13:31:57Z</time>
      </trkpt>
      <trkpt lat="55.180670991539955" lon="-1.714259963482618">
        <ele>71.269999999999996</ele>
        <time>2019-09-07T13:31:58Z</time>
      </trkpt>
      <trkpt lat="55.180679038167" lon="-1.714274967089295">
        <ele>71.269999999999996</ele>
        <time>2019-09-07T13:31:59Z</time>
      </trkpt>
      <trkpt lat="55.180798983201385" lon="-1.714173965156078">
        <ele>71.760000000000005</ele>
        <time>2019-09-07T13:32:01Z</time>
      </trkpt>
      <trkpt lat="55.18085396848619" lon="-1.714054020121694">
        <ele>71.760000000000005</ele>
        <time>2019-09-07T13:32:13Z</time>
      </trkpt>
      <trkpt lat="55.18085396848619" lon="-1.714054020121694">
        <ele>71.760000000000005</ele>
        <time>2019-09-07T13:32:14Z</time>
      </trkpt>
      <trkpt lat="55.180836031213403" lon="-1.713914964348078">
        <ele>71.269999999999996</ele>
        <time>2019-09-07T13:32:28Z</time>
      </trkpt>
      <trkpt lat="55.18081096932292" lon="-1.713891997933388">
        <ele>70.790000000000006</ele>
        <time>2019-09-07T13:32:34Z</time>
      </trkpt>
      <trkpt lat="55.180676020681858" lon="-1.713867019861937">
        <ele>69.829999999999998</ele>
        <time>2019-09-07T13:32:45Z</time>
      </trkpt>
      <trkpt lat="55.180636961013079" lon="-1.713682031258941">
        <ele>71.269999999999996</ele>
        <time>2019-09-07T13:33:11Z</time>
      </trkpt>
      <trkpt lat="55.180666968226433" lon="-1.713570971041918">
        <ele>69.349999999999994</ele>
        <time>2019-09-07T13:33:21Z</time>
      </trkpt>
      <trkpt lat="55.180649030953646" lon="-1.713600978255272">
        <ele>69.829999999999998</ele>
        <time>2019-09-07T13:36:38Z</time>
      </trkpt>
      <trkpt lat="55.180651964619756" lon="-1.713511040434241">
        <ele>75.599999999999994</ele>
        <time>2019-09-07T13:37:08Z</time>
      </trkpt>
      <trkpt lat="55.180673003196716" lon="-1.713555967435241">
        <ele>72.239999999999995</ele>
        <time>2019-09-07T13:38:03Z</time>
      </trkpt>
      <trkpt lat="55.180666968226433" lon="-1.713558984920383">
        <ele>74.159999999999997</ele>
        <time>2019-09-07T13:39:02Z</time>
      </trkpt>
      <trkpt lat="55.180667974054813" lon="-1.713555967435241">
        <ele>73.680000000000007</ele>
        <time>2019-09-07T13:39:57Z</time>
      </trkpt>
      <trkpt lat="55.180666968226433" lon="-1.71355102211237">
        <ele>73.680000000000007</ele>
        <time>2019-09-07T13:41:00Z</time>
      </trkpt>
      <trkpt lat="55.180668979883194" lon="-1.713550016283989">
        <ele>73.680000000000007</ele>
        <time>2019-09-07T13:41:50Z</time>
      </trkpt>
      <trkpt lat="55.180711979046464" lon="-1.713548004627228">
        <ele>73.680000000000007</ele>
        <time>2019-09-07T13:42:00Z</time>
      </trkpt>
      <trkpt lat="55.180776016786695" lon="-1.713665015995503">
        <ele>73.200000000000003</ele>
        <time>2019-09-07T13:42:08Z</time>
      </trkpt>
      <trkpt lat="55.180685995146632" lon="-1.713942037895322">
        <ele>71.760000000000005</ele>
        <time>2019-09-07T13:42:22Z</time>
      </trkpt>
      <trkpt lat="55.180689012631774" lon="-1.713958969339728">
        <ele>72.239999999999995</ele>
        <time>2019-09-07T13:42:55Z</time>
      </trkpt>
      <trkpt lat="55.180683983489871" lon="-1.713953018188477">
        <ele>72.239999999999995</ele>
        <time>2019-09-07T13:43:24Z</time>
      </trkpt>
      <trkpt lat="55.180683983489871" lon="-1.713953018188477">
        <ele>72.239999999999995</ele>
        <time>2019-09-07T13:43:40Z</time>
      </trkpt>
      <trkpt lat="55.180819015949965" lon="-1.714014960452914">
        <ele>73.200000000000003</ele>
        <time>2019-09-07T13:43:52Z</time>
      </trkpt>
      <trkpt lat="55.18072597682476" lon="-1.714317966252565">
        <ele>73.680000000000007</ele>
        <time>2019-09-07T13:43:57Z</time>
      </trkpt>
      <trkpt lat="55.180700998753309" lon="-1.714296005666256">
        <ele>73.680000000000007</ele>
        <time>2019-09-07T13:43:58Z</time>
      </trkpt>
      <trkpt lat="55.180679038167" lon="-1.714274967089295">
        <ele>73.680000000000007</ele>
        <time>2019-09-07T13:43:59Z</time>
      </trkpt>
      <trkpt lat="55.180606031790376" lon="-1.714135995134711">
        <ele>73.200000000000003</ele>
        <time>2019-09-07T13:44:00Z</time>
      </trkpt>
      <trkpt lat="55.180550962686539" lon="-1.714031975716353">
        <ele>73.200000000000003</ele>
        <time>2019-09-07T13:44:01Z</time>
      </trkpt>
      <trkpt lat="55.180489020422101" lon="-1.713913958519697">
        <ele>73.200000000000003</ele>
        <time>2019-09-07T13:44:02Z</time>
      </trkpt>
      <trkpt lat="55.180109990760684" lon="-1.713194036856294">
        <ele>72.239999999999995</ele>
        <time>2019-09-07T13:44:07Z</time>
      </trkpt>
      <trkpt lat="55.180023992434144" lon="-1.713031008839607">
        <ele>71.760000000000005</ele>
        <time>2019-09-07T13:44:08Z</time>
      </trkpt>
      <trkpt lat="55.179272973909974" lon="-1.711450014263392">
        <ele>65.989999999999995</ele>
        <time>2019-09-07T13:44:17Z</time>
      </trkpt>
      <trkpt lat="55.179155962541699" lon="-1.711078025400639">
        <ele>65.510000000000005</ele>
        <time>2019-09-07T13:44:20Z</time>
      </trkpt>
      <trkpt lat="55.179152023047209" lon="-1.711008958518505">
        <ele>65.030000000000001</ele>
        <time>2019-09-07T13:44:21Z</time>
      </trkpt>
      <trkpt lat="55.179150011390448" lon="-1.710971994325519">
        <ele>65.030000000000001</ele>
        <time>2019-09-07T13:44:22Z</time>
      </trkpt>
      <trkpt lat="55.179146993905306" lon="-1.710914997383952">
        <ele>65.030000000000001</ele>
        <time>2019-09-07T13:44:35Z</time>
      </trkpt>
      <trkpt lat="55.179141964763403" lon="-1.710823969915509">
        <ele>65.030000000000001</ele>
        <time>2019-09-07T13:44:39Z</time>
      </trkpt>
      <trkpt lat="55.179137019440532" lon="-1.710726991295815">
        <ele>64.549999999999997</ele>
        <time>2019-09-07T13:44:40Z</time>
      </trkpt>
      <trkpt lat="55.179166020825505" lon="-1.710433959960938">
        <ele>64.549999999999997</ele>
        <time>2019-09-07T13:44:42Z</time>
      </trkpt>
      <trkpt lat="55.179137019440532" lon="-1.710315020754933">
        <ele>64.549999999999997</ele>
        <time>2019-09-07T13:44:43Z</time>
      </trkpt>
      <trkpt lat="55.179069964215159" lon="-1.710187029093504">
        <ele>64.069999999999993</ele>
        <time>2019-09-07T13:44:44Z</time>
      </trkpt>
      <trkpt lat="55.179002992808819" lon="-1.71013698913157">
        <ele>63.579999999999998</ele>
        <time>2019-09-07T13:44:45Z</time>
      </trkpt>
      <trkpt lat="55.178902996703982" lon="-1.710118968039751">
        <ele>63.579999999999998</ele>
        <time>2019-09-07T13:44:46Z</time>
      </trkpt>
      <trkpt lat="55.178854968398809" lon="-1.710155010223389">
        <ele>63.100000000000001</ele>
        <time>2019-09-07T13:44:47Z</time>
      </trkpt>
      <trkpt lat="55.178791014477611" lon="-1.710304962471128">
        <ele>63.100000000000001</ele>
        <time>2019-09-07T13:44:48Z</time>
      </trkpt>
      <trkpt lat="55.178775005042553" lon="-1.710460027679801">
        <ele>62.619999999999997</ele>
        <time>2019-09-07T13:44:49Z</time>
      </trkpt>
      <trkpt lat="55.178789002820849" lon="-1.710650967434049">
        <ele>62.619999999999997</ele>
        <time>2019-09-07T13:44:50Z</time>
      </trkpt>
      <trkpt lat="55.17876997590065" lon="-1.710863029584289">
        <ele>62.619999999999997</ele>
        <time>2019-09-07T13:44:51Z</time>
      </trkpt>
      <trkpt lat="55.178751032799482" lon="-1.711080959066749">
        <ele>62.619999999999997</ele>
        <time>2019-09-07T13:44:52Z</time>
      </trkpt>
      <trkpt lat="55.178703004494309" lon="-1.711299978196621">
        <ele>63.100000000000001</ele>
        <time>2019-09-07T13:44:53Z</time>
      </trkpt>
      <trkpt lat="55.178649025037885" lon="-1.711516985669732">
        <ele>63.100000000000001</ele>
        <time>2019-09-07T13:44:54Z</time>
      </trkpt>
      <trkpt lat="55.178079977631569" lon="-1.713180039077997">
        <ele>64.069999999999993</ele>
        <time>2019-09-07T13:45:01Z</time>
      </trkpt>
      <trkpt lat="55.17719803377986" lon="-1.714564980939031">
        <ele>66.469999999999999</ele>
        <time>2019-09-07T13:45:08Z</time>
      </trkpt>
      <trkpt lat="55.176197988912463" lon="-1.716128038242459">
        <ele>65.989999999999995</ele>
        <time>2019-09-07T13:45:18Z</time>
      </trkpt>
      <trkpt lat="55.175749976187944" lon="-1.717326985672116">
        <ele>65.510000000000005</ele>
        <time>2019-09-07T13:45:26Z</time>
      </trkpt>
      <trkpt lat="55.175704965367913" lon="-1.717447014525533">
        <ele>65.510000000000005</ele>
        <time>2019-09-07T13:45:27Z</time>
      </trkpt>
      <trkpt lat="55.175635982304811" lon="-1.717557990923524">
        <ele>65.510000000000005</ele>
        <time>2019-09-07T13:45:28Z</time>
      </trkpt>
      <trkpt lat="55.175559958443046" lon="-1.71763502061367">
        <ele>65.510000000000005</ele>
        <time>2019-09-07T13:45:29Z</time>
      </trkpt>
      <trkpt lat="55.175527017563581" lon="-1.717752031981945">
        <ele>65.510000000000005</ele>
        <time>2019-09-07T13:45:30Z</time>
      </trkpt>
      <trkpt lat="55.175485024228692" lon="-1.717911036685109">
        <ele>65.510000000000005</ele>
        <time>2019-09-07T13:45:31Z</time>
      </trkpt>
      <trkpt lat="55.175436995923519" lon="-1.718070041388273">
        <ele>65.030000000000001</ele>
        <time>2019-09-07T13:45:32Z</time>
      </trkpt>
      <trkpt lat="55.175383016467094" lon="-1.718246983364224">
        <ele>65.030000000000001</ele>
        <time>2019-09-07T13:45:33Z</time>
      </trkpt>
      <trkpt lat="55.175315961241722" lon="-1.718423003330827">
        <ele>65.030000000000001</ele>
        <time>2019-09-07T13:45:34Z</time>
      </trkpt>
      <trkpt lat="55.175232980400324" lon="-1.718605980277062">
        <ele>65.030000000000001</ele>
        <time>2019-09-07T13:45:35Z</time>
      </trkpt>
      <trkpt lat="55.175142036750913" lon="-1.718789963051677">
        <ele>65.030000000000001</ele>
        <time>2019-09-07T13:45:36Z</time>
      </trkpt>
      <trkpt lat="55.175025025382638" lon="-1.718950979411602">
        <ele>65.510000000000005</ele>
        <time>2019-09-07T13:45:37Z</time>
      </trkpt>
      <trkpt lat="55.173564981669188" lon="-1.720812013372779">
        <ele>64.069999999999993</ele>
        <time>2019-09-07T13:45:48Z</time>
      </trkpt>
      <trkpt lat="55.17176304012537" lon="-1.72231899574399">
        <ele>58.780000000000001</ele>
        <time>2019-09-07T13:45:58Z</time>
      </trkpt>
      <trkpt lat="55.169506967067719" lon="-1.723923040553927">
        <ele>50.609999999999999</ele>
        <time>2019-09-07T13:46:10Z</time>
      </trkpt>
      <trkpt lat="55.167495980858803" lon="-1.724624019116163">
        <ele>44.359999999999999</ele>
        <time>2019-09-07T13:46:19Z</time>
      </trkpt>
      <trkpt lat="55.165659002959728" lon="-1.724706999957562">
        <ele>41.950000000000003</ele>
        <time>2019-09-07T13:46:26Z</time>
      </trkpt>
      <trkpt lat="55.164430970326066" lon="-1.724426038563252">
        <ele>43.880000000000003</ele>
        <time>2019-09-07T13:46:32Z</time>
      </trkpt>
      <trkpt lat="55.162735981866717" lon="-1.723594972863793">
        <ele>46.759999999999998</ele>
        <time>2019-09-07T13:46:41Z</time>
      </trkpt>
      <trkpt lat="55.160794984549284" lon="-1.721924040466547">
        <ele>53.490000000000002</ele>
        <time>2019-09-07T13:46:51Z</time>
      </trkpt>
      <trkpt lat="55.158980973064899" lon="-1.719682971015573">
        <ele>60.700000000000003</ele>
        <time>2019-09-07T13:47:01Z</time>
      </trkpt>
      <trkpt lat="55.156076978892088" lon="-1.715912958607078">
        <ele>73.680000000000007</ele>
        <time>2019-09-07T13:47:16Z</time>
      </trkpt>
      <trkpt lat="55.154252992942929" lon="-1.713544987142086">
        <ele>79.930000000000007</ele>
        <time>2019-09-07T13:47:26Z</time>
      </trkpt>
      <trkpt lat="55.152117032557726" lon="-1.710710981860757">
        <ele>85.689999999999998</ele>
        <time>2019-09-07T13:47:38Z</time>
      </trkpt>
      <trkpt lat="55.149793988093734" lon="-1.706897970288992">
        <ele>86.659999999999997</ele>
        <time>2019-09-07T13:47:52Z</time>
      </trkpt>
      <trkpt lat="55.147760035470128" lon="-1.702763009816408">
        <ele>84.730000000000004</ele>
        <time>2019-09-07T13:48:05Z</time>
      </trkpt>
      <trkpt lat="55.145212020725012" lon="-1.697517028078437">
        <ele>84.25</ele>
        <time>2019-09-07T13:48:21Z</time>
      </trkpt>
      <trkpt lat="55.142509024590254" lon="-1.691952031105757">
        <ele>85.209999999999994</ele>
        <time>2019-09-07T13:48:38Z</time>
      </trkpt>
      <trkpt lat="55.14043802395463" lon="-1.687673991546035">
        <ele>83.769999999999996</ele>
        <time>2019-09-07T13:48:51Z</time>
      </trkpt>
      <trkpt lat="55.138859041035175" lon="-1.684366995468736">
        <ele>81.849999999999994</ele>
        <time>2019-09-07T13:49:01Z</time>
      </trkpt>
      <trkpt lat="55.136641021817923" lon="-1.680217031389475">
        <ele>79.930000000000007</ele>
        <time>2019-09-07T13:49:14Z</time>
      </trkpt>
      <trkpt lat="55.134902028366923" lon="-1.678173020482063">
        <ele>78</ele>
        <time>2019-09-07T13:49:22Z</time>
      </trkpt>
      <trkpt lat="55.132943009957671" lon="-1.676964014768601">
        <ele>76.560000000000002</ele>
        <time>2019-09-07T13:49:30Z</time>
      </trkpt>
      <trkpt lat="55.130759021267295" lon="-1.676249960437417">
        <ele>73.200000000000003</ele>
        <time>2019-09-07T13:49:39Z</time>
      </trkpt>
      <trkpt lat="55.127840023487806" lon="-1.675281012430787">
        <ele>68.870000000000005</ele>
        <time>2019-09-07T13:49:51Z</time>
      </trkpt>
      <trkpt lat="55.125427041202784" lon="-1.674348022788763">
        <ele>67.430000000000007</ele>
        <time>2019-09-07T13:49:59Z</time>
      </trkpt>
      <trkpt lat="55.123284040018916" lon="-1.673125019297004">
        <ele>66.950000000000003</ele>
        <time>2019-09-07T13:50:07Z</time>
      </trkpt>
      <trkpt lat="55.120896035805345" lon="-1.671479986980557">
        <ele>66.950000000000003</ele>
        <time>2019-09-07T13:50:17Z</time>
      </trkpt>
      <trkpt lat="55.117865977808833" lon="-1.669347966089845">
        <ele>66.469999999999999</ele>
        <time>2019-09-07T13:50:30Z</time>
      </trkpt>
      <trkpt lat="55.115089975297451" lon="-1.66740202344954">
        <ele>66.469999999999999</ele>
        <time>2019-09-07T13:50:41Z</time>
      </trkpt>
      <trkpt lat="55.111290039494634" lon="-1.664822995662689">
        <ele>59.740000000000002</ele>
        <time>2019-09-07T13:50:54Z</time>
      </trkpt>
      <trkpt lat="55.109131028875709" lon="-1.663732007145882">
        <ele>56.859999999999999</ele>
        <time>2019-09-07T13:51:01Z</time>
      </trkpt>
      <trkpt lat="55.107024991884828" lon="-1.663531009107828">
        <ele>54.450000000000003</ele>
        <time>2019-09-07T13:51:08Z</time>
      </trkpt>
      <trkpt lat="55.104834968224168" lon="-1.663655983284116">
        <ele>53.490000000000002</ele>
        <time>2019-09-07T13:51:16Z</time>
      </trkpt>
      <trkpt lat="55.103127993643284" lon="-1.663390025496483">
        <ele>51.57</ele>
        <time>2019-09-07T13:51:23Z</time>
      </trkpt>
      <trkpt lat="55.100207990035415" lon="-1.661863010376692">
        <ele>47.719999999999999</ele>
        <time>2019-09-07T13:51:35Z</time>
      </trkpt>
      <trkpt lat="55.09766299277544" lon="-1.6605260130018">
        <ele>45.32</ele>
        <time>2019-09-07T13:51:46Z</time>
      </trkpt>
      <trkpt lat="55.094516007229686" lon="-1.658814009279013">
        <ele>56.859999999999999</ele>
        <time>2019-09-07T13:52:01Z</time>
      </trkpt>
      <trkpt lat="55.092130014672875" lon="-1.657111980021">
        <ele>66.469999999999999</ele>
        <time>2019-09-07T13:52:12Z</time>
      </trkpt>
      <trkpt lat="55.089784003794193" lon="-1.654788013547659">
        <ele>75.120000000000005</ele>
        <time>2019-09-07T13:52:23Z</time>
      </trkpt>
      <trkpt lat="55.086822006851435" lon="-1.651004003360868">
        <ele>80.890000000000001</ele>
        <time>2019-09-07T13:52:38Z</time>
      </trkpt>
      <trkpt lat="55.08429997600615" lon="-1.648404020816088">
        <ele>85.209999999999994</ele>
        <time>2019-09-07T13:52:50Z</time>
      </trkpt>
      <trkpt lat="55.081718014553189" lon="-1.646659998223186">
        <ele>87.620000000000005</ele>
        <time>2019-09-07T13:53:01Z</time>
      </trkpt>
      <trkpt lat="55.078357961028814" lon="-1.64464901201427">
        <ele>82.810000000000002</ele>
        <time>2019-09-07T13:53:15Z</time>
      </trkpt>
      <trkpt lat="55.074987011030316" lon="-1.642614975571632">
        <ele>78.480000000000004</ele>
        <time>2019-09-07T13:53:30Z</time>
      </trkpt>
      <trkpt lat="55.073080966249108" lon="-1.641464978456497">
        <ele>74.640000000000001</ele>
        <time>2019-09-07T13:53:40Z</time>
      </trkpt>
      <trkpt lat="55.07029096595943" lon="-1.639827992767096">
        <ele>70.790000000000006</ele>
        <time>2019-09-07T13:53:53Z</time>
      </trkpt>
      <trkpt lat="55.068078981712461" lon="-1.638709008693695">
        <ele>69.829999999999998</ele>
        <time>2019-09-07T13:54:03Z</time>
      </trkpt>
      <trkpt lat="55.06595098413527" lon="-1.637382991611958">
        <ele>67.430000000000007</ele>
        <time>2019-09-07T13:54:14Z</time>
      </trkpt>
      <trkpt lat="55.065227961167693" lon="-1.636741021648049">
        <ele>69.349999999999994</ele>
        <time>2019-09-07T13:54:20Z</time>
      </trkpt>
      <trkpt lat="55.065108016133308" lon="-1.636563995853066">
        <ele>69.829999999999998</ele>
        <time>2019-09-07T13:54:22Z</time>
      </trkpt>
      <trkpt lat="55.0650670286268" lon="-1.636456036940217">
        <ele>69.829999999999998</ele>
        <time>2019-09-07T13:54:23Z</time>
      </trkpt>
      <trkpt lat="55.065026041120291" lon="-1.636349000036717">
        <ele>69.829999999999998</ele>
        <time>2019-09-07T13:54:24Z</time>
      </trkpt>
      <trkpt lat="55.064985975623131" lon="-1.636241963133216">
        <ele>69.349999999999994</ele>
        <time>2019-09-07T13:54:25Z</time>
      </trkpt>
      <trkpt lat="55.064946999773383" lon="-1.636116988956928">
        <ele>69.829999999999998</ele>
        <time>2019-09-07T13:54:26Z</time>
      </trkpt>
      <trkpt lat="55.064916992560029" lon="-1.635978017002344">
        <ele>69.829999999999998</ele>
        <time>2019-09-07T13:54:27Z</time>
      </trkpt>
      <trkpt lat="55.064892014488578" lon="-1.635812977328897">
        <ele>69.829999999999998</ele>
        <time>2019-09-07T13:54:28Z</time>
      </trkpt>
      <trkpt lat="55.064886985346675" lon="-1.635648021474481">
        <ele>70.310000000000002</ele>
        <time>2019-09-07T13:54:29Z</time>
      </trkpt>
      <trkpt lat="55.064882040023804" lon="-1.635483987629414">
        <ele>70.310000000000002</ele>
        <time>2019-09-07T13:54:30Z</time>
      </trkpt>
      <trkpt lat="55.065012965351343" lon="-1.633940963074565">
        <ele>70.790000000000006</ele>
        <time>2019-09-07T13:54:39Z</time>
      </trkpt>
      <trkpt lat="55.065037021413445" lon="-1.633785981684923">
        <ele>70.790000000000006</ele>
        <time>2019-09-07T13:54:40Z</time>
      </trkpt>
      <trkpt lat="55.065080020576715" lon="-1.633666036650538">
        <ele>70.790000000000006</ele>
        <time>2019-09-07T13:54:41Z</time>
      </trkpt>
      <trkpt lat="55.065124025568366" lon="-1.633569980040193">
        <ele>70.790000000000006</ele>
        <time>2019-09-07T13:54:42Z</time>
      </trkpt>
      <trkpt lat="55.065169036388397" lon="-1.633471995592117">
        <ele>70.790000000000006</ele>
        <time>2019-09-07T13:54:43Z</time>
      </trkpt>
      <trkpt lat="55.065280012786388" lon="-1.633444000035524">
        <ele>70.790000000000006</ele>
        <time>2019-09-07T13:54:44Z</time>
      </trkpt>
      <trkpt lat="55.065400963649154" lon="-1.633282983675599">
        <ele>70.790000000000006</ele>
        <time>2019-09-07T13:54:46Z</time>
      </trkpt>
      <trkpt lat="55.065472964197397" lon="-1.633186005055904">
        <ele>70.790000000000006</ele>
        <time>2019-09-07T13:54:47Z</time>
      </trkpt>
      <trkpt lat="55.065517975017428" lon="-1.633062958717346">
        <ele>70.310000000000002</ele>
        <time>2019-09-07T13:54:49Z</time>
      </trkpt>
      <trkpt lat="55.065571032464504" lon="-1.63274603895843">
        <ele>70.310000000000002</ele>
        <time>2019-09-07T13:54:50Z</time>
      </trkpt>
      <trkpt lat="55.065572038292885" lon="-1.632562978193164">
        <ele>70.310000000000002</ele>
        <time>2019-09-07T13:54:51Z</time>
      </trkpt>
      <trkpt lat="55.065537001937628" lon="-1.632374972105026">
        <ele>70.310000000000002</ele>
        <time>2019-09-07T13:54:52Z</time>
      </trkpt>
      <trkpt lat="55.065484028309584" lon="-1.632190989330411">
        <ele>70.310000000000002</ele>
        <time>2019-09-07T13:54:53Z</time>
      </trkpt>
      <trkpt lat="55.065422002226114" lon="-1.631997032091022">
        <ele>69.829999999999998</ele>
        <time>2019-09-07T13:54:54Z</time>
      </trkpt>
      <trkpt lat="55.065374979749322" lon="-1.631807014346123">
        <ele>69.829999999999998</ele>
        <time>2019-09-07T13:54:55Z</time>
      </trkpt>
      <trkpt lat="55.065365005284548" lon="-1.631590006873012">
        <ele>69.349999999999994</ele>
        <time>2019-09-07T13:54:56Z</time>
      </trkpt>
      <trkpt lat="55.065373973920941" lon="-1.631388003006578">
        <ele>69.349999999999994</ele>
        <time>2019-09-07T13:54:57Z</time>
      </trkpt>
      <trkpt lat="55.065401969477534" lon="-1.631182981655002">
        <ele>69.349999999999994</ele>
        <time>2019-09-07T13:54:58Z</time>
      </trkpt>
      <trkpt lat="55.065430970862508" lon="-1.630967985838652">
        <ele>69.349999999999994</ele>
        <time>2019-09-07T13:54:59Z</time>
      </trkpt>
      <trkpt lat="55.065673040226102" lon="-1.629212982952595">
        <ele>68.390000000000001</ele>
        <time>2019-09-07T13:55:05Z</time>
      </trkpt>
      <trkpt lat="55.066110994666815" lon="-1.626185020431876">
        <ele>66.950000000000003</ele>
        <time>2019-09-07T13:55:12Z</time>
      </trkpt>
      <trkpt lat="55.066820019856095" lon="-1.620131023228169">
        <ele>64.549999999999997</ele>
        <time>2019-09-07T13:55:25Z</time>
      </trkpt>
      <trkpt lat="55.067073991522193" lon="-1.614853022620082">
        <ele>62.140000000000001</ele>
        <time>2019-09-07T13:55:36Z</time>
      </trkpt>
      <trkpt lat="55.067103998735547" lon="-1.60945599898696">
        <ele>59.259999999999998</ele>
        <time>2019-09-07T13:55:47Z</time>
      </trkpt>
      <trkpt lat="55.067095030099154" lon="-1.604781998321414">
        <ele>58.299999999999997</ele>
        <time>2019-09-07T13:55:58Z</time>
      </trkpt>
      <trkpt lat="55.067082038149238" lon="-1.599604999646545">
        <ele>55.409999999999997</ele>
        <time>2019-09-07T13:56:10Z</time>
      </trkpt>
      <trkpt lat="55.066998973488808" lon="-1.593457041308284">
        <ele>55.890000000000001</ele>
        <time>2019-09-07T13:56:23Z</time>
      </trkpt>
      <trkpt lat="55.066795041784644" lon="-1.588909020647407">
        <ele>56.369999999999997</ele>
        <time>2019-09-07T13:56:33Z</time>
      </trkpt>
      <trkpt lat="55.066544003784657" lon="-1.586147015914321">
        <ele>54.93</ele>
        <time>2019-09-07T13:56:40Z</time>
      </trkpt>
      <trkpt lat="55.066317021846771" lon="-1.584273995831609">
        <ele>54.93</ele>
        <time>2019-09-07T13:56:47Z</time>
      </trkpt>
      <trkpt lat="55.066048968583345" lon="-1.582397036254406">
        <ele>53.009999999999998</ele>
        <time>2019-09-07T13:56:57Z</time>
      </trkpt>
      <trkpt lat="55.065789967775345" lon="-1.580695006996393">
        <ele>53.969999999999999</ele>
        <time>2019-09-07T13:57:04Z</time>
      </trkpt>
      <trkpt lat="55.065685026347637" lon="-1.579993022605777">
        <ele>53.969999999999999</ele>
        <time>2019-09-07T13:57:07Z</time>
      </trkpt>
      <trkpt lat="55.065673040226102" lon="-1.579823037609458">
        <ele>54.450000000000003</ele>
        <time>2019-09-07T13:57:08Z</time>
      </trkpt>
      <trkpt lat="55.065703969448805" lon="-1.579653974622488">
        <ele>54.450000000000003</ele>
        <time>2019-09-07T13:57:09Z</time>
      </trkpt>
      <trkpt lat="55.065784016624093" lon="-1.579509973526001">
        <ele>54.450000000000003</ele>
        <time>2019-09-07T13:57:10Z</time>
      </trkpt>
      <trkpt lat="55.065859034657478" lon="-1.579392040148377">
        <ele>54.450000000000003</ele>
        <time>2019-09-07T13:57:11Z</time>
      </trkpt>
      <trkpt lat="55.065960036590695" lon="-1.579239992424846">
        <ele>54.450000000000003</ele>
        <time>2019-09-07T13:57:12Z</time>
      </trkpt>
      <trkpt lat="55.066024996340275" lon="-1.579085011035204">
        <ele>53.969999999999999</ele>
        <time>2019-09-07T13:57:13Z</time>
      </trkpt>
      <trkpt lat="55.066058021038771" lon="-1.578874960541725">
        <ele>53.969999999999999</ele>
        <time>2019-09-07T13:57:14Z</time>
      </trkpt>
      <trkpt lat="55.066074030473828" lon="-1.578674968332052">
        <ele>53.969999999999999</ele>
        <time>2019-09-07T13:57:15Z</time>
      </trkpt>
      <trkpt lat="55.066050980240107" lon="-1.578486040234566">
        <ele>53.969999999999999</ele>
        <time>2019-09-07T13:57:16Z</time>
      </trkpt>
      <trkpt lat="55.066031031310558" lon="-1.578361988067627">
        <ele>53.969999999999999</ele>
        <time>2019-09-07T13:57:17Z</time>
      </trkpt>
      <trkpt lat="55.0659270118922" lon="-1.578207006677985">
        <ele>53.969999999999999</ele>
        <time>2019-09-07T13:57:18Z</time>
      </trkpt>
      <trkpt lat="55.06584101356566" lon="-1.578083038330078">
        <ele>53.969999999999999</ele>
        <time>2019-09-07T13:57:19Z</time>
      </trkpt>
      <trkpt lat="55.065733976662159" lon="-1.577953035011888">
        <ele>54.450000000000003</ele>
        <time>2019-09-07T13:57:20Z</time>
      </trkpt>
      <trkpt lat="55.065621994435787" lon="-1.577816996723414">
        <ele>54.450000000000003</ele>
        <time>2019-09-07T13:57:21Z</time>
      </trkpt>
      <trkpt lat="55.065109021961689" lon="-1.576947961002588">
        <ele>54.93</ele>
        <time>2019-09-07T13:57:26Z</time>
      </trkpt>
      <trkpt lat="55.065010031685233" lon="-1.57675601541996">
        <ele>54.93</ele>
        <time>2019-09-07T13:57:27Z</time>
      </trkpt>
      <trkpt lat="55.06493803113699" lon="-1.576513024047017">
        <ele>54.93</ele>
        <time>2019-09-07T13:57:28Z</time>
      </trkpt>
      <trkpt lat="55.064278962090611" lon="-1.574416039511561">
        <ele>54.93</ele>
        <time>2019-09-07T13:57:35Z</time>
      </trkpt>
      <trkpt lat="55.063145980238914" lon="-1.571564013138413">
        <ele>55.409999999999997</ele>
        <time>2019-09-07T13:57:43Z</time>
      </trkpt>
      <trkpt lat="55.061411010101438" lon="-1.568435970693827">
        <ele>56.369999999999997</ele>
        <time>2019-09-07T13:57:53Z</time>
      </trkpt>
      <trkpt lat="55.059402035549283" lon="-1.565800029784441">
        <ele>57.340000000000003</ele>
        <time>2019-09-07T13:58:03Z</time>
      </trkpt>
      <trkpt lat="55.056914035230875" lon="-1.562698977068067">
        <ele>52.530000000000001</ele>
        <time>2019-09-07T13:58:15Z</time>
      </trkpt>
      <trkpt lat="55.054332995787263" lon="-1.559487031772733">
        <ele>47.240000000000002</ele>
        <time>2019-09-07T13:58:28Z</time>
      </trkpt>
      <trkpt lat="55.051594963297248" lon="-1.556143993511796">
        <ele>50.130000000000003</ele>
        <time>2019-09-07T13:58:40Z</time>
      </trkpt>
      <trkpt lat="55.049942974001169" lon="-1.554330987855792">
        <ele>54.450000000000003</ele>
        <time>2019-09-07T13:58:47Z</time>
      </trkpt>
      <trkpt lat="55.047930981963873" lon="-1.552806990221143">
        <ele>59.740000000000002</ele>
        <time>2019-09-07T13:58:56Z</time>
      </trkpt>
      <trkpt lat="55.045660994946957" lon="-1.55138298869133">
        <ele>66.469999999999999</ele>
        <time>2019-09-07T13:59:07Z</time>
      </trkpt>
      <trkpt lat="55.043833991512656" lon="-1.549647012725473">
        <ele>67.909999999999997</ele>
        <time>2019-09-07T13:59:16Z</time>
      </trkpt>
      <trkpt lat="55.042083011940122" lon="-1.5473229624331">
        <ele>70.310000000000002</ele>
        <time>2019-09-07T13:59:25Z</time>
      </trkpt>
      <trkpt lat="55.039892988279462" lon="-1.543623022735119">
        <ele>71.269999999999996</ele>
        <time>2019-09-07T13:59:37Z</time>
      </trkpt>
      <trkpt lat="55.038463035598397" lon="-1.540982974693179">
        <ele>71.269999999999996</ele>
        <time>2019-09-07T13:59:45Z</time>
      </trkpt>
      <trkpt lat="55.036756983026862" lon="-1.537230983376503">
        <ele>66.469999999999999</ele>
        <time>2019-09-07T13:59:56Z</time>
      </trkpt>
      <trkpt lat="55.035288976505399" lon="-1.533517967909575">
        <ele>65.510000000000005</ele>
        <time>2019-09-07T14:00:05Z</time>
      </trkpt>
      <trkpt lat="55.033745029941201" lon="-1.529794977977872">
        <ele>65.030000000000001</ele>
        <time>2019-09-07T14:00:15Z</time>
      </trkpt>
      <trkpt lat="55.032053980976343" lon="-1.526726027950645">
        <ele>66.469999999999999</ele>
        <time>2019-09-07T14:00:24Z</time>
      </trkpt>
      <trkpt lat="55.030211973935366" lon="-1.524378005415201">
        <ele>70.790000000000006</ele>
        <time>2019-09-07T14:00:33Z</time>
      </trkpt>
      <trkpt lat="55.027873003855348" lon="-1.522158980369568">
        <ele>74.640000000000001</ele>
        <time>2019-09-07T14:00:44Z</time>
      </trkpt>
      <trkpt lat="55.024897009134293" lon="-1.519394963979721">
        <ele>76.560000000000002</ele>
        <time>2019-09-07T14:00:57Z</time>
      </trkpt>
      <trkpt lat="55.022665997967124" lon="-1.516787018626928">
        <ele>75.599999999999994</ele>
        <time>2019-09-07T14:01:07Z</time>
      </trkpt>
      <trkpt lat="55.02040196210146" lon="-1.51382896117866">
        <ele>74.640000000000001</ele>
        <time>2019-09-07T14:01:18Z</time>
      </trkpt>
      <trkpt lat="55.01812401227653" lon="-1.510735033079982">
        <ele>72.239999999999995</ele>
        <time>2019-09-07T14:01:30Z</time>
      </trkpt>
      <trkpt lat="55.016037002205849" lon="-1.507885018363595">
        <ele>70.310000000000002</ele>
        <time>2019-09-07T14:01:40Z</time>
      </trkpt>
      <trkpt lat="55.014288034290075" lon="-1.505496008321643">
        <ele>68.870000000000005</ele>
        <time>2019-09-07T14:01:48Z</time>
      </trkpt>
      <trkpt lat="55.012779040262103" lon="-1.503333980217576">
        <ele>66.469999999999999</ele>
        <time>2019-09-07T14:01:57Z</time>
      </trkpt>
      <trkpt lat="55.011321008205414" lon="-1.500689992681146">
        <ele>59.259999999999998</ele>
        <time>2019-09-07T14:02:08Z</time>
      </trkpt>
      <trkpt lat="55.009769015014172" lon="-1.498345993459225">
        <ele>46.280000000000001</ele>
        <time>2019-09-07T14:02:20Z</time>
      </trkpt>
      <trkpt lat="55.00974697060883" lon="-1.498132003471255">
        <ele>45.799999999999997</ele>
        <time>2019-09-07T14:02:21Z</time>
      </trkpt>
      <trkpt lat="55.009387973695993" lon="-1.497893035411835">
        <ele>45.32</ele>
        <time>2019-09-07T14:02:22Z</time>
      </trkpt>
      <trkpt lat="55.008910037577152" lon="-1.496908999979496">
        <ele>44.359999999999999</ele>
        <time>2019-09-07T14:02:25Z</time>
      </trkpt>
      <trkpt lat="55.006935009732842" lon="-1.495034974068403">
        <ele>47.719999999999999</ele>
        <time>2019-09-07T14:02:36Z</time>
      </trkpt>
      <trkpt lat="55.005120998248458" lon="-1.492975959554315">
        <ele>46.759999999999998</ele>
        <time>2019-09-07T14:02:46Z</time>
      </trkpt>
      <trkpt lat="55.003532040864229" lon="-1.490703038871288">
        <ele>42.920000000000002</ele>
        <time>2019-09-07T14:02:57Z</time>
      </trkpt>
      <trkpt lat="55.00162398442626" lon="-1.487974980846047">
        <ele>37.630000000000003</ele>
        <time>2019-09-07T14:03:09Z</time>
      </trkpt>
      <trkpt lat="55.000638021156192" lon="-1.486488031223416">
        <ele>35.229999999999997</ele>
        <time>2019-09-07T14:03:17Z</time>
      </trkpt>
      <trkpt lat="55.000220015645027" lon="-1.485900962725282">
        <ele>37.149999999999999</ele>
        <time>2019-09-07T14:03:23Z</time>
      </trkpt>
      <trkpt lat="55.000186990946531" lon="-1.485823011025786">
        <ele>37.149999999999999</ele>
        <time>2019-09-07T14:03:24Z</time>
      </trkpt>
      <trkpt lat="55.00016201287508" lon="-1.485764002427459">
        <ele>37.630000000000003</ele>
        <time>2019-09-07T14:03:25Z</time>
      </trkpt>
      <trkpt lat="55.000080959871411" lon="-1.485571973025799">
        <ele>38.109999999999999</ele>
        <time>2019-09-07T14:03:29Z</time>
      </trkpt>
      <trkpt lat="55.000048018991947" lon="-1.485385978594422">
        <ele>38.109999999999999</ele>
        <time>2019-09-07T14:03:31Z</time>
      </trkpt>
      <trkpt lat="55.000077020376921" lon="-1.485218005254865">
        <ele>38.109999999999999</ele>
        <time>2019-09-07T14:03:32Z</time>
      </trkpt>
      <trkpt lat="55.000104010105133" lon="-1.485061012208462">
        <ele>38.109999999999999</ele>
        <time>2019-09-07T14:03:33Z</time>
      </trkpt>
      <trkpt lat="55.000345995649695" lon="-1.48351295851171">
        <ele>36.189999999999998</ele>
        <time>2019-09-07T14:03:40Z</time>
      </trkpt>
      <trkpt lat="55.000575995072722" lon="-1.482079988345504">
        <ele>34.259999999999998</ele>
        <time>2019-09-07T14:03:47Z</time>
      </trkpt>
      <trkpt lat="55.00061203725636" lon="-1.481924001127482">
        <ele>34.259999999999998</ele>
        <time>2019-09-07T14:03:48Z</time>
      </trkpt>
      <trkpt lat="55.000645983964205" lon="-1.481777988374233">
        <ele>34.259999999999998</ele>
        <time>2019-09-07T14:03:49Z</time>
      </trkpt>
      <trkpt lat="55.000748997554183" lon="-1.481575984507799">
        <ele>34.259999999999998</ele>
        <time>2019-09-07T14:03:51Z</time>
      </trkpt>
      <trkpt lat="55.000774981454015" lon="-1.481438018381596">
        <ele>34.259999999999998</ele>
        <time>2019-09-07T14:03:52Z</time>
      </trkpt>
      <trkpt lat="55.000756960362196" lon="-1.481312960386276">
        <ele>34.259999999999998</ele>
        <time>2019-09-07T14:03:53Z</time>
      </trkpt>
      <trkpt lat="55.000734999775887" lon="-1.481201983988285">
        <ele>34.740000000000002</ele>
        <time>2019-09-07T14:03:54Z</time>
      </trkpt>
      <trkpt lat="55.000665010884404" lon="-1.481130989268422">
        <ele>34.740000000000002</ele>
        <time>2019-09-07T14:03:55Z</time>
      </trkpt>
      <trkpt lat="55.000606002286077" lon="-1.481072986498475">
        <ele>35.710000000000001</ele>
        <time>2019-09-07T14:03:56Z</time>
      </trkpt>
      <trkpt lat="55.00048597343266" lon="-1.481004003435373">
        <ele>36.189999999999998</ele>
        <time>2019-09-07T14:03:57Z</time>
      </trkpt>
      <trkpt lat="54.999486012384295" lon="-1.480102026835084">
        <ele>40.509999999999998</ele>
        <time>2019-09-07T14:04:05Z</time>
      </trkpt>
      <trkpt lat="54.998313970863819" lon="-1.479684021323919">
        <ele>41.469999999999999</ele>
        <time>2019-09-07T14:04:12Z</time>
      </trkpt>
      <trkpt lat="54.996985020115972" lon="-1.480014016851783">
        <ele>37.630000000000003</ele>
        <time>2019-09-07T14:04:20Z</time>
      </trkpt>
      <trkpt lat="54.996121013537049" lon="-1.480472004041076">
        <ele>33.780000000000001</ele>
        <time>2019-09-07T14:04:26Z</time>
      </trkpt>
      <trkpt lat="54.995998973026872" lon="-1.480472004041076">
        <ele>33.299999999999997</ele>
        <time>2019-09-07T14:04:27Z</time>
      </trkpt>
      <trkpt lat="54.995905011892319" lon="-1.480440990999341">
        <ele>33.299999999999997</ele>
        <time>2019-09-07T14:04:28Z</time>
      </trkpt>
      <trkpt lat="54.995842985808849" lon="-1.480412995442748">
        <ele>32.82</ele>
        <time>2019-09-07T14:04:29Z</time>
      </trkpt>
      <trkpt lat="54.995799986645579" lon="-1.480392040684819">
        <ele>32.340000000000003</ele>
        <time>2019-09-07T14:04:30Z</time>
      </trkpt>
      <trkpt lat="54.995762016624212" lon="-1.480375025421381">
        <ele>32.340000000000003</ele>
        <time>2019-09-07T14:04:31Z</time>
      </trkpt>
      <trkpt lat="54.995728991925716" lon="-1.480359015986323">
        <ele>31.859999999999999</ele>
        <time>2019-09-07T14:04:32Z</time>
      </trkpt>
      <trkpt lat="54.995577028021216" lon="-1.480146031826735">
        <ele>31.379999999999999</ele>
        <time>2019-09-07T14:04:35Z</time>
      </trkpt>
      <trkpt lat="54.995519025251269" lon="-1.479994989931583">
        <ele>31.379999999999999</ele>
        <time>2019-09-07T14:04:36Z</time>
      </trkpt>
      <trkpt lat="54.995447024703026" lon="-1.479804972186685">
        <ele>31.379999999999999</ele>
        <time>2019-09-07T14:04:37Z</time>
      </trkpt>
      <trkpt lat="54.995363960042596" lon="-1.479588970541954">
        <ele>31.859999999999999</ele>
        <time>2019-09-07T14:04:38Z</time>
      </trkpt>
      <trkpt lat="54.995326995849609" lon="-1.479309014976025">
        <ele>31.859999999999999</ele>
        <time>2019-09-07T14:04:39Z</time>
      </trkpt>
      <trkpt lat="54.995301011949778" lon="-1.47902000695467">
        <ele>31.859999999999999</ele>
        <time>2019-09-07T14:04:40Z</time>
      </trkpt>
      <trkpt lat="54.995288019999862" lon="-1.478729993104935">
        <ele>31.859999999999999</ele>
        <time>2019-09-07T14:04:41Z</time>
      </trkpt>
      <trkpt lat="54.995326995849609" lon="-1.475899005308747">
        <ele>31.859999999999999</ele>
        <time>2019-09-07T14:04:52Z</time>
      </trkpt>
      <trkpt lat="54.995358008891344" lon="-1.47463702596724">
        <ele>30.420000000000002</ele>
        <time>2019-09-07T14:05:00Z</time>
      </trkpt>
      <trkpt lat="54.995364965870976" lon="-1.474326979368925">
        <ele>29.460000000000001</ele>
        <time>2019-09-07T14:05:04Z</time>
      </trkpt>
      <trkpt lat="54.99537100084126" lon="-1.474098991602659">
        <ele>29.460000000000001</ele>
        <time>2019-09-07T14:05:05Z</time>
      </trkpt>
      <trkpt lat="54.995379969477654" lon="-1.474064039066434">
        <ele>28.98</ele>
        <time>2019-09-07T14:05:06Z</time>
      </trkpt>
      <trkpt lat="54.995416011661291" lon="-1.473932024091482">
        <ele>28.98</ele>
        <time>2019-09-07T14:05:07Z</time>
      </trkpt>
      <trkpt lat="54.995435038581491" lon="-1.473791962489486">
        <ele>28.98</ele>
        <time>2019-09-07T14:05:08Z</time>
      </trkpt>
      <trkpt lat="54.995450964197516" lon="-1.473589036613703">
        <ele>28.5</ele>
        <time>2019-09-07T14:05:09Z</time>
      </trkpt>
      <trkpt lat="54.995486000552773" lon="-1.473411004990339">
        <ele>28.5</ele>
        <time>2019-09-07T14:05:10Z</time>
      </trkpt>
      <trkpt lat="54.995521958917379" lon="-1.473226016387343">
        <ele>28.5</ele>
        <time>2019-09-07T14:05:11Z</time>
      </trkpt>
      <trkpt lat="54.995848014950752" lon="-1.471623983234167">
        <ele>28.5</ele>
        <time>2019-09-07T14:05:17Z</time>
      </trkpt>
      <trkpt lat="54.996464001014829" lon="-1.469611991196871">
        <ele>29.460000000000001</ele>
        <time>2019-09-07T14:05:25Z</time>
      </trkpt>
      <trkpt lat="54.996716966852546" lon="-1.46844900213182">
        <ele>29.460000000000001</ele>
        <time>2019-09-07T14:05:31Z</time>
      </trkpt>
      <trkpt lat="54.996740017086267" lon="-1.468266025185585">
        <ele>29.940000000000001</ele>
        <time>2019-09-07T14:05:32Z</time>
      </trkpt>
      <trkpt lat="54.996782010421157" lon="-1.467923037707806">
        <ele>29.940000000000001</ele>
        <time>2019-09-07T14:05:34Z</time>
      </trkpt>
      <trkpt lat="54.996802965179086" lon="-1.467749029397965">
        <ele>29.940000000000001</ele>
        <time>2019-09-07T14:05:35Z</time>
      </trkpt>
      <trkpt lat="54.996929029002786" lon="-1.467400006949902">
        <ele>29.940000000000001</ele>
        <time>2019-09-07T14:05:37Z</time>
      </trkpt>
      <trkpt lat="54.996904972940683" lon="-1.467263968661428">
        <ele>29.940000000000001</ele>
        <time>2019-09-07T14:05:38Z</time>
      </trkpt>
      <trkpt lat="54.996877983212471" lon="-1.467115022242069">
        <ele>29.940000000000001</ele>
        <time>2019-09-07T14:05:39Z</time>
      </trkpt>
      <trkpt lat="54.996718978509307" lon="-1.466584028676152">
        <ele>28.98</ele>
        <time>2019-09-07T14:05:42Z</time>
      </trkpt>
      <trkpt lat="54.996327040717006" lon="-1.464771023020148">
        <ele>22.73</ele>
        <time>2019-09-07T14:05:51Z</time>
      </trkpt>
      <trkpt lat="54.996250011026859" lon="-1.464347988367081">
        <ele>20.809999999999999</ele>
        <time>2019-09-07T14:05:54Z</time>
      </trkpt>
      <trkpt lat="54.996216986328363" lon="-1.464140033349395">
        <ele>20.32</ele>
        <time>2019-09-07T14:05:56Z</time>
      </trkpt>
      <trkpt lat="54.996201982721686" lon="-1.464048000052571">
        <ele>19.84</ele>
        <time>2019-09-07T14:05:57Z</time>
      </trkpt>
      <trkpt lat="54.996185973286629" lon="-1.463812971487641">
        <ele>19.359999999999999</ele>
        <time>2019-09-07T14:05:59Z</time>
      </trkpt>
      <trkpt lat="54.996172981336713" lon="-1.463694032281637">
        <ele>18.879999999999999</ele>
        <time>2019-09-07T14:06:00Z</time>
      </trkpt>
      <trkpt lat="54.99610198661685" lon="-1.463589007034898">
        <ele>19.359999999999999</ele>
        <time>2019-09-07T14:06:01Z</time>
      </trkpt>
      <trkpt lat="54.996050018817186" lon="-1.46342103369534">
        <ele>19.359999999999999</ele>
        <time>2019-09-07T14:06:02Z</time>
      </trkpt>
      <trkpt lat="54.995999978855252" lon="-1.463259011507034">
        <ele>19.359999999999999</ele>
        <time>2019-09-07T14:06:05Z</time>
      </trkpt>
      <trkpt lat="54.995419029146433" lon="-1.461223969236016">
        <ele>17.440000000000001</ele>
        <time>2019-09-07T14:06:13Z</time>
      </trkpt>
      <trkpt lat="54.995358008891344" lon="-1.46082297898829">
        <ele>17.440000000000001</ele>
        <time>2019-09-07T14:06:15Z</time>
      </trkpt>
      <trkpt lat="54.995334958657622" lon="-1.460666991770268">
        <ele>17.440000000000001</ele>
        <time>2019-09-07T14:06:16Z</time>
      </trkpt>
      <trkpt lat="54.995315009728074" lon="-1.460529025644064">
        <ele>16.960000000000001</ele>
        <time>2019-09-07T14:06:17Z</time>
      </trkpt>
      <trkpt lat="54.99528500251472" lon="-1.460322998464108">
        <ele>16.960000000000001</ele>
        <time>2019-09-07T14:06:18Z</time>
      </trkpt>
      <trkpt lat="54.995291959494352" lon="-1.460257032886148">
        <ele>16.960000000000001</ele>
        <time>2019-09-07T14:06:19Z</time>
      </trkpt>
      <trkpt lat="54.9953050352633" lon="-1.460126023739576">
        <ele>16.960000000000001</ele>
        <time>2019-09-07T14:06:20Z</time>
      </trkpt>
      <trkpt lat="54.995263963937759" lon="-1.460018986836076">
        <ele>16.48</ele>
        <time>2019-09-07T14:06:21Z</time>
      </trkpt>
      <trkpt lat="54.995210990309715" lon="-1.459941035136581">
        <ele>16</ele>
        <time>2019-09-07T14:06:22Z</time>
      </trkpt>
      <trkpt lat="54.995133960619569" lon="-1.45989703014493">
        <ele>16</ele>
        <time>2019-09-07T14:06:23Z</time>
      </trkpt>
      <trkpt lat="54.995064977556467" lon="-1.459903987124562">
        <ele>16</ele>
        <time>2019-09-07T14:06:24Z</time>
      </trkpt>
      <trkpt lat="54.994934974238276" lon="-1.460002977401018">
        <ele>16</ele>
        <time>2019-09-07T14:06:25Z</time>
      </trkpt>
      <trkpt lat="54.994864985346794" lon="-1.459953021258116">
        <ele>15.52</ele>
        <time>2019-09-07T14:06:26Z</time>
      </trkpt>
      <trkpt lat="54.994801031425595" lon="-1.459905998781323">
        <ele>15.52</ele>
        <time>2019-09-07T14:06:27Z</time>
      </trkpt>
      <trkpt lat="54.994735987856984" lon="-1.459858976304531">
        <ele>15.52</ele>
        <time>2019-09-07T14:06:28Z</time>
      </trkpt>
      <trkpt lat="54.994671028107405" lon="-1.459812037646771">
        <ele>15.039999999999999</ele>
        <time>2019-09-07T14:06:29Z</time>
      </trkpt>
      <trkpt lat="54.99457698315382" lon="-1.459743976593018">
        <ele>15.039999999999999</ele>
        <time>2019-09-07T14:06:30Z</time>
      </trkpt>
      <trkpt lat="54.994530966505408" lon="-1.459673987701535">
        <ele>15.039999999999999</ele>
        <time>2019-09-07T14:06:31Z</time>
      </trkpt>
      <trkpt lat="54.994469024240971" lon="-1.459578014910221">
        <ele>15.039999999999999</ele>
        <time>2019-09-07T14:06:32Z</time>
      </trkpt>
      <trkpt lat="54.994303984567523" lon="-1.459324965253472">
        <ele>15.52</ele>
        <time>2019-09-07T14:06:35Z</time>
      </trkpt>
      <trkpt lat="54.994084965437651" lon="-1.458744015544653">
        <ele>16</ele>
        <time>2019-09-07T14:06:41Z</time>
      </trkpt>
      <trkpt lat="54.993885979056358" lon="-1.458026021718979">
        <ele>16.48</ele>
        <time>2019-09-07T14:06:48Z</time>
      </trkpt>
      <trkpt lat="54.993859995156527" lon="-1.457908004522324">
        <ele>16.48</ele>
        <time>2019-09-07T14:06:49Z</time>
      </trkpt>
      <trkpt lat="54.993678024038672" lon="-1.456528007984161">
        <ele>16.960000000000001</ele>
        <time>2019-09-07T14:07:00Z</time>
      </trkpt>
      <trkpt lat="54.993557995185256" lon="-1.455575991421938">
        <ele>16.960000000000001</ele>
        <time>2019-09-07T14:07:10Z</time>
      </trkpt>
      <trkpt lat="54.993469985201955" lon="-1.455162009224296">
        <ele>18.879999999999999</ele>
        <time>2019-09-07T14:07:20Z</time>
      </trkpt>
      <trkpt lat="54.993427991867065" lon="-1.454963022843003">
        <ele>18.399999999999999</ele>
        <time>2019-09-07T14:07:23Z</time>
      </trkpt>
      <trkpt lat="54.993684981018305" lon="-1.454621041193605">
        <ele>18.399999999999999</ele>
        <time>2019-09-07T14:07:25Z</time>
      </trkpt>
      <trkpt lat="54.993670983240008" lon="-1.454559015110135">
        <ele>17.920000000000002</ele>
        <time>2019-09-07T14:07:26Z</time>
      </trkpt>
      <trkpt lat="54.993654973804951" lon="-1.454488020390272">
        <ele>17.920000000000002</ele>
        <time>2019-09-07T14:07:27Z</time>
      </trkpt>
      <trkpt lat="54.993638964369893" lon="-1.454415014013648">
        <ele>17.920000000000002</ele>
        <time>2019-09-07T14:07:28Z</time>
      </trkpt>
      <trkpt lat="54.993623038753867" lon="-1.454344019293785">
        <ele>17.440000000000001</ele>
        <time>2019-09-07T14:07:29Z</time>
      </trkpt>
      <trkpt lat="54.993609040975571" lon="-1.454278975725174">
        <ele>16.960000000000001</ele>
        <time>2019-09-07T14:07:30Z</time>
      </trkpt>
      <trkpt lat="54.993594959378242" lon="-1.454217033460736">
        <ele>16.48</ele>
        <time>2019-09-07T14:07:31Z</time>
      </trkpt>
      <trkpt lat="54.993582973256707" lon="-1.45416297018528">
        <ele>16.48</ele>
        <time>2019-09-07T14:07:32Z</time>
      </trkpt>
      <trkpt lat="54.993571992963552" lon="-1.454115025699139">
        <ele>16</ele>
        <time>2019-09-07T14:07:33Z</time>
      </trkpt>
      <trkpt lat="54.993562018498778" lon="-1.454069009050727">
        <ele>16</ele>
        <time>2019-09-07T14:07:34Z</time>
      </trkpt>
      <trkpt lat="54.993532011285424" lon="-1.453933976590633">
        <ele>14.56</ele>
        <time>2019-09-07T14:07:44Z</time>
      </trkpt>
      <trkpt lat="54.993532011285424" lon="-1.453933976590633">
        <ele>14.08</ele>
        <time>2019-09-07T14:08:32Z</time>
      </trkpt>
      <trkpt lat="54.99352497048676" lon="-1.453903969377279">
        <ele>14.08</ele>
        <time>2019-09-07T14:09:00Z</time>
      </trkpt>
      <trkpt lat="54.99352497048676" lon="-1.453903969377279">
        <ele>14.08</ele>
        <time>2019-09-07T14:09:28Z</time>
      </trkpt>
      <trkpt lat="54.99352497048676" lon="-1.453903969377279">
        <ele>13.6</ele>
        <time>2019-09-07T14:10:08Z</time>
      </trkpt>
      <trkpt lat="54.99352497048676" lon="-1.453903969377279">
        <ele>13.6</ele>
        <time>2019-09-07T14:10:42Z</time>
      </trkpt>
      <trkpt lat="54.99352497048676" lon="-1.453903969377279">
        <ele>13.119999999999999</ele>
        <time>2019-09-07T14:11:08Z</time>
      </trkpt>
      <trkpt lat="54.99352497048676" lon="-1.453903969377279">
        <ele>12.630000000000001</ele>
        <time>2019-09-07T14:11:38Z</time>
      </trkpt>
      <trkpt lat="54.99352497048676" lon="-1.453903969377279">
        <ele>12.630000000000001</ele>
        <time>2019-09-07T14:12:09Z</time>
      </trkpt>
      <trkpt lat="54.99352497048676" lon="-1.453903969377279">
        <ele>12.630000000000001</ele>
        <time>2019-09-07T14:12:41Z</time>
      </trkpt>
      <trkpt lat="54.99352497048676" lon="-1.453903969377279">
        <ele>12.630000000000001</ele>
        <time>2019-09-07T14:13:33Z</time>
      </trkpt>
      <trkpt lat="54.99352497048676" lon="-1.453903969377279">
        <ele>12.15</ele>
        <time>2019-09-07T14:14:20Z</time>
      </trkpt>
      <trkpt lat="54.99352497048676" lon="-1.453903969377279">
        <ele>11.67</ele>
        <time>2019-09-07T14:14:36Z</time>
      </trkpt>
      <trkpt lat="54.993378035724163" lon="-1.453274991363287">
        <ele>10.710000000000001</ele>
        <time>2019-09-07T14:14:44Z</time>
      </trkpt>
      <trkpt lat="54.993197992444038" lon="-1.452755983918905">
        <ele>9.27</ele>
        <time>2019-09-07T14:14:54Z</time>
      </trkpt>
      <trkpt lat="54.993197992444038" lon="-1.452755983918905">
        <ele>9.27</ele>
        <time>2019-09-07T14:15:23Z</time>
      </trkpt>
      <trkpt lat="54.993197992444038" lon="-1.452755983918905">
        <ele>9.27</ele>
        <time>2019-09-07T14:16:14Z</time>
      </trkpt>
      <trkpt lat="54.993131021037698" lon="-1.452560015022755">
        <ele>8.789999999999999</ele>
        <time>2019-09-07T14:16:53Z</time>
      </trkpt>
      <trkpt lat="54.992955001071095" lon="-1.452053999528289">
        <ele>5.91</ele>
        <time>2019-09-07T14:17:05Z</time>
      </trkpt>
      <trkpt lat="54.992924993857741" lon="-1.451968001201749">
        <ele>4.94</ele>
        <time>2019-09-07T14:17:21Z</time>
      </trkpt>
      <trkpt lat="54.992924993857741" lon="-1.451968001201749">
        <ele>4.94</ele>
        <time>2019-09-07T14:17:47Z</time>
      </trkpt>
      <trkpt lat="54.992924993857741" lon="-1.451968001201749">
        <ele>4.94</ele>
        <time>2019-09-07T14:18:28Z</time>
      </trkpt>
      <trkpt lat="54.992924993857741" lon="-1.451968001201749">
        <ele>4.94</ele>
        <time>2019-09-07T14:19:01Z</time>
      </trkpt>
      <trkpt lat="54.992883000522852" lon="-1.451845960691571">
        <ele>4.94</ele>
        <time>2019-09-07T14:19:03Z</time>
      </trkpt>
      <trkpt lat="54.992838995531201" lon="-1.451718974858522">
        <ele>4.46</ele>
        <time>2019-09-07T14:19:04Z</time>
      </trkpt>
      <trkpt lat="54.992838995531201" lon="-1.451718974858522">
        <ele>3.98</ele>
        <time>2019-09-07T14:19:05Z</time>
      </trkpt>
      <trkpt lat="54.992760960012674" lon="-1.450858991593123">
        <ele>3.98</ele>
        <time>2019-09-07T14:19:17Z</time>
      </trkpt>
      <trkpt lat="54.992733970284462" lon="-1.450555985793471">
        <ele>3.02</ele>
        <time>2019-09-07T14:19:24Z</time>
      </trkpt>
      <trkpt lat="54.992733970284462" lon="-1.450555985793471">
        <ele>3.02</ele>
        <time>2019-09-07T14:19:39Z</time>
      </trkpt>
      <trkpt lat="54.99272801913321" lon="-1.450493037700653">
        <ele>3.5</ele>
        <time>2019-09-07T14:20:14Z</time>
      </trkpt>
      <trkpt lat="54.992722989991307" lon="-1.450432017445564">
        <ele>3.5</ele>
        <time>2019-09-07T14:20:15Z</time>
      </trkpt>
      <trkpt lat="54.992633974179626" lon="-1.449949974194169">
        <ele>1.58</ele>
        <time>2019-09-07T14:20:24Z</time>
      </trkpt>
      <trkpt lat="54.992617964744568" lon="-1.449921978637576">
        <ele>0.62</ele>
        <time>2019-09-07T14:20:25Z</time>
      </trkpt>
      <trkpt lat="54.992602961137891" lon="-1.449894988909364">
        <ele>-0.82</ele>
        <time>2019-09-07T14:20:26Z</time>
      </trkpt>
      <trkpt lat="54.992590975016356" lon="-1.449894988909364">
        <ele>-1.79</ele>
        <time>2019-09-07T14:20:27Z</time>
      </trkpt>
      <trkpt lat="54.992568008601665" lon="-1.449894988909364">
        <ele>-3.23</ele>
        <time>2019-09-07T14:20:28Z</time>
      </trkpt>
      <trkpt lat="54.992189984768629" lon="-1.449894988909364">
        <ele>-11.880000000000001</ele>
        <time>2019-09-07T14:20:41Z</time>
      </trkpt>
      <trkpt lat="54.992152014747262" lon="-1.449894988909364">
        <ele>-11.880000000000001</ele>
        <time>2019-09-07T14:20:49Z</time>
      </trkpt>
      <trkpt lat="54.99210599809885" lon="-1.449872022494674">
        <ele>-11.880000000000001</ele>
        <time>2019-09-07T14:20:50Z</time>
      </trkpt>
      <trkpt lat="54.992072973400354" lon="-1.449856013059616">
        <ele>-11.880000000000001</ele>
        <time>2019-09-07T14:20:51Z</time>
      </trkpt>
      <trkpt lat="54.99195302836597" lon="-1.449794992804527">
        <ele>-11.4</ele>
        <time>2019-09-07T14:20:55Z</time>
      </trkpt>
      <trkpt lat="54.991930983960629" lon="-1.449785018339753">
        <ele>-11.4</ele>
        <time>2019-09-07T14:20:56Z</time>
      </trkpt>
      <trkpt lat="54.991912040859461" lon="-1.449774960055947">
        <ele>-11.880000000000001</ele>
        <time>2019-09-07T14:20:57Z</time>
      </trkpt>
      <trkpt lat="54.991899970918894" lon="-1.449769008904696">
        <ele>-12.359999999999999</ele>
        <time>2019-09-07T14:20:58Z</time>
      </trkpt>
      <trkpt lat="54.991899970918894" lon="-1.449769008904696">
        <ele>-17.170000000000002</ele>
        <time>2019-09-07T14:21:10Z</time>
      </trkpt>
      <trkpt lat="54.991851020604372" lon="-1.449745036661625">
        <ele>-22.93</ele>
        <time>2019-09-07T14:21:22Z</time>
      </trkpt>
      <trkpt lat="54.991851020604372" lon="-1.449745036661625">
        <ele>-23.899999999999999</ele>
        <time>2019-09-07T14:21:23Z</time>
      </trkpt>
      <trkpt lat="54.991338970139623" lon="-1.450302014127374">
        <ele>-41.200000000000003</ele>
        <time>2019-09-07T14:21:40Z</time>
      </trkpt>
      <trkpt lat="54.991226987913251" lon="-1.450304025784135">
        <ele>-45.039999999999999</ele>
        <time>2019-09-07T14:22:00Z</time>
      </trkpt>
      <trkpt lat="54.991330001503229" lon="-1.449926001951098">
        <ele>-47.450000000000003</ele>
        <time>2019-09-07T14:22:58Z</time>
      </trkpt>
      <trkpt lat="54.991318015381694" lon="-1.449604975059629">
        <ele>-47.93</ele>
        <time>2019-09-07T14:23:15Z</time>
      </trkpt>
      <trkpt lat="54.991362020373344" lon="-1.449624001979828">
        <ele>-47.93</ele>
        <time>2019-09-07T14:23:19Z</time>
      </trkpt>
    </trkseg>
  </trk>

</gpx>